<?xml version="1.0" encoding="UTF-8"?>
<gpx
  version="1.0"
  creator="GPSBabel - http://www.gpsbabel.org"
  xmlns:xsi="http://www.w3.org/2001/XMLSchema-instance"
  xmlns="http://www.topografix.com/GPX/1/0"
  xsi:schemaLocation="http://www.topografix.com/GPX/1/1 http://www.topografix.com/GPX/1/1/gpx.xsd">
<time>2012-04-03T12:29:32Z</time>
<bounds minlat="39.658560000" minlon="-0.421121000" maxlat="39.723465000" maxlon="-0.326968000"/>
<trk>
  <name>2012-02-26-01</name>
<trkseg>
<trkpt lat="39.715781000" lon="-0.349639000">
  <ele>104.100000</ele>
  <time>2012-02-26T07:11:45Z</time>
  <sat>8</sat>
</trkpt>
<trkpt lat="39.715787000" lon="-0.349526000">
  <ele>112.600000</ele>
  <time>2012-02-26T07:12:00Z</time>
  <sat>10</sat>
</trkpt>
<trkpt lat="39.715779000" lon="-0.349522000">
  <ele>111.700000</ele>
  <time>2012-02-26T07:12:01Z</time>
  <sat>10</sat>
</trkpt>
<trkpt lat="39.715769000" lon="-0.349518000">
  <ele>111.500000</ele>
  <time>2012-02-26T07:12:02Z</time>
  <sat>10</sat>
</trkpt>
<trkpt lat="39.715751000" lon="-0.349516000">
  <ele>111.800000</ele>
  <time>2012-02-26T07:12:03Z</time>
  <sat>10</sat>
</trkpt>
<trkpt lat="39.713990000" lon="-0.349471000">
  <ele>112.000000</ele>
  <time>2012-02-26T07:12:49Z</time>
  <sat>7</sat>
</trkpt>
<trkpt lat="39.713942000" lon="-0.349455000">
  <ele>112.100000</ele>
  <time>2012-02-26T07:12:50Z</time>
  <sat>7</sat>
</trkpt>
<trkpt lat="39.713847000" lon="-0.349412000">
  <ele>111.500000</ele>
  <time>2012-02-26T07:12:52Z</time>
  <sat>7</sat>
</trkpt>
<trkpt lat="39.713806000" lon="-0.349373000">
  <ele>111.900000</ele>
  <time>2012-02-26T07:12:53Z</time>
  <sat>10</sat>
</trkpt>
<trkpt lat="39.713759000" lon="-0.349343000">
  <ele>112.500000</ele>
  <time>2012-02-26T07:12:54Z</time>
  <sat>10</sat>
</trkpt>
<trkpt lat="39.713171000" lon="-0.348972000">
  <ele>114.900000</ele>
  <time>2012-02-26T07:13:07Z</time>
  <sat>10</sat>
</trkpt>
<trkpt lat="39.713116000" lon="-0.348974000">
  <ele>115.100000</ele>
  <time>2012-02-26T07:13:08Z</time>
  <sat>10</sat>
</trkpt>
<trkpt lat="39.713025000" lon="-0.348945000">
  <ele>115.100000</ele>
  <time>2012-02-26T07:13:10Z</time>
  <sat>10</sat>
</trkpt>
<trkpt lat="39.712941000" lon="-0.348881000">
  <ele>115.300000</ele>
  <time>2012-02-26T07:13:12Z</time>
  <sat>8</sat>
</trkpt>
<trkpt lat="39.712874000" lon="-0.348854000">
  <ele>115.400000</ele>
  <time>2012-02-26T07:13:13Z</time>
  <sat>9</sat>
</trkpt>
<trkpt lat="39.712782000" lon="-0.348783000">
  <ele>115.300000</ele>
  <time>2012-02-26T07:13:15Z</time>
  <sat>9</sat>
</trkpt>
<trkpt lat="39.712467000" lon="-0.348597000">
  <ele>114.600000</ele>
  <time>2012-02-26T07:13:22Z</time>
  <sat>9</sat>
</trkpt>
<trkpt lat="39.712422000" lon="-0.348622000">
  <ele>114.500000</ele>
  <time>2012-02-26T07:13:23Z</time>
  <sat>9</sat>
</trkpt>
<trkpt lat="39.712384000" lon="-0.348685000">
  <ele>112.900000</ele>
  <time>2012-02-26T07:13:24Z</time>
  <sat>9</sat>
</trkpt>
<trkpt lat="39.712348000" lon="-0.348735000">
  <ele>113.300000</ele>
  <time>2012-02-26T07:13:25Z</time>
  <sat>10</sat>
</trkpt>
<trkpt lat="39.712198000" lon="-0.348897000">
  <ele>112.500000</ele>
  <time>2012-02-26T07:13:29Z</time>
  <sat>10</sat>
</trkpt>
<trkpt lat="39.712155000" lon="-0.348895000">
  <ele>112.100000</ele>
  <time>2012-02-26T07:13:30Z</time>
  <sat>10</sat>
</trkpt>
<trkpt lat="39.712114000" lon="-0.348883000">
  <ele>112.000000</ele>
  <time>2012-02-26T07:13:31Z</time>
  <sat>10</sat>
</trkpt>
<trkpt lat="39.711844000" lon="-0.348728000">
  <ele>113.400000</ele>
  <time>2012-02-26T07:13:36Z</time>
  <sat>10</sat>
</trkpt>
<trkpt lat="39.711790000" lon="-0.348684000">
  <ele>113.500000</ele>
  <time>2012-02-26T07:13:37Z</time>
  <sat>10</sat>
</trkpt>
<trkpt lat="39.711738000" lon="-0.348630000">
  <ele>114.000000</ele>
  <time>2012-02-26T07:13:38Z</time>
  <sat>10</sat>
</trkpt>
<trkpt lat="39.711571000" lon="-0.348433000">
  <ele>116.600000</ele>
  <time>2012-02-26T07:13:42Z</time>
  <sat>10</sat>
</trkpt>
<trkpt lat="39.711538000" lon="-0.348385000">
  <ele>117.100000</ele>
  <time>2012-02-26T07:13:43Z</time>
  <sat>10</sat>
</trkpt>
<trkpt lat="39.711235000" lon="-0.348050000">
  <ele>116.500000</ele>
  <time>2012-02-26T07:13:50Z</time>
  <sat>10</sat>
</trkpt>
<trkpt lat="39.711174000" lon="-0.348030000">
  <ele>116.500000</ele>
  <time>2012-02-26T07:13:51Z</time>
  <sat>10</sat>
</trkpt>
<trkpt lat="39.711111000" lon="-0.348046000">
  <ele>116.400000</ele>
  <time>2012-02-26T07:13:52Z</time>
  <sat>10</sat>
</trkpt>
<trkpt lat="39.711037000" lon="-0.348036000">
  <ele>116.100000</ele>
  <time>2012-02-26T07:13:53Z</time>
  <sat>10</sat>
</trkpt>
<trkpt lat="39.710520000" lon="-0.348048000">
  <ele>114.600000</ele>
  <time>2012-02-26T07:14:01Z</time>
  <sat>10</sat>
</trkpt>
<trkpt lat="39.709853000" lon="-0.348150000">
  <ele>112.000000</ele>
  <time>2012-02-26T07:14:13Z</time>
  <sat>9</sat>
</trkpt>
<trkpt lat="39.709815000" lon="-0.348177000">
  <ele>111.000000</ele>
  <time>2012-02-26T07:14:14Z</time>
  <sat>9</sat>
</trkpt>
<trkpt lat="39.709736000" lon="-0.348222000">
  <ele>109.100000</ele>
  <time>2012-02-26T07:14:16Z</time>
  <sat>9</sat>
</trkpt>
<trkpt lat="39.709697000" lon="-0.348227000">
  <ele>108.500000</ele>
  <time>2012-02-26T07:14:17Z</time>
  <sat>9</sat>
</trkpt>
<trkpt lat="39.709654000" lon="-0.348224000">
  <ele>107.500000</ele>
  <time>2012-02-26T07:14:18Z</time>
  <sat>9</sat>
</trkpt>
<trkpt lat="39.709604000" lon="-0.348210000">
  <ele>106.400000</ele>
  <time>2012-02-26T07:14:19Z</time>
  <sat>9</sat>
</trkpt>
<trkpt lat="39.709486000" lon="-0.348154000">
  <ele>105.900000</ele>
  <time>2012-02-26T07:14:21Z</time>
  <sat>9</sat>
</trkpt>
<trkpt lat="39.709421000" lon="-0.348096000">
  <ele>105.000000</ele>
  <time>2012-02-26T07:14:22Z</time>
  <sat>9</sat>
</trkpt>
<trkpt lat="39.709072000" lon="-0.347772000">
  <ele>103.000000</ele>
  <time>2012-02-26T07:14:29Z</time>
  <sat>10</sat>
</trkpt>
<trkpt lat="39.709045000" lon="-0.347756000">
  <ele>103.600000</ele>
  <time>2012-02-26T07:14:30Z</time>
  <sat>10</sat>
</trkpt>
<trkpt lat="39.709021000" lon="-0.347724000">
  <ele>103.300000</ele>
  <time>2012-02-26T07:14:32Z</time>
  <sat>10</sat>
</trkpt>
<trkpt lat="39.708907000" lon="-0.347586000">
  <ele>100.000000</ele>
  <time>2012-02-26T07:14:37Z</time>
  <sat>10</sat>
</trkpt>
<trkpt lat="39.708884000" lon="-0.347554000">
  <ele>99.600000</ele>
  <time>2012-02-26T07:14:38Z</time>
  <sat>10</sat>
</trkpt>
<trkpt lat="39.708818000" lon="-0.347446000">
  <ele>98.300000</ele>
  <time>2012-02-26T07:14:42Z</time>
  <sat>10</sat>
</trkpt>
<trkpt lat="39.708815000" lon="-0.347416000">
  <ele>97.100000</ele>
  <time>2012-02-26T07:14:43Z</time>
  <sat>10</sat>
</trkpt>
<trkpt lat="39.708802000" lon="-0.347390000">
  <ele>96.500000</ele>
  <time>2012-02-26T07:14:44Z</time>
  <sat>10</sat>
</trkpt>
<trkpt lat="39.708778000" lon="-0.347356000">
  <ele>96.300000</ele>
  <time>2012-02-26T07:14:45Z</time>
  <sat>10</sat>
</trkpt>
<trkpt lat="39.708729000" lon="-0.347306000">
  <ele>96.500000</ele>
  <time>2012-02-26T07:14:47Z</time>
  <sat>9</sat>
</trkpt>
<trkpt lat="39.708705000" lon="-0.347299000">
  <ele>96.400000</ele>
  <time>2012-02-26T07:14:48Z</time>
  <sat>9</sat>
</trkpt>
<trkpt lat="39.708678000" lon="-0.347310000">
  <ele>95.500000</ele>
  <time>2012-02-26T07:14:49Z</time>
  <sat>9</sat>
</trkpt>
<trkpt lat="39.708653000" lon="-0.347311000">
  <ele>95.400000</ele>
  <time>2012-02-26T07:14:50Z</time>
  <sat>9</sat>
</trkpt>
<trkpt lat="39.708492000" lon="-0.347311000">
  <ele>94.500000</ele>
  <time>2012-02-26T07:14:55Z</time>
  <sat>10</sat>
</trkpt>
<trkpt lat="39.708453000" lon="-0.347305000">
  <ele>94.800000</ele>
  <time>2012-02-26T07:14:56Z</time>
  <sat>10</sat>
</trkpt>
<trkpt lat="39.708183000" lon="-0.347232000">
  <ele>94.400000</ele>
  <time>2012-02-26T07:15:03Z</time>
  <sat>10</sat>
</trkpt>
<trkpt lat="39.708144000" lon="-0.347211000">
  <ele>94.300000</ele>
  <time>2012-02-26T07:15:04Z</time>
  <sat>10</sat>
</trkpt>
<trkpt lat="39.707823000" lon="-0.347024000">
  <ele>93.600000</ele>
  <time>2012-02-26T07:15:12Z</time>
  <sat>7</sat>
</trkpt>
<trkpt lat="39.707780000" lon="-0.347011000">
  <ele>93.600000</ele>
  <time>2012-02-26T07:15:13Z</time>
  <sat>8</sat>
</trkpt>
<trkpt lat="39.707429000" lon="-0.346957000">
  <ele>92.900000</ele>
  <time>2012-02-26T07:15:21Z</time>
  <sat>6</sat>
</trkpt>
<trkpt lat="39.707381000" lon="-0.346954000">
  <ele>92.600000</ele>
  <time>2012-02-26T07:15:22Z</time>
  <sat>6</sat>
</trkpt>
<trkpt lat="39.706217000" lon="-0.346688000">
  <ele>94.000000</ele>
  <time>2012-02-26T07:15:50Z</time>
  <sat>10</sat>
</trkpt>
<trkpt lat="39.705075000" lon="-0.346292000">
  <ele>93.100000</ele>
  <time>2012-02-26T07:16:16Z</time>
  <sat>7</sat>
</trkpt>
<trkpt lat="39.704731000" lon="-0.346150000">
  <ele>92.600000</ele>
  <time>2012-02-26T07:16:24Z</time>
  <sat>8</sat>
</trkpt>
<trkpt lat="39.704695000" lon="-0.346124000">
  <ele>92.400000</ele>
  <time>2012-02-26T07:16:25Z</time>
  <sat>8</sat>
</trkpt>
<trkpt lat="39.704636000" lon="-0.346069000">
  <ele>92.000000</ele>
  <time>2012-02-26T07:16:27Z</time>
  <sat>9</sat>
</trkpt>
<trkpt lat="39.704613000" lon="-0.346036000">
  <ele>92.400000</ele>
  <time>2012-02-26T07:16:28Z</time>
  <sat>9</sat>
</trkpt>
<trkpt lat="39.704582000" lon="-0.345945000">
  <ele>92.800000</ele>
  <time>2012-02-26T07:16:30Z</time>
  <sat>10</sat>
</trkpt>
<trkpt lat="39.704584000" lon="-0.345897000">
  <ele>92.800000</ele>
  <time>2012-02-26T07:16:31Z</time>
  <sat>10</sat>
</trkpt>
<trkpt lat="39.704601000" lon="-0.345835000">
  <ele>92.500000</ele>
  <time>2012-02-26T07:16:32Z</time>
  <sat>10</sat>
</trkpt>
<trkpt lat="39.704678000" lon="-0.345528000">
  <ele>93.000000</ele>
  <time>2012-02-26T07:16:38Z</time>
  <sat>10</sat>
</trkpt>
<trkpt lat="39.704656000" lon="-0.345486000">
  <ele>93.100000</ele>
  <time>2012-02-26T07:16:39Z</time>
  <sat>10</sat>
</trkpt>
<trkpt lat="39.704572000" lon="-0.345397000">
  <ele>92.100000</ele>
  <time>2012-02-26T07:16:41Z</time>
  <sat>10</sat>
</trkpt>
<trkpt lat="39.704462000" lon="-0.345281000">
  <ele>90.500000</ele>
  <time>2012-02-26T07:16:44Z</time>
  <sat>10</sat>
</trkpt>
<trkpt lat="39.704345000" lon="-0.345120000">
  <ele>88.500000</ele>
  <time>2012-02-26T07:16:48Z</time>
  <sat>10</sat>
</trkpt>
<trkpt lat="39.704328000" lon="-0.345058000">
  <ele>88.000000</ele>
  <time>2012-02-26T07:16:49Z</time>
  <sat>10</sat>
</trkpt>
<trkpt lat="39.704309000" lon="-0.345003000">
  <ele>87.400000</ele>
  <time>2012-02-26T07:16:50Z</time>
  <sat>10</sat>
</trkpt>
<trkpt lat="39.704284000" lon="-0.344958000">
  <ele>87.100000</ele>
  <time>2012-02-26T07:16:51Z</time>
  <sat>10</sat>
</trkpt>
<trkpt lat="39.704230000" lon="-0.344884000">
  <ele>88.000000</ele>
  <time>2012-02-26T07:16:53Z</time>
  <sat>10</sat>
</trkpt>
<trkpt lat="39.704197000" lon="-0.344853000">
  <ele>88.400000</ele>
  <time>2012-02-26T07:16:54Z</time>
  <sat>10</sat>
</trkpt>
<trkpt lat="39.704121000" lon="-0.344796000">
  <ele>87.900000</ele>
  <time>2012-02-26T07:16:56Z</time>
  <sat>10</sat>
</trkpt>
<trkpt lat="39.703664000" lon="-0.344440000">
  <ele>88.000000</ele>
  <time>2012-02-26T07:17:08Z</time>
  <sat>10</sat>
</trkpt>
<trkpt lat="39.703307000" lon="-0.344151000">
  <ele>88.000000</ele>
  <time>2012-02-26T07:17:17Z</time>
  <sat>9</sat>
</trkpt>
<trkpt lat="39.703277000" lon="-0.344109000">
  <ele>87.900000</ele>
  <time>2012-02-26T07:17:18Z</time>
  <sat>9</sat>
</trkpt>
<trkpt lat="39.703241000" lon="-0.344074000">
  <ele>87.400000</ele>
  <time>2012-02-26T07:17:19Z</time>
  <sat>9</sat>
</trkpt>
<trkpt lat="39.703198000" lon="-0.344055000">
  <ele>87.100000</ele>
  <time>2012-02-26T07:17:20Z</time>
  <sat>9</sat>
</trkpt>
<trkpt lat="39.703065000" lon="-0.344011000">
  <ele>86.100000</ele>
  <time>2012-02-26T07:17:23Z</time>
  <sat>10</sat>
</trkpt>
<trkpt lat="39.703033000" lon="-0.343977000">
  <ele>86.500000</ele>
  <time>2012-02-26T07:17:24Z</time>
  <sat>10</sat>
</trkpt>
<trkpt lat="39.702983000" lon="-0.343891000">
  <ele>87.000000</ele>
  <time>2012-02-26T07:17:26Z</time>
  <sat>10</sat>
</trkpt>
<trkpt lat="39.702962000" lon="-0.343843000">
  <ele>87.000000</ele>
  <time>2012-02-26T07:17:27Z</time>
  <sat>10</sat>
</trkpt>
<trkpt lat="39.702821000" lon="-0.343698000">
  <ele>87.400000</ele>
  <time>2012-02-26T07:17:31Z</time>
  <sat>10</sat>
</trkpt>
<trkpt lat="39.702784000" lon="-0.343667000">
  <ele>87.400000</ele>
  <time>2012-02-26T07:17:32Z</time>
  <sat>10</sat>
</trkpt>
<trkpt lat="39.702750000" lon="-0.343632000">
  <ele>87.300000</ele>
  <time>2012-02-26T07:17:33Z</time>
  <sat>10</sat>
</trkpt>
<trkpt lat="39.702720000" lon="-0.343592000">
  <ele>87.500000</ele>
  <time>2012-02-26T07:17:34Z</time>
  <sat>10</sat>
</trkpt>
<trkpt lat="39.702614000" lon="-0.343412000">
  <ele>86.500000</ele>
  <time>2012-02-26T07:17:38Z</time>
  <sat>10</sat>
</trkpt>
<trkpt lat="39.702590000" lon="-0.343362000">
  <ele>86.000000</ele>
  <time>2012-02-26T07:17:39Z</time>
  <sat>10</sat>
</trkpt>
<trkpt lat="39.702525000" lon="-0.343198000">
  <ele>85.500000</ele>
  <time>2012-02-26T07:17:42Z</time>
  <sat>9</sat>
</trkpt>
<trkpt lat="39.702477000" lon="-0.343104000">
  <ele>86.500000</ele>
  <time>2012-02-26T07:17:44Z</time>
  <sat>10</sat>
</trkpt>
<trkpt lat="39.702427000" lon="-0.343017000">
  <ele>87.400000</ele>
  <time>2012-02-26T07:17:46Z</time>
  <sat>10</sat>
</trkpt>
<trkpt lat="39.702407000" lon="-0.342966000">
  <ele>87.100000</ele>
  <time>2012-02-26T07:17:47Z</time>
  <sat>10</sat>
</trkpt>
<trkpt lat="39.702235000" lon="-0.342612000">
  <ele>87.300000</ele>
  <time>2012-02-26T07:17:54Z</time>
  <sat>9</sat>
</trkpt>
<trkpt lat="39.702038000" lon="-0.342195000">
  <ele>87.100000</ele>
  <time>2012-02-26T07:18:02Z</time>
  <sat>8</sat>
</trkpt>
<trkpt lat="39.702000000" lon="-0.342081000">
  <ele>87.300000</ele>
  <time>2012-02-26T07:18:04Z</time>
  <sat>8</sat>
</trkpt>
<trkpt lat="39.701844000" lon="-0.341562000">
  <ele>87.000000</ele>
  <time>2012-02-26T07:18:13Z</time>
  <sat>8</sat>
</trkpt>
<trkpt lat="39.701808000" lon="-0.341382000">
  <ele>86.000000</ele>
  <time>2012-02-26T07:18:16Z</time>
  <sat>7</sat>
</trkpt>
<trkpt lat="39.701762000" lon="-0.341065000">
  <ele>85.000000</ele>
  <time>2012-02-26T07:18:21Z</time>
  <sat>10</sat>
</trkpt>
<trkpt lat="39.701745000" lon="-0.340933000">
  <ele>84.800000</ele>
  <time>2012-02-26T07:18:23Z</time>
  <sat>10</sat>
</trkpt>
<trkpt lat="39.701722000" lon="-0.340874000">
  <ele>84.600000</ele>
  <time>2012-02-26T07:18:24Z</time>
  <sat>10</sat>
</trkpt>
<trkpt lat="39.701677000" lon="-0.340756000">
  <ele>84.500000</ele>
  <time>2012-02-26T07:18:26Z</time>
  <sat>9</sat>
</trkpt>
<trkpt lat="39.701662000" lon="-0.340694000">
  <ele>84.100000</ele>
  <time>2012-02-26T07:18:27Z</time>
  <sat>10</sat>
</trkpt>
<trkpt lat="39.701566000" lon="-0.340269000">
  <ele>83.500000</ele>
  <time>2012-02-26T07:18:34Z</time>
  <sat>9</sat>
</trkpt>
<trkpt lat="39.701556000" lon="-0.340213000">
  <ele>83.100000</ele>
  <time>2012-02-26T07:18:35Z</time>
  <sat>9</sat>
</trkpt>
<trkpt lat="39.701495000" lon="-0.340072000">
  <ele>83.500000</ele>
  <time>2012-02-26T07:18:38Z</time>
  <sat>10</sat>
</trkpt>
<trkpt lat="39.701357000" lon="-0.339876000">
  <ele>83.000000</ele>
  <time>2012-02-26T07:18:43Z</time>
  <sat>9</sat>
</trkpt>
<trkpt lat="39.701332000" lon="-0.339827000">
  <ele>82.800000</ele>
  <time>2012-02-26T07:18:44Z</time>
  <sat>9</sat>
</trkpt>
<trkpt lat="39.701303000" lon="-0.339784000">
  <ele>82.600000</ele>
  <time>2012-02-26T07:18:45Z</time>
  <sat>8</sat>
</trkpt>
<trkpt lat="39.701274000" lon="-0.339741000">
  <ele>82.800000</ele>
  <time>2012-02-26T07:18:46Z</time>
  <sat>9</sat>
</trkpt>
<trkpt lat="39.701252000" lon="-0.339694000">
  <ele>83.100000</ele>
  <time>2012-02-26T07:18:47Z</time>
  <sat>9</sat>
</trkpt>
<trkpt lat="39.701200000" lon="-0.339608000">
  <ele>84.800000</ele>
  <time>2012-02-26T07:18:49Z</time>
  <sat>9</sat>
</trkpt>
<trkpt lat="39.700929000" lon="-0.339133000">
  <ele>84.900000</ele>
  <time>2012-02-26T07:19:01Z</time>
  <sat>9</sat>
</trkpt>
<trkpt lat="39.700910000" lon="-0.339088000">
  <ele>84.800000</ele>
  <time>2012-02-26T07:19:02Z</time>
  <sat>9</sat>
</trkpt>
<trkpt lat="39.700841000" lon="-0.338900000">
  <ele>85.300000</ele>
  <time>2012-02-26T07:19:06Z</time>
  <sat>10</sat>
</trkpt>
<trkpt lat="39.700761000" lon="-0.338788000">
  <ele>86.800000</ele>
  <time>2012-02-26T07:19:10Z</time>
  <sat>10</sat>
</trkpt>
<trkpt lat="39.700733000" lon="-0.338768000">
  <ele>86.900000</ele>
  <time>2012-02-26T07:19:11Z</time>
  <sat>10</sat>
</trkpt>
<trkpt lat="39.700651000" lon="-0.338705000">
  <ele>86.900000</ele>
  <time>2012-02-26T07:19:14Z</time>
  <sat>10</sat>
</trkpt>
<trkpt lat="39.700623000" lon="-0.338696000">
  <ele>87.100000</ele>
  <time>2012-02-26T07:19:15Z</time>
  <sat>9</sat>
</trkpt>
<trkpt lat="39.700539000" lon="-0.338679000">
  <ele>88.400000</ele>
  <time>2012-02-26T07:19:18Z</time>
  <sat>9</sat>
</trkpt>
<trkpt lat="39.700512000" lon="-0.338661000">
  <ele>88.500000</ele>
  <time>2012-02-26T07:19:19Z</time>
  <sat>10</sat>
</trkpt>
<trkpt lat="39.700488000" lon="-0.338634000">
  <ele>88.300000</ele>
  <time>2012-02-26T07:19:20Z</time>
  <sat>10</sat>
</trkpt>
<trkpt lat="39.700426000" lon="-0.338578000">
  <ele>88.100000</ele>
  <time>2012-02-26T07:19:22Z</time>
  <sat>10</sat>
</trkpt>
<trkpt lat="39.700388000" lon="-0.338557000">
  <ele>87.800000</ele>
  <time>2012-02-26T07:19:23Z</time>
  <sat>10</sat>
</trkpt>
<trkpt lat="39.700327000" lon="-0.338542000">
  <ele>87.000000</ele>
  <time>2012-02-26T07:19:25Z</time>
  <sat>10</sat>
</trkpt>
<trkpt lat="39.700275000" lon="-0.338576000">
  <ele>87.000000</ele>
  <time>2012-02-26T07:19:26Z</time>
  <sat>9</sat>
</trkpt>
<trkpt lat="39.700229000" lon="-0.338588000">
  <ele>86.900000</ele>
  <time>2012-02-26T07:19:27Z</time>
  <sat>10</sat>
</trkpt>
<trkpt lat="39.700183000" lon="-0.338595000">
  <ele>87.100000</ele>
  <time>2012-02-26T07:19:28Z</time>
  <sat>10</sat>
</trkpt>
<trkpt lat="39.700144000" lon="-0.338575000">
  <ele>87.000000</ele>
  <time>2012-02-26T07:19:29Z</time>
  <sat>10</sat>
</trkpt>
<trkpt lat="39.700063000" lon="-0.338553000">
  <ele>86.800000</ele>
  <time>2012-02-26T07:19:31Z</time>
  <sat>10</sat>
</trkpt>
<trkpt lat="39.700020000" lon="-0.338549000">
  <ele>86.500000</ele>
  <time>2012-02-26T07:19:32Z</time>
  <sat>10</sat>
</trkpt>
<trkpt lat="39.699863000" lon="-0.338542000">
  <ele>87.000000</ele>
  <time>2012-02-26T07:19:36Z</time>
  <sat>10</sat>
</trkpt>
<trkpt lat="39.699827000" lon="-0.338531000">
  <ele>87.000000</ele>
  <time>2012-02-26T07:19:37Z</time>
  <sat>10</sat>
</trkpt>
<trkpt lat="39.699789000" lon="-0.338516000">
  <ele>87.000000</ele>
  <time>2012-02-26T07:19:38Z</time>
  <sat>10</sat>
</trkpt>
<trkpt lat="39.699710000" lon="-0.338473000">
  <ele>87.100000</ele>
  <time>2012-02-26T07:19:40Z</time>
  <sat>10</sat>
</trkpt>
<trkpt lat="39.699674000" lon="-0.338442000">
  <ele>87.000000</ele>
  <time>2012-02-26T07:19:41Z</time>
  <sat>10</sat>
</trkpt>
<trkpt lat="39.699593000" lon="-0.338392000">
  <ele>86.600000</ele>
  <time>2012-02-26T07:19:43Z</time>
  <sat>10</sat>
</trkpt>
<trkpt lat="39.699550000" lon="-0.338371000">
  <ele>86.800000</ele>
  <time>2012-02-26T07:19:44Z</time>
  <sat>10</sat>
</trkpt>
<trkpt lat="39.699462000" lon="-0.338323000">
  <ele>87.000000</ele>
  <time>2012-02-26T07:19:46Z</time>
  <sat>10</sat>
</trkpt>
<trkpt lat="39.699120000" lon="-0.338123000">
  <ele>86.000000</ele>
  <time>2012-02-26T07:19:54Z</time>
  <sat>10</sat>
</trkpt>
<trkpt lat="39.699088000" lon="-0.338095000">
  <ele>86.300000</ele>
  <time>2012-02-26T07:19:55Z</time>
  <sat>9</sat>
</trkpt>
<trkpt lat="39.699044000" lon="-0.338007000">
  <ele>86.000000</ele>
  <time>2012-02-26T07:19:57Z</time>
  <sat>10</sat>
</trkpt>
<trkpt lat="39.699030000" lon="-0.337958000">
  <ele>85.600000</ele>
  <time>2012-02-26T07:19:58Z</time>
  <sat>10</sat>
</trkpt>
<trkpt lat="39.699023000" lon="-0.337911000">
  <ele>85.500000</ele>
  <time>2012-02-26T07:19:59Z</time>
  <sat>10</sat>
</trkpt>
<trkpt lat="39.699001000" lon="-0.337813000">
  <ele>85.000000</ele>
  <time>2012-02-26T07:20:01Z</time>
  <sat>9</sat>
</trkpt>
<trkpt lat="39.698988000" lon="-0.337765000">
  <ele>84.600000</ele>
  <time>2012-02-26T07:20:02Z</time>
  <sat>10</sat>
</trkpt>
<trkpt lat="39.698954000" lon="-0.337687000">
  <ele>85.000000</ele>
  <time>2012-02-26T07:20:04Z</time>
  <sat>10</sat>
</trkpt>
<trkpt lat="39.698912000" lon="-0.337572000">
  <ele>84.000000</ele>
  <time>2012-02-26T07:20:07Z</time>
  <sat>10</sat>
</trkpt>
<trkpt lat="39.698901000" lon="-0.337528000">
  <ele>84.000000</ele>
  <time>2012-02-26T07:20:08Z</time>
  <sat>10</sat>
</trkpt>
<trkpt lat="39.698891000" lon="-0.337481000">
  <ele>83.400000</ele>
  <time>2012-02-26T07:20:09Z</time>
  <sat>9</sat>
</trkpt>
<trkpt lat="39.698893000" lon="-0.337431000">
  <ele>83.500000</ele>
  <time>2012-02-26T07:20:10Z</time>
  <sat>10</sat>
</trkpt>
<trkpt lat="39.698898000" lon="-0.337283000">
  <ele>84.000000</ele>
  <time>2012-02-26T07:20:13Z</time>
  <sat>10</sat>
</trkpt>
<trkpt lat="39.698888000" lon="-0.337239000">
  <ele>84.100000</ele>
  <time>2012-02-26T07:20:14Z</time>
  <sat>10</sat>
</trkpt>
<trkpt lat="39.698858000" lon="-0.337126000">
  <ele>85.500000</ele>
  <time>2012-02-26T07:20:17Z</time>
  <sat>10</sat>
</trkpt>
<trkpt lat="39.698830000" lon="-0.337066000">
  <ele>85.900000</ele>
  <time>2012-02-26T07:20:19Z</time>
  <sat>10</sat>
</trkpt>
<trkpt lat="39.698808000" lon="-0.337037000">
  <ele>86.000000</ele>
  <time>2012-02-26T07:20:20Z</time>
  <sat>10</sat>
</trkpt>
<trkpt lat="39.698783000" lon="-0.337016000">
  <ele>86.000000</ele>
  <time>2012-02-26T07:20:21Z</time>
  <sat>10</sat>
</trkpt>
<trkpt lat="39.698755000" lon="-0.337002000">
  <ele>86.000000</ele>
  <time>2012-02-26T07:20:22Z</time>
  <sat>10</sat>
</trkpt>
<trkpt lat="39.698724000" lon="-0.337001000">
  <ele>85.800000</ele>
  <time>2012-02-26T07:20:23Z</time>
  <sat>10</sat>
</trkpt>
<trkpt lat="39.698466000" lon="-0.336995000">
  <ele>85.500000</ele>
  <time>2012-02-26T07:20:29Z</time>
  <sat>10</sat>
</trkpt>
<trkpt lat="39.698425000" lon="-0.336972000">
  <ele>85.800000</ele>
  <time>2012-02-26T07:20:30Z</time>
  <sat>10</sat>
</trkpt>
<trkpt lat="39.698384000" lon="-0.336939000">
  <ele>85.100000</ele>
  <time>2012-02-26T07:20:31Z</time>
  <sat>10</sat>
</trkpt>
<trkpt lat="39.697955000" lon="-0.336570000">
  <ele>84.500000</ele>
  <time>2012-02-26T07:20:41Z</time>
  <sat>10</sat>
</trkpt>
<trkpt lat="39.697914000" lon="-0.336534000">
  <ele>84.500000</ele>
  <time>2012-02-26T07:20:42Z</time>
  <sat>10</sat>
</trkpt>
<trkpt lat="39.697780000" lon="-0.336452000">
  <ele>84.100000</ele>
  <time>2012-02-26T07:20:45Z</time>
  <sat>10</sat>
</trkpt>
<trkpt lat="39.697642000" lon="-0.336391000">
  <ele>83.900000</ele>
  <time>2012-02-26T07:20:48Z</time>
  <sat>10</sat>
</trkpt>
<trkpt lat="39.697601000" lon="-0.336353000">
  <ele>84.000000</ele>
  <time>2012-02-26T07:20:49Z</time>
  <sat>10</sat>
</trkpt>
<trkpt lat="39.697571000" lon="-0.336306000">
  <ele>84.400000</ele>
  <time>2012-02-26T07:20:50Z</time>
  <sat>10</sat>
</trkpt>
<trkpt lat="39.697188000" lon="-0.335687000">
  <ele>83.000000</ele>
  <time>2012-02-26T07:21:02Z</time>
  <sat>8</sat>
</trkpt>
<trkpt lat="39.697133000" lon="-0.335577000">
  <ele>83.400000</ele>
  <time>2012-02-26T07:21:04Z</time>
  <sat>9</sat>
</trkpt>
<trkpt lat="39.697113000" lon="-0.335525000">
  <ele>83.300000</ele>
  <time>2012-02-26T07:21:05Z</time>
  <sat>9</sat>
</trkpt>
<trkpt lat="39.696992000" lon="-0.335252000">
  <ele>82.500000</ele>
  <time>2012-02-26T07:21:10Z</time>
  <sat>9</sat>
</trkpt>
<trkpt lat="39.696957000" lon="-0.335208000">
  <ele>82.100000</ele>
  <time>2012-02-26T07:21:11Z</time>
  <sat>9</sat>
</trkpt>
<trkpt lat="39.696776000" lon="-0.335002000">
  <ele>81.500000</ele>
  <time>2012-02-26T07:21:16Z</time>
  <sat>9</sat>
</trkpt>
<trkpt lat="39.696623000" lon="-0.334841000">
  <ele>81.100000</ele>
  <time>2012-02-26T07:21:20Z</time>
  <sat>10</sat>
</trkpt>
<trkpt lat="39.696557000" lon="-0.334751000">
  <ele>81.300000</ele>
  <time>2012-02-26T07:21:22Z</time>
  <sat>10</sat>
</trkpt>
<trkpt lat="39.696465000" lon="-0.334615000">
  <ele>80.500000</ele>
  <time>2012-02-26T07:21:25Z</time>
  <sat>10</sat>
</trkpt>
<trkpt lat="39.696031000" lon="-0.333927000">
  <ele>80.800000</ele>
  <time>2012-02-26T07:21:41Z</time>
  <sat>9</sat>
</trkpt>
<trkpt lat="39.696012000" lon="-0.333875000">
  <ele>80.600000</ele>
  <time>2012-02-26T07:21:42Z</time>
  <sat>9</sat>
</trkpt>
<trkpt lat="39.695964000" lon="-0.333786000">
  <ele>81.500000</ele>
  <time>2012-02-26T07:21:44Z</time>
  <sat>9</sat>
</trkpt>
<trkpt lat="39.695937000" lon="-0.333743000">
  <ele>82.000000</ele>
  <time>2012-02-26T07:21:45Z</time>
  <sat>9</sat>
</trkpt>
<trkpt lat="39.695495000" lon="-0.333029000">
  <ele>81.000000</ele>
  <time>2012-02-26T07:22:00Z</time>
  <sat>9</sat>
</trkpt>
<trkpt lat="39.694736000" lon="-0.332208000">
  <ele>79.900000</ele>
  <time>2012-02-26T07:22:20Z</time>
  <sat>9</sat>
</trkpt>
<trkpt lat="39.694539000" lon="-0.331987000">
  <ele>79.300000</ele>
  <time>2012-02-26T07:22:25Z</time>
  <sat>10</sat>
</trkpt>
<trkpt lat="39.694452000" lon="-0.331916000">
  <ele>78.600000</ele>
  <time>2012-02-26T07:22:27Z</time>
  <sat>10</sat>
</trkpt>
<trkpt lat="39.694364000" lon="-0.331872000">
  <ele>78.500000</ele>
  <time>2012-02-26T07:22:29Z</time>
  <sat>10</sat>
</trkpt>
<trkpt lat="39.694275000" lon="-0.331825000">
  <ele>78.500000</ele>
  <time>2012-02-26T07:22:31Z</time>
  <sat>10</sat>
</trkpt>
<trkpt lat="39.694233000" lon="-0.331790000">
  <ele>78.600000</ele>
  <time>2012-02-26T07:22:32Z</time>
  <sat>10</sat>
</trkpt>
<trkpt lat="39.694120000" lon="-0.331682000">
  <ele>78.900000</ele>
  <time>2012-02-26T07:22:35Z</time>
  <sat>10</sat>
</trkpt>
<trkpt lat="39.694043000" lon="-0.331610000">
  <ele>79.300000</ele>
  <time>2012-02-26T07:22:37Z</time>
  <sat>9</sat>
</trkpt>
<trkpt lat="39.693995000" lon="-0.331584000">
  <ele>79.300000</ele>
  <time>2012-02-26T07:22:38Z</time>
  <sat>10</sat>
</trkpt>
<trkpt lat="39.693809000" lon="-0.331468000">
  <ele>78.500000</ele>
  <time>2012-02-26T07:22:42Z</time>
  <sat>10</sat>
</trkpt>
<trkpt lat="39.693764000" lon="-0.331429000">
  <ele>78.100000</ele>
  <time>2012-02-26T07:22:43Z</time>
  <sat>10</sat>
</trkpt>
<trkpt lat="39.693625000" lon="-0.331318000">
  <ele>78.000000</ele>
  <time>2012-02-26T07:22:46Z</time>
  <sat>9</sat>
</trkpt>
<trkpt lat="39.693577000" lon="-0.331289000">
  <ele>78.300000</ele>
  <time>2012-02-26T07:22:47Z</time>
  <sat>8</sat>
</trkpt>
<trkpt lat="39.693528000" lon="-0.331270000">
  <ele>78.100000</ele>
  <time>2012-02-26T07:22:48Z</time>
  <sat>9</sat>
</trkpt>
<trkpt lat="39.693481000" lon="-0.331259000">
  <ele>78.400000</ele>
  <time>2012-02-26T07:22:49Z</time>
  <sat>9</sat>
</trkpt>
<trkpt lat="39.693434000" lon="-0.331259000">
  <ele>78.500000</ele>
  <time>2012-02-26T07:22:50Z</time>
  <sat>10</sat>
</trkpt>
<trkpt lat="39.693395000" lon="-0.331271000">
  <ele>78.600000</ele>
  <time>2012-02-26T07:22:51Z</time>
  <sat>10</sat>
</trkpt>
<trkpt lat="39.693357000" lon="-0.331293000">
  <ele>78.500000</ele>
  <time>2012-02-26T07:22:52Z</time>
  <sat>10</sat>
</trkpt>
<trkpt lat="39.693203000" lon="-0.331385000">
  <ele>79.800000</ele>
  <time>2012-02-26T07:22:57Z</time>
  <sat>10</sat>
</trkpt>
<trkpt lat="39.693181000" lon="-0.331389000">
  <ele>80.000000</ele>
  <time>2012-02-26T07:22:58Z</time>
  <sat>10</sat>
</trkpt>
<trkpt lat="39.693057000" lon="-0.331423000">
  <ele>81.100000</ele>
  <time>2012-02-26T07:23:04Z</time>
  <sat>10</sat>
</trkpt>
<trkpt lat="39.693039000" lon="-0.331431000">
  <ele>81.600000</ele>
  <time>2012-02-26T07:23:05Z</time>
  <sat>10</sat>
</trkpt>
<trkpt lat="39.693022000" lon="-0.331443000">
  <ele>82.100000</ele>
  <time>2012-02-26T07:23:06Z</time>
  <sat>10</sat>
</trkpt>
<trkpt lat="39.693006000" lon="-0.331460000">
  <ele>82.500000</ele>
  <time>2012-02-26T07:23:07Z</time>
  <sat>10</sat>
</trkpt>
<trkpt lat="39.692980000" lon="-0.331494000">
  <ele>83.000000</ele>
  <time>2012-02-26T07:23:09Z</time>
  <sat>10</sat>
</trkpt>
<trkpt lat="39.692970000" lon="-0.331513000">
  <ele>83.300000</ele>
  <time>2012-02-26T07:23:10Z</time>
  <sat>10</sat>
</trkpt>
<trkpt lat="39.692892000" lon="-0.331677000">
  <ele>84.600000</ele>
  <time>2012-02-26T07:23:17Z</time>
  <sat>10</sat>
</trkpt>
<trkpt lat="39.692868000" lon="-0.331726000">
  <ele>84.800000</ele>
  <time>2012-02-26T07:23:19Z</time>
  <sat>10</sat>
</trkpt>
<trkpt lat="39.692785000" lon="-0.331855000">
  <ele>85.000000</ele>
  <time>2012-02-26T07:23:24Z</time>
  <sat>9</sat>
</trkpt>
<trkpt lat="39.692474000" lon="-0.332338000">
  <ele>88.900000</ele>
  <time>2012-02-26T07:23:44Z</time>
  <sat>9</sat>
</trkpt>
<trkpt lat="39.692461000" lon="-0.332364000">
  <ele>89.400000</ele>
  <time>2012-02-26T07:23:45Z</time>
  <sat>10</sat>
</trkpt>
<trkpt lat="39.692445000" lon="-0.332416000">
  <ele>89.800000</ele>
  <time>2012-02-26T07:23:47Z</time>
  <sat>10</sat>
</trkpt>
<trkpt lat="39.692444000" lon="-0.332446000">
  <ele>89.500000</ele>
  <time>2012-02-26T07:23:48Z</time>
  <sat>10</sat>
</trkpt>
<trkpt lat="39.692453000" lon="-0.332475000">
  <ele>89.500000</ele>
  <time>2012-02-26T07:23:49Z</time>
  <sat>10</sat>
</trkpt>
<trkpt lat="39.692464000" lon="-0.332501000">
  <ele>90.000000</ele>
  <time>2012-02-26T07:23:50Z</time>
  <sat>10</sat>
</trkpt>
<trkpt lat="39.692496000" lon="-0.332555000">
  <ele>90.600000</ele>
  <time>2012-02-26T07:23:52Z</time>
  <sat>10</sat>
</trkpt>
<trkpt lat="39.692578000" lon="-0.332654000">
  <ele>91.100000</ele>
  <time>2012-02-26T07:23:56Z</time>
  <sat>10</sat>
</trkpt>
<trkpt lat="39.692598000" lon="-0.332673000">
  <ele>91.300000</ele>
  <time>2012-02-26T07:23:57Z</time>
  <sat>10</sat>
</trkpt>
<trkpt lat="39.692677000" lon="-0.332755000">
  <ele>92.300000</ele>
  <time>2012-02-26T07:24:01Z</time>
  <sat>9</sat>
</trkpt>
<trkpt lat="39.692684000" lon="-0.332776000">
  <ele>92.000000</ele>
  <time>2012-02-26T07:24:02Z</time>
  <sat>10</sat>
</trkpt>
<trkpt lat="39.692679000" lon="-0.332786000">
  <ele>93.000000</ele>
  <time>2012-02-26T07:24:03Z</time>
  <sat>10</sat>
</trkpt>
<trkpt lat="39.692674000" lon="-0.332795000">
  <ele>93.000000</ele>
  <time>2012-02-26T07:24:04Z</time>
  <sat>10</sat>
</trkpt>
<trkpt lat="39.692671000" lon="-0.332802000">
  <ele>93.300000</ele>
  <time>2012-02-26T07:24:05Z</time>
  <sat>10</sat>
</trkpt>
<trkpt lat="39.692668000" lon="-0.332805000">
  <ele>93.300000</ele>
  <time>2012-02-26T07:24:06Z</time>
  <sat>10</sat>
</trkpt>
<trkpt lat="39.692668000" lon="-0.332807000">
  <ele>93.100000</ele>
  <time>2012-02-26T07:24:07Z</time>
  <sat>10</sat>
</trkpt>
<trkpt lat="39.692666000" lon="-0.332808000">
  <ele>93.000000</ele>
  <time>2012-02-26T07:24:08Z</time>
  <sat>10</sat>
</trkpt>
<trkpt lat="39.692666000" lon="-0.332808000">
  <ele>93.000000</ele>
  <time>2012-02-26T07:24:09Z</time>
  <sat>10</sat>
</trkpt>
<trkpt lat="39.692669000" lon="-0.332812000">
  <ele>92.900000</ele>
  <time>2012-02-26T07:24:10Z</time>
  <sat>10</sat>
</trkpt>
<trkpt lat="39.692667000" lon="-0.332827000">
  <ele>92.800000</ele>
  <time>2012-02-26T07:24:11Z</time>
  <sat>10</sat>
</trkpt>
<trkpt lat="39.692638000" lon="-0.332877000">
  <ele>92.600000</ele>
  <time>2012-02-26T07:24:13Z</time>
  <sat>10</sat>
</trkpt>
<trkpt lat="39.692570000" lon="-0.333006000">
  <ele>92.400000</ele>
  <time>2012-02-26T07:24:17Z</time>
  <sat>10</sat>
</trkpt>
<trkpt lat="39.692555000" lon="-0.333043000">
  <ele>92.100000</ele>
  <time>2012-02-26T07:24:18Z</time>
  <sat>10</sat>
</trkpt>
<trkpt lat="39.692423000" lon="-0.333359000">
  <ele>92.500000</ele>
  <time>2012-02-26T07:24:27Z</time>
  <sat>10</sat>
</trkpt>
<trkpt lat="39.692398000" lon="-0.333379000">
  <ele>92.500000</ele>
  <time>2012-02-26T07:24:28Z</time>
  <sat>10</sat>
</trkpt>
<trkpt lat="39.692345000" lon="-0.333397000">
  <ele>92.900000</ele>
  <time>2012-02-26T07:24:30Z</time>
  <sat>10</sat>
</trkpt>
<trkpt lat="39.692325000" lon="-0.333384000">
  <ele>92.000000</ele>
  <time>2012-02-26T07:24:31Z</time>
  <sat>9</sat>
</trkpt>
<trkpt lat="39.692126000" lon="-0.333198000">
  <ele>93.600000</ele>
  <time>2012-02-26T07:24:39Z</time>
  <sat>9</sat>
</trkpt>
<trkpt lat="39.692074000" lon="-0.333146000">
  <ele>94.000000</ele>
  <time>2012-02-26T07:24:41Z</time>
  <sat>10</sat>
</trkpt>
<trkpt lat="39.692043000" lon="-0.333130000">
  <ele>93.900000</ele>
  <time>2012-02-26T07:24:42Z</time>
  <sat>10</sat>
</trkpt>
<trkpt lat="39.691946000" lon="-0.333078000">
  <ele>94.000000</ele>
  <time>2012-02-26T07:24:45Z</time>
  <sat>10</sat>
</trkpt>
<trkpt lat="39.691652000" lon="-0.332876000">
  <ele>94.900000</ele>
  <time>2012-02-26T07:24:54Z</time>
  <sat>10</sat>
</trkpt>
<trkpt lat="39.691622000" lon="-0.332847000">
  <ele>94.800000</ele>
  <time>2012-02-26T07:24:55Z</time>
  <sat>10</sat>
</trkpt>
<trkpt lat="39.691565000" lon="-0.332799000">
  <ele>95.400000</ele>
  <time>2012-02-26T07:24:57Z</time>
  <sat>9</sat>
</trkpt>
<trkpt lat="39.691537000" lon="-0.332783000">
  <ele>95.500000</ele>
  <time>2012-02-26T07:24:58Z</time>
  <sat>9</sat>
</trkpt>
<trkpt lat="39.691441000" lon="-0.332740000">
  <ele>94.900000</ele>
  <time>2012-02-26T07:25:01Z</time>
  <sat>10</sat>
</trkpt>
<trkpt lat="39.691369000" lon="-0.332705000">
  <ele>94.300000</ele>
  <time>2012-02-26T07:25:03Z</time>
  <sat>10</sat>
</trkpt>
<trkpt lat="39.691335000" lon="-0.332681000">
  <ele>94.100000</ele>
  <time>2012-02-26T07:25:04Z</time>
  <sat>10</sat>
</trkpt>
<trkpt lat="39.691235000" lon="-0.332617000">
  <ele>93.600000</ele>
  <time>2012-02-26T07:25:07Z</time>
  <sat>10</sat>
</trkpt>
<trkpt lat="39.691200000" lon="-0.332608000">
  <ele>93.800000</ele>
  <time>2012-02-26T07:25:08Z</time>
  <sat>10</sat>
</trkpt>
<trkpt lat="39.691165000" lon="-0.332609000">
  <ele>94.000000</ele>
  <time>2012-02-26T07:25:09Z</time>
  <sat>10</sat>
</trkpt>
<trkpt lat="39.691130000" lon="-0.332627000">
  <ele>93.900000</ele>
  <time>2012-02-26T07:25:10Z</time>
  <sat>10</sat>
</trkpt>
<trkpt lat="39.691100000" lon="-0.332651000">
  <ele>94.000000</ele>
  <time>2012-02-26T07:25:11Z</time>
  <sat>10</sat>
</trkpt>
<trkpt lat="39.690914000" lon="-0.332837000">
  <ele>95.000000</ele>
  <time>2012-02-26T07:25:18Z</time>
  <sat>10</sat>
</trkpt>
<trkpt lat="39.690800000" lon="-0.332977000">
  <ele>95.300000</ele>
  <time>2012-02-26T07:25:23Z</time>
  <sat>10</sat>
</trkpt>
<trkpt lat="39.690764000" lon="-0.333032000">
  <ele>95.300000</ele>
  <time>2012-02-26T07:25:25Z</time>
  <sat>10</sat>
</trkpt>
<trkpt lat="39.690626000" lon="-0.333276000">
  <ele>95.800000</ele>
  <time>2012-02-26T07:25:33Z</time>
  <sat>9</sat>
</trkpt>
<trkpt lat="39.690603000" lon="-0.333286000">
  <ele>95.600000</ele>
  <time>2012-02-26T07:25:34Z</time>
  <sat>9</sat>
</trkpt>
<trkpt lat="39.690554000" lon="-0.333267000">
  <ele>96.500000</ele>
  <time>2012-02-26T07:25:36Z</time>
  <sat>10</sat>
</trkpt>
<trkpt lat="39.690530000" lon="-0.333244000">
  <ele>97.900000</ele>
  <time>2012-02-26T07:25:37Z</time>
  <sat>10</sat>
</trkpt>
<trkpt lat="39.690504000" lon="-0.333221000">
  <ele>97.400000</ele>
  <time>2012-02-26T07:25:38Z</time>
  <sat>10</sat>
</trkpt>
<trkpt lat="39.690475000" lon="-0.333214000">
  <ele>97.500000</ele>
  <time>2012-02-26T07:25:39Z</time>
  <sat>9</sat>
</trkpt>
<trkpt lat="39.690448000" lon="-0.333189000">
  <ele>98.000000</ele>
  <time>2012-02-26T07:25:40Z</time>
  <sat>9</sat>
</trkpt>
<trkpt lat="39.690425000" lon="-0.333168000">
  <ele>98.300000</ele>
  <time>2012-02-26T07:25:41Z</time>
  <sat>9</sat>
</trkpt>
<trkpt lat="39.690400000" lon="-0.333156000">
  <ele>98.300000</ele>
  <time>2012-02-26T07:25:42Z</time>
  <sat>9</sat>
</trkpt>
<trkpt lat="39.690342000" lon="-0.333119000">
  <ele>98.500000</ele>
  <time>2012-02-26T07:25:44Z</time>
  <sat>8</sat>
</trkpt>
<trkpt lat="39.685912000" lon="-0.330171000">
  <ele>95.800000</ele>
  <time>2012-02-26T07:27:36Z</time>
  <sat>9</sat>
</trkpt>
<trkpt lat="39.685867000" lon="-0.330133000">
  <ele>95.500000</ele>
  <time>2012-02-26T07:27:37Z</time>
  <sat>9</sat>
</trkpt>
<trkpt lat="39.685554000" lon="-0.329802000">
  <ele>94.500000</ele>
  <time>2012-02-26T07:27:44Z</time>
  <sat>8</sat>
</trkpt>
<trkpt lat="39.685189000" lon="-0.329338000">
  <ele>93.300000</ele>
  <time>2012-02-26T07:27:52Z</time>
  <sat>6</sat>
</trkpt>
<trkpt lat="39.684863000" lon="-0.328932000">
  <ele>92.800000</ele>
  <time>2012-02-26T07:27:59Z</time>
  <sat>9</sat>
</trkpt>
<trkpt lat="39.684810000" lon="-0.328889000">
  <ele>92.500000</ele>
  <time>2012-02-26T07:28:00Z</time>
  <sat>10</sat>
</trkpt>
<trkpt lat="39.684758000" lon="-0.328860000">
  <ele>92.300000</ele>
  <time>2012-02-26T07:28:01Z</time>
  <sat>10</sat>
</trkpt>
<trkpt lat="39.684650000" lon="-0.328822000">
  <ele>91.000000</ele>
  <time>2012-02-26T07:28:03Z</time>
  <sat>10</sat>
</trkpt>
<trkpt lat="39.683774000" lon="-0.328648000">
  <ele>89.900000</ele>
  <time>2012-02-26T07:28:21Z</time>
  <sat>10</sat>
</trkpt>
<trkpt lat="39.682285000" lon="-0.328384000">
  <ele>90.400000</ele>
  <time>2012-02-26T07:28:53Z</time>
  <sat>10</sat>
</trkpt>
<trkpt lat="39.682239000" lon="-0.328365000">
  <ele>90.500000</ele>
  <time>2012-02-26T07:28:54Z</time>
  <sat>10</sat>
</trkpt>
<trkpt lat="39.681788000" lon="-0.328170000">
  <ele>91.000000</ele>
  <time>2012-02-26T07:29:04Z</time>
  <sat>9</sat>
</trkpt>
<trkpt lat="39.681747000" lon="-0.328147000">
  <ele>90.800000</ele>
  <time>2012-02-26T07:29:05Z</time>
  <sat>9</sat>
</trkpt>
<trkpt lat="39.681426000" lon="-0.327963000">
  <ele>90.500000</ele>
  <time>2012-02-26T07:29:13Z</time>
  <sat>10</sat>
</trkpt>
<trkpt lat="39.681393000" lon="-0.327929000">
  <ele>90.500000</ele>
  <time>2012-02-26T07:29:14Z</time>
  <sat>10</sat>
</trkpt>
<trkpt lat="39.681361000" lon="-0.327893000">
  <ele>90.500000</ele>
  <time>2012-02-26T07:29:15Z</time>
  <sat>9</sat>
</trkpt>
<trkpt lat="39.681253000" lon="-0.327783000">
  <ele>89.500000</ele>
  <time>2012-02-26T07:29:18Z</time>
  <sat>10</sat>
</trkpt>
<trkpt lat="39.681209000" lon="-0.327753000">
  <ele>89.600000</ele>
  <time>2012-02-26T07:29:19Z</time>
  <sat>10</sat>
</trkpt>
<trkpt lat="39.680930000" lon="-0.327613000">
  <ele>88.900000</ele>
  <time>2012-02-26T07:29:25Z</time>
  <sat>8</sat>
</trkpt>
<trkpt lat="39.679642000" lon="-0.326968000">
  <ele>91.800000</ele>
  <time>2012-02-26T07:29:56Z</time>
  <sat>10</sat>
</trkpt>
<trkpt lat="39.679613000" lon="-0.326968000">
  <ele>92.300000</ele>
  <time>2012-02-26T07:29:57Z</time>
  <sat>10</sat>
</trkpt>
<trkpt lat="39.679584000" lon="-0.326977000">
  <ele>92.800000</ele>
  <time>2012-02-26T07:29:58Z</time>
  <sat>10</sat>
</trkpt>
<trkpt lat="39.679555000" lon="-0.326998000">
  <ele>93.300000</ele>
  <time>2012-02-26T07:29:59Z</time>
  <sat>10</sat>
</trkpt>
<trkpt lat="39.679532000" lon="-0.327034000">
  <ele>93.400000</ele>
  <time>2012-02-26T07:30:00Z</time>
  <sat>10</sat>
</trkpt>
<trkpt lat="39.679441000" lon="-0.327165000">
  <ele>94.500000</ele>
  <time>2012-02-26T07:30:04Z</time>
  <sat>10</sat>
</trkpt>
<trkpt lat="39.679414000" lon="-0.327190000">
  <ele>94.500000</ele>
  <time>2012-02-26T07:30:05Z</time>
  <sat>10</sat>
</trkpt>
<trkpt lat="39.679386000" lon="-0.327210000">
  <ele>94.800000</ele>
  <time>2012-02-26T07:30:06Z</time>
  <sat>10</sat>
</trkpt>
<trkpt lat="39.679305000" lon="-0.327272000">
  <ele>95.900000</ele>
  <time>2012-02-26T07:30:09Z</time>
  <sat>10</sat>
</trkpt>
<trkpt lat="39.679285000" lon="-0.327299000">
  <ele>95.600000</ele>
  <time>2012-02-26T07:30:10Z</time>
  <sat>10</sat>
</trkpt>
<trkpt lat="39.679270000" lon="-0.327330000">
  <ele>95.600000</ele>
  <time>2012-02-26T07:30:11Z</time>
  <sat>10</sat>
</trkpt>
<trkpt lat="39.679242000" lon="-0.327405000">
  <ele>96.100000</ele>
  <time>2012-02-26T07:30:13Z</time>
  <sat>10</sat>
</trkpt>
<trkpt lat="39.679234000" lon="-0.327446000">
  <ele>96.300000</ele>
  <time>2012-02-26T07:30:14Z</time>
  <sat>10</sat>
</trkpt>
<trkpt lat="39.679161000" lon="-0.327771000">
  <ele>98.000000</ele>
  <time>2012-02-26T07:30:22Z</time>
  <sat>8</sat>
</trkpt>
<trkpt lat="39.679148000" lon="-0.327810000">
  <ele>97.900000</ele>
  <time>2012-02-26T07:30:23Z</time>
  <sat>7</sat>
</trkpt>
<trkpt lat="39.679118000" lon="-0.327876000">
  <ele>97.900000</ele>
  <time>2012-02-26T07:30:25Z</time>
  <sat>10</sat>
</trkpt>
<trkpt lat="39.677304000" lon="-0.332111000">
  <ele>107.300000</ele>
  <time>2012-02-26T07:32:15Z</time>
  <sat>7</sat>
</trkpt>
<trkpt lat="39.677283000" lon="-0.332143000">
  <ele>107.000000</ele>
  <time>2012-02-26T07:32:16Z</time>
  <sat>7</sat>
</trkpt>
<trkpt lat="39.677240000" lon="-0.332203000">
  <ele>106.100000</ele>
  <time>2012-02-26T07:32:18Z</time>
  <sat>7</sat>
</trkpt>
<trkpt lat="39.677147000" lon="-0.332312000">
  <ele>106.500000</ele>
  <time>2012-02-26T07:32:22Z</time>
  <sat>10</sat>
</trkpt>
<trkpt lat="39.677067000" lon="-0.332385000">
  <ele>107.300000</ele>
  <time>2012-02-26T07:32:25Z</time>
  <sat>10</sat>
</trkpt>
<trkpt lat="39.676906000" lon="-0.332516000">
  <ele>107.900000</ele>
  <time>2012-02-26T07:32:31Z</time>
  <sat>9</sat>
</trkpt>
<trkpt lat="39.676793000" lon="-0.332593000">
  <ele>108.500000</ele>
  <time>2012-02-26T07:32:35Z</time>
  <sat>9</sat>
</trkpt>
<trkpt lat="39.676704000" lon="-0.332646000">
  <ele>109.400000</ele>
  <time>2012-02-26T07:32:38Z</time>
  <sat>9</sat>
</trkpt>
<trkpt lat="39.674633000" lon="-0.333835000">
  <ele>115.800000</ele>
  <time>2012-02-26T07:33:46Z</time>
  <sat>8</sat>
</trkpt>
<trkpt lat="39.674598000" lon="-0.333847000">
  <ele>115.900000</ele>
  <time>2012-02-26T07:33:47Z</time>
  <sat>8</sat>
</trkpt>
<trkpt lat="39.673155000" lon="-0.334340000">
  <ele>122.800000</ele>
  <time>2012-02-26T07:34:32Z</time>
  <sat>10</sat>
</trkpt>
<trkpt lat="39.673121000" lon="-0.334340000">
  <ele>122.100000</ele>
  <time>2012-02-26T07:34:33Z</time>
  <sat>10</sat>
</trkpt>
<trkpt lat="39.673027000" lon="-0.334340000">
  <ele>121.600000</ele>
  <time>2012-02-26T07:34:36Z</time>
  <sat>10</sat>
</trkpt>
<trkpt lat="39.672994000" lon="-0.334336000">
  <ele>121.600000</ele>
  <time>2012-02-26T07:34:37Z</time>
  <sat>10</sat>
</trkpt>
<trkpt lat="39.672468000" lon="-0.334224000">
  <ele>123.000000</ele>
  <time>2012-02-26T07:34:53Z</time>
  <sat>9</sat>
</trkpt>
<trkpt lat="39.672437000" lon="-0.334217000">
  <ele>122.900000</ele>
  <time>2012-02-26T07:34:54Z</time>
  <sat>9</sat>
</trkpt>
<trkpt lat="39.671917000" lon="-0.334181000">
  <ele>123.900000</ele>
  <time>2012-02-26T07:35:09Z</time>
  <sat>8</sat>
</trkpt>
<trkpt lat="39.671688000" lon="-0.334208000">
  <ele>124.000000</ele>
  <time>2012-02-26T07:35:15Z</time>
  <sat>9</sat>
</trkpt>
<trkpt lat="39.670697000" lon="-0.334455000">
  <ele>120.000000</ele>
  <time>2012-02-26T07:35:36Z</time>
  <sat>9</sat>
</trkpt>
<trkpt lat="39.670595000" lon="-0.334499000">
  <ele>119.500000</ele>
  <time>2012-02-26T07:35:38Z</time>
  <sat>9</sat>
</trkpt>
<trkpt lat="39.670456000" lon="-0.334597000">
  <ele>119.600000</ele>
  <time>2012-02-26T07:35:41Z</time>
  <sat>8</sat>
</trkpt>
<trkpt lat="39.670414000" lon="-0.334648000">
  <ele>119.800000</ele>
  <time>2012-02-26T07:35:42Z</time>
  <sat>9</sat>
</trkpt>
<trkpt lat="39.670159000" lon="-0.335045000">
  <ele>121.000000</ele>
  <time>2012-02-26T07:35:49Z</time>
  <sat>6</sat>
</trkpt>
<trkpt lat="39.669343000" lon="-0.336354000">
  <ele>122.600000</ele>
  <time>2012-02-26T07:36:18Z</time>
  <sat>8</sat>
</trkpt>
<trkpt lat="39.669324000" lon="-0.336402000">
  <ele>122.800000</ele>
  <time>2012-02-26T07:36:19Z</time>
  <sat>8</sat>
</trkpt>
<trkpt lat="39.668679000" lon="-0.337459000">
  <ele>129.000000</ele>
  <time>2012-02-26T07:36:48Z</time>
  <sat>8</sat>
</trkpt>
<trkpt lat="39.668642000" lon="-0.337605000">
  <ele>129.500000</ele>
  <time>2012-02-26T07:36:52Z</time>
  <sat>8</sat>
</trkpt>
<trkpt lat="39.668614000" lon="-0.337755000">
  <ele>129.600000</ele>
  <time>2012-02-26T07:36:56Z</time>
  <sat>7</sat>
</trkpt>
<trkpt lat="39.668603000" lon="-0.337871000">
  <ele>129.600000</ele>
  <time>2012-02-26T07:36:59Z</time>
  <sat>7</sat>
</trkpt>
<trkpt lat="39.668606000" lon="-0.338097000">
  <ele>131.000000</ele>
  <time>2012-02-26T07:37:05Z</time>
  <sat>7</sat>
</trkpt>
<trkpt lat="39.668611000" lon="-0.338207000">
  <ele>131.800000</ele>
  <time>2012-02-26T07:37:08Z</time>
  <sat>7</sat>
</trkpt>
<trkpt lat="39.668607000" lon="-0.338244000">
  <ele>132.300000</ele>
  <time>2012-02-26T07:37:09Z</time>
  <sat>7</sat>
</trkpt>
<trkpt lat="39.668606000" lon="-0.338280000">
  <ele>132.600000</ele>
  <time>2012-02-26T07:37:10Z</time>
  <sat>7</sat>
</trkpt>
<trkpt lat="39.668597000" lon="-0.340041000">
  <ele>138.300000</ele>
  <time>2012-02-26T07:37:56Z</time>
  <sat>7</sat>
</trkpt>
<trkpt lat="39.668600000" lon="-0.340083000">
  <ele>138.100000</ele>
  <time>2012-02-26T07:37:57Z</time>
  <sat>7</sat>
</trkpt>
<trkpt lat="39.668598000" lon="-0.340869000">
  <ele>140.600000</ele>
  <time>2012-02-26T07:38:16Z</time>
  <sat>9</sat>
</trkpt>
<trkpt lat="39.668615000" lon="-0.341001000">
  <ele>140.800000</ele>
  <time>2012-02-26T07:38:19Z</time>
  <sat>10</sat>
</trkpt>
<trkpt lat="39.668629000" lon="-0.341040000">
  <ele>140.600000</ele>
  <time>2012-02-26T07:38:20Z</time>
  <sat>10</sat>
</trkpt>
<trkpt lat="39.668818000" lon="-0.341565000">
  <ele>143.100000</ele>
  <time>2012-02-26T07:38:34Z</time>
  <sat>7</sat>
</trkpt>
<trkpt lat="39.668882000" lon="-0.341709000">
  <ele>143.300000</ele>
  <time>2012-02-26T07:38:38Z</time>
  <sat>7</sat>
</trkpt>
<trkpt lat="39.669002000" lon="-0.342019000">
  <ele>145.100000</ele>
  <time>2012-02-26T07:38:46Z</time>
  <sat>7</sat>
</trkpt>
<trkpt lat="39.669032000" lon="-0.342093000">
  <ele>144.800000</ele>
  <time>2012-02-26T07:38:48Z</time>
  <sat>7</sat>
</trkpt>
<trkpt lat="39.669036000" lon="-0.342128000">
  <ele>145.100000</ele>
  <time>2012-02-26T07:38:49Z</time>
  <sat>7</sat>
</trkpt>
<trkpt lat="39.669045000" lon="-0.342239000">
  <ele>145.600000</ele>
  <time>2012-02-26T07:38:52Z</time>
  <sat>8</sat>
</trkpt>
<trkpt lat="39.669043000" lon="-0.342274000">
  <ele>145.600000</ele>
  <time>2012-02-26T07:38:53Z</time>
  <sat>8</sat>
</trkpt>
<trkpt lat="39.669040000" lon="-0.342311000">
  <ele>146.300000</ele>
  <time>2012-02-26T07:38:54Z</time>
  <sat>7</sat>
</trkpt>
<trkpt lat="39.669021000" lon="-0.342413000">
  <ele>146.800000</ele>
  <time>2012-02-26T07:38:57Z</time>
  <sat>7</sat>
</trkpt>
<trkpt lat="39.668999000" lon="-0.342485000">
  <ele>147.100000</ele>
  <time>2012-02-26T07:38:59Z</time>
  <sat>7</sat>
</trkpt>
<trkpt lat="39.668988000" lon="-0.342520000">
  <ele>147.000000</ele>
  <time>2012-02-26T07:39:00Z</time>
  <sat>7</sat>
</trkpt>
<trkpt lat="39.668412000" lon="-0.344816000">
  <ele>154.500000</ele>
  <time>2012-02-26T07:46:36Z</time>
  <sat>9</sat>
</trkpt>
<trkpt lat="39.668405000" lon="-0.344809000">
  <ele>151.000000</ele>
  <time>2012-02-26T07:46:38Z</time>
  <sat>4</sat>
</trkpt>
<trkpt lat="39.668404000" lon="-0.344808000">
  <ele>151.800000</ele>
  <time>2012-02-26T07:46:40Z</time>
  <sat>5</sat>
</trkpt>
<trkpt lat="39.668407000" lon="-0.344814000">
  <ele>152.600000</ele>
  <time>2012-02-26T07:46:41Z</time>
  <sat>6</sat>
</trkpt>
<trkpt lat="39.668411000" lon="-0.344824000">
  <ele>152.600000</ele>
  <time>2012-02-26T07:46:42Z</time>
  <sat>8</sat>
</trkpt>
<trkpt lat="39.668418000" lon="-0.344832000">
  <ele>153.300000</ele>
  <time>2012-02-26T07:46:43Z</time>
  <sat>8</sat>
</trkpt>
<trkpt lat="39.668419000" lon="-0.344846000">
  <ele>154.500000</ele>
  <time>2012-02-26T07:46:44Z</time>
  <sat>8</sat>
</trkpt>
<trkpt lat="39.668418000" lon="-0.344847000">
  <ele>154.600000</ele>
  <time>2012-02-26T07:46:45Z</time>
  <sat>8</sat>
</trkpt>
<trkpt lat="39.668421000" lon="-0.344850000">
  <ele>154.600000</ele>
  <time>2012-02-26T07:46:46Z</time>
  <sat>8</sat>
</trkpt>
<trkpt lat="39.668422000" lon="-0.344849000">
  <ele>154.500000</ele>
  <time>2012-02-26T07:46:47Z</time>
  <sat>8</sat>
</trkpt>
<trkpt lat="39.668422000" lon="-0.344849000">
  <ele>154.600000</ele>
  <time>2012-02-26T07:46:48Z</time>
  <sat>8</sat>
</trkpt>
<trkpt lat="39.668422000" lon="-0.344849000">
  <ele>154.600000</ele>
  <time>2012-02-26T07:46:48Z</time>
  <sat>8</sat>
</trkpt>
</trkseg>
<trkseg>
<trkpt lat="39.668422000" lon="-0.344849000">
  <ele>154.600000</ele>
  <time>2012-02-26T07:46:50Z</time>
  <sat>8</sat>
</trkpt>
<trkpt lat="39.668422000" lon="-0.344849000">
  <ele>154.600000</ele>
  <time>2012-02-26T07:46:51Z</time>
  <sat>7</sat>
</trkpt>
<trkpt lat="39.668422000" lon="-0.344849000">
  <ele>154.600000</ele>
  <time>2012-02-26T07:46:52Z</time>
  <sat>7</sat>
</trkpt>
<trkpt lat="39.668465000" lon="-0.344886000">
  <ele>160.100000</ele>
  <time>2012-02-26T07:47:15Z</time>
  <sat>9</sat>
</trkpt>
<trkpt lat="39.668458000" lon="-0.344907000">
  <ele>160.300000</ele>
  <time>2012-02-26T07:47:16Z</time>
  <sat>9</sat>
</trkpt>
<trkpt lat="39.668455000" lon="-0.344929000">
  <ele>160.500000</ele>
  <time>2012-02-26T07:47:17Z</time>
  <sat>9</sat>
</trkpt>
<trkpt lat="39.668432000" lon="-0.345052000">
  <ele>158.800000</ele>
  <time>2012-02-26T07:47:21Z</time>
  <sat>8</sat>
</trkpt>
<trkpt lat="39.668397000" lon="-0.345143000">
  <ele>158.600000</ele>
  <time>2012-02-26T07:47:24Z</time>
  <sat>8</sat>
</trkpt>
<trkpt lat="39.668349000" lon="-0.345305000">
  <ele>159.600000</ele>
  <time>2012-02-26T07:47:29Z</time>
  <sat>8</sat>
</trkpt>
<trkpt lat="39.668189000" lon="-0.345969000">
  <ele>161.800000</ele>
  <time>2012-02-26T07:47:48Z</time>
  <sat>9</sat>
</trkpt>
<trkpt lat="39.668177000" lon="-0.346005000">
  <ele>162.500000</ele>
  <time>2012-02-26T07:47:49Z</time>
  <sat>9</sat>
</trkpt>
<trkpt lat="39.668171000" lon="-0.346042000">
  <ele>162.300000</ele>
  <time>2012-02-26T07:47:50Z</time>
  <sat>8</sat>
</trkpt>
<trkpt lat="39.668164000" lon="-0.346077000">
  <ele>162.300000</ele>
  <time>2012-02-26T07:47:51Z</time>
  <sat>8</sat>
</trkpt>
<trkpt lat="39.668131000" lon="-0.346223000">
  <ele>163.100000</ele>
  <time>2012-02-26T07:47:55Z</time>
  <sat>9</sat>
</trkpt>
<trkpt lat="39.668106000" lon="-0.346407000">
  <ele>163.100000</ele>
  <time>2012-02-26T07:48:00Z</time>
  <sat>8</sat>
</trkpt>
<trkpt lat="39.668104000" lon="-0.346449000">
  <ele>162.600000</ele>
  <time>2012-02-26T07:48:01Z</time>
  <sat>8</sat>
</trkpt>
<trkpt lat="39.668108000" lon="-0.346789000">
  <ele>164.800000</ele>
  <time>2012-02-26T07:48:09Z</time>
  <sat>8</sat>
</trkpt>
<trkpt lat="39.668150000" lon="-0.347520000">
  <ele>167.600000</ele>
  <time>2012-02-26T07:48:28Z</time>
  <sat>10</sat>
</trkpt>
<trkpt lat="39.668222000" lon="-0.348415000">
  <ele>174.800000</ele>
  <time>2012-02-26T07:48:55Z</time>
  <sat>10</sat>
</trkpt>
<trkpt lat="39.668232000" lon="-0.348444000">
  <ele>175.300000</ele>
  <time>2012-02-26T07:48:56Z</time>
  <sat>10</sat>
</trkpt>
<trkpt lat="39.668237000" lon="-0.348475000">
  <ele>175.600000</ele>
  <time>2012-02-26T07:48:57Z</time>
  <sat>10</sat>
</trkpt>
<trkpt lat="39.668294000" lon="-0.348688000">
  <ele>177.600000</ele>
  <time>2012-02-26T07:49:04Z</time>
  <sat>8</sat>
</trkpt>
<trkpt lat="39.668320000" lon="-0.348815000">
  <ele>177.300000</ele>
  <time>2012-02-26T07:49:08Z</time>
  <sat>8</sat>
</trkpt>
<trkpt lat="39.668389000" lon="-0.349079000">
  <ele>178.800000</ele>
  <time>2012-02-26T07:49:17Z</time>
  <sat>8</sat>
</trkpt>
<trkpt lat="39.668398000" lon="-0.349102000">
  <ele>178.800000</ele>
  <time>2012-02-26T07:49:18Z</time>
  <sat>7</sat>
</trkpt>
<trkpt lat="39.668438000" lon="-0.349168000">
  <ele>179.600000</ele>
  <time>2012-02-26T07:49:21Z</time>
  <sat>8</sat>
</trkpt>
<trkpt lat="39.668478000" lon="-0.349204000">
  <ele>180.800000</ele>
  <time>2012-02-26T07:49:23Z</time>
  <sat>8</sat>
</trkpt>
<trkpt lat="39.668573000" lon="-0.349255000">
  <ele>182.600000</ele>
  <time>2012-02-26T07:49:28Z</time>
  <sat>9</sat>
</trkpt>
<trkpt lat="39.668589000" lon="-0.349266000">
  <ele>182.800000</ele>
  <time>2012-02-26T07:49:29Z</time>
  <sat>9</sat>
</trkpt>
<trkpt lat="39.668601000" lon="-0.349280000">
  <ele>183.100000</ele>
  <time>2012-02-26T07:49:30Z</time>
  <sat>8</sat>
</trkpt>
<trkpt lat="39.668691000" lon="-0.349376000">
  <ele>185.100000</ele>
  <time>2012-02-26T07:49:36Z</time>
  <sat>9</sat>
</trkpt>
<trkpt lat="39.668706000" lon="-0.349395000">
  <ele>185.100000</ele>
  <time>2012-02-26T07:49:37Z</time>
  <sat>9</sat>
</trkpt>
<trkpt lat="39.668717000" lon="-0.349418000">
  <ele>184.800000</ele>
  <time>2012-02-26T07:49:38Z</time>
  <sat>10</sat>
</trkpt>
<trkpt lat="39.668723000" lon="-0.349442000">
  <ele>184.800000</ele>
  <time>2012-02-26T07:49:39Z</time>
  <sat>10</sat>
</trkpt>
<trkpt lat="39.668745000" lon="-0.349535000">
  <ele>185.100000</ele>
  <time>2012-02-26T07:49:43Z</time>
  <sat>9</sat>
</trkpt>
<trkpt lat="39.668737000" lon="-0.349552000">
  <ele>185.000000</ele>
  <time>2012-02-26T07:49:44Z</time>
  <sat>9</sat>
</trkpt>
<trkpt lat="39.668692000" lon="-0.349569000">
  <ele>185.300000</ele>
  <time>2012-02-26T07:49:46Z</time>
  <sat>10</sat>
</trkpt>
<trkpt lat="39.668423000" lon="-0.349705000">
  <ele>187.000000</ele>
  <time>2012-02-26T07:49:58Z</time>
  <sat>8</sat>
</trkpt>
<trkpt lat="39.668403000" lon="-0.349727000">
  <ele>187.100000</ele>
  <time>2012-02-26T07:49:59Z</time>
  <sat>7</sat>
</trkpt>
<trkpt lat="39.668362000" lon="-0.349761000">
  <ele>187.100000</ele>
  <time>2012-02-26T07:50:01Z</time>
  <sat>6</sat>
</trkpt>
<trkpt lat="39.667881000" lon="-0.350157000">
  <ele>191.000000</ele>
  <time>2012-02-26T07:50:22Z</time>
  <sat>6</sat>
</trkpt>
<trkpt lat="39.667856000" lon="-0.350169000">
  <ele>191.300000</ele>
  <time>2012-02-26T07:50:23Z</time>
  <sat>5</sat>
</trkpt>
<trkpt lat="39.667775000" lon="-0.350190000">
  <ele>191.600000</ele>
  <time>2012-02-26T07:50:26Z</time>
  <sat>7</sat>
</trkpt>
<trkpt lat="39.667647000" lon="-0.350206000">
  <ele>192.800000</ele>
  <time>2012-02-26T07:50:31Z</time>
  <sat>10</sat>
</trkpt>
<trkpt lat="39.667387000" lon="-0.350258000">
  <ele>193.500000</ele>
  <time>2012-02-26T07:50:40Z</time>
  <sat>9</sat>
</trkpt>
<trkpt lat="39.667332000" lon="-0.350294000">
  <ele>193.500000</ele>
  <time>2012-02-26T07:50:42Z</time>
  <sat>9</sat>
</trkpt>
<trkpt lat="39.667206000" lon="-0.350402000">
  <ele>193.800000</ele>
  <time>2012-02-26T07:50:47Z</time>
  <sat>9</sat>
</trkpt>
<trkpt lat="39.667187000" lon="-0.350436000">
  <ele>193.600000</ele>
  <time>2012-02-26T07:50:48Z</time>
  <sat>9</sat>
</trkpt>
<trkpt lat="39.667032000" lon="-0.350789000">
  <ele>195.000000</ele>
  <time>2012-02-26T07:50:57Z</time>
  <sat>8</sat>
</trkpt>
<trkpt lat="39.666789000" lon="-0.351432000">
  <ele>198.300000</ele>
  <time>2012-02-26T07:51:16Z</time>
  <sat>7</sat>
</trkpt>
<trkpt lat="39.666780000" lon="-0.351474000">
  <ele>198.800000</ele>
  <time>2012-02-26T07:51:17Z</time>
  <sat>7</sat>
</trkpt>
<trkpt lat="39.666755000" lon="-0.351719000">
  <ele>199.000000</ele>
  <time>2012-02-26T07:51:24Z</time>
  <sat>10</sat>
</trkpt>
<trkpt lat="39.666721000" lon="-0.351844000">
  <ele>199.100000</ele>
  <time>2012-02-26T07:51:28Z</time>
  <sat>10</sat>
</trkpt>
<trkpt lat="39.666712000" lon="-0.351852000">
  <ele>198.800000</ele>
  <time>2012-02-26T07:51:29Z</time>
  <sat>10</sat>
</trkpt>
<trkpt lat="39.666684000" lon="-0.351872000">
  <ele>199.600000</ele>
  <time>2012-02-26T07:51:30Z</time>
  <sat>8</sat>
</trkpt>
<trkpt lat="39.666653000" lon="-0.351883000">
  <ele>199.300000</ele>
  <time>2012-02-26T07:51:32Z</time>
  <sat>8</sat>
</trkpt>
<trkpt lat="39.666630000" lon="-0.351869000">
  <ele>198.800000</ele>
  <time>2012-02-26T07:51:33Z</time>
  <sat>8</sat>
</trkpt>
<trkpt lat="39.666541000" lon="-0.351791000">
  <ele>198.600000</ele>
  <time>2012-02-26T07:51:37Z</time>
  <sat>10</sat>
</trkpt>
<trkpt lat="39.666406000" lon="-0.351675000">
  <ele>198.300000</ele>
  <time>2012-02-26T07:51:44Z</time>
  <sat>8</sat>
</trkpt>
<trkpt lat="39.666377000" lon="-0.351672000">
  <ele>198.600000</ele>
  <time>2012-02-26T07:51:45Z</time>
  <sat>8</sat>
</trkpt>
<trkpt lat="39.666352000" lon="-0.351666000">
  <ele>199.300000</ele>
  <time>2012-02-26T07:51:46Z</time>
  <sat>8</sat>
</trkpt>
<trkpt lat="39.666255000" lon="-0.351643000">
  <ele>203.300000</ele>
  <time>2012-02-26T07:51:50Z</time>
  <sat>10</sat>
</trkpt>
<trkpt lat="39.666206000" lon="-0.351641000">
  <ele>204.800000</ele>
  <time>2012-02-26T07:51:52Z</time>
  <sat>10</sat>
</trkpt>
<trkpt lat="39.666185000" lon="-0.351641000">
  <ele>205.100000</ele>
  <time>2012-02-26T07:51:53Z</time>
  <sat>10</sat>
</trkpt>
<trkpt lat="39.666122000" lon="-0.351650000">
  <ele>206.100000</ele>
  <time>2012-02-26T07:51:56Z</time>
  <sat>10</sat>
</trkpt>
<trkpt lat="39.665905000" lon="-0.351693000">
  <ele>207.000000</ele>
  <time>2012-02-26T07:52:06Z</time>
  <sat>10</sat>
</trkpt>
<trkpt lat="39.665774000" lon="-0.351732000">
  <ele>209.000000</ele>
  <time>2012-02-26T07:52:12Z</time>
  <sat>9</sat>
</trkpt>
<trkpt lat="39.665613000" lon="-0.351780000">
  <ele>210.500000</ele>
  <time>2012-02-26T07:52:19Z</time>
  <sat>10</sat>
</trkpt>
<trkpt lat="39.665582000" lon="-0.351778000">
  <ele>210.100000</ele>
  <time>2012-02-26T07:52:20Z</time>
  <sat>10</sat>
</trkpt>
<trkpt lat="39.665530000" lon="-0.351759000">
  <ele>210.300000</ele>
  <time>2012-02-26T07:52:22Z</time>
  <sat>10</sat>
</trkpt>
<trkpt lat="39.665486000" lon="-0.351738000">
  <ele>211.100000</ele>
  <time>2012-02-26T07:52:24Z</time>
  <sat>10</sat>
</trkpt>
<trkpt lat="39.665462000" lon="-0.351724000">
  <ele>211.100000</ele>
  <time>2012-02-26T07:52:25Z</time>
  <sat>10</sat>
</trkpt>
<trkpt lat="39.665439000" lon="-0.351706000">
  <ele>211.500000</ele>
  <time>2012-02-26T07:52:26Z</time>
  <sat>10</sat>
</trkpt>
<trkpt lat="39.665418000" lon="-0.351697000">
  <ele>211.300000</ele>
  <time>2012-02-26T07:52:27Z</time>
  <sat>10</sat>
</trkpt>
<trkpt lat="39.665260000" lon="-0.351639000">
  <ele>210.000000</ele>
  <time>2012-02-26T07:52:34Z</time>
  <sat>10</sat>
</trkpt>
<trkpt lat="39.665237000" lon="-0.351642000">
  <ele>210.300000</ele>
  <time>2012-02-26T07:52:35Z</time>
  <sat>10</sat>
</trkpt>
<trkpt lat="39.665218000" lon="-0.351639000">
  <ele>210.300000</ele>
  <time>2012-02-26T07:52:36Z</time>
  <sat>10</sat>
</trkpt>
<trkpt lat="39.664876000" lon="-0.351584000">
  <ele>212.800000</ele>
  <time>2012-02-26T07:52:49Z</time>
  <sat>10</sat>
</trkpt>
<trkpt lat="39.664851000" lon="-0.351569000">
  <ele>213.100000</ele>
  <time>2012-02-26T07:52:50Z</time>
  <sat>10</sat>
</trkpt>
<trkpt lat="39.664739000" lon="-0.351507000">
  <ele>214.100000</ele>
  <time>2012-02-26T07:52:55Z</time>
  <sat>10</sat>
</trkpt>
<trkpt lat="39.664623000" lon="-0.351427000">
  <ele>216.100000</ele>
  <time>2012-02-26T07:53:00Z</time>
  <sat>10</sat>
</trkpt>
<trkpt lat="39.664545000" lon="-0.351356000">
  <ele>217.100000</ele>
  <time>2012-02-26T07:53:04Z</time>
  <sat>10</sat>
</trkpt>
<trkpt lat="39.664499000" lon="-0.351313000">
  <ele>217.100000</ele>
  <time>2012-02-26T07:53:06Z</time>
  <sat>10</sat>
</trkpt>
<trkpt lat="39.664489000" lon="-0.351282000">
  <ele>217.300000</ele>
  <time>2012-02-26T07:53:07Z</time>
  <sat>10</sat>
</trkpt>
<trkpt lat="39.664471000" lon="-0.351259000">
  <ele>217.600000</ele>
  <time>2012-02-26T07:53:08Z</time>
  <sat>10</sat>
</trkpt>
<trkpt lat="39.664452000" lon="-0.351240000">
  <ele>218.000000</ele>
  <time>2012-02-26T07:53:09Z</time>
  <sat>10</sat>
</trkpt>
<trkpt lat="39.664426000" lon="-0.351228000">
  <ele>218.100000</ele>
  <time>2012-02-26T07:53:10Z</time>
  <sat>10</sat>
</trkpt>
<trkpt lat="39.664292000" lon="-0.351180000">
  <ele>219.000000</ele>
  <time>2012-02-26T07:53:15Z</time>
  <sat>10</sat>
</trkpt>
<trkpt lat="39.664255000" lon="-0.351180000">
  <ele>219.600000</ele>
  <time>2012-02-26T07:53:16Z</time>
  <sat>10</sat>
</trkpt>
<trkpt lat="39.663991000" lon="-0.351157000">
  <ele>218.000000</ele>
  <time>2012-02-26T07:53:24Z</time>
  <sat>10</sat>
</trkpt>
<trkpt lat="39.663954000" lon="-0.351150000">
  <ele>217.800000</ele>
  <time>2012-02-26T07:53:25Z</time>
  <sat>10</sat>
</trkpt>
<trkpt lat="39.663874000" lon="-0.351128000">
  <ele>217.600000</ele>
  <time>2012-02-26T07:53:27Z</time>
  <sat>10</sat>
</trkpt>
<trkpt lat="39.663799000" lon="-0.351094000">
  <ele>217.500000</ele>
  <time>2012-02-26T07:53:29Z</time>
  <sat>9</sat>
</trkpt>
<trkpt lat="39.663409000" lon="-0.350951000">
  <ele>215.100000</ele>
  <time>2012-02-26T07:53:37Z</time>
  <sat>10</sat>
</trkpt>
<trkpt lat="39.663237000" lon="-0.350918000">
  <ele>214.000000</ele>
  <time>2012-02-26T07:53:40Z</time>
  <sat>10</sat>
</trkpt>
<trkpt lat="39.663120000" lon="-0.350911000">
  <ele>213.300000</ele>
  <time>2012-02-26T07:53:42Z</time>
  <sat>10</sat>
</trkpt>
<trkpt lat="39.663060000" lon="-0.350918000">
  <ele>212.600000</ele>
  <time>2012-02-26T07:53:43Z</time>
  <sat>10</sat>
</trkpt>
<trkpt lat="39.662938000" lon="-0.350957000">
  <ele>211.500000</ele>
  <time>2012-02-26T07:53:45Z</time>
  <sat>10</sat>
</trkpt>
<trkpt lat="39.662528000" lon="-0.351076000">
  <ele>208.800000</ele>
  <time>2012-02-26T07:53:51Z</time>
  <sat>9</sat>
</trkpt>
<trkpt lat="39.662465000" lon="-0.351046000">
  <ele>209.000000</ele>
  <time>2012-02-26T07:53:52Z</time>
  <sat>9</sat>
</trkpt>
<trkpt lat="39.662403000" lon="-0.350979000">
  <ele>208.600000</ele>
  <time>2012-02-26T07:53:53Z</time>
  <sat>9</sat>
</trkpt>
<trkpt lat="39.662301000" lon="-0.350896000">
  <ele>208.100000</ele>
  <time>2012-02-26T07:53:55Z</time>
  <sat>9</sat>
</trkpt>
<trkpt lat="39.662256000" lon="-0.350859000">
  <ele>208.300000</ele>
  <time>2012-02-26T07:53:56Z</time>
  <sat>9</sat>
</trkpt>
<trkpt lat="39.662209000" lon="-0.350845000">
  <ele>208.600000</ele>
  <time>2012-02-26T07:53:57Z</time>
  <sat>10</sat>
</trkpt>
<trkpt lat="39.661919000" lon="-0.350798000">
  <ele>211.300000</ele>
  <time>2012-02-26T07:54:06Z</time>
  <sat>9</sat>
</trkpt>
<trkpt lat="39.661889000" lon="-0.350807000">
  <ele>212.100000</ele>
  <time>2012-02-26T07:54:07Z</time>
  <sat>9</sat>
</trkpt>
<trkpt lat="39.661860000" lon="-0.350808000">
  <ele>212.600000</ele>
  <time>2012-02-26T07:54:08Z</time>
  <sat>10</sat>
</trkpt>
<trkpt lat="39.661688000" lon="-0.350836000">
  <ele>212.500000</ele>
  <time>2012-02-26T07:54:13Z</time>
  <sat>9</sat>
</trkpt>
<trkpt lat="39.661654000" lon="-0.350845000">
  <ele>212.600000</ele>
  <time>2012-02-26T07:54:14Z</time>
  <sat>9</sat>
</trkpt>
<trkpt lat="39.661223000" lon="-0.350996000">
  <ele>213.300000</ele>
  <time>2012-02-26T07:54:25Z</time>
  <sat>9</sat>
</trkpt>
<trkpt lat="39.661182000" lon="-0.350994000">
  <ele>213.600000</ele>
  <time>2012-02-26T07:54:26Z</time>
  <sat>9</sat>
</trkpt>
<trkpt lat="39.660992000" lon="-0.350959000">
  <ele>215.300000</ele>
  <time>2012-02-26T07:54:31Z</time>
  <sat>10</sat>
</trkpt>
<trkpt lat="39.660861000" lon="-0.350958000">
  <ele>216.600000</ele>
  <time>2012-02-26T07:54:35Z</time>
  <sat>10</sat>
</trkpt>
<trkpt lat="39.660795000" lon="-0.350979000">
  <ele>216.300000</ele>
  <time>2012-02-26T07:54:37Z</time>
  <sat>10</sat>
</trkpt>
<trkpt lat="39.660764000" lon="-0.350998000">
  <ele>216.100000</ele>
  <time>2012-02-26T07:54:38Z</time>
  <sat>10</sat>
</trkpt>
<trkpt lat="39.660736000" lon="-0.351019000">
  <ele>215.800000</ele>
  <time>2012-02-26T07:54:39Z</time>
  <sat>10</sat>
</trkpt>
<trkpt lat="39.660714000" lon="-0.351041000">
  <ele>215.800000</ele>
  <time>2012-02-26T07:54:40Z</time>
  <sat>10</sat>
</trkpt>
<trkpt lat="39.660699000" lon="-0.351077000">
  <ele>216.500000</ele>
  <time>2012-02-26T07:54:41Z</time>
  <sat>10</sat>
</trkpt>
<trkpt lat="39.660683000" lon="-0.351113000">
  <ele>216.800000</ele>
  <time>2012-02-26T07:54:42Z</time>
  <sat>10</sat>
</trkpt>
<trkpt lat="39.660674000" lon="-0.351156000">
  <ele>216.500000</ele>
  <time>2012-02-26T07:54:43Z</time>
  <sat>9</sat>
</trkpt>
<trkpt lat="39.660664000" lon="-0.351236000">
  <ele>216.600000</ele>
  <time>2012-02-26T07:54:45Z</time>
  <sat>9</sat>
</trkpt>
<trkpt lat="39.660665000" lon="-0.351273000">
  <ele>216.800000</ele>
  <time>2012-02-26T07:54:46Z</time>
  <sat>8</sat>
</trkpt>
<trkpt lat="39.660669000" lon="-0.351302000">
  <ele>217.600000</ele>
  <time>2012-02-26T07:54:47Z</time>
  <sat>9</sat>
</trkpt>
<trkpt lat="39.660681000" lon="-0.351337000">
  <ele>217.500000</ele>
  <time>2012-02-26T07:54:48Z</time>
  <sat>9</sat>
</trkpt>
<trkpt lat="39.660718000" lon="-0.351433000">
  <ele>217.800000</ele>
  <time>2012-02-26T07:54:51Z</time>
  <sat>7</sat>
</trkpt>
<trkpt lat="39.660751000" lon="-0.351489000">
  <ele>218.100000</ele>
  <time>2012-02-26T07:54:53Z</time>
  <sat>8</sat>
</trkpt>
<trkpt lat="39.660789000" lon="-0.351540000">
  <ele>218.100000</ele>
  <time>2012-02-26T07:54:55Z</time>
  <sat>9</sat>
</trkpt>
<trkpt lat="39.660904000" lon="-0.351691000">
  <ele>219.500000</ele>
  <time>2012-02-26T07:55:01Z</time>
  <sat>8</sat>
</trkpt>
<trkpt lat="39.660915000" lon="-0.351717000">
  <ele>219.600000</ele>
  <time>2012-02-26T07:55:02Z</time>
  <sat>9</sat>
</trkpt>
<trkpt lat="39.660932000" lon="-0.351773000">
  <ele>220.000000</ele>
  <time>2012-02-26T07:55:04Z</time>
  <sat>9</sat>
</trkpt>
<trkpt lat="39.660937000" lon="-0.351802000">
  <ele>220.000000</ele>
  <time>2012-02-26T07:55:05Z</time>
  <sat>10</sat>
</trkpt>
<trkpt lat="39.660943000" lon="-0.351860000">
  <ele>220.300000</ele>
  <time>2012-02-26T07:55:07Z</time>
  <sat>9</sat>
</trkpt>
<trkpt lat="39.660941000" lon="-0.351890000">
  <ele>220.500000</ele>
  <time>2012-02-26T07:55:08Z</time>
  <sat>9</sat>
</trkpt>
<trkpt lat="39.660936000" lon="-0.351919000">
  <ele>220.500000</ele>
  <time>2012-02-26T07:55:09Z</time>
  <sat>9</sat>
</trkpt>
<trkpt lat="39.660836000" lon="-0.352617000">
  <ele>226.300000</ele>
  <time>2012-02-26T07:55:33Z</time>
  <sat>7</sat>
</trkpt>
<trkpt lat="39.660833000" lon="-0.352645000">
  <ele>226.500000</ele>
  <time>2012-02-26T07:55:34Z</time>
  <sat>7</sat>
</trkpt>
<trkpt lat="39.660795000" lon="-0.353047000">
  <ele>229.600000</ele>
  <time>2012-02-26T07:55:48Z</time>
  <sat>8</sat>
</trkpt>
<trkpt lat="39.660795000" lon="-0.353072000">
  <ele>229.600000</ele>
  <time>2012-02-26T07:55:49Z</time>
  <sat>8</sat>
</trkpt>
<trkpt lat="39.660794000" lon="-0.353120000">
  <ele>228.800000</ele>
  <time>2012-02-26T07:55:51Z</time>
  <sat>8</sat>
</trkpt>
<trkpt lat="39.660797000" lon="-0.353150000">
  <ele>228.800000</ele>
  <time>2012-02-26T07:55:52Z</time>
  <sat>8</sat>
</trkpt>
<trkpt lat="39.660798000" lon="-0.353207000">
  <ele>229.100000</ele>
  <time>2012-02-26T07:55:54Z</time>
  <sat>8</sat>
</trkpt>
<trkpt lat="39.660797000" lon="-0.353420000">
  <ele>230.100000</ele>
  <time>2012-02-26T07:56:02Z</time>
  <sat>7</sat>
</trkpt>
<trkpt lat="39.660796000" lon="-0.353448000">
  <ele>230.300000</ele>
  <time>2012-02-26T07:56:03Z</time>
  <sat>8</sat>
</trkpt>
<trkpt lat="39.660792000" lon="-0.353474000">
  <ele>230.600000</ele>
  <time>2012-02-26T07:56:04Z</time>
  <sat>7</sat>
</trkpt>
<trkpt lat="39.660743000" lon="-0.353828000">
  <ele>236.100000</ele>
  <time>2012-02-26T07:56:19Z</time>
  <sat>8</sat>
</trkpt>
<trkpt lat="39.660740000" lon="-0.353854000">
  <ele>236.100000</ele>
  <time>2012-02-26T07:56:20Z</time>
  <sat>8</sat>
</trkpt>
<trkpt lat="39.660737000" lon="-0.353877000">
  <ele>236.600000</ele>
  <time>2012-02-26T07:56:21Z</time>
  <sat>8</sat>
</trkpt>
<trkpt lat="39.660738000" lon="-0.353900000">
  <ele>236.600000</ele>
  <time>2012-02-26T07:56:22Z</time>
  <sat>7</sat>
</trkpt>
<trkpt lat="39.660748000" lon="-0.353986000">
  <ele>237.000000</ele>
  <time>2012-02-26T07:56:26Z</time>
  <sat>7</sat>
</trkpt>
<trkpt lat="39.660753000" lon="-0.354009000">
  <ele>237.100000</ele>
  <time>2012-02-26T07:56:27Z</time>
  <sat>7</sat>
</trkpt>
<trkpt lat="39.660768000" lon="-0.354054000">
  <ele>237.600000</ele>
  <time>2012-02-26T07:56:29Z</time>
  <sat>8</sat>
</trkpt>
<trkpt lat="39.660799000" lon="-0.354126000">
  <ele>237.800000</ele>
  <time>2012-02-26T07:56:32Z</time>
  <sat>8</sat>
</trkpt>
<trkpt lat="39.660868000" lon="-0.354266000">
  <ele>239.800000</ele>
  <time>2012-02-26T07:56:38Z</time>
  <sat>8</sat>
</trkpt>
<trkpt lat="39.660875000" lon="-0.354290000">
  <ele>240.100000</ele>
  <time>2012-02-26T07:56:39Z</time>
  <sat>8</sat>
</trkpt>
<trkpt lat="39.660885000" lon="-0.354368000">
  <ele>240.100000</ele>
  <time>2012-02-26T07:56:42Z</time>
  <sat>8</sat>
</trkpt>
<trkpt lat="39.660882000" lon="-0.354392000">
  <ele>240.100000</ele>
  <time>2012-02-26T07:56:43Z</time>
  <sat>8</sat>
</trkpt>
<trkpt lat="39.660833000" lon="-0.354564000">
  <ele>241.300000</ele>
  <time>2012-02-26T07:56:50Z</time>
  <sat>8</sat>
</trkpt>
<trkpt lat="39.660793000" lon="-0.354729000">
  <ele>243.300000</ele>
  <time>2012-02-26T07:56:56Z</time>
  <sat>8</sat>
</trkpt>
<trkpt lat="39.660793000" lon="-0.354756000">
  <ele>243.300000</ele>
  <time>2012-02-26T07:56:57Z</time>
  <sat>8</sat>
</trkpt>
<trkpt lat="39.660787000" lon="-0.354788000">
  <ele>243.300000</ele>
  <time>2012-02-26T07:56:58Z</time>
  <sat>8</sat>
</trkpt>
<trkpt lat="39.660788000" lon="-0.354817000">
  <ele>243.800000</ele>
  <time>2012-02-26T07:56:59Z</time>
  <sat>8</sat>
</trkpt>
<trkpt lat="39.660788000" lon="-0.354851000">
  <ele>244.500000</ele>
  <time>2012-02-26T07:57:00Z</time>
  <sat>8</sat>
</trkpt>
<trkpt lat="39.660794000" lon="-0.354883000">
  <ele>244.800000</ele>
  <time>2012-02-26T07:57:01Z</time>
  <sat>8</sat>
</trkpt>
<trkpt lat="39.660802000" lon="-0.354917000">
  <ele>245.100000</ele>
  <time>2012-02-26T07:57:02Z</time>
  <sat>8</sat>
</trkpt>
<trkpt lat="39.660819000" lon="-0.354941000">
  <ele>244.800000</ele>
  <time>2012-02-26T07:57:03Z</time>
  <sat>8</sat>
</trkpt>
<trkpt lat="39.660831000" lon="-0.354972000">
  <ele>244.800000</ele>
  <time>2012-02-26T07:57:04Z</time>
  <sat>8</sat>
</trkpt>
<trkpt lat="39.660834000" lon="-0.355034000">
  <ele>245.300000</ele>
  <time>2012-02-26T07:57:06Z</time>
  <sat>8</sat>
</trkpt>
<trkpt lat="39.660833000" lon="-0.355065000">
  <ele>245.600000</ele>
  <time>2012-02-26T07:57:07Z</time>
  <sat>8</sat>
</trkpt>
<trkpt lat="39.660825000" lon="-0.355101000">
  <ele>246.000000</ele>
  <time>2012-02-26T07:57:08Z</time>
  <sat>8</sat>
</trkpt>
<trkpt lat="39.660799000" lon="-0.355174000">
  <ele>247.500000</ele>
  <time>2012-02-26T07:57:11Z</time>
  <sat>8</sat>
</trkpt>
<trkpt lat="39.660782000" lon="-0.355192000">
  <ele>248.100000</ele>
  <time>2012-02-26T07:57:12Z</time>
  <sat>8</sat>
</trkpt>
<trkpt lat="39.660767000" lon="-0.355206000">
  <ele>247.800000</ele>
  <time>2012-02-26T07:57:13Z</time>
  <sat>8</sat>
</trkpt>
<trkpt lat="39.660747000" lon="-0.355222000">
  <ele>248.100000</ele>
  <time>2012-02-26T07:57:14Z</time>
  <sat>8</sat>
</trkpt>
<trkpt lat="39.660729000" lon="-0.355226000">
  <ele>248.000000</ele>
  <time>2012-02-26T07:57:15Z</time>
  <sat>8</sat>
</trkpt>
<trkpt lat="39.660662000" lon="-0.355253000">
  <ele>248.100000</ele>
  <time>2012-02-26T07:57:18Z</time>
  <sat>8</sat>
</trkpt>
<trkpt lat="39.660648000" lon="-0.355274000">
  <ele>248.100000</ele>
  <time>2012-02-26T07:57:19Z</time>
  <sat>8</sat>
</trkpt>
<trkpt lat="39.660644000" lon="-0.355312000">
  <ele>248.300000</ele>
  <time>2012-02-26T07:57:20Z</time>
  <sat>8</sat>
</trkpt>
<trkpt lat="39.660634000" lon="-0.355341000">
  <ele>248.000000</ele>
  <time>2012-02-26T07:57:21Z</time>
  <sat>8</sat>
</trkpt>
<trkpt lat="39.660628000" lon="-0.355376000">
  <ele>247.600000</ele>
  <time>2012-02-26T07:57:22Z</time>
  <sat>8</sat>
</trkpt>
<trkpt lat="39.660602000" lon="-0.355478000">
  <ele>248.100000</ele>
  <time>2012-02-26T07:57:25Z</time>
  <sat>8</sat>
</trkpt>
<trkpt lat="39.660579000" lon="-0.355537000">
  <ele>248.300000</ele>
  <time>2012-02-26T07:57:27Z</time>
  <sat>7</sat>
</trkpt>
<trkpt lat="39.660372000" lon="-0.356051000">
  <ele>250.100000</ele>
  <time>2012-02-26T07:57:46Z</time>
  <sat>8</sat>
</trkpt>
<trkpt lat="39.660359000" lon="-0.356077000">
  <ele>250.600000</ele>
  <time>2012-02-26T07:57:47Z</time>
  <sat>8</sat>
</trkpt>
<trkpt lat="39.660288000" lon="-0.356190000">
  <ele>251.000000</ele>
  <time>2012-02-26T07:57:52Z</time>
  <sat>8</sat>
</trkpt>
<trkpt lat="39.660273000" lon="-0.356208000">
  <ele>251.500000</ele>
  <time>2012-02-26T07:57:53Z</time>
  <sat>8</sat>
</trkpt>
<trkpt lat="39.660222000" lon="-0.356265000">
  <ele>253.600000</ele>
  <time>2012-02-26T07:57:56Z</time>
  <sat>9</sat>
</trkpt>
<trkpt lat="39.660206000" lon="-0.356281000">
  <ele>253.300000</ele>
  <time>2012-02-26T07:57:57Z</time>
  <sat>9</sat>
</trkpt>
<trkpt lat="39.660096000" lon="-0.356389000">
  <ele>253.600000</ele>
  <time>2012-02-26T07:58:04Z</time>
  <sat>9</sat>
</trkpt>
<trkpt lat="39.660031000" lon="-0.356466000">
  <ele>254.000000</ele>
  <time>2012-02-26T07:58:08Z</time>
  <sat>8</sat>
</trkpt>
<trkpt lat="39.659905000" lon="-0.356598000">
  <ele>255.100000</ele>
  <time>2012-02-26T07:58:15Z</time>
  <sat>7</sat>
</trkpt>
<trkpt lat="39.659886000" lon="-0.356614000">
  <ele>255.100000</ele>
  <time>2012-02-26T07:58:16Z</time>
  <sat>7</sat>
</trkpt>
<trkpt lat="39.659686000" lon="-0.356770000">
  <ele>258.000000</ele>
  <time>2012-02-26T07:58:26Z</time>
  <sat>9</sat>
</trkpt>
<trkpt lat="39.659665000" lon="-0.356782000">
  <ele>257.800000</ele>
  <time>2012-02-26T07:58:27Z</time>
  <sat>9</sat>
</trkpt>
<trkpt lat="39.659600000" lon="-0.356810000">
  <ele>258.100000</ele>
  <time>2012-02-26T07:58:30Z</time>
  <sat>8</sat>
</trkpt>
<trkpt lat="39.659552000" lon="-0.356822000">
  <ele>258.700000</ele>
  <time>2012-02-26T07:58:32Z</time>
  <sat>8</sat>
</trkpt>
<trkpt lat="39.659391000" lon="-0.356863000">
  <ele>260.500000</ele>
  <time>2012-02-26T07:58:39Z</time>
  <sat>8</sat>
</trkpt>
<trkpt lat="39.659346000" lon="-0.356885000">
  <ele>260.800000</ele>
  <time>2012-02-26T07:58:41Z</time>
  <sat>8</sat>
</trkpt>
<trkpt lat="39.659236000" lon="-0.356946000">
  <ele>261.000000</ele>
  <time>2012-02-26T07:58:46Z</time>
  <sat>9</sat>
</trkpt>
<trkpt lat="39.659104000" lon="-0.357014000">
  <ele>261.800000</ele>
  <time>2012-02-26T07:58:52Z</time>
  <sat>8</sat>
</trkpt>
<trkpt lat="39.659082000" lon="-0.357024000">
  <ele>262.200000</ele>
  <time>2012-02-26T07:58:53Z</time>
  <sat>8</sat>
</trkpt>
<trkpt lat="39.658957000" lon="-0.357076000">
  <ele>262.000000</ele>
  <time>2012-02-26T07:58:59Z</time>
  <sat>8</sat>
</trkpt>
<trkpt lat="39.658937000" lon="-0.357091000">
  <ele>262.000000</ele>
  <time>2012-02-26T07:59:00Z</time>
  <sat>9</sat>
</trkpt>
<trkpt lat="39.658860000" lon="-0.357144000">
  <ele>263.200000</ele>
  <time>2012-02-26T07:59:04Z</time>
  <sat>10</sat>
</trkpt>
<trkpt lat="39.658746000" lon="-0.357238000">
  <ele>264.200000</ele>
  <time>2012-02-26T07:59:11Z</time>
  <sat>8</sat>
</trkpt>
<trkpt lat="39.658729000" lon="-0.357263000">
  <ele>264.200000</ele>
  <time>2012-02-26T07:59:12Z</time>
  <sat>8</sat>
</trkpt>
<trkpt lat="39.658627000" lon="-0.357441000">
  <ele>270.200000</ele>
  <time>2012-02-26T07:59:22Z</time>
  <sat>7</sat>
</trkpt>
<trkpt lat="39.658621000" lon="-0.357460000">
  <ele>270.700000</ele>
  <time>2012-02-26T07:59:23Z</time>
  <sat>8</sat>
</trkpt>
<trkpt lat="39.658584000" lon="-0.357579000">
  <ele>271.200000</ele>
  <time>2012-02-26T07:59:28Z</time>
  <sat>8</sat>
</trkpt>
<trkpt lat="39.658562000" lon="-0.357652000">
  <ele>271.300000</ele>
  <time>2012-02-26T07:59:31Z</time>
  <sat>9</sat>
</trkpt>
<trkpt lat="39.658560000" lon="-0.357677000">
  <ele>271.600000</ele>
  <time>2012-02-26T07:59:32Z</time>
  <sat>9</sat>
</trkpt>
<trkpt lat="39.658560000" lon="-0.357707000">
  <ele>271.600000</ele>
  <time>2012-02-26T07:59:33Z</time>
  <sat>9</sat>
</trkpt>
<trkpt lat="39.658567000" lon="-0.357789000">
  <ele>272.200000</ele>
  <time>2012-02-26T07:59:36Z</time>
  <sat>7</sat>
</trkpt>
<trkpt lat="39.658573000" lon="-0.357818000">
  <ele>272.200000</ele>
  <time>2012-02-26T07:59:37Z</time>
  <sat>7</sat>
</trkpt>
<trkpt lat="39.658579000" lon="-0.357843000">
  <ele>272.200000</ele>
  <time>2012-02-26T07:59:38Z</time>
  <sat>8</sat>
</trkpt>
<trkpt lat="39.658590000" lon="-0.357867000">
  <ele>272.300000</ele>
  <time>2012-02-26T07:59:39Z</time>
  <sat>8</sat>
</trkpt>
<trkpt lat="39.658630000" lon="-0.357943000">
  <ele>272.600000</ele>
  <time>2012-02-26T07:59:42Z</time>
  <sat>8</sat>
</trkpt>
<trkpt lat="39.658783000" lon="-0.358193000">
  <ele>274.000000</ele>
  <time>2012-02-26T07:59:52Z</time>
  <sat>7</sat>
</trkpt>
<trkpt lat="39.658900000" lon="-0.358345000">
  <ele>275.200000</ele>
  <time>2012-02-26T07:59:59Z</time>
  <sat>8</sat>
</trkpt>
<trkpt lat="39.658917000" lon="-0.358366000">
  <ele>275.300000</ele>
  <time>2012-02-26T08:00:00Z</time>
  <sat>8</sat>
</trkpt>
<trkpt lat="39.658979000" lon="-0.358461000">
  <ele>276.200000</ele>
  <time>2012-02-26T08:00:04Z</time>
  <sat>8</sat>
</trkpt>
<trkpt lat="39.659039000" lon="-0.358563000">
  <ele>276.500000</ele>
  <time>2012-02-26T08:00:08Z</time>
  <sat>8</sat>
</trkpt>
<trkpt lat="39.663069000" lon="-0.361394000">
  <ele>278.800000</ele>
  <time>2012-02-26T08:04:00Z</time>
  <sat>8</sat>
</trkpt>
<trkpt lat="39.663099000" lon="-0.361458000">
  <ele>280.100000</ele>
  <time>2012-02-26T08:04:01Z</time>
  <sat>8</sat>
</trkpt>
<trkpt lat="39.663141000" lon="-0.361496000">
  <ele>280.500000</ele>
  <time>2012-02-26T08:04:02Z</time>
  <sat>8</sat>
</trkpt>
<trkpt lat="39.663224000" lon="-0.361595000">
  <ele>284.100000</ele>
  <time>2012-02-26T08:04:04Z</time>
  <sat>8</sat>
</trkpt>
<trkpt lat="39.663251000" lon="-0.361639000">
  <ele>284.300000</ele>
  <time>2012-02-26T08:04:05Z</time>
  <sat>8</sat>
</trkpt>
<trkpt lat="39.663275000" lon="-0.361688000">
  <ele>284.600000</ele>
  <time>2012-02-26T08:04:06Z</time>
  <sat>8</sat>
</trkpt>
<trkpt lat="39.663288000" lon="-0.361746000">
  <ele>284.500000</ele>
  <time>2012-02-26T08:04:07Z</time>
  <sat>9</sat>
</trkpt>
<trkpt lat="39.663306000" lon="-0.361893000">
  <ele>282.600000</ele>
  <time>2012-02-26T08:04:10Z</time>
  <sat>9</sat>
</trkpt>
<trkpt lat="39.663274000" lon="-0.361944000">
  <ele>283.800000</ele>
  <time>2012-02-26T08:04:11Z</time>
  <sat>9</sat>
</trkpt>
<trkpt lat="39.663264000" lon="-0.361992000">
  <ele>284.500000</ele>
  <time>2012-02-26T08:04:12Z</time>
  <sat>9</sat>
</trkpt>
<trkpt lat="39.663242000" lon="-0.362089000">
  <ele>285.200000</ele>
  <time>2012-02-26T08:04:14Z</time>
  <sat>9</sat>
</trkpt>
<trkpt lat="39.663240000" lon="-0.362141000">
  <ele>285.600000</ele>
  <time>2012-02-26T08:04:15Z</time>
  <sat>8</sat>
</trkpt>
<trkpt lat="39.663243000" lon="-0.362249000">
  <ele>286.200000</ele>
  <time>2012-02-26T08:04:17Z</time>
  <sat>8</sat>
</trkpt>
<trkpt lat="39.663249000" lon="-0.362303000">
  <ele>286.100000</ele>
  <time>2012-02-26T08:04:18Z</time>
  <sat>8</sat>
</trkpt>
<trkpt lat="39.663257000" lon="-0.362357000">
  <ele>286.200000</ele>
  <time>2012-02-26T08:04:19Z</time>
  <sat>8</sat>
</trkpt>
<trkpt lat="39.663271000" lon="-0.362413000">
  <ele>285.800000</ele>
  <time>2012-02-26T08:04:20Z</time>
  <sat>9</sat>
</trkpt>
<trkpt lat="39.663393000" lon="-0.362844000">
  <ele>285.800000</ele>
  <time>2012-02-26T08:04:28Z</time>
  <sat>9</sat>
</trkpt>
<trkpt lat="39.663400000" lon="-0.362891000">
  <ele>286.200000</ele>
  <time>2012-02-26T08:04:29Z</time>
  <sat>9</sat>
</trkpt>
<trkpt lat="39.663619000" lon="-0.364338000">
  <ele>295.700000</ele>
  <time>2012-02-26T08:05:14Z</time>
  <sat>8</sat>
</trkpt>
<trkpt lat="39.663627000" lon="-0.364367000">
  <ele>295.800000</ele>
  <time>2012-02-26T08:05:15Z</time>
  <sat>8</sat>
</trkpt>
<trkpt lat="39.663636000" lon="-0.364393000">
  <ele>296.000000</ele>
  <time>2012-02-26T08:05:16Z</time>
  <sat>8</sat>
</trkpt>
<trkpt lat="39.663648000" lon="-0.364420000">
  <ele>296.100000</ele>
  <time>2012-02-26T08:05:17Z</time>
  <sat>8</sat>
</trkpt>
<trkpt lat="39.663692000" lon="-0.364496000">
  <ele>296.300000</ele>
  <time>2012-02-26T08:05:20Z</time>
  <sat>8</sat>
</trkpt>
<trkpt lat="39.663710000" lon="-0.364519000">
  <ele>296.500000</ele>
  <time>2012-02-26T08:05:21Z</time>
  <sat>8</sat>
</trkpt>
<trkpt lat="39.663783000" lon="-0.364618000">
  <ele>297.100000</ele>
  <time>2012-02-26T08:05:25Z</time>
  <sat>7</sat>
</trkpt>
<trkpt lat="39.663872000" lon="-0.364733000">
  <ele>298.100000</ele>
  <time>2012-02-26T08:05:30Z</time>
  <sat>7</sat>
</trkpt>
<trkpt lat="39.663893000" lon="-0.364751000">
  <ele>298.200000</ele>
  <time>2012-02-26T08:05:31Z</time>
  <sat>7</sat>
</trkpt>
<trkpt lat="39.663950000" lon="-0.364806000">
  <ele>299.200000</ele>
  <time>2012-02-26T08:05:34Z</time>
  <sat>8</sat>
</trkpt>
<trkpt lat="39.663966000" lon="-0.364830000">
  <ele>299.600000</ele>
  <time>2012-02-26T08:05:35Z</time>
  <sat>9</sat>
</trkpt>
<trkpt lat="39.663977000" lon="-0.364857000">
  <ele>299.700000</ele>
  <time>2012-02-26T08:05:36Z</time>
  <sat>9</sat>
</trkpt>
<trkpt lat="39.663987000" lon="-0.364884000">
  <ele>299.800000</ele>
  <time>2012-02-26T08:05:37Z</time>
  <sat>9</sat>
</trkpt>
<trkpt lat="39.663994000" lon="-0.364913000">
  <ele>300.200000</ele>
  <time>2012-02-26T08:05:38Z</time>
  <sat>9</sat>
</trkpt>
<trkpt lat="39.663996000" lon="-0.364944000">
  <ele>300.500000</ele>
  <time>2012-02-26T08:05:39Z</time>
  <sat>9</sat>
</trkpt>
<trkpt lat="39.663994000" lon="-0.365006000">
  <ele>301.200000</ele>
  <time>2012-02-26T08:05:41Z</time>
  <sat>9</sat>
</trkpt>
<trkpt lat="39.663988000" lon="-0.365035000">
  <ele>301.500000</ele>
  <time>2012-02-26T08:05:42Z</time>
  <sat>9</sat>
</trkpt>
<trkpt lat="39.663980000" lon="-0.365063000">
  <ele>301.700000</ele>
  <time>2012-02-26T08:05:43Z</time>
  <sat>9</sat>
</trkpt>
<trkpt lat="39.663949000" lon="-0.365144000">
  <ele>301.700000</ele>
  <time>2012-02-26T08:05:46Z</time>
  <sat>9</sat>
</trkpt>
<trkpt lat="39.663935000" lon="-0.365167000">
  <ele>301.800000</ele>
  <time>2012-02-26T08:05:47Z</time>
  <sat>8</sat>
</trkpt>
<trkpt lat="39.663911000" lon="-0.365209000">
  <ele>301.700000</ele>
  <time>2012-02-26T08:05:49Z</time>
  <sat>7</sat>
</trkpt>
<trkpt lat="39.663902000" lon="-0.365250000">
  <ele>302.200000</ele>
  <time>2012-02-26T08:05:50Z</time>
  <sat>8</sat>
</trkpt>
<trkpt lat="39.663877000" lon="-0.365427000">
  <ele>302.700000</ele>
  <time>2012-02-26T08:05:56Z</time>
  <sat>6</sat>
</trkpt>
<trkpt lat="39.663851000" lon="-0.365533000">
  <ele>303.500000</ele>
  <time>2012-02-26T08:05:59Z</time>
  <sat>7</sat>
</trkpt>
<trkpt lat="39.663836000" lon="-0.365561000">
  <ele>303.800000</ele>
  <time>2012-02-26T08:06:00Z</time>
  <sat>8</sat>
</trkpt>
<trkpt lat="39.663806000" lon="-0.365616000">
  <ele>304.000000</ele>
  <time>2012-02-26T08:06:02Z</time>
  <sat>8</sat>
</trkpt>
<trkpt lat="39.663787000" lon="-0.365634000">
  <ele>304.300000</ele>
  <time>2012-02-26T08:06:03Z</time>
  <sat>9</sat>
</trkpt>
<trkpt lat="39.663684000" lon="-0.365763000">
  <ele>305.000000</ele>
  <time>2012-02-26T08:06:09Z</time>
  <sat>9</sat>
</trkpt>
<trkpt lat="39.663672000" lon="-0.365792000">
  <ele>305.200000</ele>
  <time>2012-02-26T08:06:10Z</time>
  <sat>8</sat>
</trkpt>
<trkpt lat="39.663382000" lon="-0.366433000">
  <ele>302.800000</ele>
  <time>2012-02-26T08:06:26Z</time>
  <sat>7</sat>
</trkpt>
<trkpt lat="39.663355000" lon="-0.366475000">
  <ele>302.600000</ele>
  <time>2012-02-26T08:06:27Z</time>
  <sat>7</sat>
</trkpt>
<trkpt lat="39.663335000" lon="-0.366524000">
  <ele>302.500000</ele>
  <time>2012-02-26T08:06:28Z</time>
  <sat>7</sat>
</trkpt>
<trkpt lat="39.663302000" lon="-0.366616000">
  <ele>302.600000</ele>
  <time>2012-02-26T08:06:30Z</time>
  <sat>7</sat>
</trkpt>
<trkpt lat="39.663147000" lon="-0.366995000">
  <ele>304.200000</ele>
  <time>2012-02-26T08:06:40Z</time>
  <sat>7</sat>
</trkpt>
<trkpt lat="39.663132000" lon="-0.367033000">
  <ele>305.100000</ele>
  <time>2012-02-26T08:06:41Z</time>
  <sat>7</sat>
</trkpt>
<trkpt lat="39.663114000" lon="-0.367069000">
  <ele>305.600000</ele>
  <time>2012-02-26T08:06:42Z</time>
  <sat>7</sat>
</trkpt>
<trkpt lat="39.663036000" lon="-0.367255000">
  <ele>305.200000</ele>
  <time>2012-02-26T08:06:47Z</time>
  <sat>8</sat>
</trkpt>
<trkpt lat="39.663009000" lon="-0.367277000">
  <ele>304.500000</ele>
  <time>2012-02-26T08:06:48Z</time>
  <sat>8</sat>
</trkpt>
<trkpt lat="39.662969000" lon="-0.367281000">
  <ele>304.200000</ele>
  <time>2012-02-26T08:06:49Z</time>
  <sat>8</sat>
</trkpt>
<trkpt lat="39.662901000" lon="-0.367241000">
  <ele>302.700000</ele>
  <time>2012-02-26T08:06:51Z</time>
  <sat>8</sat>
</trkpt>
<trkpt lat="39.662815000" lon="-0.367174000">
  <ele>302.000000</ele>
  <time>2012-02-26T08:06:54Z</time>
  <sat>8</sat>
</trkpt>
<trkpt lat="39.662784000" lon="-0.367161000">
  <ele>301.800000</ele>
  <time>2012-02-26T08:06:55Z</time>
  <sat>8</sat>
</trkpt>
<trkpt lat="39.662615000" lon="-0.367096000">
  <ele>301.800000</ele>
  <time>2012-02-26T08:07:00Z</time>
  <sat>8</sat>
</trkpt>
<trkpt lat="39.662582000" lon="-0.367096000">
  <ele>301.800000</ele>
  <time>2012-02-26T08:07:01Z</time>
  <sat>8</sat>
</trkpt>
<trkpt lat="39.662550000" lon="-0.367100000">
  <ele>301.800000</ele>
  <time>2012-02-26T08:07:02Z</time>
  <sat>8</sat>
</trkpt>
<trkpt lat="39.662452000" lon="-0.367133000">
  <ele>302.100000</ele>
  <time>2012-02-26T08:07:05Z</time>
  <sat>8</sat>
</trkpt>
<trkpt lat="39.662421000" lon="-0.367156000">
  <ele>302.200000</ele>
  <time>2012-02-26T08:07:06Z</time>
  <sat>8</sat>
</trkpt>
<trkpt lat="39.662393000" lon="-0.367184000">
  <ele>302.200000</ele>
  <time>2012-02-26T08:07:07Z</time>
  <sat>9</sat>
</trkpt>
<trkpt lat="39.662118000" lon="-0.367502000">
  <ele>302.200000</ele>
  <time>2012-02-26T08:07:18Z</time>
  <sat>8</sat>
</trkpt>
<trkpt lat="39.662098000" lon="-0.367532000">
  <ele>302.700000</ele>
  <time>2012-02-26T08:07:19Z</time>
  <sat>8</sat>
</trkpt>
<trkpt lat="39.662047000" lon="-0.367605000">
  <ele>303.600000</ele>
  <time>2012-02-26T08:07:21Z</time>
  <sat>8</sat>
</trkpt>
<trkpt lat="39.662016000" lon="-0.367634000">
  <ele>303.200000</ele>
  <time>2012-02-26T08:07:22Z</time>
  <sat>10</sat>
</trkpt>
<trkpt lat="39.661989000" lon="-0.367651000">
  <ele>303.200000</ele>
  <time>2012-02-26T08:07:23Z</time>
  <sat>10</sat>
</trkpt>
<trkpt lat="39.661933000" lon="-0.367685000">
  <ele>303.500000</ele>
  <time>2012-02-26T08:07:25Z</time>
  <sat>10</sat>
</trkpt>
<trkpt lat="39.661905000" lon="-0.367696000">
  <ele>303.700000</ele>
  <time>2012-02-26T08:07:26Z</time>
  <sat>10</sat>
</trkpt>
<trkpt lat="39.661818000" lon="-0.367729000">
  <ele>304.100000</ele>
  <time>2012-02-26T08:07:29Z</time>
  <sat>10</sat>
</trkpt>
<trkpt lat="39.661790000" lon="-0.367730000">
  <ele>304.500000</ele>
  <time>2012-02-26T08:07:30Z</time>
  <sat>10</sat>
</trkpt>
<trkpt lat="39.661763000" lon="-0.367733000">
  <ele>304.500000</ele>
  <time>2012-02-26T08:07:31Z</time>
  <sat>10</sat>
</trkpt>
<trkpt lat="39.661737000" lon="-0.367742000">
  <ele>304.700000</ele>
  <time>2012-02-26T08:07:32Z</time>
  <sat>10</sat>
</trkpt>
<trkpt lat="39.661583000" lon="-0.367805000">
  <ele>305.200000</ele>
  <time>2012-02-26T08:07:38Z</time>
  <sat>9</sat>
</trkpt>
<trkpt lat="39.661426000" lon="-0.367878000">
  <ele>306.100000</ele>
  <time>2012-02-26T08:07:44Z</time>
  <sat>9</sat>
</trkpt>
<trkpt lat="39.661397000" lon="-0.367887000">
  <ele>306.000000</ele>
  <time>2012-02-26T08:07:45Z</time>
  <sat>9</sat>
</trkpt>
<trkpt lat="39.661311000" lon="-0.367927000">
  <ele>306.200000</ele>
  <time>2012-02-26T08:07:48Z</time>
  <sat>9</sat>
</trkpt>
<trkpt lat="39.661197000" lon="-0.367997000">
  <ele>306.200000</ele>
  <time>2012-02-26T08:07:52Z</time>
  <sat>9</sat>
</trkpt>
<trkpt lat="39.661145000" lon="-0.368043000">
  <ele>306.200000</ele>
  <time>2012-02-26T08:07:54Z</time>
  <sat>9</sat>
</trkpt>
<trkpt lat="39.661075000" lon="-0.368129000">
  <ele>306.500000</ele>
  <time>2012-02-26T08:07:57Z</time>
  <sat>9</sat>
</trkpt>
<trkpt lat="39.661033000" lon="-0.368194000">
  <ele>306.600000</ele>
  <time>2012-02-26T08:07:59Z</time>
  <sat>7</sat>
</trkpt>
<trkpt lat="39.660985000" lon="-0.368307000">
  <ele>306.700000</ele>
  <time>2012-02-26T08:08:02Z</time>
  <sat>8</sat>
</trkpt>
<trkpt lat="39.660960000" lon="-0.368387000">
  <ele>307.000000</ele>
  <time>2012-02-26T08:08:04Z</time>
  <sat>8</sat>
</trkpt>
<trkpt lat="39.660929000" lon="-0.368544000">
  <ele>307.500000</ele>
  <time>2012-02-26T08:08:08Z</time>
  <sat>10</sat>
</trkpt>
<trkpt lat="39.660937000" lon="-0.368580000">
  <ele>307.700000</ele>
  <time>2012-02-26T08:08:09Z</time>
  <sat>10</sat>
</trkpt>
<trkpt lat="39.660959000" lon="-0.368695000">
  <ele>308.200000</ele>
  <time>2012-02-26T08:08:12Z</time>
  <sat>10</sat>
</trkpt>
<trkpt lat="39.660964000" lon="-0.368736000">
  <ele>308.600000</ele>
  <time>2012-02-26T08:08:13Z</time>
  <sat>10</sat>
</trkpt>
<trkpt lat="39.660964000" lon="-0.368776000">
  <ele>308.500000</ele>
  <time>2012-02-26T08:08:14Z</time>
  <sat>9</sat>
</trkpt>
<trkpt lat="39.660961000" lon="-0.368816000">
  <ele>308.500000</ele>
  <time>2012-02-26T08:08:15Z</time>
  <sat>10</sat>
</trkpt>
<trkpt lat="39.660947000" lon="-0.368893000">
  <ele>308.600000</ele>
  <time>2012-02-26T08:08:17Z</time>
  <sat>10</sat>
</trkpt>
<trkpt lat="39.660910000" lon="-0.368985000">
  <ele>308.700000</ele>
  <time>2012-02-26T08:08:20Z</time>
  <sat>10</sat>
</trkpt>
<trkpt lat="39.660847000" lon="-0.369069000">
  <ele>309.200000</ele>
  <time>2012-02-26T08:08:23Z</time>
  <sat>8</sat>
</trkpt>
<trkpt lat="39.660798000" lon="-0.369096000">
  <ele>309.000000</ele>
  <time>2012-02-26T08:08:25Z</time>
  <sat>10</sat>
</trkpt>
<trkpt lat="39.660770000" lon="-0.369102000">
  <ele>309.600000</ele>
  <time>2012-02-26T08:08:26Z</time>
  <sat>10</sat>
</trkpt>
<trkpt lat="39.660752000" lon="-0.369115000">
  <ele>310.000000</ele>
  <time>2012-02-26T08:08:27Z</time>
  <sat>10</sat>
</trkpt>
<trkpt lat="39.660695000" lon="-0.369163000">
  <ele>310.700000</ele>
  <time>2012-02-26T08:08:30Z</time>
  <sat>10</sat>
</trkpt>
<trkpt lat="39.660431000" lon="-0.369444000">
  <ele>314.500000</ele>
  <time>2012-02-26T08:08:46Z</time>
  <sat>8</sat>
</trkpt>
<trkpt lat="39.660423000" lon="-0.369459000">
  <ele>315.200000</ele>
  <time>2012-02-26T08:08:47Z</time>
  <sat>8</sat>
</trkpt>
<trkpt lat="39.660412000" lon="-0.369496000">
  <ele>317.000000</ele>
  <time>2012-02-26T08:08:49Z</time>
  <sat>8</sat>
</trkpt>
<trkpt lat="39.660406000" lon="-0.369519000">
  <ele>317.600000</ele>
  <time>2012-02-26T08:08:50Z</time>
  <sat>8</sat>
</trkpt>
<trkpt lat="39.660402000" lon="-0.369544000">
  <ele>318.000000</ele>
  <time>2012-02-26T08:08:51Z</time>
  <sat>8</sat>
</trkpt>
<trkpt lat="39.660403000" lon="-0.369568000">
  <ele>318.500000</ele>
  <time>2012-02-26T08:08:52Z</time>
  <sat>8</sat>
</trkpt>
<trkpt lat="39.660410000" lon="-0.369594000">
  <ele>319.500000</ele>
  <time>2012-02-26T08:08:53Z</time>
  <sat>9</sat>
</trkpt>
<trkpt lat="39.660459000" lon="-0.369629000">
  <ele>321.200000</ele>
  <time>2012-02-26T08:08:57Z</time>
  <sat>10</sat>
</trkpt>
<trkpt lat="39.660490000" lon="-0.369618000">
  <ele>322.000000</ele>
  <time>2012-02-26T08:08:58Z</time>
  <sat>10</sat>
</trkpt>
<trkpt lat="39.660517000" lon="-0.369612000">
  <ele>322.200000</ele>
  <time>2012-02-26T08:08:59Z</time>
  <sat>10</sat>
</trkpt>
<trkpt lat="39.660599000" lon="-0.369601000">
  <ele>323.800000</ele>
  <time>2012-02-26T08:09:03Z</time>
  <sat>10</sat>
</trkpt>
<trkpt lat="39.660616000" lon="-0.369604000">
  <ele>324.200000</ele>
  <time>2012-02-26T08:09:04Z</time>
  <sat>10</sat>
</trkpt>
<trkpt lat="39.660800000" lon="-0.369660000">
  <ele>326.600000</ele>
  <time>2012-02-26T08:09:14Z</time>
  <sat>10</sat>
</trkpt>
<trkpt lat="39.660816000" lon="-0.369672000">
  <ele>326.600000</ele>
  <time>2012-02-26T08:09:15Z</time>
  <sat>10</sat>
</trkpt>
<trkpt lat="39.660833000" lon="-0.369680000">
  <ele>327.000000</ele>
  <time>2012-02-26T08:09:16Z</time>
  <sat>10</sat>
</trkpt>
<trkpt lat="39.660928000" lon="-0.369717000">
  <ele>328.000000</ele>
  <time>2012-02-26T08:09:21Z</time>
  <sat>10</sat>
</trkpt>
<trkpt lat="39.661235000" lon="-0.369816000">
  <ele>332.200000</ele>
  <time>2012-02-26T08:09:38Z</time>
  <sat>10</sat>
</trkpt>
<trkpt lat="39.661252000" lon="-0.369816000">
  <ele>332.200000</ele>
  <time>2012-02-26T08:09:39Z</time>
  <sat>10</sat>
</trkpt>
<trkpt lat="39.661311000" lon="-0.369818000">
  <ele>331.800000</ele>
  <time>2012-02-26T08:09:42Z</time>
  <sat>10</sat>
</trkpt>
<trkpt lat="39.661326000" lon="-0.369820000">
  <ele>332.100000</ele>
  <time>2012-02-26T08:09:43Z</time>
  <sat>10</sat>
</trkpt>
<trkpt lat="39.661341000" lon="-0.369828000">
  <ele>332.300000</ele>
  <time>2012-02-26T08:09:44Z</time>
  <sat>10</sat>
</trkpt>
<trkpt lat="39.661408000" lon="-0.369851000">
  <ele>333.600000</ele>
  <time>2012-02-26T08:09:48Z</time>
  <sat>10</sat>
</trkpt>
<trkpt lat="39.661426000" lon="-0.369856000">
  <ele>334.000000</ele>
  <time>2012-02-26T08:09:49Z</time>
  <sat>9</sat>
</trkpt>
<trkpt lat="39.661457000" lon="-0.369872000">
  <ele>334.300000</ele>
  <time>2012-02-26T08:09:51Z</time>
  <sat>9</sat>
</trkpt>
<trkpt lat="39.661489000" lon="-0.369897000">
  <ele>334.700000</ele>
  <time>2012-02-26T08:09:53Z</time>
  <sat>8</sat>
</trkpt>
<trkpt lat="39.661506000" lon="-0.369908000">
  <ele>335.100000</ele>
  <time>2012-02-26T08:09:54Z</time>
  <sat>9</sat>
</trkpt>
<trkpt lat="39.661542000" lon="-0.369923000">
  <ele>335.600000</ele>
  <time>2012-02-26T08:09:56Z</time>
  <sat>8</sat>
</trkpt>
<trkpt lat="39.661656000" lon="-0.369962000">
  <ele>335.700000</ele>
  <time>2012-02-26T08:10:02Z</time>
  <sat>8</sat>
</trkpt>
<trkpt lat="39.661708000" lon="-0.369993000">
  <ele>335.700000</ele>
  <time>2012-02-26T08:10:05Z</time>
  <sat>8</sat>
</trkpt>
<trkpt lat="39.661714000" lon="-0.370016000">
  <ele>335.700000</ele>
  <time>2012-02-26T08:10:06Z</time>
  <sat>9</sat>
</trkpt>
<trkpt lat="39.661724000" lon="-0.370033000">
  <ele>335.800000</ele>
  <time>2012-02-26T08:10:07Z</time>
  <sat>7</sat>
</trkpt>
<trkpt lat="39.661738000" lon="-0.370048000">
  <ele>336.100000</ele>
  <time>2012-02-26T08:10:08Z</time>
  <sat>7</sat>
</trkpt>
<trkpt lat="39.661752000" lon="-0.370059000">
  <ele>336.300000</ele>
  <time>2012-02-26T08:10:09Z</time>
  <sat>7</sat>
</trkpt>
<trkpt lat="39.661768000" lon="-0.370067000">
  <ele>336.300000</ele>
  <time>2012-02-26T08:10:10Z</time>
  <sat>7</sat>
</trkpt>
<trkpt lat="39.661786000" lon="-0.370067000">
  <ele>336.200000</ele>
  <time>2012-02-26T08:10:11Z</time>
  <sat>7</sat>
</trkpt>
<trkpt lat="39.661888000" lon="-0.370071000">
  <ele>335.700000</ele>
  <time>2012-02-26T08:10:15Z</time>
  <sat>9</sat>
</trkpt>
<trkpt lat="39.661915000" lon="-0.370048000">
  <ele>336.100000</ele>
  <time>2012-02-26T08:10:16Z</time>
  <sat>9</sat>
</trkpt>
<trkpt lat="39.662038000" lon="-0.369947000">
  <ele>334.200000</ele>
  <time>2012-02-26T08:10:19Z</time>
  <sat>9</sat>
</trkpt>
<trkpt lat="39.662092000" lon="-0.369928000">
  <ele>333.700000</ele>
  <time>2012-02-26T08:10:20Z</time>
  <sat>9</sat>
</trkpt>
<trkpt lat="39.662151000" lon="-0.369918000">
  <ele>333.200000</ele>
  <time>2012-02-26T08:10:21Z</time>
  <sat>9</sat>
</trkpt>
<trkpt lat="39.662214000" lon="-0.369920000">
  <ele>332.700000</ele>
  <time>2012-02-26T08:10:22Z</time>
  <sat>9</sat>
</trkpt>
<trkpt lat="39.662281000" lon="-0.369931000">
  <ele>332.700000</ele>
  <time>2012-02-26T08:10:23Z</time>
  <sat>9</sat>
</trkpt>
<trkpt lat="39.662405000" lon="-0.369966000">
  <ele>331.300000</ele>
  <time>2012-02-26T08:10:25Z</time>
  <sat>8</sat>
</trkpt>
<trkpt lat="39.662460000" lon="-0.370002000">
  <ele>330.700000</ele>
  <time>2012-02-26T08:10:26Z</time>
  <sat>8</sat>
</trkpt>
<trkpt lat="39.662505000" lon="-0.370052000">
  <ele>329.800000</ele>
  <time>2012-02-26T08:10:27Z</time>
  <sat>8</sat>
</trkpt>
<trkpt lat="39.662540000" lon="-0.370117000">
  <ele>329.300000</ele>
  <time>2012-02-26T08:10:28Z</time>
  <sat>8</sat>
</trkpt>
<trkpt lat="39.662570000" lon="-0.370199000">
  <ele>328.700000</ele>
  <time>2012-02-26T08:10:29Z</time>
  <sat>8</sat>
</trkpt>
<trkpt lat="39.662681000" lon="-0.370451000">
  <ele>325.500000</ele>
  <time>2012-02-26T08:10:32Z</time>
  <sat>8</sat>
</trkpt>
<trkpt lat="39.663312000" lon="-0.371702000">
  <ele>310.100000</ele>
  <time>2012-02-26T08:10:51Z</time>
  <sat>8</sat>
</trkpt>
<trkpt lat="39.663345000" lon="-0.371745000">
  <ele>309.700000</ele>
  <time>2012-02-26T08:10:52Z</time>
  <sat>8</sat>
</trkpt>
<trkpt lat="39.663398000" lon="-0.371744000">
  <ele>309.100000</ele>
  <time>2012-02-26T08:10:53Z</time>
  <sat>8</sat>
</trkpt>
<trkpt lat="39.663451000" lon="-0.371746000">
  <ele>308.200000</ele>
  <time>2012-02-26T08:10:54Z</time>
  <sat>8</sat>
</trkpt>
<trkpt lat="39.663502000" lon="-0.371731000">
  <ele>307.200000</ele>
  <time>2012-02-26T08:10:55Z</time>
  <sat>8</sat>
</trkpt>
<trkpt lat="39.663543000" lon="-0.371715000">
  <ele>306.600000</ele>
  <time>2012-02-26T08:10:56Z</time>
  <sat>8</sat>
</trkpt>
<trkpt lat="39.663591000" lon="-0.371687000">
  <ele>305.800000</ele>
  <time>2012-02-26T08:10:57Z</time>
  <sat>8</sat>
</trkpt>
<trkpt lat="39.663638000" lon="-0.371651000">
  <ele>305.200000</ele>
  <time>2012-02-26T08:10:58Z</time>
  <sat>8</sat>
</trkpt>
<trkpt lat="39.664090000" lon="-0.371288000">
  <ele>297.200000</ele>
  <time>2012-02-26T08:11:07Z</time>
  <sat>8</sat>
</trkpt>
<trkpt lat="39.664146000" lon="-0.371266000">
  <ele>296.200000</ele>
  <time>2012-02-26T08:11:08Z</time>
  <sat>8</sat>
</trkpt>
<trkpt lat="39.664304000" lon="-0.371232000">
  <ele>294.300000</ele>
  <time>2012-02-26T08:11:11Z</time>
  <sat>7</sat>
</trkpt>
<trkpt lat="39.664351000" lon="-0.371243000">
  <ele>294.200000</ele>
  <time>2012-02-26T08:11:12Z</time>
  <sat>7</sat>
</trkpt>
<trkpt lat="39.664386000" lon="-0.371273000">
  <ele>294.200000</ele>
  <time>2012-02-26T08:11:13Z</time>
  <sat>7</sat>
</trkpt>
<trkpt lat="39.664447000" lon="-0.371349000">
  <ele>294.500000</ele>
  <time>2012-02-26T08:11:15Z</time>
  <sat>7</sat>
</trkpt>
<trkpt lat="39.664455000" lon="-0.371399000">
  <ele>294.300000</ele>
  <time>2012-02-26T08:11:16Z</time>
  <sat>7</sat>
</trkpt>
<trkpt lat="39.664453000" lon="-0.371448000">
  <ele>294.100000</ele>
  <time>2012-02-26T08:11:17Z</time>
  <sat>7</sat>
</trkpt>
<trkpt lat="39.664435000" lon="-0.371494000">
  <ele>293.700000</ele>
  <time>2012-02-26T08:11:18Z</time>
  <sat>7</sat>
</trkpt>
<trkpt lat="39.664404000" lon="-0.371531000">
  <ele>292.700000</ele>
  <time>2012-02-26T08:11:19Z</time>
  <sat>7</sat>
</trkpt>
<trkpt lat="39.664353000" lon="-0.371596000">
  <ele>290.700000</ele>
  <time>2012-02-26T08:11:21Z</time>
  <sat>7</sat>
</trkpt>
<trkpt lat="39.664084000" lon="-0.371977000">
  <ele>286.200000</ele>
  <time>2012-02-26T08:11:30Z</time>
  <sat>7</sat>
</trkpt>
<trkpt lat="39.664053000" lon="-0.372038000">
  <ele>285.600000</ele>
  <time>2012-02-26T08:11:31Z</time>
  <sat>7</sat>
</trkpt>
<trkpt lat="39.663919000" lon="-0.372383000">
  <ele>279.200000</ele>
  <time>2012-02-26T08:11:36Z</time>
  <sat>8</sat>
</trkpt>
<trkpt lat="39.663834000" lon="-0.372682000">
  <ele>274.500000</ele>
  <time>2012-02-26T08:11:40Z</time>
  <sat>8</sat>
</trkpt>
<trkpt lat="39.663777000" lon="-0.372908000">
  <ele>271.600000</ele>
  <time>2012-02-26T08:11:44Z</time>
  <sat>8</sat>
</trkpt>
<trkpt lat="39.663751000" lon="-0.372963000">
  <ele>271.500000</ele>
  <time>2012-02-26T08:11:45Z</time>
  <sat>8</sat>
</trkpt>
<trkpt lat="39.663719000" lon="-0.373015000">
  <ele>271.000000</ele>
  <time>2012-02-26T08:11:46Z</time>
  <sat>8</sat>
</trkpt>
<trkpt lat="39.663683000" lon="-0.373054000">
  <ele>270.200000</ele>
  <time>2012-02-26T08:11:47Z</time>
  <sat>8</sat>
</trkpt>
<trkpt lat="39.663642000" lon="-0.373087000">
  <ele>269.700000</ele>
  <time>2012-02-26T08:11:48Z</time>
  <sat>8</sat>
</trkpt>
<trkpt lat="39.663603000" lon="-0.373107000">
  <ele>269.200000</ele>
  <time>2012-02-26T08:11:49Z</time>
  <sat>8</sat>
</trkpt>
<trkpt lat="39.663521000" lon="-0.373134000">
  <ele>267.000000</ele>
  <time>2012-02-26T08:11:51Z</time>
  <sat>8</sat>
</trkpt>
<trkpt lat="39.663392000" lon="-0.373192000">
  <ele>264.800000</ele>
  <time>2012-02-26T08:11:54Z</time>
  <sat>8</sat>
</trkpt>
<trkpt lat="39.663362000" lon="-0.373238000">
  <ele>263.800000</ele>
  <time>2012-02-26T08:11:55Z</time>
  <sat>8</sat>
</trkpt>
<trkpt lat="39.663339000" lon="-0.373292000">
  <ele>262.700000</ele>
  <time>2012-02-26T08:11:56Z</time>
  <sat>8</sat>
</trkpt>
<trkpt lat="39.663320000" lon="-0.373359000">
  <ele>261.500000</ele>
  <time>2012-02-26T08:11:57Z</time>
  <sat>8</sat>
</trkpt>
<trkpt lat="39.663077000" lon="-0.374245000">
  <ele>253.100000</ele>
  <time>2012-02-26T08:12:08Z</time>
  <sat>7</sat>
</trkpt>
<trkpt lat="39.663071000" lon="-0.374335000">
  <ele>252.600000</ele>
  <time>2012-02-26T08:12:09Z</time>
  <sat>7</sat>
</trkpt>
<trkpt lat="39.663024000" lon="-0.374670000">
  <ele>250.600000</ele>
  <time>2012-02-26T08:12:13Z</time>
  <sat>7</sat>
</trkpt>
<trkpt lat="39.662943000" lon="-0.375068000">
  <ele>248.600000</ele>
  <time>2012-02-26T08:12:19Z</time>
  <sat>7</sat>
</trkpt>
<trkpt lat="39.662930000" lon="-0.375116000">
  <ele>248.300000</ele>
  <time>2012-02-26T08:12:20Z</time>
  <sat>7</sat>
</trkpt>
<trkpt lat="39.662873000" lon="-0.375272000">
  <ele>247.600000</ele>
  <time>2012-02-26T08:12:23Z</time>
  <sat>7</sat>
</trkpt>
<trkpt lat="39.662847000" lon="-0.375321000">
  <ele>246.600000</ele>
  <time>2012-02-26T08:12:24Z</time>
  <sat>7</sat>
</trkpt>
<trkpt lat="39.662807000" lon="-0.375375000">
  <ele>245.800000</ele>
  <time>2012-02-26T08:12:25Z</time>
  <sat>7</sat>
</trkpt>
<trkpt lat="39.662719000" lon="-0.375472000">
  <ele>244.800000</ele>
  <time>2012-02-26T08:12:27Z</time>
  <sat>7</sat>
</trkpt>
<trkpt lat="39.662555000" lon="-0.375622000">
  <ele>241.500000</ele>
  <time>2012-02-26T08:12:30Z</time>
  <sat>7</sat>
</trkpt>
<trkpt lat="39.661862000" lon="-0.376293000">
  <ele>234.500000</ele>
  <time>2012-02-26T08:12:45Z</time>
  <sat>8</sat>
</trkpt>
<trkpt lat="39.661830000" lon="-0.376291000">
  <ele>233.600000</ele>
  <time>2012-02-26T08:12:46Z</time>
  <sat>8</sat>
</trkpt>
<trkpt lat="39.661739000" lon="-0.376289000">
  <ele>232.300000</ele>
  <time>2012-02-26T08:12:48Z</time>
  <sat>8</sat>
</trkpt>
<trkpt lat="39.661691000" lon="-0.376285000">
  <ele>231.300000</ele>
  <time>2012-02-26T08:12:49Z</time>
  <sat>8</sat>
</trkpt>
<trkpt lat="39.661649000" lon="-0.376275000">
  <ele>230.800000</ele>
  <time>2012-02-26T08:12:50Z</time>
  <sat>8</sat>
</trkpt>
<trkpt lat="39.661275000" lon="-0.376237000">
  <ele>227.600000</ele>
  <time>2012-02-26T08:12:58Z</time>
  <sat>8</sat>
</trkpt>
<trkpt lat="39.661229000" lon="-0.376239000">
  <ele>227.300000</ele>
  <time>2012-02-26T08:12:59Z</time>
  <sat>8</sat>
</trkpt>
<trkpt lat="39.661186000" lon="-0.376245000">
  <ele>227.300000</ele>
  <time>2012-02-26T08:13:00Z</time>
  <sat>8</sat>
</trkpt>
<trkpt lat="39.660988000" lon="-0.376272000">
  <ele>227.300000</ele>
  <time>2012-02-26T08:13:05Z</time>
  <sat>8</sat>
</trkpt>
<trkpt lat="39.660943000" lon="-0.376264000">
  <ele>227.100000</ele>
  <time>2012-02-26T08:13:06Z</time>
  <sat>8</sat>
</trkpt>
<trkpt lat="39.660764000" lon="-0.376239000">
  <ele>226.300000</ele>
  <time>2012-02-26T08:13:10Z</time>
  <sat>8</sat>
</trkpt>
<trkpt lat="39.660740000" lon="-0.376256000">
  <ele>226.100000</ele>
  <time>2012-02-26T08:13:11Z</time>
  <sat>8</sat>
</trkpt>
<trkpt lat="39.660720000" lon="-0.376291000">
  <ele>225.800000</ele>
  <time>2012-02-26T08:13:12Z</time>
  <sat>8</sat>
</trkpt>
<trkpt lat="39.660695000" lon="-0.376326000">
  <ele>225.800000</ele>
  <time>2012-02-26T08:13:13Z</time>
  <sat>8</sat>
</trkpt>
<trkpt lat="39.660663000" lon="-0.376356000">
  <ele>226.000000</ele>
  <time>2012-02-26T08:13:14Z</time>
  <sat>8</sat>
</trkpt>
<trkpt lat="39.660472000" lon="-0.376541000">
  <ele>225.500000</ele>
  <time>2012-02-26T08:13:20Z</time>
  <sat>8</sat>
</trkpt>
<trkpt lat="39.660428000" lon="-0.376611000">
  <ele>226.100000</ele>
  <time>2012-02-26T08:13:22Z</time>
  <sat>8</sat>
</trkpt>
<trkpt lat="39.660246000" lon="-0.376874000">
  <ele>227.600000</ele>
  <time>2012-02-26T08:13:30Z</time>
  <sat>7</sat>
</trkpt>
<trkpt lat="39.660218000" lon="-0.376898000">
  <ele>228.600000</ele>
  <time>2012-02-26T08:13:31Z</time>
  <sat>6</sat>
</trkpt>
<trkpt lat="39.660193000" lon="-0.376932000">
  <ele>227.600000</ele>
  <time>2012-02-26T08:13:32Z</time>
  <sat>7</sat>
</trkpt>
<trkpt lat="39.660152000" lon="-0.377021000">
  <ele>227.300000</ele>
  <time>2012-02-26T08:13:34Z</time>
  <sat>7</sat>
</trkpt>
<trkpt lat="39.660129000" lon="-0.377160000">
  <ele>227.600000</ele>
  <time>2012-02-26T08:13:36Z</time>
  <sat>8</sat>
</trkpt>
<trkpt lat="39.660163000" lon="-0.377215000">
  <ele>226.800000</ele>
  <time>2012-02-26T08:13:37Z</time>
  <sat>8</sat>
</trkpt>
<trkpt lat="39.660174000" lon="-0.377270000">
  <ele>226.600000</ele>
  <time>2012-02-26T08:13:38Z</time>
  <sat>8</sat>
</trkpt>
<trkpt lat="39.660177000" lon="-0.377381000">
  <ele>226.300000</ele>
  <time>2012-02-26T08:13:40Z</time>
  <sat>8</sat>
</trkpt>
<trkpt lat="39.660167000" lon="-0.377434000">
  <ele>226.300000</ele>
  <time>2012-02-26T08:13:41Z</time>
  <sat>8</sat>
</trkpt>
<trkpt lat="39.660111000" lon="-0.377556000">
  <ele>226.300000</ele>
  <time>2012-02-26T08:13:44Z</time>
  <sat>9</sat>
</trkpt>
<trkpt lat="39.660059000" lon="-0.377628000">
  <ele>227.300000</ele>
  <time>2012-02-26T08:13:46Z</time>
  <sat>9</sat>
</trkpt>
<trkpt lat="39.659999000" lon="-0.377731000">
  <ele>225.300000</ele>
  <time>2012-02-26T08:13:49Z</time>
  <sat>9</sat>
</trkpt>
<trkpt lat="39.659964000" lon="-0.377814000">
  <ele>223.800000</ele>
  <time>2012-02-26T08:13:51Z</time>
  <sat>9</sat>
</trkpt>
<trkpt lat="39.659963000" lon="-0.377850000">
  <ele>223.100000</ele>
  <time>2012-02-26T08:13:52Z</time>
  <sat>8</sat>
</trkpt>
<trkpt lat="39.659970000" lon="-0.377873000">
  <ele>222.600000</ele>
  <time>2012-02-26T08:13:53Z</time>
  <sat>8</sat>
</trkpt>
<trkpt lat="39.659974000" lon="-0.377900000">
  <ele>222.300000</ele>
  <time>2012-02-26T08:13:54Z</time>
  <sat>8</sat>
</trkpt>
<trkpt lat="39.660013000" lon="-0.377920000">
  <ele>222.600000</ele>
  <time>2012-02-26T08:13:55Z</time>
  <sat>8</sat>
</trkpt>
<trkpt lat="39.660036000" lon="-0.377940000">
  <ele>222.500000</ele>
  <time>2012-02-26T08:13:56Z</time>
  <sat>8</sat>
</trkpt>
<trkpt lat="39.660055000" lon="-0.377963000">
  <ele>222.800000</ele>
  <time>2012-02-26T08:13:57Z</time>
  <sat>7</sat>
</trkpt>
<trkpt lat="39.660073000" lon="-0.377978000">
  <ele>223.000000</ele>
  <time>2012-02-26T08:13:58Z</time>
  <sat>7</sat>
</trkpt>
<trkpt lat="39.660109000" lon="-0.378021000">
  <ele>225.100000</ele>
  <time>2012-02-26T08:14:00Z</time>
  <sat>8</sat>
</trkpt>
<trkpt lat="39.660126000" lon="-0.378042000">
  <ele>225.300000</ele>
  <time>2012-02-26T08:14:01Z</time>
  <sat>8</sat>
</trkpt>
<trkpt lat="39.660198000" lon="-0.378128000">
  <ele>226.600000</ele>
  <time>2012-02-26T08:14:05Z</time>
  <sat>8</sat>
</trkpt>
<trkpt lat="39.660211000" lon="-0.378156000">
  <ele>227.000000</ele>
  <time>2012-02-26T08:14:06Z</time>
  <sat>9</sat>
</trkpt>
<trkpt lat="39.660273000" lon="-0.378295000">
  <ele>227.600000</ele>
  <time>2012-02-26T08:14:11Z</time>
  <sat>9</sat>
</trkpt>
<trkpt lat="39.660283000" lon="-0.378325000">
  <ele>228.000000</ele>
  <time>2012-02-26T08:14:12Z</time>
  <sat>9</sat>
</trkpt>
<trkpt lat="39.660300000" lon="-0.378388000">
  <ele>228.600000</ele>
  <time>2012-02-26T08:14:14Z</time>
  <sat>9</sat>
</trkpt>
<trkpt lat="39.660304000" lon="-0.378421000">
  <ele>228.800000</ele>
  <time>2012-02-26T08:14:15Z</time>
  <sat>9</sat>
</trkpt>
<trkpt lat="39.660344000" lon="-0.378824000">
  <ele>231.100000</ele>
  <time>2012-02-26T08:14:27Z</time>
  <sat>9</sat>
</trkpt>
<trkpt lat="39.660345000" lon="-0.378860000">
  <ele>231.300000</ele>
  <time>2012-02-26T08:14:28Z</time>
  <sat>9</sat>
</trkpt>
<trkpt lat="39.660325000" lon="-0.379200000">
  <ele>233.300000</ele>
  <time>2012-02-26T08:14:38Z</time>
  <sat>8</sat>
</trkpt>
<trkpt lat="39.660308000" lon="-0.379629000">
  <ele>236.600000</ele>
  <time>2012-02-26T08:14:51Z</time>
  <sat>8</sat>
</trkpt>
<trkpt lat="39.660314000" lon="-0.379732000">
  <ele>236.600000</ele>
  <time>2012-02-26T08:14:54Z</time>
  <sat>8</sat>
</trkpt>
<trkpt lat="39.660322000" lon="-0.379765000">
  <ele>237.000000</ele>
  <time>2012-02-26T08:14:55Z</time>
  <sat>8</sat>
</trkpt>
<trkpt lat="39.660327000" lon="-0.379796000">
  <ele>237.100000</ele>
  <time>2012-02-26T08:14:56Z</time>
  <sat>8</sat>
</trkpt>
<trkpt lat="39.660342000" lon="-0.379968000">
  <ele>237.000000</ele>
  <time>2012-02-26T08:15:01Z</time>
  <sat>8</sat>
</trkpt>
<trkpt lat="39.660356000" lon="-0.380204000">
  <ele>238.100000</ele>
  <time>2012-02-26T08:15:08Z</time>
  <sat>8</sat>
</trkpt>
<trkpt lat="39.660350000" lon="-0.380238000">
  <ele>238.100000</ele>
  <time>2012-02-26T08:15:09Z</time>
  <sat>9</sat>
</trkpt>
<trkpt lat="39.660260000" lon="-0.380815000">
  <ele>241.300000</ele>
  <time>2012-02-26T08:15:27Z</time>
  <sat>8</sat>
</trkpt>
<trkpt lat="39.660251000" lon="-0.380955000">
  <ele>241.500000</ele>
  <time>2012-02-26T08:15:31Z</time>
  <sat>7</sat>
</trkpt>
<trkpt lat="39.660235000" lon="-0.381221000">
  <ele>244.300000</ele>
  <time>2012-02-26T08:15:39Z</time>
  <sat>9</sat>
</trkpt>
<trkpt lat="39.660228000" lon="-0.381251000">
  <ele>244.600000</ele>
  <time>2012-02-26T08:15:40Z</time>
  <sat>9</sat>
</trkpt>
<trkpt lat="39.660174000" lon="-0.381556000">
  <ele>246.300000</ele>
  <time>2012-02-26T08:15:49Z</time>
  <sat>8</sat>
</trkpt>
<trkpt lat="39.660165000" lon="-0.381637000">
  <ele>245.500000</ele>
  <time>2012-02-26T08:15:51Z</time>
  <sat>8</sat>
</trkpt>
<trkpt lat="39.660175000" lon="-0.381682000">
  <ele>245.100000</ele>
  <time>2012-02-26T08:15:52Z</time>
  <sat>8</sat>
</trkpt>
<trkpt lat="39.660217000" lon="-0.381811000">
  <ele>243.300000</ele>
  <time>2012-02-26T08:15:55Z</time>
  <sat>8</sat>
</trkpt>
<trkpt lat="39.660242000" lon="-0.381861000">
  <ele>243.100000</ele>
  <time>2012-02-26T08:15:56Z</time>
  <sat>8</sat>
</trkpt>
<trkpt lat="39.660403000" lon="-0.382199000">
  <ele>241.300000</ele>
  <time>2012-02-26T08:16:02Z</time>
  <sat>8</sat>
</trkpt>
<trkpt lat="39.660424000" lon="-0.382270000">
  <ele>240.800000</ele>
  <time>2012-02-26T08:16:03Z</time>
  <sat>8</sat>
</trkpt>
<trkpt lat="39.660440000" lon="-0.382346000">
  <ele>240.500000</ele>
  <time>2012-02-26T08:16:04Z</time>
  <sat>8</sat>
</trkpt>
<trkpt lat="39.660504000" lon="-0.382589000">
  <ele>239.600000</ele>
  <time>2012-02-26T08:16:07Z</time>
  <sat>8</sat>
</trkpt>
<trkpt lat="39.660538000" lon="-0.382669000">
  <ele>239.100000</ele>
  <time>2012-02-26T08:16:08Z</time>
  <sat>8</sat>
</trkpt>
<trkpt lat="39.660796000" lon="-0.383166000">
  <ele>237.100000</ele>
  <time>2012-02-26T08:16:14Z</time>
  <sat>9</sat>
</trkpt>
<trkpt lat="39.660852000" lon="-0.383239000">
  <ele>236.800000</ele>
  <time>2012-02-26T08:16:15Z</time>
  <sat>9</sat>
</trkpt>
<trkpt lat="39.661377000" lon="-0.384115000">
  <ele>236.500000</ele>
  <time>2012-02-26T08:16:31Z</time>
  <sat>8</sat>
</trkpt>
<trkpt lat="39.661748000" lon="-0.384562000">
  <ele>237.000000</ele>
  <time>2012-02-26T08:16:44Z</time>
  <sat>9</sat>
</trkpt>
<trkpt lat="39.661769000" lon="-0.384603000">
  <ele>236.800000</ele>
  <time>2012-02-26T08:16:45Z</time>
  <sat>9</sat>
</trkpt>
<trkpt lat="39.661843000" lon="-0.384719000">
  <ele>236.600000</ele>
  <time>2012-02-26T08:16:48Z</time>
  <sat>9</sat>
</trkpt>
<trkpt lat="39.662010000" lon="-0.384974000">
  <ele>235.500000</ele>
  <time>2012-02-26T08:16:54Z</time>
  <sat>9</sat>
</trkpt>
<trkpt lat="39.662034000" lon="-0.385021000">
  <ele>235.100000</ele>
  <time>2012-02-26T08:16:55Z</time>
  <sat>9</sat>
</trkpt>
<trkpt lat="39.662436000" lon="-0.385849000">
  <ele>232.300000</ele>
  <time>2012-02-26T08:17:10Z</time>
  <sat>8</sat>
</trkpt>
<trkpt lat="39.662465000" lon="-0.385872000">
  <ele>232.500000</ele>
  <time>2012-02-26T08:17:11Z</time>
  <sat>8</sat>
</trkpt>
<trkpt lat="39.662560000" lon="-0.385909000">
  <ele>232.600000</ele>
  <time>2012-02-26T08:17:14Z</time>
  <sat>7</sat>
</trkpt>
<trkpt lat="39.662590000" lon="-0.385912000">
  <ele>232.500000</ele>
  <time>2012-02-26T08:17:15Z</time>
  <sat>7</sat>
</trkpt>
<trkpt lat="39.662624000" lon="-0.385909000">
  <ele>232.600000</ele>
  <time>2012-02-26T08:17:16Z</time>
  <sat>6</sat>
</trkpt>
<trkpt lat="39.662659000" lon="-0.385901000">
  <ele>232.500000</ele>
  <time>2012-02-26T08:17:17Z</time>
  <sat>6</sat>
</trkpt>
<trkpt lat="39.662995000" lon="-0.385892000">
  <ele>235.100000</ele>
  <time>2012-02-26T08:17:28Z</time>
  <sat>8</sat>
</trkpt>
<trkpt lat="39.663157000" lon="-0.385971000">
  <ele>237.800000</ele>
  <time>2012-02-26T08:17:39Z</time>
  <sat>7</sat>
</trkpt>
<trkpt lat="39.663146000" lon="-0.385968000">
  <ele>238.500000</ele>
  <time>2012-02-26T08:17:40Z</time>
  <sat>9</sat>
</trkpt>
<trkpt lat="39.663148000" lon="-0.385969000">
  <ele>238.600000</ele>
  <time>2012-02-26T08:17:41Z</time>
  <sat>9</sat>
</trkpt>
<trkpt lat="39.663146000" lon="-0.385969000">
  <ele>238.600000</ele>
  <time>2012-02-26T08:17:42Z</time>
  <sat>9</sat>
</trkpt>
<trkpt lat="39.663143000" lon="-0.385971000">
  <ele>238.600000</ele>
  <time>2012-02-26T08:17:43Z</time>
  <sat>9</sat>
</trkpt>
<trkpt lat="39.663144000" lon="-0.385975000">
  <ele>238.600000</ele>
  <time>2012-02-26T08:17:44Z</time>
  <sat>9</sat>
</trkpt>
<trkpt lat="39.663143000" lon="-0.385976000">
  <ele>238.800000</ele>
  <time>2012-02-26T08:17:45Z</time>
  <sat>9</sat>
</trkpt>
<trkpt lat="39.663142000" lon="-0.385977000">
  <ele>238.800000</ele>
  <time>2012-02-26T08:17:46Z</time>
  <sat>9</sat>
</trkpt>
<trkpt lat="39.663141000" lon="-0.385980000">
  <ele>239.100000</ele>
  <time>2012-02-26T08:17:47Z</time>
  <sat>9</sat>
</trkpt>
<trkpt lat="39.663140000" lon="-0.385981000">
  <ele>239.100000</ele>
  <time>2012-02-26T08:17:48Z</time>
  <sat>9</sat>
</trkpt>
<trkpt lat="39.663139000" lon="-0.385982000">
  <ele>239.100000</ele>
  <time>2012-02-26T08:17:49Z</time>
  <sat>9</sat>
</trkpt>
<trkpt lat="39.663139000" lon="-0.385982000">
  <ele>239.100000</ele>
  <time>2012-02-26T08:17:50Z</time>
  <sat>9</sat>
</trkpt>
<trkpt lat="39.663143000" lon="-0.385982000">
  <ele>239.100000</ele>
  <time>2012-02-26T08:17:51Z</time>
  <sat>9</sat>
</trkpt>
<trkpt lat="39.663138000" lon="-0.385979000">
  <ele>239.600000</ele>
  <time>2012-02-26T08:17:52Z</time>
  <sat>9</sat>
</trkpt>
<trkpt lat="39.663138000" lon="-0.385975000">
  <ele>239.800000</ele>
  <time>2012-02-26T08:17:53Z</time>
  <sat>9</sat>
</trkpt>
<trkpt lat="39.663139000" lon="-0.385971000">
  <ele>240.000000</ele>
  <time>2012-02-26T08:17:54Z</time>
  <sat>9</sat>
</trkpt>
<trkpt lat="39.663143000" lon="-0.385966000">
  <ele>239.800000</ele>
  <time>2012-02-26T08:17:55Z</time>
  <sat>9</sat>
</trkpt>
<trkpt lat="39.663149000" lon="-0.385964000">
  <ele>239.300000</ele>
  <time>2012-02-26T08:17:56Z</time>
  <sat>9</sat>
</trkpt>
<trkpt lat="39.663150000" lon="-0.385963000">
  <ele>239.100000</ele>
  <time>2012-02-26T08:17:57Z</time>
  <sat>9</sat>
</trkpt>
<trkpt lat="39.663149000" lon="-0.385961000">
  <ele>239.300000</ele>
  <time>2012-02-26T08:17:58Z</time>
  <sat>9</sat>
</trkpt>
<trkpt lat="39.663149000" lon="-0.385958000">
  <ele>239.500000</ele>
  <time>2012-02-26T08:17:59Z</time>
  <sat>5</sat>
</trkpt>
<trkpt lat="39.663151000" lon="-0.385957000">
  <ele>239.300000</ele>
  <time>2012-02-26T08:18:00Z</time>
  <sat>5</sat>
</trkpt>
<trkpt lat="39.663152000" lon="-0.385954000">
  <ele>239.500000</ele>
  <time>2012-02-26T08:18:01Z</time>
  <sat>5</sat>
</trkpt>
<trkpt lat="39.663152000" lon="-0.385953000">
  <ele>239.600000</ele>
  <time>2012-02-26T08:18:02Z</time>
  <sat>5</sat>
</trkpt>
<trkpt lat="39.663152000" lon="-0.385953000">
  <ele>239.600000</ele>
  <time>2012-02-26T08:18:03Z</time>
  <sat>5</sat>
</trkpt>
<trkpt lat="39.663152000" lon="-0.385953000">
  <ele>239.600000</ele>
  <time>2012-02-26T08:18:04Z</time>
  <sat>6</sat>
</trkpt>
<trkpt lat="39.663152000" lon="-0.385953000">
  <ele>239.600000</ele>
  <time>2012-02-26T08:18:05Z</time>
  <sat>6</sat>
</trkpt>
<trkpt lat="39.663152000" lon="-0.385953000">
  <ele>239.600000</ele>
  <time>2012-02-26T08:18:06Z</time>
  <sat>6</sat>
</trkpt>
<trkpt lat="39.663152000" lon="-0.385953000">
  <ele>239.600000</ele>
  <time>2012-02-26T08:18:07Z</time>
  <sat>6</sat>
</trkpt>
<trkpt lat="39.663152000" lon="-0.385953000">
  <ele>239.600000</ele>
  <time>2012-02-26T08:18:08Z</time>
  <sat>6</sat>
</trkpt>
<trkpt lat="39.663152000" lon="-0.385953000">
  <ele>239.600000</ele>
  <time>2012-02-26T08:18:09Z</time>
  <sat>6</sat>
</trkpt>
<trkpt lat="39.663152000" lon="-0.385953000">
  <ele>239.600000</ele>
  <time>2012-02-26T08:18:10Z</time>
  <sat>6</sat>
</trkpt>
<trkpt lat="39.663152000" lon="-0.385953000">
  <ele>239.600000</ele>
  <time>2012-02-26T08:18:11Z</time>
  <sat>6</sat>
</trkpt>
<trkpt lat="39.663152000" lon="-0.385953000">
  <ele>239.600000</ele>
  <time>2012-02-26T08:18:12Z</time>
  <sat>6</sat>
</trkpt>
<trkpt lat="39.663152000" lon="-0.385953000">
  <ele>239.600000</ele>
  <time>2012-02-26T08:18:13Z</time>
  <sat>5</sat>
</trkpt>
<trkpt lat="39.663151000" lon="-0.385954000">
  <ele>239.000000</ele>
  <time>2012-02-26T08:18:16Z</time>
  <sat>4</sat>
</trkpt>
<trkpt lat="39.663151000" lon="-0.385954000">
  <ele>239.000000</ele>
  <time>2012-02-26T08:18:20Z</time>
  <sat>4</sat>
</trkpt>
<trkpt lat="39.663152000" lon="-0.385953000">
  <ele>239.600000</ele>
  <time>2012-02-26T08:18:22Z</time>
  <sat>5</sat>
</trkpt>
<trkpt lat="39.663152000" lon="-0.385953000">
  <ele>239.600000</ele>
  <time>2012-02-26T08:18:23Z</time>
  <sat>5</sat>
</trkpt>
<trkpt lat="39.663152000" lon="-0.385953000">
  <ele>239.600000</ele>
  <time>2012-02-26T08:18:24Z</time>
  <sat>5</sat>
</trkpt>
<trkpt lat="39.663152000" lon="-0.385953000">
  <ele>239.600000</ele>
  <time>2012-02-26T08:18:25Z</time>
  <sat>5</sat>
</trkpt>
<trkpt lat="39.663152000" lon="-0.385953000">
  <ele>239.600000</ele>
  <time>2012-02-26T08:18:26Z</time>
  <sat>5</sat>
</trkpt>
<trkpt lat="39.663152000" lon="-0.385953000">
  <ele>239.600000</ele>
  <time>2012-02-26T08:18:27Z</time>
  <sat>5</sat>
</trkpt>
<trkpt lat="39.663151000" lon="-0.385954000">
  <ele>239.000000</ele>
  <time>2012-02-26T08:18:30Z</time>
  <sat>4</sat>
</trkpt>
<trkpt lat="39.663152000" lon="-0.385953000">
  <ele>239.600000</ele>
  <time>2012-02-26T08:18:32Z</time>
  <sat>5</sat>
</trkpt>
<trkpt lat="39.663152000" lon="-0.385953000">
  <ele>239.600000</ele>
  <time>2012-02-26T08:18:33Z</time>
  <sat>5</sat>
</trkpt>
<trkpt lat="39.663152000" lon="-0.385953000">
  <ele>239.600000</ele>
  <time>2012-02-26T08:18:34Z</time>
  <sat>5</sat>
</trkpt>
<trkpt lat="39.663152000" lon="-0.385953000">
  <ele>239.600000</ele>
  <time>2012-02-26T08:18:35Z</time>
  <sat>5</sat>
</trkpt>
<trkpt lat="39.663152000" lon="-0.385953000">
  <ele>239.600000</ele>
  <time>2012-02-26T08:18:36Z</time>
  <sat>5</sat>
</trkpt>
<trkpt lat="39.663152000" lon="-0.385953000">
  <ele>239.600000</ele>
  <time>2012-02-26T08:18:37Z</time>
  <sat>6</sat>
</trkpt>
<trkpt lat="39.663152000" lon="-0.385953000">
  <ele>239.600000</ele>
  <time>2012-02-26T08:18:38Z</time>
  <sat>5</sat>
</trkpt>
<trkpt lat="39.663152000" lon="-0.385953000">
  <ele>239.600000</ele>
  <time>2012-02-26T08:18:39Z</time>
  <sat>5</sat>
</trkpt>
<trkpt lat="39.663152000" lon="-0.385953000">
  <ele>239.600000</ele>
  <time>2012-02-26T08:18:40Z</time>
  <sat>5</sat>
</trkpt>
<trkpt lat="39.663152000" lon="-0.385953000">
  <ele>239.600000</ele>
  <time>2012-02-26T08:18:41Z</time>
  <sat>5</sat>
</trkpt>
<trkpt lat="39.663152000" lon="-0.385953000">
  <ele>239.600000</ele>
  <time>2012-02-26T08:18:42Z</time>
  <sat>5</sat>
</trkpt>
<trkpt lat="39.663152000" lon="-0.385953000">
  <ele>239.600000</ele>
  <time>2012-02-26T08:18:43Z</time>
  <sat>5</sat>
</trkpt>
<trkpt lat="39.663152000" lon="-0.385953000">
  <ele>239.600000</ele>
  <time>2012-02-26T08:18:44Z</time>
  <sat>6</sat>
</trkpt>
<trkpt lat="39.663152000" lon="-0.385953000">
  <ele>239.600000</ele>
  <time>2012-02-26T08:18:45Z</time>
  <sat>6</sat>
</trkpt>
<trkpt lat="39.663152000" lon="-0.385953000">
  <ele>239.600000</ele>
  <time>2012-02-26T08:18:46Z</time>
  <sat>6</sat>
</trkpt>
<trkpt lat="39.663152000" lon="-0.385953000">
  <ele>239.600000</ele>
  <time>2012-02-26T08:18:47Z</time>
  <sat>6</sat>
</trkpt>
<trkpt lat="39.663152000" lon="-0.385953000">
  <ele>239.600000</ele>
  <time>2012-02-26T08:18:48Z</time>
  <sat>10</sat>
</trkpt>
<trkpt lat="39.663152000" lon="-0.385953000">
  <ele>239.600000</ele>
  <time>2012-02-26T08:18:49Z</time>
  <sat>10</sat>
</trkpt>
<trkpt lat="39.663152000" lon="-0.385953000">
  <ele>239.600000</ele>
  <time>2012-02-26T08:18:50Z</time>
  <sat>10</sat>
</trkpt>
<trkpt lat="39.663152000" lon="-0.385953000">
  <ele>239.600000</ele>
  <time>2012-02-26T08:18:51Z</time>
  <sat>10</sat>
</trkpt>
<trkpt lat="39.663152000" lon="-0.385953000">
  <ele>239.600000</ele>
  <time>2012-02-26T08:18:52Z</time>
  <sat>10</sat>
</trkpt>
<trkpt lat="39.663152000" lon="-0.385953000">
  <ele>239.600000</ele>
  <time>2012-02-26T08:18:53Z</time>
  <sat>10</sat>
</trkpt>
<trkpt lat="39.663152000" lon="-0.385953000">
  <ele>239.600000</ele>
  <time>2012-02-26T08:18:54Z</time>
  <sat>10</sat>
</trkpt>
<trkpt lat="39.663152000" lon="-0.385953000">
  <ele>239.600000</ele>
  <time>2012-02-26T08:18:55Z</time>
  <sat>10</sat>
</trkpt>
<trkpt lat="39.663152000" lon="-0.385953000">
  <ele>239.600000</ele>
  <time>2012-02-26T08:18:56Z</time>
  <sat>10</sat>
</trkpt>
<trkpt lat="39.663152000" lon="-0.385953000">
  <ele>239.600000</ele>
  <time>2012-02-26T08:18:57Z</time>
  <sat>10</sat>
</trkpt>
<trkpt lat="39.663152000" lon="-0.385953000">
  <ele>239.600000</ele>
  <time>2012-02-26T08:18:58Z</time>
  <sat>10</sat>
</trkpt>
<trkpt lat="39.663152000" lon="-0.385953000">
  <ele>239.600000</ele>
  <time>2012-02-26T08:18:59Z</time>
  <sat>10</sat>
</trkpt>
<trkpt lat="39.663152000" lon="-0.385953000">
  <ele>239.500000</ele>
  <time>2012-02-26T08:19:00Z</time>
  <sat>10</sat>
</trkpt>
<trkpt lat="39.663152000" lon="-0.385953000">
  <ele>239.500000</ele>
  <time>2012-02-26T08:19:01Z</time>
  <sat>10</sat>
</trkpt>
<trkpt lat="39.663152000" lon="-0.385953000">
  <ele>239.500000</ele>
  <time>2012-02-26T08:19:02Z</time>
  <sat>5</sat>
</trkpt>
<trkpt lat="39.663152000" lon="-0.385953000">
  <ele>239.500000</ele>
  <time>2012-02-26T08:19:03Z</time>
  <sat>5</sat>
</trkpt>
<trkpt lat="39.663152000" lon="-0.385953000">
  <ele>239.500000</ele>
  <time>2012-02-26T08:19:04Z</time>
  <sat>5</sat>
</trkpt>
<trkpt lat="39.663152000" lon="-0.385953000">
  <ele>239.500000</ele>
  <time>2012-02-26T08:19:05Z</time>
  <sat>10</sat>
</trkpt>
<trkpt lat="39.663152000" lon="-0.385953000">
  <ele>239.500000</ele>
  <time>2012-02-26T08:19:06Z</time>
  <sat>10</sat>
</trkpt>
<trkpt lat="39.663152000" lon="-0.385953000">
  <ele>239.500000</ele>
  <time>2012-02-26T08:19:07Z</time>
  <sat>10</sat>
</trkpt>
<trkpt lat="39.663152000" lon="-0.385953000">
  <ele>239.500000</ele>
  <time>2012-02-26T08:19:08Z</time>
  <sat>10</sat>
</trkpt>
<trkpt lat="39.663152000" lon="-0.385953000">
  <ele>239.500000</ele>
  <time>2012-02-26T08:19:09Z</time>
  <sat>10</sat>
</trkpt>
<trkpt lat="39.663152000" lon="-0.385953000">
  <ele>239.500000</ele>
  <time>2012-02-26T08:19:10Z</time>
  <sat>10</sat>
</trkpt>
<trkpt lat="39.663152000" lon="-0.385953000">
  <ele>239.500000</ele>
  <time>2012-02-26T08:19:11Z</time>
  <sat>10</sat>
</trkpt>
<trkpt lat="39.663152000" lon="-0.385953000">
  <ele>239.500000</ele>
  <time>2012-02-26T08:19:12Z</time>
  <sat>10</sat>
</trkpt>
<trkpt lat="39.663152000" lon="-0.385953000">
  <ele>239.500000</ele>
  <time>2012-02-26T08:19:13Z</time>
  <sat>10</sat>
</trkpt>
<trkpt lat="39.663152000" lon="-0.385953000">
  <ele>239.500000</ele>
  <time>2012-02-26T08:19:14Z</time>
  <sat>10</sat>
</trkpt>
<trkpt lat="39.663152000" lon="-0.385953000">
  <ele>239.500000</ele>
  <time>2012-02-26T08:19:15Z</time>
  <sat>10</sat>
</trkpt>
<trkpt lat="39.663159000" lon="-0.385969000">
  <ele>239.000000</ele>
  <time>2012-02-26T08:19:16Z</time>
  <sat>10</sat>
</trkpt>
<trkpt lat="39.663159000" lon="-0.385969000">
  <ele>239.000000</ele>
  <time>2012-02-26T08:19:17Z</time>
  <sat>10</sat>
</trkpt>
<trkpt lat="39.663159000" lon="-0.385969000">
  <ele>239.000000</ele>
  <time>2012-02-26T08:19:18Z</time>
  <sat>10</sat>
</trkpt>
<trkpt lat="39.663159000" lon="-0.385969000">
  <ele>239.000000</ele>
  <time>2012-02-26T08:19:19Z</time>
  <sat>10</sat>
</trkpt>
<trkpt lat="39.663159000" lon="-0.385969000">
  <ele>239.000000</ele>
  <time>2012-02-26T08:19:20Z</time>
  <sat>9</sat>
</trkpt>
<trkpt lat="39.663159000" lon="-0.385969000">
  <ele>239.000000</ele>
  <time>2012-02-26T08:19:21Z</time>
  <sat>9</sat>
</trkpt>
<trkpt lat="39.663163000" lon="-0.385976000">
  <ele>239.000000</ele>
  <time>2012-02-26T08:19:25Z</time>
  <sat>4</sat>
</trkpt>
<trkpt lat="39.663164000" lon="-0.385971000">
  <ele>239.300000</ele>
  <time>2012-02-26T08:19:27Z</time>
  <sat>8</sat>
</trkpt>
<trkpt lat="39.663164000" lon="-0.385971000">
  <ele>239.500000</ele>
  <time>2012-02-26T08:19:28Z</time>
  <sat>8</sat>
</trkpt>
<trkpt lat="39.663164000" lon="-0.385971000">
  <ele>239.500000</ele>
  <time>2012-02-26T08:19:29Z</time>
  <sat>8</sat>
</trkpt>
<trkpt lat="39.663164000" lon="-0.385971000">
  <ele>239.500000</ele>
  <time>2012-02-26T08:19:30Z</time>
  <sat>8</sat>
</trkpt>
<trkpt lat="39.663164000" lon="-0.385971000">
  <ele>239.500000</ele>
  <time>2012-02-26T08:19:31Z</time>
  <sat>8</sat>
</trkpt>
<trkpt lat="39.663164000" lon="-0.385971000">
  <ele>239.500000</ele>
  <time>2012-02-26T08:19:32Z</time>
  <sat>9</sat>
</trkpt>
<trkpt lat="39.663164000" lon="-0.385971000">
  <ele>239.500000</ele>
  <time>2012-02-26T08:19:33Z</time>
  <sat>10</sat>
</trkpt>
<trkpt lat="39.663164000" lon="-0.385971000">
  <ele>239.500000</ele>
  <time>2012-02-26T08:19:34Z</time>
  <sat>10</sat>
</trkpt>
<trkpt lat="39.663164000" lon="-0.385971000">
  <ele>239.500000</ele>
  <time>2012-02-26T08:19:35Z</time>
  <sat>10</sat>
</trkpt>
<trkpt lat="39.663164000" lon="-0.385971000">
  <ele>239.500000</ele>
  <time>2012-02-26T08:19:36Z</time>
  <sat>9</sat>
</trkpt>
<trkpt lat="39.663164000" lon="-0.385971000">
  <ele>239.500000</ele>
  <time>2012-02-26T08:19:37Z</time>
  <sat>9</sat>
</trkpt>
<trkpt lat="39.663164000" lon="-0.385971000">
  <ele>239.500000</ele>
  <time>2012-02-26T08:19:38Z</time>
  <sat>8</sat>
</trkpt>
<trkpt lat="39.663164000" lon="-0.385971000">
  <ele>239.500000</ele>
  <time>2012-02-26T08:19:39Z</time>
  <sat>7</sat>
</trkpt>
<trkpt lat="39.663164000" lon="-0.385971000">
  <ele>239.500000</ele>
  <time>2012-02-26T08:19:40Z</time>
  <sat>8</sat>
</trkpt>
<trkpt lat="39.663164000" lon="-0.385971000">
  <ele>239.500000</ele>
  <time>2012-02-26T08:19:41Z</time>
  <sat>8</sat>
</trkpt>
<trkpt lat="39.663164000" lon="-0.385972000">
  <ele>239.500000</ele>
  <time>2012-02-26T08:19:42Z</time>
  <sat>7</sat>
</trkpt>
<trkpt lat="39.663164000" lon="-0.385972000">
  <ele>239.500000</ele>
  <time>2012-02-26T08:19:43Z</time>
  <sat>6</sat>
</trkpt>
<trkpt lat="39.663195000" lon="-0.386009000">
  <ele>239.500000</ele>
  <time>2012-02-26T08:20:25Z</time>
  <sat>8</sat>
</trkpt>
<trkpt lat="39.663220000" lon="-0.386030000">
  <ele>238.300000</ele>
  <time>2012-02-26T08:20:26Z</time>
  <sat>10</sat>
</trkpt>
<trkpt lat="39.663237000" lon="-0.386039000">
  <ele>237.800000</ele>
  <time>2012-02-26T08:20:27Z</time>
  <sat>10</sat>
</trkpt>
<trkpt lat="39.663255000" lon="-0.386051000">
  <ele>236.800000</ele>
  <time>2012-02-26T08:20:28Z</time>
  <sat>10</sat>
</trkpt>
<trkpt lat="39.663289000" lon="-0.386119000">
  <ele>237.600000</ele>
  <time>2012-02-26T08:20:31Z</time>
  <sat>10</sat>
</trkpt>
<trkpt lat="39.663301000" lon="-0.386135000">
  <ele>238.600000</ele>
  <time>2012-02-26T08:20:32Z</time>
  <sat>10</sat>
</trkpt>
<trkpt lat="39.663352000" lon="-0.386224000">
  <ele>239.800000</ele>
  <time>2012-02-26T08:20:36Z</time>
  <sat>10</sat>
</trkpt>
<trkpt lat="39.663356000" lon="-0.386252000">
  <ele>240.500000</ele>
  <time>2012-02-26T08:20:37Z</time>
  <sat>10</sat>
</trkpt>
<trkpt lat="39.663366000" lon="-0.386272000">
  <ele>241.100000</ele>
  <time>2012-02-26T08:20:38Z</time>
  <sat>10</sat>
</trkpt>
<trkpt lat="39.663420000" lon="-0.386358000">
  <ele>241.100000</ele>
  <time>2012-02-26T08:20:42Z</time>
  <sat>6</sat>
</trkpt>
<trkpt lat="39.663464000" lon="-0.386389000">
  <ele>241.100000</ele>
  <time>2012-02-26T08:20:44Z</time>
  <sat>10</sat>
</trkpt>
<trkpt lat="39.663694000" lon="-0.386549000">
  <ele>242.100000</ele>
  <time>2012-02-26T08:20:54Z</time>
  <sat>10</sat>
</trkpt>
<trkpt lat="39.663707000" lon="-0.386575000">
  <ele>242.300000</ele>
  <time>2012-02-26T08:20:55Z</time>
  <sat>10</sat>
</trkpt>
<trkpt lat="39.663769000" lon="-0.386727000">
  <ele>244.500000</ele>
  <time>2012-02-26T08:21:01Z</time>
  <sat>8</sat>
</trkpt>
<trkpt lat="39.663777000" lon="-0.386748000">
  <ele>244.300000</ele>
  <time>2012-02-26T08:21:02Z</time>
  <sat>8</sat>
</trkpt>
<trkpt lat="39.663784000" lon="-0.386770000">
  <ele>244.600000</ele>
  <time>2012-02-26T08:21:03Z</time>
  <sat>7</sat>
</trkpt>
<trkpt lat="39.663857000" lon="-0.386977000">
  <ele>246.600000</ele>
  <time>2012-02-26T08:21:11Z</time>
  <sat>8</sat>
</trkpt>
<trkpt lat="39.663870000" lon="-0.387000000">
  <ele>247.100000</ele>
  <time>2012-02-26T08:21:12Z</time>
  <sat>8</sat>
</trkpt>
<trkpt lat="39.663900000" lon="-0.387086000">
  <ele>248.600000</ele>
  <time>2012-02-26T08:21:16Z</time>
  <sat>10</sat>
</trkpt>
<trkpt lat="39.663903000" lon="-0.387108000">
  <ele>249.300000</ele>
  <time>2012-02-26T08:21:17Z</time>
  <sat>10</sat>
</trkpt>
<trkpt lat="39.663920000" lon="-0.387237000">
  <ele>251.100000</ele>
  <time>2012-02-26T08:21:23Z</time>
  <sat>6</sat>
</trkpt>
<trkpt lat="39.663914000" lon="-0.387258000">
  <ele>251.500000</ele>
  <time>2012-02-26T08:21:24Z</time>
  <sat>6</sat>
</trkpt>
<trkpt lat="39.663819000" lon="-0.387492000">
  <ele>256.500000</ele>
  <time>2012-02-26T08:21:38Z</time>
  <sat>10</sat>
</trkpt>
<trkpt lat="39.663814000" lon="-0.387506000">
  <ele>256.600000</ele>
  <time>2012-02-26T08:21:39Z</time>
  <sat>10</sat>
</trkpt>
<trkpt lat="39.663804000" lon="-0.387522000">
  <ele>257.000000</ele>
  <time>2012-02-26T08:21:40Z</time>
  <sat>10</sat>
</trkpt>
<trkpt lat="39.663798000" lon="-0.387534000">
  <ele>257.000000</ele>
  <time>2012-02-26T08:21:41Z</time>
  <sat>10</sat>
</trkpt>
<trkpt lat="39.663800000" lon="-0.387548000">
  <ele>259.500000</ele>
  <time>2012-02-26T08:21:42Z</time>
  <sat>10</sat>
</trkpt>
<trkpt lat="39.663796000" lon="-0.387567000">
  <ele>260.700000</ele>
  <time>2012-02-26T08:21:43Z</time>
  <sat>10</sat>
</trkpt>
<trkpt lat="39.663791000" lon="-0.387644000">
  <ele>261.000000</ele>
  <time>2012-02-26T08:21:46Z</time>
  <sat>10</sat>
</trkpt>
<trkpt lat="39.663792000" lon="-0.387667000">
  <ele>260.600000</ele>
  <time>2012-02-26T08:21:47Z</time>
  <sat>10</sat>
</trkpt>
<trkpt lat="39.663795000" lon="-0.387716000">
  <ele>260.700000</ele>
  <time>2012-02-26T08:21:49Z</time>
  <sat>10</sat>
</trkpt>
<trkpt lat="39.663795000" lon="-0.387736000">
  <ele>261.000000</ele>
  <time>2012-02-26T08:21:50Z</time>
  <sat>6</sat>
</trkpt>
<trkpt lat="39.663796000" lon="-0.387756000">
  <ele>261.200000</ele>
  <time>2012-02-26T08:21:51Z</time>
  <sat>7</sat>
</trkpt>
<trkpt lat="39.663802000" lon="-0.387776000">
  <ele>261.300000</ele>
  <time>2012-02-26T08:21:52Z</time>
  <sat>7</sat>
</trkpt>
<trkpt lat="39.663808000" lon="-0.387798000">
  <ele>261.500000</ele>
  <time>2012-02-26T08:21:53Z</time>
  <sat>7</sat>
</trkpt>
<trkpt lat="39.663823000" lon="-0.387830000">
  <ele>261.700000</ele>
  <time>2012-02-26T08:21:55Z</time>
  <sat>7</sat>
</trkpt>
<trkpt lat="39.663842000" lon="-0.387861000">
  <ele>261.800000</ele>
  <time>2012-02-26T08:21:57Z</time>
  <sat>7</sat>
</trkpt>
<trkpt lat="39.663862000" lon="-0.387889000">
  <ele>262.200000</ele>
  <time>2012-02-26T08:21:59Z</time>
  <sat>7</sat>
</trkpt>
<trkpt lat="39.663873000" lon="-0.387903000">
  <ele>262.200000</ele>
  <time>2012-02-26T08:22:00Z</time>
  <sat>7</sat>
</trkpt>
<trkpt lat="39.663882000" lon="-0.387919000">
  <ele>262.200000</ele>
  <time>2012-02-26T08:22:01Z</time>
  <sat>7</sat>
</trkpt>
<trkpt lat="39.663907000" lon="-0.387962000">
  <ele>262.100000</ele>
  <time>2012-02-26T08:22:04Z</time>
  <sat>7</sat>
</trkpt>
<trkpt lat="39.663928000" lon="-0.388012000">
  <ele>263.300000</ele>
  <time>2012-02-26T08:22:07Z</time>
  <sat>9</sat>
</trkpt>
<trkpt lat="39.663932000" lon="-0.388026000">
  <ele>263.200000</ele>
  <time>2012-02-26T08:22:08Z</time>
  <sat>9</sat>
</trkpt>
<trkpt lat="39.663949000" lon="-0.388076000">
  <ele>263.700000</ele>
  <time>2012-02-26T08:22:11Z</time>
  <sat>8</sat>
</trkpt>
<trkpt lat="39.663966000" lon="-0.388127000">
  <ele>264.200000</ele>
  <time>2012-02-26T08:22:14Z</time>
  <sat>8</sat>
</trkpt>
<trkpt lat="39.663968000" lon="-0.388145000">
  <ele>264.200000</ele>
  <time>2012-02-26T08:22:15Z</time>
  <sat>8</sat>
</trkpt>
<trkpt lat="39.663971000" lon="-0.388176000">
  <ele>264.200000</ele>
  <time>2012-02-26T08:22:17Z</time>
  <sat>8</sat>
</trkpt>
<trkpt lat="39.663969000" lon="-0.388192000">
  <ele>264.200000</ele>
  <time>2012-02-26T08:22:18Z</time>
  <sat>8</sat>
</trkpt>
<trkpt lat="39.663970000" lon="-0.388210000">
  <ele>264.700000</ele>
  <time>2012-02-26T08:22:19Z</time>
  <sat>9</sat>
</trkpt>
<trkpt lat="39.663970000" lon="-0.388260000">
  <ele>265.700000</ele>
  <time>2012-02-26T08:22:22Z</time>
  <sat>8</sat>
</trkpt>
<trkpt lat="39.663964000" lon="-0.388388000">
  <ele>267.600000</ele>
  <time>2012-02-26T08:22:30Z</time>
  <sat>7</sat>
</trkpt>
<trkpt lat="39.663960000" lon="-0.388403000">
  <ele>267.800000</ele>
  <time>2012-02-26T08:22:31Z</time>
  <sat>7</sat>
</trkpt>
<trkpt lat="39.663955000" lon="-0.388437000">
  <ele>268.800000</ele>
  <time>2012-02-26T08:22:33Z</time>
  <sat>8</sat>
</trkpt>
<trkpt lat="39.663955000" lon="-0.388452000">
  <ele>269.100000</ele>
  <time>2012-02-26T08:22:34Z</time>
  <sat>8</sat>
</trkpt>
<trkpt lat="39.663955000" lon="-0.388500000">
  <ele>269.700000</ele>
  <time>2012-02-26T08:22:37Z</time>
  <sat>8</sat>
</trkpt>
<trkpt lat="39.663953000" lon="-0.388515000">
  <ele>269.700000</ele>
  <time>2012-02-26T08:22:38Z</time>
  <sat>8</sat>
</trkpt>
<trkpt lat="39.663951000" lon="-0.388562000">
  <ele>270.500000</ele>
  <time>2012-02-26T08:22:41Z</time>
  <sat>8</sat>
</trkpt>
<trkpt lat="39.663951000" lon="-0.388577000">
  <ele>271.000000</ele>
  <time>2012-02-26T08:22:42Z</time>
  <sat>8</sat>
</trkpt>
<trkpt lat="39.663943000" lon="-0.388622000">
  <ele>271.700000</ele>
  <time>2012-02-26T08:22:45Z</time>
  <sat>8</sat>
</trkpt>
<trkpt lat="39.663938000" lon="-0.388637000">
  <ele>272.000000</ele>
  <time>2012-02-26T08:22:46Z</time>
  <sat>8</sat>
</trkpt>
<trkpt lat="39.663927000" lon="-0.388667000">
  <ele>272.600000</ele>
  <time>2012-02-26T08:22:48Z</time>
  <sat>8</sat>
</trkpt>
<trkpt lat="39.663926000" lon="-0.388683000">
  <ele>273.100000</ele>
  <time>2012-02-26T08:22:49Z</time>
  <sat>8</sat>
</trkpt>
<trkpt lat="39.663925000" lon="-0.388717000">
  <ele>273.800000</ele>
  <time>2012-02-26T08:22:51Z</time>
  <sat>8</sat>
</trkpt>
<trkpt lat="39.663930000" lon="-0.388759000">
  <ele>274.700000</ele>
  <time>2012-02-26T08:22:54Z</time>
  <sat>7</sat>
</trkpt>
<trkpt lat="39.663937000" lon="-0.388785000">
  <ele>275.200000</ele>
  <time>2012-02-26T08:22:56Z</time>
  <sat>8</sat>
</trkpt>
<trkpt lat="39.663950000" lon="-0.388831000">
  <ele>276.100000</ele>
  <time>2012-02-26T08:22:59Z</time>
  <sat>8</sat>
</trkpt>
<trkpt lat="39.663955000" lon="-0.388844000">
  <ele>276.200000</ele>
  <time>2012-02-26T08:23:00Z</time>
  <sat>8</sat>
</trkpt>
<trkpt lat="39.664014000" lon="-0.388956000">
  <ele>277.600000</ele>
  <time>2012-02-26T08:23:08Z</time>
  <sat>10</sat>
</trkpt>
<trkpt lat="39.664021000" lon="-0.388969000">
  <ele>277.600000</ele>
  <time>2012-02-26T08:23:09Z</time>
  <sat>10</sat>
</trkpt>
<trkpt lat="39.664052000" lon="-0.389032000">
  <ele>277.700000</ele>
  <time>2012-02-26T08:23:13Z</time>
  <sat>10</sat>
</trkpt>
<trkpt lat="39.664059000" lon="-0.389050000">
  <ele>278.200000</ele>
  <time>2012-02-26T08:23:14Z</time>
  <sat>10</sat>
</trkpt>
<trkpt lat="39.664096000" lon="-0.389138000">
  <ele>279.300000</ele>
  <time>2012-02-26T08:23:19Z</time>
  <sat>9</sat>
</trkpt>
<trkpt lat="39.664105000" lon="-0.389154000">
  <ele>279.200000</ele>
  <time>2012-02-26T08:23:20Z</time>
  <sat>9</sat>
</trkpt>
<trkpt lat="39.664114000" lon="-0.389169000">
  <ele>279.200000</ele>
  <time>2012-02-26T08:23:21Z</time>
  <sat>9</sat>
</trkpt>
<trkpt lat="39.664121000" lon="-0.389187000">
  <ele>279.300000</ele>
  <time>2012-02-26T08:23:22Z</time>
  <sat>9</sat>
</trkpt>
<trkpt lat="39.664138000" lon="-0.389212000">
  <ele>279.100000</ele>
  <time>2012-02-26T08:23:24Z</time>
  <sat>9</sat>
</trkpt>
<trkpt lat="39.664149000" lon="-0.389221000">
  <ele>279.000000</ele>
  <time>2012-02-26T08:23:25Z</time>
  <sat>9</sat>
</trkpt>
<trkpt lat="39.664160000" lon="-0.389242000">
  <ele>278.500000</ele>
  <time>2012-02-26T08:23:26Z</time>
  <sat>9</sat>
</trkpt>
<trkpt lat="39.664189000" lon="-0.389310000">
  <ele>278.300000</ele>
  <time>2012-02-26T08:23:29Z</time>
  <sat>9</sat>
</trkpt>
<trkpt lat="39.664211000" lon="-0.389361000">
  <ele>278.500000</ele>
  <time>2012-02-26T08:23:31Z</time>
  <sat>8</sat>
</trkpt>
<trkpt lat="39.664242000" lon="-0.389410000">
  <ele>278.500000</ele>
  <time>2012-02-26T08:23:33Z</time>
  <sat>8</sat>
</trkpt>
<trkpt lat="39.664282000" lon="-0.389444000">
  <ele>278.600000</ele>
  <time>2012-02-26T08:23:35Z</time>
  <sat>8</sat>
</trkpt>
<trkpt lat="39.664304000" lon="-0.389451000">
  <ele>278.700000</ele>
  <time>2012-02-26T08:23:36Z</time>
  <sat>8</sat>
</trkpt>
<trkpt lat="39.664326000" lon="-0.389453000">
  <ele>278.800000</ele>
  <time>2012-02-26T08:23:37Z</time>
  <sat>8</sat>
</trkpt>
<trkpt lat="39.664348000" lon="-0.389449000">
  <ele>279.000000</ele>
  <time>2012-02-26T08:23:38Z</time>
  <sat>8</sat>
</trkpt>
<trkpt lat="39.664369000" lon="-0.389442000">
  <ele>279.000000</ele>
  <time>2012-02-26T08:23:39Z</time>
  <sat>9</sat>
</trkpt>
<trkpt lat="39.664389000" lon="-0.389431000">
  <ele>279.100000</ele>
  <time>2012-02-26T08:23:40Z</time>
  <sat>9</sat>
</trkpt>
<trkpt lat="39.664424000" lon="-0.389413000">
  <ele>279.100000</ele>
  <time>2012-02-26T08:23:42Z</time>
  <sat>8</sat>
</trkpt>
<trkpt lat="39.664441000" lon="-0.389406000">
  <ele>279.300000</ele>
  <time>2012-02-26T08:23:43Z</time>
  <sat>8</sat>
</trkpt>
<trkpt lat="39.664539000" lon="-0.389355000">
  <ele>282.600000</ele>
  <time>2012-02-26T08:23:50Z</time>
  <sat>7</sat>
</trkpt>
<trkpt lat="39.664556000" lon="-0.389355000">
  <ele>282.800000</ele>
  <time>2012-02-26T08:23:51Z</time>
  <sat>7</sat>
</trkpt>
<trkpt lat="39.664571000" lon="-0.389353000">
  <ele>283.000000</ele>
  <time>2012-02-26T08:23:52Z</time>
  <sat>7</sat>
</trkpt>
<trkpt lat="39.664586000" lon="-0.389355000">
  <ele>283.500000</ele>
  <time>2012-02-26T08:23:53Z</time>
  <sat>8</sat>
</trkpt>
<trkpt lat="39.664600000" lon="-0.389358000">
  <ele>283.500000</ele>
  <time>2012-02-26T08:23:54Z</time>
  <sat>8</sat>
</trkpt>
<trkpt lat="39.664612000" lon="-0.389366000">
  <ele>283.700000</ele>
  <time>2012-02-26T08:23:55Z</time>
  <sat>8</sat>
</trkpt>
<trkpt lat="39.664659000" lon="-0.389406000">
  <ele>283.700000</ele>
  <time>2012-02-26T08:23:59Z</time>
  <sat>9</sat>
</trkpt>
<trkpt lat="39.664683000" lon="-0.389432000">
  <ele>283.700000</ele>
  <time>2012-02-26T08:24:01Z</time>
  <sat>9</sat>
</trkpt>
<trkpt lat="39.664694000" lon="-0.389450000">
  <ele>284.100000</ele>
  <time>2012-02-26T08:24:02Z</time>
  <sat>9</sat>
</trkpt>
<trkpt lat="39.664710000" lon="-0.389485000">
  <ele>284.200000</ele>
  <time>2012-02-26T08:24:04Z</time>
  <sat>9</sat>
</trkpt>
<trkpt lat="39.664756000" lon="-0.389577000">
  <ele>284.600000</ele>
  <time>2012-02-26T08:24:09Z</time>
  <sat>10</sat>
</trkpt>
<trkpt lat="39.664763000" lon="-0.389597000">
  <ele>285.000000</ele>
  <time>2012-02-26T08:24:10Z</time>
  <sat>10</sat>
</trkpt>
<trkpt lat="39.664786000" lon="-0.389655000">
  <ele>285.600000</ele>
  <time>2012-02-26T08:24:13Z</time>
  <sat>10</sat>
</trkpt>
<trkpt lat="39.664812000" lon="-0.389709000">
  <ele>286.700000</ele>
  <time>2012-02-26T08:24:16Z</time>
  <sat>9</sat>
</trkpt>
<trkpt lat="39.664823000" lon="-0.389726000">
  <ele>287.100000</ele>
  <time>2012-02-26T08:24:17Z</time>
  <sat>8</sat>
</trkpt>
<trkpt lat="39.664869000" lon="-0.389803000">
  <ele>289.100000</ele>
  <time>2012-02-26T08:24:22Z</time>
  <sat>9</sat>
</trkpt>
<trkpt lat="39.664877000" lon="-0.389821000">
  <ele>289.500000</ele>
  <time>2012-02-26T08:24:23Z</time>
  <sat>9</sat>
</trkpt>
<trkpt lat="39.664895000" lon="-0.389881000">
  <ele>290.300000</ele>
  <time>2012-02-26T08:24:26Z</time>
  <sat>8</sat>
</trkpt>
<trkpt lat="39.664899000" lon="-0.389899000">
  <ele>290.700000</ele>
  <time>2012-02-26T08:24:27Z</time>
  <sat>8</sat>
</trkpt>
<trkpt lat="39.664900000" lon="-0.389918000">
  <ele>290.700000</ele>
  <time>2012-02-26T08:24:28Z</time>
  <sat>8</sat>
</trkpt>
<trkpt lat="39.664908000" lon="-0.389973000">
  <ele>290.600000</ele>
  <time>2012-02-26T08:24:31Z</time>
  <sat>8</sat>
</trkpt>
<trkpt lat="39.664927000" lon="-0.390052000">
  <ele>291.200000</ele>
  <time>2012-02-26T08:24:35Z</time>
  <sat>8</sat>
</trkpt>
<trkpt lat="39.664934000" lon="-0.390068000">
  <ele>291.200000</ele>
  <time>2012-02-26T08:24:36Z</time>
  <sat>7</sat>
</trkpt>
<trkpt lat="39.664964000" lon="-0.390108000">
  <ele>291.800000</ele>
  <time>2012-02-26T08:24:39Z</time>
  <sat>8</sat>
</trkpt>
<trkpt lat="39.665000000" lon="-0.390144000">
  <ele>292.200000</ele>
  <time>2012-02-26T08:24:42Z</time>
  <sat>8</sat>
</trkpt>
<trkpt lat="39.665051000" lon="-0.390196000">
  <ele>292.200000</ele>
  <time>2012-02-26T08:24:46Z</time>
  <sat>9</sat>
</trkpt>
<trkpt lat="39.665057000" lon="-0.390205000">
  <ele>292.500000</ele>
  <time>2012-02-26T08:24:47Z</time>
  <sat>9</sat>
</trkpt>
<trkpt lat="39.665094000" lon="-0.390235000">
  <ele>292.700000</ele>
  <time>2012-02-26T08:25:01Z</time>
  <sat>8</sat>
</trkpt>
<trkpt lat="39.665111000" lon="-0.390259000">
  <ele>292.700000</ele>
  <time>2012-02-26T08:25:02Z</time>
  <sat>8</sat>
</trkpt>
<trkpt lat="39.665130000" lon="-0.390286000">
  <ele>293.000000</ele>
  <time>2012-02-26T08:25:03Z</time>
  <sat>9</sat>
</trkpt>
<trkpt lat="39.665143000" lon="-0.390315000">
  <ele>292.700000</ele>
  <time>2012-02-26T08:25:04Z</time>
  <sat>9</sat>
</trkpt>
<trkpt lat="39.665228000" lon="-0.390489000">
  <ele>293.500000</ele>
  <time>2012-02-26T08:25:09Z</time>
  <sat>8</sat>
</trkpt>
<trkpt lat="39.665261000" lon="-0.390521000">
  <ele>293.300000</ele>
  <time>2012-02-26T08:25:10Z</time>
  <sat>9</sat>
</trkpt>
<trkpt lat="39.665335000" lon="-0.390571000">
  <ele>292.600000</ele>
  <time>2012-02-26T08:25:12Z</time>
  <sat>9</sat>
</trkpt>
<trkpt lat="39.665385000" lon="-0.390579000">
  <ele>292.200000</ele>
  <time>2012-02-26T08:25:13Z</time>
  <sat>8</sat>
</trkpt>
<trkpt lat="39.665423000" lon="-0.390578000">
  <ele>292.200000</ele>
  <time>2012-02-26T08:25:14Z</time>
  <sat>8</sat>
</trkpt>
<trkpt lat="39.665451000" lon="-0.390559000">
  <ele>292.700000</ele>
  <time>2012-02-26T08:25:15Z</time>
  <sat>8</sat>
</trkpt>
<trkpt lat="39.665480000" lon="-0.390545000">
  <ele>292.800000</ele>
  <time>2012-02-26T08:25:16Z</time>
  <sat>8</sat>
</trkpt>
<trkpt lat="39.665692000" lon="-0.390443000">
  <ele>292.300000</ele>
  <time>2012-02-26T08:25:24Z</time>
  <sat>7</sat>
</trkpt>
<trkpt lat="39.665717000" lon="-0.390423000">
  <ele>292.300000</ele>
  <time>2012-02-26T08:25:25Z</time>
  <sat>7</sat>
</trkpt>
<trkpt lat="39.665767000" lon="-0.390386000">
  <ele>292.000000</ele>
  <time>2012-02-26T08:25:27Z</time>
  <sat>7</sat>
</trkpt>
<trkpt lat="39.665843000" lon="-0.390349000">
  <ele>292.700000</ele>
  <time>2012-02-26T08:25:30Z</time>
  <sat>8</sat>
</trkpt>
<trkpt lat="39.665868000" lon="-0.390344000">
  <ele>292.700000</ele>
  <time>2012-02-26T08:25:31Z</time>
  <sat>8</sat>
</trkpt>
<trkpt lat="39.665911000" lon="-0.390373000">
  <ele>293.300000</ele>
  <time>2012-02-26T08:25:33Z</time>
  <sat>9</sat>
</trkpt>
<trkpt lat="39.665929000" lon="-0.390394000">
  <ele>293.500000</ele>
  <time>2012-02-26T08:25:34Z</time>
  <sat>8</sat>
</trkpt>
<trkpt lat="39.665971000" lon="-0.390448000">
  <ele>294.300000</ele>
  <time>2012-02-26T08:25:36Z</time>
  <sat>8</sat>
</trkpt>
<trkpt lat="39.666048000" lon="-0.390550000">
  <ele>295.700000</ele>
  <time>2012-02-26T08:25:40Z</time>
  <sat>9</sat>
</trkpt>
<trkpt lat="39.666064000" lon="-0.390577000">
  <ele>295.700000</ele>
  <time>2012-02-26T08:25:41Z</time>
  <sat>9</sat>
</trkpt>
<trkpt lat="39.666153000" lon="-0.390752000">
  <ele>298.200000</ele>
  <time>2012-02-26T08:25:48Z</time>
  <sat>9</sat>
</trkpt>
<trkpt lat="39.666165000" lon="-0.390777000">
  <ele>298.300000</ele>
  <time>2012-02-26T08:25:49Z</time>
  <sat>9</sat>
</trkpt>
<trkpt lat="39.666246000" lon="-0.390944000">
  <ele>300.000000</ele>
  <time>2012-02-26T08:25:56Z</time>
  <sat>9</sat>
</trkpt>
<trkpt lat="39.666255000" lon="-0.390970000">
  <ele>300.200000</ele>
  <time>2012-02-26T08:25:57Z</time>
  <sat>9</sat>
</trkpt>
<trkpt lat="39.666348000" lon="-0.391241000">
  <ele>303.300000</ele>
  <time>2012-02-26T08:26:08Z</time>
  <sat>9</sat>
</trkpt>
<trkpt lat="39.666352000" lon="-0.391267000">
  <ele>303.500000</ele>
  <time>2012-02-26T08:26:09Z</time>
  <sat>9</sat>
</trkpt>
<trkpt lat="39.666357000" lon="-0.391295000">
  <ele>303.700000</ele>
  <time>2012-02-26T08:26:10Z</time>
  <sat>9</sat>
</trkpt>
<trkpt lat="39.666371000" lon="-0.391342000">
  <ele>304.200000</ele>
  <time>2012-02-26T08:26:12Z</time>
  <sat>9</sat>
</trkpt>
<trkpt lat="39.666425000" lon="-0.391475000">
  <ele>304.700000</ele>
  <time>2012-02-26T08:26:18Z</time>
  <sat>7</sat>
</trkpt>
<trkpt lat="39.666474000" lon="-0.391582000">
  <ele>305.500000</ele>
  <time>2012-02-26T08:26:23Z</time>
  <sat>7</sat>
</trkpt>
<trkpt lat="39.666496000" lon="-0.391633000">
  <ele>305.800000</ele>
  <time>2012-02-26T08:26:26Z</time>
  <sat>8</sat>
</trkpt>
<trkpt lat="39.666501000" lon="-0.391655000">
  <ele>306.200000</ele>
  <time>2012-02-26T08:26:27Z</time>
  <sat>8</sat>
</trkpt>
<trkpt lat="39.666504000" lon="-0.391677000">
  <ele>306.700000</ele>
  <time>2012-02-26T08:26:28Z</time>
  <sat>8</sat>
</trkpt>
<trkpt lat="39.666512000" lon="-0.391719000">
  <ele>307.200000</ele>
  <time>2012-02-26T08:26:30Z</time>
  <sat>8</sat>
</trkpt>
<trkpt lat="39.666518000" lon="-0.391739000">
  <ele>307.000000</ele>
  <time>2012-02-26T08:26:31Z</time>
  <sat>8</sat>
</trkpt>
<trkpt lat="39.666523000" lon="-0.391759000">
  <ele>307.200000</ele>
  <time>2012-02-26T08:26:32Z</time>
  <sat>8</sat>
</trkpt>
<trkpt lat="39.666534000" lon="-0.391818000">
  <ele>308.300000</ele>
  <time>2012-02-26T08:26:35Z</time>
  <sat>7</sat>
</trkpt>
<trkpt lat="39.666546000" lon="-0.391936000">
  <ele>310.000000</ele>
  <time>2012-02-26T08:26:41Z</time>
  <sat>9</sat>
</trkpt>
<trkpt lat="39.666560000" lon="-0.392151000">
  <ele>312.800000</ele>
  <time>2012-02-26T08:26:51Z</time>
  <sat>7</sat>
</trkpt>
<trkpt lat="39.666557000" lon="-0.392173000">
  <ele>313.100000</ele>
  <time>2012-02-26T08:26:52Z</time>
  <sat>7</sat>
</trkpt>
<trkpt lat="39.666555000" lon="-0.392217000">
  <ele>313.600000</ele>
  <time>2012-02-26T08:26:54Z</time>
  <sat>8</sat>
</trkpt>
<trkpt lat="39.666555000" lon="-0.392238000">
  <ele>313.200000</ele>
  <time>2012-02-26T08:26:55Z</time>
  <sat>8</sat>
</trkpt>
<trkpt lat="39.666562000" lon="-0.392277000">
  <ele>313.700000</ele>
  <time>2012-02-26T08:26:57Z</time>
  <sat>8</sat>
</trkpt>
<trkpt lat="39.666584000" lon="-0.392429000">
  <ele>315.600000</ele>
  <time>2012-02-26T08:27:04Z</time>
  <sat>8</sat>
</trkpt>
<trkpt lat="39.666592000" lon="-0.392451000">
  <ele>315.100000</ele>
  <time>2012-02-26T08:27:05Z</time>
  <sat>8</sat>
</trkpt>
<trkpt lat="39.666597000" lon="-0.392468000">
  <ele>315.000000</ele>
  <time>2012-02-26T08:27:06Z</time>
  <sat>8</sat>
</trkpt>
<trkpt lat="39.666605000" lon="-0.392507000">
  <ele>315.700000</ele>
  <time>2012-02-26T08:27:08Z</time>
  <sat>8</sat>
</trkpt>
<trkpt lat="39.666619000" lon="-0.392571000">
  <ele>315.500000</ele>
  <time>2012-02-26T08:27:11Z</time>
  <sat>8</sat>
</trkpt>
<trkpt lat="39.666674000" lon="-0.392773000">
  <ele>316.600000</ele>
  <time>2012-02-26T08:27:20Z</time>
  <sat>8</sat>
</trkpt>
<trkpt lat="39.666707000" lon="-0.392937000">
  <ele>317.500000</ele>
  <time>2012-02-26T08:27:27Z</time>
  <sat>8</sat>
</trkpt>
<trkpt lat="39.666710000" lon="-0.392960000">
  <ele>317.700000</ele>
  <time>2012-02-26T08:27:28Z</time>
  <sat>8</sat>
</trkpt>
<trkpt lat="39.666711000" lon="-0.392986000">
  <ele>317.800000</ele>
  <time>2012-02-26T08:27:29Z</time>
  <sat>8</sat>
</trkpt>
<trkpt lat="39.666710000" lon="-0.393033000">
  <ele>318.200000</ele>
  <time>2012-02-26T08:27:31Z</time>
  <sat>8</sat>
</trkpt>
<trkpt lat="39.666703000" lon="-0.393106000">
  <ele>318.600000</ele>
  <time>2012-02-26T08:27:34Z</time>
  <sat>8</sat>
</trkpt>
<trkpt lat="39.666655000" lon="-0.393416000">
  <ele>321.200000</ele>
  <time>2012-02-26T08:27:46Z</time>
  <sat>8</sat>
</trkpt>
<trkpt lat="39.666647000" lon="-0.393441000">
  <ele>321.200000</ele>
  <time>2012-02-26T08:27:47Z</time>
  <sat>8</sat>
</trkpt>
<trkpt lat="39.666627000" lon="-0.393518000">
  <ele>321.800000</ele>
  <time>2012-02-26T08:27:50Z</time>
  <sat>8</sat>
</trkpt>
<trkpt lat="39.666607000" lon="-0.393622000">
  <ele>322.000000</ele>
  <time>2012-02-26T08:27:54Z</time>
  <sat>8</sat>
</trkpt>
<trkpt lat="39.666605000" lon="-0.393650000">
  <ele>322.000000</ele>
  <time>2012-02-26T08:27:55Z</time>
  <sat>8</sat>
</trkpt>
<trkpt lat="39.666616000" lon="-0.393703000">
  <ele>322.100000</ele>
  <time>2012-02-26T08:27:57Z</time>
  <sat>8</sat>
</trkpt>
<trkpt lat="39.666628000" lon="-0.393731000">
  <ele>322.100000</ele>
  <time>2012-02-26T08:27:58Z</time>
  <sat>8</sat>
</trkpt>
<trkpt lat="39.666659000" lon="-0.393775000">
  <ele>322.200000</ele>
  <time>2012-02-26T08:28:00Z</time>
  <sat>8</sat>
</trkpt>
<trkpt lat="39.666680000" lon="-0.393792000">
  <ele>322.500000</ele>
  <time>2012-02-26T08:28:01Z</time>
  <sat>8</sat>
</trkpt>
<trkpt lat="39.666724000" lon="-0.393814000">
  <ele>322.800000</ele>
  <time>2012-02-26T08:28:03Z</time>
  <sat>8</sat>
</trkpt>
<trkpt lat="39.666772000" lon="-0.393829000">
  <ele>323.000000</ele>
  <time>2012-02-26T08:28:05Z</time>
  <sat>8</sat>
</trkpt>
<trkpt lat="39.666909000" lon="-0.393855000">
  <ele>323.000000</ele>
  <time>2012-02-26T08:28:11Z</time>
  <sat>8</sat>
</trkpt>
<trkpt lat="39.666953000" lon="-0.393856000">
  <ele>322.700000</ele>
  <time>2012-02-26T08:28:13Z</time>
  <sat>8</sat>
</trkpt>
<trkpt lat="39.666976000" lon="-0.393858000">
  <ele>322.700000</ele>
  <time>2012-02-26T08:28:14Z</time>
  <sat>8</sat>
</trkpt>
<trkpt lat="39.666997000" lon="-0.393858000">
  <ele>323.100000</ele>
  <time>2012-02-26T08:28:15Z</time>
  <sat>8</sat>
</trkpt>
<trkpt lat="39.667037000" lon="-0.393857000">
  <ele>323.600000</ele>
  <time>2012-02-26T08:28:17Z</time>
  <sat>8</sat>
</trkpt>
<trkpt lat="39.667052000" lon="-0.393860000">
  <ele>323.700000</ele>
  <time>2012-02-26T08:28:18Z</time>
  <sat>8</sat>
</trkpt>
<trkpt lat="39.667109000" lon="-0.393864000">
  <ele>323.700000</ele>
  <time>2012-02-26T08:28:21Z</time>
  <sat>8</sat>
</trkpt>
<trkpt lat="39.667130000" lon="-0.393877000">
  <ele>323.700000</ele>
  <time>2012-02-26T08:28:22Z</time>
  <sat>8</sat>
</trkpt>
<trkpt lat="39.667170000" lon="-0.393907000">
  <ele>324.700000</ele>
  <time>2012-02-26T08:28:24Z</time>
  <sat>8</sat>
</trkpt>
<trkpt lat="39.667228000" lon="-0.393959000">
  <ele>326.700000</ele>
  <time>2012-02-26T08:28:27Z</time>
  <sat>8</sat>
</trkpt>
<trkpt lat="39.667260000" lon="-0.393997000">
  <ele>327.000000</ele>
  <time>2012-02-26T08:28:29Z</time>
  <sat>8</sat>
</trkpt>
<trkpt lat="39.667275000" lon="-0.394015000">
  <ele>327.700000</ele>
  <time>2012-02-26T08:28:30Z</time>
  <sat>8</sat>
</trkpt>
<trkpt lat="39.667292000" lon="-0.394041000">
  <ele>327.800000</ele>
  <time>2012-02-26T08:28:31Z</time>
  <sat>8</sat>
</trkpt>
<trkpt lat="39.667301000" lon="-0.394066000">
  <ele>328.200000</ele>
  <time>2012-02-26T08:28:32Z</time>
  <sat>8</sat>
</trkpt>
<trkpt lat="39.667315000" lon="-0.394126000">
  <ele>327.800000</ele>
  <time>2012-02-26T08:28:34Z</time>
  <sat>8</sat>
</trkpt>
<trkpt lat="39.667376000" lon="-0.394355000">
  <ele>327.200000</ele>
  <time>2012-02-26T08:28:41Z</time>
  <sat>8</sat>
</trkpt>
<trkpt lat="39.667391000" lon="-0.394389000">
  <ele>327.600000</ele>
  <time>2012-02-26T08:28:42Z</time>
  <sat>8</sat>
</trkpt>
<trkpt lat="39.667478000" lon="-0.394552000">
  <ele>328.100000</ele>
  <time>2012-02-26T08:28:47Z</time>
  <sat>8</sat>
</trkpt>
<trkpt lat="39.667523000" lon="-0.394607000">
  <ele>328.300000</ele>
  <time>2012-02-26T08:28:49Z</time>
  <sat>8</sat>
</trkpt>
<trkpt lat="39.667574000" lon="-0.394654000">
  <ele>328.700000</ele>
  <time>2012-02-26T08:28:51Z</time>
  <sat>8</sat>
</trkpt>
<trkpt lat="39.667601000" lon="-0.394671000">
  <ele>328.500000</ele>
  <time>2012-02-26T08:28:52Z</time>
  <sat>8</sat>
</trkpt>
<trkpt lat="39.667631000" lon="-0.394682000">
  <ele>328.700000</ele>
  <time>2012-02-26T08:28:53Z</time>
  <sat>8</sat>
</trkpt>
<trkpt lat="39.667863000" lon="-0.394768000">
  <ele>329.700000</ele>
  <time>2012-02-26T08:29:01Z</time>
  <sat>8</sat>
</trkpt>
<trkpt lat="39.667890000" lon="-0.394783000">
  <ele>329.800000</ele>
  <time>2012-02-26T08:29:02Z</time>
  <sat>8</sat>
</trkpt>
<trkpt lat="39.667919000" lon="-0.394806000">
  <ele>330.100000</ele>
  <time>2012-02-26T08:29:03Z</time>
  <sat>8</sat>
</trkpt>
<trkpt lat="39.667940000" lon="-0.394835000">
  <ele>329.700000</ele>
  <time>2012-02-26T08:29:04Z</time>
  <sat>8</sat>
</trkpt>
<trkpt lat="39.667960000" lon="-0.394867000">
  <ele>329.600000</ele>
  <time>2012-02-26T08:29:05Z</time>
  <sat>8</sat>
</trkpt>
<trkpt lat="39.667976000" lon="-0.394905000">
  <ele>329.300000</ele>
  <time>2012-02-26T08:29:06Z</time>
  <sat>8</sat>
</trkpt>
<trkpt lat="39.667982000" lon="-0.394950000">
  <ele>329.300000</ele>
  <time>2012-02-26T08:29:07Z</time>
  <sat>8</sat>
</trkpt>
<trkpt lat="39.667984000" lon="-0.394997000">
  <ele>329.300000</ele>
  <time>2012-02-26T08:29:08Z</time>
  <sat>8</sat>
</trkpt>
<trkpt lat="39.667980000" lon="-0.395043000">
  <ele>329.300000</ele>
  <time>2012-02-26T08:29:09Z</time>
  <sat>8</sat>
</trkpt>
<trkpt lat="39.667960000" lon="-0.395134000">
  <ele>329.200000</ele>
  <time>2012-02-26T08:29:11Z</time>
  <sat>8</sat>
</trkpt>
<trkpt lat="39.667884000" lon="-0.395449000">
  <ele>329.300000</ele>
  <time>2012-02-26T08:29:17Z</time>
  <sat>8</sat>
</trkpt>
<trkpt lat="39.667884000" lon="-0.395508000">
  <ele>329.100000</ele>
  <time>2012-02-26T08:29:18Z</time>
  <sat>8</sat>
</trkpt>
<trkpt lat="39.667890000" lon="-0.395628000">
  <ele>328.200000</ele>
  <time>2012-02-26T08:29:20Z</time>
  <sat>8</sat>
</trkpt>
<trkpt lat="39.667904000" lon="-0.395689000">
  <ele>327.800000</ele>
  <time>2012-02-26T08:29:21Z</time>
  <sat>8</sat>
</trkpt>
<trkpt lat="39.667943000" lon="-0.395803000">
  <ele>327.800000</ele>
  <time>2012-02-26T08:29:23Z</time>
  <sat>8</sat>
</trkpt>
<trkpt lat="39.667973000" lon="-0.395852000">
  <ele>328.300000</ele>
  <time>2012-02-26T08:29:24Z</time>
  <sat>8</sat>
</trkpt>
<trkpt lat="39.668010000" lon="-0.395891000">
  <ele>328.700000</ele>
  <time>2012-02-26T08:29:25Z</time>
  <sat>8</sat>
</trkpt>
<trkpt lat="39.668049000" lon="-0.395915000">
  <ele>328.700000</ele>
  <time>2012-02-26T08:29:26Z</time>
  <sat>8</sat>
</trkpt>
<trkpt lat="39.668091000" lon="-0.395932000">
  <ele>329.100000</ele>
  <time>2012-02-26T08:29:27Z</time>
  <sat>8</sat>
</trkpt>
<trkpt lat="39.668130000" lon="-0.395933000">
  <ele>328.800000</ele>
  <time>2012-02-26T08:29:28Z</time>
  <sat>8</sat>
</trkpt>
<trkpt lat="39.668289000" lon="-0.395941000">
  <ele>328.200000</ele>
  <time>2012-02-26T08:29:33Z</time>
  <sat>8</sat>
</trkpt>
<trkpt lat="39.668319000" lon="-0.395938000">
  <ele>327.700000</ele>
  <time>2012-02-26T08:29:34Z</time>
  <sat>8</sat>
</trkpt>
<trkpt lat="39.668599000" lon="-0.395899000">
  <ele>330.600000</ele>
  <time>2012-02-26T08:29:46Z</time>
  <sat>8</sat>
</trkpt>
<trkpt lat="39.668624000" lon="-0.395899000">
  <ele>330.600000</ele>
  <time>2012-02-26T08:29:47Z</time>
  <sat>8</sat>
</trkpt>
<trkpt lat="39.668650000" lon="-0.395897000">
  <ele>331.000000</ele>
  <time>2012-02-26T08:29:48Z</time>
  <sat>8</sat>
</trkpt>
<trkpt lat="39.668673000" lon="-0.395904000">
  <ele>331.200000</ele>
  <time>2012-02-26T08:29:49Z</time>
  <sat>8</sat>
</trkpt>
<trkpt lat="39.668697000" lon="-0.395906000">
  <ele>331.500000</ele>
  <time>2012-02-26T08:29:50Z</time>
  <sat>8</sat>
</trkpt>
<trkpt lat="39.668792000" lon="-0.395914000">
  <ele>332.800000</ele>
  <time>2012-02-26T08:29:54Z</time>
  <sat>5</sat>
</trkpt>
<trkpt lat="39.668816000" lon="-0.395922000">
  <ele>333.500000</ele>
  <time>2012-02-26T08:29:55Z</time>
  <sat>7</sat>
</trkpt>
<trkpt lat="39.668840000" lon="-0.395924000">
  <ele>334.000000</ele>
  <time>2012-02-26T08:29:56Z</time>
  <sat>7</sat>
</trkpt>
<trkpt lat="39.668922000" lon="-0.395940000">
  <ele>335.200000</ele>
  <time>2012-02-26T08:30:00Z</time>
  <sat>9</sat>
</trkpt>
<trkpt lat="39.668945000" lon="-0.395958000">
  <ele>335.500000</ele>
  <time>2012-02-26T08:30:01Z</time>
  <sat>9</sat>
</trkpt>
<trkpt lat="39.669003000" lon="-0.396007000">
  <ele>337.600000</ele>
  <time>2012-02-26T08:30:04Z</time>
  <sat>9</sat>
</trkpt>
<trkpt lat="39.669022000" lon="-0.396013000">
  <ele>338.000000</ele>
  <time>2012-02-26T08:30:05Z</time>
  <sat>9</sat>
</trkpt>
<trkpt lat="39.669040000" lon="-0.396024000">
  <ele>338.200000</ele>
  <time>2012-02-26T08:30:06Z</time>
  <sat>9</sat>
</trkpt>
<trkpt lat="39.669068000" lon="-0.396045000">
  <ele>338.700000</ele>
  <time>2012-02-26T08:30:08Z</time>
  <sat>10</sat>
</trkpt>
<trkpt lat="39.669098000" lon="-0.396068000">
  <ele>339.100000</ele>
  <time>2012-02-26T08:30:10Z</time>
  <sat>10</sat>
</trkpt>
<trkpt lat="39.669113000" lon="-0.396090000">
  <ele>339.000000</ele>
  <time>2012-02-26T08:30:11Z</time>
  <sat>8</sat>
</trkpt>
<trkpt lat="39.669120000" lon="-0.396116000">
  <ele>338.700000</ele>
  <time>2012-02-26T08:30:12Z</time>
  <sat>10</sat>
</trkpt>
<trkpt lat="39.669123000" lon="-0.396144000">
  <ele>338.800000</ele>
  <time>2012-02-26T08:30:13Z</time>
  <sat>10</sat>
</trkpt>
<trkpt lat="39.669122000" lon="-0.396175000">
  <ele>338.700000</ele>
  <time>2012-02-26T08:30:14Z</time>
  <sat>10</sat>
</trkpt>
<trkpt lat="39.669136000" lon="-0.396321000">
  <ele>336.300000</ele>
  <time>2012-02-26T08:30:18Z</time>
  <sat>10</sat>
</trkpt>
<trkpt lat="39.669149000" lon="-0.396364000">
  <ele>336.000000</ele>
  <time>2012-02-26T08:30:19Z</time>
  <sat>9</sat>
</trkpt>
<trkpt lat="39.669188000" lon="-0.396433000">
  <ele>335.200000</ele>
  <time>2012-02-26T08:30:21Z</time>
  <sat>9</sat>
</trkpt>
<trkpt lat="39.669245000" lon="-0.396508000">
  <ele>334.800000</ele>
  <time>2012-02-26T08:30:24Z</time>
  <sat>9</sat>
</trkpt>
<trkpt lat="39.669247000" lon="-0.396540000">
  <ele>335.200000</ele>
  <time>2012-02-26T08:30:25Z</time>
  <sat>9</sat>
</trkpt>
<trkpt lat="39.669238000" lon="-0.396627000">
  <ele>334.600000</ele>
  <time>2012-02-26T08:30:27Z</time>
  <sat>8</sat>
</trkpt>
<trkpt lat="39.669217000" lon="-0.396733000">
  <ele>334.100000</ele>
  <time>2012-02-26T08:30:29Z</time>
  <sat>8</sat>
</trkpt>
<trkpt lat="39.669199000" lon="-0.396783000">
  <ele>334.000000</ele>
  <time>2012-02-26T08:30:30Z</time>
  <sat>9</sat>
</trkpt>
<trkpt lat="39.669153000" lon="-0.396869000">
  <ele>334.200000</ele>
  <time>2012-02-26T08:30:32Z</time>
  <sat>9</sat>
</trkpt>
<trkpt lat="39.669010000" lon="-0.397142000">
  <ele>333.600000</ele>
  <time>2012-02-26T08:30:40Z</time>
  <sat>9</sat>
</trkpt>
<trkpt lat="39.668976000" lon="-0.397244000">
  <ele>333.800000</ele>
  <time>2012-02-26T08:30:43Z</time>
  <sat>9</sat>
</trkpt>
<trkpt lat="39.668937000" lon="-0.397390000">
  <ele>336.200000</ele>
  <time>2012-02-26T08:30:48Z</time>
  <sat>9</sat>
</trkpt>
<trkpt lat="39.668934000" lon="-0.397424000">
  <ele>336.300000</ele>
  <time>2012-02-26T08:30:49Z</time>
  <sat>9</sat>
</trkpt>
<trkpt lat="39.668953000" lon="-0.397468000">
  <ele>336.000000</ele>
  <time>2012-02-26T08:30:50Z</time>
  <sat>9</sat>
</trkpt>
<trkpt lat="39.668967000" lon="-0.397508000">
  <ele>335.700000</ele>
  <time>2012-02-26T08:30:51Z</time>
  <sat>9</sat>
</trkpt>
<trkpt lat="39.669034000" lon="-0.397733000">
  <ele>335.600000</ele>
  <time>2012-02-26T08:30:57Z</time>
  <sat>5</sat>
</trkpt>
<trkpt lat="39.669049000" lon="-0.397832000">
  <ele>335.300000</ele>
  <time>2012-02-26T08:30:59Z</time>
  <sat>6</sat>
</trkpt>
<trkpt lat="39.669042000" lon="-0.397947000">
  <ele>335.300000</ele>
  <time>2012-02-26T08:31:01Z</time>
  <sat>7</sat>
</trkpt>
<trkpt lat="39.669050000" lon="-0.398038000">
  <ele>334.500000</ele>
  <time>2012-02-26T08:31:03Z</time>
  <sat>7</sat>
</trkpt>
<trkpt lat="39.669108000" lon="-0.398165000">
  <ele>333.700000</ele>
  <time>2012-02-26T08:31:06Z</time>
  <sat>6</sat>
</trkpt>
<trkpt lat="39.669112000" lon="-0.398206000">
  <ele>332.800000</ele>
  <time>2012-02-26T08:31:07Z</time>
  <sat>6</sat>
</trkpt>
<trkpt lat="39.669149000" lon="-0.398271000">
  <ele>334.100000</ele>
  <time>2012-02-26T08:31:11Z</time>
  <sat>7</sat>
</trkpt>
<trkpt lat="39.669154000" lon="-0.398286000">
  <ele>334.200000</ele>
  <time>2012-02-26T08:31:12Z</time>
  <sat>7</sat>
</trkpt>
<trkpt lat="39.669166000" lon="-0.398280000">
  <ele>335.100000</ele>
  <time>2012-02-26T08:31:13Z</time>
  <sat>6</sat>
</trkpt>
<trkpt lat="39.669173000" lon="-0.398283000">
  <ele>335.200000</ele>
  <time>2012-02-26T08:31:14Z</time>
  <sat>6</sat>
</trkpt>
<trkpt lat="39.669179000" lon="-0.398288000">
  <ele>335.800000</ele>
  <time>2012-02-26T08:31:15Z</time>
  <sat>7</sat>
</trkpt>
<trkpt lat="39.669193000" lon="-0.398280000">
  <ele>335.800000</ele>
  <time>2012-02-26T08:31:16Z</time>
  <sat>7</sat>
</trkpt>
<trkpt lat="39.669205000" lon="-0.398286000">
  <ele>335.500000</ele>
  <time>2012-02-26T08:31:17Z</time>
  <sat>7</sat>
</trkpt>
<trkpt lat="39.669232000" lon="-0.398289000">
  <ele>335.100000</ele>
  <time>2012-02-26T08:31:18Z</time>
  <sat>7</sat>
</trkpt>
<trkpt lat="39.669311000" lon="-0.398313000">
  <ele>335.000000</ele>
  <time>2012-02-26T08:31:21Z</time>
  <sat>6</sat>
</trkpt>
<trkpt lat="39.669338000" lon="-0.398329000">
  <ele>335.200000</ele>
  <time>2012-02-26T08:31:22Z</time>
  <sat>6</sat>
</trkpt>
<trkpt lat="39.669356000" lon="-0.398368000">
  <ele>335.500000</ele>
  <time>2012-02-26T08:31:23Z</time>
  <sat>9</sat>
</trkpt>
<trkpt lat="39.669385000" lon="-0.398410000">
  <ele>335.500000</ele>
  <time>2012-02-26T08:31:24Z</time>
  <sat>9</sat>
</trkpt>
<trkpt lat="39.669405000" lon="-0.398458000">
  <ele>335.200000</ele>
  <time>2012-02-26T08:31:25Z</time>
  <sat>9</sat>
</trkpt>
<trkpt lat="39.669418000" lon="-0.398490000">
  <ele>334.800000</ele>
  <time>2012-02-26T08:31:26Z</time>
  <sat>9</sat>
</trkpt>
<trkpt lat="39.669427000" lon="-0.398536000">
  <ele>335.000000</ele>
  <time>2012-02-26T08:31:27Z</time>
  <sat>9</sat>
</trkpt>
<trkpt lat="39.669467000" lon="-0.398797000">
  <ele>334.200000</ele>
  <time>2012-02-26T08:31:34Z</time>
  <sat>8</sat>
</trkpt>
<trkpt lat="39.669468000" lon="-0.398839000">
  <ele>334.200000</ele>
  <time>2012-02-26T08:31:35Z</time>
  <sat>8</sat>
</trkpt>
<trkpt lat="39.669441000" lon="-0.399052000">
  <ele>333.200000</ele>
  <time>2012-02-26T08:31:41Z</time>
  <sat>8</sat>
</trkpt>
<trkpt lat="39.669430000" lon="-0.399079000">
  <ele>332.700000</ele>
  <time>2012-02-26T08:31:42Z</time>
  <sat>8</sat>
</trkpt>
<trkpt lat="39.669419000" lon="-0.399132000">
  <ele>332.100000</ele>
  <time>2012-02-26T08:31:44Z</time>
  <sat>8</sat>
</trkpt>
<trkpt lat="39.669409000" lon="-0.399221000">
  <ele>329.200000</ele>
  <time>2012-02-26T08:31:47Z</time>
  <sat>8</sat>
</trkpt>
<trkpt lat="39.669388000" lon="-0.399322000">
  <ele>328.700000</ele>
  <time>2012-02-26T08:31:50Z</time>
  <sat>8</sat>
</trkpt>
<trkpt lat="39.669378000" lon="-0.399358000">
  <ele>329.700000</ele>
  <time>2012-02-26T08:31:51Z</time>
  <sat>8</sat>
</trkpt>
<trkpt lat="39.669366000" lon="-0.399388000">
  <ele>330.000000</ele>
  <time>2012-02-26T08:31:52Z</time>
  <sat>8</sat>
</trkpt>
<trkpt lat="39.669347000" lon="-0.399419000">
  <ele>331.000000</ele>
  <time>2012-02-26T08:31:53Z</time>
  <sat>8</sat>
</trkpt>
<trkpt lat="39.669296000" lon="-0.399540000">
  <ele>332.600000</ele>
  <time>2012-02-26T08:31:57Z</time>
  <sat>8</sat>
</trkpt>
<trkpt lat="39.669280000" lon="-0.399589000">
  <ele>329.700000</ele>
  <time>2012-02-26T08:32:20Z</time>
  <sat>8</sat>
</trkpt>
<trkpt lat="39.669279000" lon="-0.399602000">
  <ele>330.300000</ele>
  <time>2012-02-26T08:32:21Z</time>
  <sat>8</sat>
</trkpt>
<trkpt lat="39.669279000" lon="-0.399743000">
  <ele>330.500000</ele>
  <time>2012-02-26T08:32:26Z</time>
  <sat>8</sat>
</trkpt>
<trkpt lat="39.669280000" lon="-0.399777000">
  <ele>330.700000</ele>
  <time>2012-02-26T08:32:27Z</time>
  <sat>8</sat>
</trkpt>
<trkpt lat="39.669301000" lon="-0.400127000">
  <ele>331.600000</ele>
  <time>2012-02-26T08:32:38Z</time>
  <sat>8</sat>
</trkpt>
<trkpt lat="39.669324000" lon="-0.400667000">
  <ele>334.500000</ele>
  <time>2012-02-26T08:32:56Z</time>
  <sat>8</sat>
</trkpt>
<trkpt lat="39.669324000" lon="-0.400698000">
  <ele>334.600000</ele>
  <time>2012-02-26T08:32:57Z</time>
  <sat>8</sat>
</trkpt>
<trkpt lat="39.669317000" lon="-0.400730000">
  <ele>334.500000</ele>
  <time>2012-02-26T08:32:58Z</time>
  <sat>8</sat>
</trkpt>
<trkpt lat="39.669291000" lon="-0.400848000">
  <ele>336.600000</ele>
  <time>2012-02-26T08:33:02Z</time>
  <sat>8</sat>
</trkpt>
<trkpt lat="39.669292000" lon="-0.400881000">
  <ele>336.800000</ele>
  <time>2012-02-26T08:33:03Z</time>
  <sat>8</sat>
</trkpt>
<trkpt lat="39.669293000" lon="-0.400912000">
  <ele>336.800000</ele>
  <time>2012-02-26T08:33:04Z</time>
  <sat>8</sat>
</trkpt>
<trkpt lat="39.669299000" lon="-0.400943000">
  <ele>337.800000</ele>
  <time>2012-02-26T08:33:05Z</time>
  <sat>8</sat>
</trkpt>
<trkpt lat="39.669318000" lon="-0.401026000">
  <ele>338.700000</ele>
  <time>2012-02-26T08:33:08Z</time>
  <sat>8</sat>
</trkpt>
<trkpt lat="39.669321000" lon="-0.401052000">
  <ele>338.700000</ele>
  <time>2012-02-26T08:33:09Z</time>
  <sat>8</sat>
</trkpt>
<trkpt lat="39.669326000" lon="-0.401174000">
  <ele>340.200000</ele>
  <time>2012-02-26T08:33:13Z</time>
  <sat>8</sat>
</trkpt>
<trkpt lat="39.669322000" lon="-0.401286000">
  <ele>341.600000</ele>
  <time>2012-02-26T08:33:17Z</time>
  <sat>8</sat>
</trkpt>
<trkpt lat="39.669317000" lon="-0.401314000">
  <ele>341.800000</ele>
  <time>2012-02-26T08:33:18Z</time>
  <sat>8</sat>
</trkpt>
<trkpt lat="39.669301000" lon="-0.401365000">
  <ele>342.000000</ele>
  <time>2012-02-26T08:33:20Z</time>
  <sat>7</sat>
</trkpt>
<trkpt lat="39.669280000" lon="-0.401382000">
  <ele>342.100000</ele>
  <time>2012-02-26T08:33:21Z</time>
  <sat>7</sat>
</trkpt>
<trkpt lat="39.669263000" lon="-0.401396000">
  <ele>342.500000</ele>
  <time>2012-02-26T08:33:22Z</time>
  <sat>7</sat>
</trkpt>
<trkpt lat="39.669243000" lon="-0.401409000">
  <ele>342.700000</ele>
  <time>2012-02-26T08:33:23Z</time>
  <sat>8</sat>
</trkpt>
<trkpt lat="39.669201000" lon="-0.401413000">
  <ele>343.000000</ele>
  <time>2012-02-26T08:33:25Z</time>
  <sat>8</sat>
</trkpt>
<trkpt lat="39.669180000" lon="-0.401411000">
  <ele>343.100000</ele>
  <time>2012-02-26T08:33:26Z</time>
  <sat>9</sat>
</trkpt>
<trkpt lat="39.669027000" lon="-0.401387000">
  <ele>342.700000</ele>
  <time>2012-02-26T08:33:34Z</time>
  <sat>9</sat>
</trkpt>
<trkpt lat="39.669008000" lon="-0.401382000">
  <ele>342.600000</ele>
  <time>2012-02-26T08:33:35Z</time>
  <sat>9</sat>
</trkpt>
<trkpt lat="39.668941000" lon="-0.401378000">
  <ele>342.800000</ele>
  <time>2012-02-26T08:33:38Z</time>
  <sat>7</sat>
</trkpt>
<trkpt lat="39.668916000" lon="-0.401378000">
  <ele>343.100000</ele>
  <time>2012-02-26T08:33:39Z</time>
  <sat>7</sat>
</trkpt>
<trkpt lat="39.668893000" lon="-0.401384000">
  <ele>343.000000</ele>
  <time>2012-02-26T08:33:40Z</time>
  <sat>7</sat>
</trkpt>
<trkpt lat="39.668777000" lon="-0.401427000">
  <ele>341.700000</ele>
  <time>2012-02-26T08:33:46Z</time>
  <sat>10</sat>
</trkpt>
<trkpt lat="39.668759000" lon="-0.401440000">
  <ele>341.600000</ele>
  <time>2012-02-26T08:33:47Z</time>
  <sat>10</sat>
</trkpt>
<trkpt lat="39.668629000" lon="-0.401550000">
  <ele>341.700000</ele>
  <time>2012-02-26T08:33:53Z</time>
  <sat>5</sat>
</trkpt>
<trkpt lat="39.668565000" lon="-0.401606000">
  <ele>342.000000</ele>
  <time>2012-02-26T08:33:56Z</time>
  <sat>7</sat>
</trkpt>
<trkpt lat="39.668545000" lon="-0.401635000">
  <ele>341.700000</ele>
  <time>2012-02-26T08:33:57Z</time>
  <sat>7</sat>
</trkpt>
<trkpt lat="39.668437000" lon="-0.401829000">
  <ele>344.100000</ele>
  <time>2012-02-26T08:34:03Z</time>
  <sat>7</sat>
</trkpt>
<trkpt lat="39.668423000" lon="-0.401862000">
  <ele>344.500000</ele>
  <time>2012-02-26T08:34:04Z</time>
  <sat>7</sat>
</trkpt>
<trkpt lat="39.668398000" lon="-0.401967000">
  <ele>345.000000</ele>
  <time>2012-02-26T08:34:07Z</time>
  <sat>9</sat>
</trkpt>
<trkpt lat="39.668338000" lon="-0.402130000">
  <ele>346.300000</ele>
  <time>2012-02-26T08:34:12Z</time>
  <sat>9</sat>
</trkpt>
<trkpt lat="39.668262000" lon="-0.402301000">
  <ele>348.700000</ele>
  <time>2012-02-26T08:34:19Z</time>
  <sat>8</sat>
</trkpt>
<trkpt lat="39.668253000" lon="-0.402315000">
  <ele>349.200000</ele>
  <time>2012-02-26T08:34:20Z</time>
  <sat>8</sat>
</trkpt>
<trkpt lat="39.668207000" lon="-0.402371000">
  <ele>350.600000</ele>
  <time>2012-02-26T08:34:23Z</time>
  <sat>8</sat>
</trkpt>
<trkpt lat="39.668187000" lon="-0.402385000">
  <ele>350.300000</ele>
  <time>2012-02-26T08:34:24Z</time>
  <sat>8</sat>
</trkpt>
<trkpt lat="39.668158000" lon="-0.402405000">
  <ele>350.700000</ele>
  <time>2012-02-26T08:34:26Z</time>
  <sat>10</sat>
</trkpt>
<trkpt lat="39.668125000" lon="-0.402414000">
  <ele>349.800000</ele>
  <time>2012-02-26T08:34:28Z</time>
  <sat>9</sat>
</trkpt>
<trkpt lat="39.668085000" lon="-0.402414000">
  <ele>350.100000</ele>
  <time>2012-02-26T08:34:30Z</time>
  <sat>9</sat>
</trkpt>
<trkpt lat="39.667880000" lon="-0.402433000">
  <ele>350.700000</ele>
  <time>2012-02-26T08:34:39Z</time>
  <sat>8</sat>
</trkpt>
<trkpt lat="39.667553000" lon="-0.402458000">
  <ele>350.700000</ele>
  <time>2012-02-26T08:34:51Z</time>
  <sat>8</sat>
</trkpt>
<trkpt lat="39.667525000" lon="-0.402456000">
  <ele>350.700000</ele>
  <time>2012-02-26T08:34:52Z</time>
  <sat>8</sat>
</trkpt>
<trkpt lat="39.667227000" lon="-0.402430000">
  <ele>351.600000</ele>
  <time>2012-02-26T08:35:03Z</time>
  <sat>8</sat>
</trkpt>
<trkpt lat="39.667201000" lon="-0.402436000">
  <ele>351.600000</ele>
  <time>2012-02-26T08:35:04Z</time>
  <sat>8</sat>
</trkpt>
<trkpt lat="39.667184000" lon="-0.402444000">
  <ele>351.700000</ele>
  <time>2012-02-26T08:35:05Z</time>
  <sat>7</sat>
</trkpt>
<trkpt lat="39.667165000" lon="-0.402467000">
  <ele>351.800000</ele>
  <time>2012-02-26T08:35:06Z</time>
  <sat>10</sat>
</trkpt>
<trkpt lat="39.667151000" lon="-0.402501000">
  <ele>352.200000</ele>
  <time>2012-02-26T08:35:07Z</time>
  <sat>10</sat>
</trkpt>
<trkpt lat="39.667131000" lon="-0.402555000">
  <ele>352.800000</ele>
  <time>2012-02-26T08:35:09Z</time>
  <sat>10</sat>
</trkpt>
<trkpt lat="39.667038000" lon="-0.402894000">
  <ele>357.500000</ele>
  <time>2012-02-26T08:35:20Z</time>
  <sat>10</sat>
</trkpt>
<trkpt lat="39.667033000" lon="-0.402930000">
  <ele>358.200000</ele>
  <time>2012-02-26T08:35:21Z</time>
  <sat>10</sat>
</trkpt>
<trkpt lat="39.667031000" lon="-0.402964000">
  <ele>358.700000</ele>
  <time>2012-02-26T08:35:22Z</time>
  <sat>10</sat>
</trkpt>
<trkpt lat="39.667016000" lon="-0.403113000">
  <ele>361.500000</ele>
  <time>2012-02-26T08:35:26Z</time>
  <sat>8</sat>
</trkpt>
<trkpt lat="39.667017000" lon="-0.403143000">
  <ele>362.500000</ele>
  <time>2012-02-26T08:35:27Z</time>
  <sat>8</sat>
</trkpt>
<trkpt lat="39.667016000" lon="-0.403319000">
  <ele>364.700000</ele>
  <time>2012-02-26T08:35:32Z</time>
  <sat>8</sat>
</trkpt>
<trkpt lat="39.667038000" lon="-0.403425000">
  <ele>364.500000</ele>
  <time>2012-02-26T08:35:35Z</time>
  <sat>9</sat>
</trkpt>
<trkpt lat="39.667049000" lon="-0.403458000">
  <ele>364.200000</ele>
  <time>2012-02-26T08:35:36Z</time>
  <sat>9</sat>
</trkpt>
<trkpt lat="39.667066000" lon="-0.403491000">
  <ele>363.800000</ele>
  <time>2012-02-26T08:35:37Z</time>
  <sat>9</sat>
</trkpt>
<trkpt lat="39.667085000" lon="-0.403519000">
  <ele>363.700000</ele>
  <time>2012-02-26T08:35:38Z</time>
  <sat>9</sat>
</trkpt>
<trkpt lat="39.667108000" lon="-0.403546000">
  <ele>363.700000</ele>
  <time>2012-02-26T08:35:39Z</time>
  <sat>9</sat>
</trkpt>
<trkpt lat="39.667133000" lon="-0.403569000">
  <ele>363.700000</ele>
  <time>2012-02-26T08:35:40Z</time>
  <sat>9</sat>
</trkpt>
<trkpt lat="39.667306000" lon="-0.403726000">
  <ele>363.600000</ele>
  <time>2012-02-26T08:35:47Z</time>
  <sat>8</sat>
</trkpt>
<trkpt lat="39.667330000" lon="-0.403764000">
  <ele>363.300000</ele>
  <time>2012-02-26T08:35:48Z</time>
  <sat>9</sat>
</trkpt>
<trkpt lat="39.667387000" lon="-0.403888000">
  <ele>362.600000</ele>
  <time>2012-02-26T08:35:51Z</time>
  <sat>9</sat>
</trkpt>
<trkpt lat="39.667378000" lon="-0.403937000">
  <ele>362.600000</ele>
  <time>2012-02-26T08:35:52Z</time>
  <sat>9</sat>
</trkpt>
<trkpt lat="39.667343000" lon="-0.403988000">
  <ele>362.300000</ele>
  <time>2012-02-26T08:35:53Z</time>
  <sat>9</sat>
</trkpt>
<trkpt lat="39.667325000" lon="-0.404029000">
  <ele>362.200000</ele>
  <time>2012-02-26T08:35:54Z</time>
  <sat>9</sat>
</trkpt>
<trkpt lat="39.667278000" lon="-0.404173000">
  <ele>362.600000</ele>
  <time>2012-02-26T08:35:58Z</time>
  <sat>9</sat>
</trkpt>
<trkpt lat="39.667271000" lon="-0.404209000">
  <ele>362.700000</ele>
  <time>2012-02-26T08:35:59Z</time>
  <sat>9</sat>
</trkpt>
<trkpt lat="39.667269000" lon="-0.404241000">
  <ele>363.200000</ele>
  <time>2012-02-26T08:36:00Z</time>
  <sat>9</sat>
</trkpt>
<trkpt lat="39.667257000" lon="-0.404326000">
  <ele>364.200000</ele>
  <time>2012-02-26T08:36:02Z</time>
  <sat>9</sat>
</trkpt>
<trkpt lat="39.667254000" lon="-0.404361000">
  <ele>362.700000</ele>
  <time>2012-02-26T08:36:03Z</time>
  <sat>9</sat>
</trkpt>
<trkpt lat="39.667242000" lon="-0.404396000">
  <ele>362.000000</ele>
  <time>2012-02-26T08:36:04Z</time>
  <sat>9</sat>
</trkpt>
<trkpt lat="39.667218000" lon="-0.404427000">
  <ele>362.000000</ele>
  <time>2012-02-26T08:36:05Z</time>
  <sat>8</sat>
</trkpt>
<trkpt lat="39.667193000" lon="-0.404451000">
  <ele>362.500000</ele>
  <time>2012-02-26T08:36:06Z</time>
  <sat>8</sat>
</trkpt>
<trkpt lat="39.667156000" lon="-0.404464000">
  <ele>362.200000</ele>
  <time>2012-02-26T08:36:07Z</time>
  <sat>9</sat>
</trkpt>
<trkpt lat="39.667060000" lon="-0.404454000">
  <ele>362.800000</ele>
  <time>2012-02-26T08:36:10Z</time>
  <sat>8</sat>
</trkpt>
<trkpt lat="39.667022000" lon="-0.404457000">
  <ele>362.300000</ele>
  <time>2012-02-26T08:36:11Z</time>
  <sat>8</sat>
</trkpt>
<trkpt lat="39.666944000" lon="-0.404482000">
  <ele>362.500000</ele>
  <time>2012-02-26T08:36:13Z</time>
  <sat>8</sat>
</trkpt>
<trkpt lat="39.666868000" lon="-0.404537000">
  <ele>362.300000</ele>
  <time>2012-02-26T08:36:15Z</time>
  <sat>9</sat>
</trkpt>
<trkpt lat="39.666826000" lon="-0.404576000">
  <ele>361.700000</ele>
  <time>2012-02-26T08:36:16Z</time>
  <sat>9</sat>
</trkpt>
<trkpt lat="39.666592000" lon="-0.404782000">
  <ele>360.700000</ele>
  <time>2012-02-26T08:36:23Z</time>
  <sat>8</sat>
</trkpt>
<trkpt lat="39.666625000" lon="-0.404779000">
  <ele>360.000000</ele>
  <time>2012-02-26T08:36:24Z</time>
  <sat>8</sat>
</trkpt>
<trkpt lat="39.666662000" lon="-0.404778000">
  <ele>359.200000</ele>
  <time>2012-02-26T08:36:25Z</time>
  <sat>8</sat>
</trkpt>
<trkpt lat="39.666688000" lon="-0.404783000">
  <ele>359.100000</ele>
  <time>2012-02-26T08:36:26Z</time>
  <sat>8</sat>
</trkpt>
<trkpt lat="39.666721000" lon="-0.404786000">
  <ele>358.700000</ele>
  <time>2012-02-26T08:36:27Z</time>
  <sat>8</sat>
</trkpt>
<trkpt lat="39.666769000" lon="-0.404783000">
  <ele>360.200000</ele>
  <time>2012-02-26T08:36:28Z</time>
  <sat>8</sat>
</trkpt>
<trkpt lat="39.666792000" lon="-0.404796000">
  <ele>360.200000</ele>
  <time>2012-02-26T08:36:29Z</time>
  <sat>8</sat>
</trkpt>
<trkpt lat="39.666857000" lon="-0.404850000">
  <ele>361.500000</ele>
  <time>2012-02-26T08:36:31Z</time>
  <sat>8</sat>
</trkpt>
<trkpt lat="39.666871000" lon="-0.404892000">
  <ele>361.300000</ele>
  <time>2012-02-26T08:36:32Z</time>
  <sat>8</sat>
</trkpt>
<trkpt lat="39.666856000" lon="-0.405006000">
  <ele>359.800000</ele>
  <time>2012-02-26T08:36:34Z</time>
  <sat>8</sat>
</trkpt>
<trkpt lat="39.666848000" lon="-0.405058000">
  <ele>358.800000</ele>
  <time>2012-02-26T08:36:35Z</time>
  <sat>8</sat>
</trkpt>
<trkpt lat="39.666851000" lon="-0.405105000">
  <ele>358.500000</ele>
  <time>2012-02-26T08:36:36Z</time>
  <sat>8</sat>
</trkpt>
<trkpt lat="39.666882000" lon="-0.405209000">
  <ele>357.600000</ele>
  <time>2012-02-26T08:36:38Z</time>
  <sat>8</sat>
</trkpt>
<trkpt lat="39.666905000" lon="-0.405357000">
  <ele>356.200000</ele>
  <time>2012-02-26T08:36:40Z</time>
  <sat>7</sat>
</trkpt>
<trkpt lat="39.666941000" lon="-0.405546000">
  <ele>355.700000</ele>
  <time>2012-02-26T08:36:43Z</time>
  <sat>7</sat>
</trkpt>
<trkpt lat="39.666966000" lon="-0.405599000">
  <ele>355.500000</ele>
  <time>2012-02-26T08:36:44Z</time>
  <sat>7</sat>
</trkpt>
<trkpt lat="39.667042000" lon="-0.405728000">
  <ele>355.000000</ele>
  <time>2012-02-26T08:36:47Z</time>
  <sat>7</sat>
</trkpt>
<trkpt lat="39.667068000" lon="-0.405757000">
  <ele>354.700000</ele>
  <time>2012-02-26T08:36:48Z</time>
  <sat>7</sat>
</trkpt>
<trkpt lat="39.667239000" lon="-0.405945000">
  <ele>355.800000</ele>
  <time>2012-02-26T08:36:55Z</time>
  <sat>7</sat>
</trkpt>
<trkpt lat="39.667261000" lon="-0.405981000">
  <ele>355.800000</ele>
  <time>2012-02-26T08:36:56Z</time>
  <sat>7</sat>
</trkpt>
<trkpt lat="39.667292000" lon="-0.406016000">
  <ele>355.500000</ele>
  <time>2012-02-26T08:36:57Z</time>
  <sat>7</sat>
</trkpt>
<trkpt lat="39.667385000" lon="-0.406104000">
  <ele>354.800000</ele>
  <time>2012-02-26T08:37:00Z</time>
  <sat>7</sat>
</trkpt>
<trkpt lat="39.667449000" lon="-0.406162000">
  <ele>354.300000</ele>
  <time>2012-02-26T08:37:02Z</time>
  <sat>7</sat>
</trkpt>
<trkpt lat="39.667478000" lon="-0.406202000">
  <ele>354.100000</ele>
  <time>2012-02-26T08:37:03Z</time>
  <sat>8</sat>
</trkpt>
<trkpt lat="39.667505000" lon="-0.406245000">
  <ele>353.700000</ele>
  <time>2012-02-26T08:37:04Z</time>
  <sat>8</sat>
</trkpt>
<trkpt lat="39.667606000" lon="-0.406385000">
  <ele>351.600000</ele>
  <time>2012-02-26T08:37:07Z</time>
  <sat>8</sat>
</trkpt>
<trkpt lat="39.667652000" lon="-0.406412000">
  <ele>350.700000</ele>
  <time>2012-02-26T08:37:08Z</time>
  <sat>8</sat>
</trkpt>
<trkpt lat="39.667744000" lon="-0.406435000">
  <ele>350.100000</ele>
  <time>2012-02-26T08:37:10Z</time>
  <sat>8</sat>
</trkpt>
<trkpt lat="39.667798000" lon="-0.406408000">
  <ele>349.700000</ele>
  <time>2012-02-26T08:37:11Z</time>
  <sat>8</sat>
</trkpt>
<trkpt lat="39.667852000" lon="-0.406392000">
  <ele>349.200000</ele>
  <time>2012-02-26T08:37:12Z</time>
  <sat>8</sat>
</trkpt>
<trkpt lat="39.667904000" lon="-0.406413000">
  <ele>348.700000</ele>
  <time>2012-02-26T08:37:13Z</time>
  <sat>8</sat>
</trkpt>
<trkpt lat="39.668021000" lon="-0.406491000">
  <ele>347.700000</ele>
  <time>2012-02-26T08:37:15Z</time>
  <sat>8</sat>
</trkpt>
<trkpt lat="39.668342000" lon="-0.406721000">
  <ele>345.100000</ele>
  <time>2012-02-26T08:37:21Z</time>
  <sat>9</sat>
</trkpt>
<trkpt lat="39.668379000" lon="-0.406768000">
  <ele>344.100000</ele>
  <time>2012-02-26T08:37:22Z</time>
  <sat>9</sat>
</trkpt>
<trkpt lat="39.668405000" lon="-0.406827000">
  <ele>343.300000</ele>
  <time>2012-02-26T08:37:23Z</time>
  <sat>9</sat>
</trkpt>
<trkpt lat="39.668418000" lon="-0.406892000">
  <ele>342.700000</ele>
  <time>2012-02-26T08:37:24Z</time>
  <sat>9</sat>
</trkpt>
<trkpt lat="39.668423000" lon="-0.406961000">
  <ele>343.000000</ele>
  <time>2012-02-26T08:37:25Z</time>
  <sat>9</sat>
</trkpt>
<trkpt lat="39.668424000" lon="-0.407026000">
  <ele>343.700000</ele>
  <time>2012-02-26T08:37:26Z</time>
  <sat>9</sat>
</trkpt>
<trkpt lat="39.668407000" lon="-0.407083000">
  <ele>343.700000</ele>
  <time>2012-02-26T08:37:27Z</time>
  <sat>9</sat>
</trkpt>
<trkpt lat="39.668387000" lon="-0.407133000">
  <ele>344.300000</ele>
  <time>2012-02-26T08:37:28Z</time>
  <sat>9</sat>
</trkpt>
<trkpt lat="39.668343000" lon="-0.407204000">
  <ele>344.700000</ele>
  <time>2012-02-26T08:37:30Z</time>
  <sat>9</sat>
</trkpt>
<trkpt lat="39.668317000" lon="-0.407225000">
  <ele>344.700000</ele>
  <time>2012-02-26T08:37:31Z</time>
  <sat>8</sat>
</trkpt>
<trkpt lat="39.668297000" lon="-0.407245000">
  <ele>345.600000</ele>
  <time>2012-02-26T08:37:32Z</time>
  <sat>9</sat>
</trkpt>
<trkpt lat="39.668278000" lon="-0.407278000">
  <ele>345.500000</ele>
  <time>2012-02-26T08:37:33Z</time>
  <sat>9</sat>
</trkpt>
<trkpt lat="39.668264000" lon="-0.407313000">
  <ele>345.100000</ele>
  <time>2012-02-26T08:37:34Z</time>
  <sat>9</sat>
</trkpt>
<trkpt lat="39.668188000" lon="-0.407503000">
  <ele>345.600000</ele>
  <time>2012-02-26T08:37:39Z</time>
  <sat>9</sat>
</trkpt>
<trkpt lat="39.668184000" lon="-0.407545000">
  <ele>345.200000</ele>
  <time>2012-02-26T08:37:40Z</time>
  <sat>9</sat>
</trkpt>
<trkpt lat="39.668186000" lon="-0.407622000">
  <ele>345.100000</ele>
  <time>2012-02-26T08:37:42Z</time>
  <sat>9</sat>
</trkpt>
<trkpt lat="39.668197000" lon="-0.407709000">
  <ele>345.100000</ele>
  <time>2012-02-26T08:37:44Z</time>
  <sat>9</sat>
</trkpt>
<trkpt lat="39.668240000" lon="-0.408002000">
  <ele>346.200000</ele>
  <time>2012-02-26T08:37:52Z</time>
  <sat>9</sat>
</trkpt>
<trkpt lat="39.668286000" lon="-0.408236000">
  <ele>347.200000</ele>
  <time>2012-02-26T08:38:00Z</time>
  <sat>9</sat>
</trkpt>
<trkpt lat="39.668319000" lon="-0.408384000">
  <ele>348.500000</ele>
  <time>2012-02-26T08:38:06Z</time>
  <sat>9</sat>
</trkpt>
<trkpt lat="39.668329000" lon="-0.408409000">
  <ele>348.200000</ele>
  <time>2012-02-26T08:38:07Z</time>
  <sat>9</sat>
</trkpt>
<trkpt lat="39.668372000" lon="-0.408506000">
  <ele>347.200000</ele>
  <time>2012-02-26T08:38:10Z</time>
  <sat>9</sat>
</trkpt>
<trkpt lat="39.668394000" lon="-0.408540000">
  <ele>346.300000</ele>
  <time>2012-02-26T08:38:11Z</time>
  <sat>9</sat>
</trkpt>
<trkpt lat="39.668687000" lon="-0.409003000">
  <ele>345.100000</ele>
  <time>2012-02-26T08:38:43Z</time>
  <sat>9</sat>
</trkpt>
<trkpt lat="39.668691000" lon="-0.409017000">
  <ele>345.200000</ele>
  <time>2012-02-26T08:38:44Z</time>
  <sat>9</sat>
</trkpt>
<trkpt lat="39.668706000" lon="-0.409092000">
  <ele>346.000000</ele>
  <time>2012-02-26T08:38:47Z</time>
  <sat>9</sat>
</trkpt>
<trkpt lat="39.668710000" lon="-0.409119000">
  <ele>346.200000</ele>
  <time>2012-02-26T08:38:48Z</time>
  <sat>9</sat>
</trkpt>
<trkpt lat="39.668728000" lon="-0.409331000">
  <ele>350.500000</ele>
  <time>2012-02-26T08:38:56Z</time>
  <sat>8</sat>
</trkpt>
<trkpt lat="39.668736000" lon="-0.409353000">
  <ele>351.000000</ele>
  <time>2012-02-26T08:38:57Z</time>
  <sat>8</sat>
</trkpt>
<trkpt lat="39.668748000" lon="-0.409370000">
  <ele>351.500000</ele>
  <time>2012-02-26T08:38:58Z</time>
  <sat>8</sat>
</trkpt>
<trkpt lat="39.668775000" lon="-0.409401000">
  <ele>352.600000</ele>
  <time>2012-02-26T08:39:00Z</time>
  <sat>8</sat>
</trkpt>
<trkpt lat="39.668783000" lon="-0.409421000">
  <ele>353.100000</ele>
  <time>2012-02-26T08:39:01Z</time>
  <sat>8</sat>
</trkpt>
<trkpt lat="39.668803000" lon="-0.409486000">
  <ele>353.700000</ele>
  <time>2012-02-26T08:39:04Z</time>
  <sat>9</sat>
</trkpt>
<trkpt lat="39.668808000" lon="-0.409514000">
  <ele>353.800000</ele>
  <time>2012-02-26T08:39:05Z</time>
  <sat>9</sat>
</trkpt>
<trkpt lat="39.668822000" lon="-0.409640000">
  <ele>353.500000</ele>
  <time>2012-02-26T08:39:09Z</time>
  <sat>8</sat>
</trkpt>
<trkpt lat="39.668822000" lon="-0.409673000">
  <ele>353.800000</ele>
  <time>2012-02-26T08:39:10Z</time>
  <sat>8</sat>
</trkpt>
<trkpt lat="39.668818000" lon="-0.409704000">
  <ele>354.000000</ele>
  <time>2012-02-26T08:39:11Z</time>
  <sat>8</sat>
</trkpt>
<trkpt lat="39.668808000" lon="-0.409735000">
  <ele>354.100000</ele>
  <time>2012-02-26T08:39:12Z</time>
  <sat>8</sat>
</trkpt>
<trkpt lat="39.668796000" lon="-0.409764000">
  <ele>354.000000</ele>
  <time>2012-02-26T08:39:13Z</time>
  <sat>9</sat>
</trkpt>
<trkpt lat="39.668780000" lon="-0.409791000">
  <ele>353.700000</ele>
  <time>2012-02-26T08:39:14Z</time>
  <sat>9</sat>
</trkpt>
<trkpt lat="39.668742000" lon="-0.409845000">
  <ele>353.700000</ele>
  <time>2012-02-26T08:39:16Z</time>
  <sat>9</sat>
</trkpt>
<trkpt lat="39.668702000" lon="-0.409893000">
  <ele>353.700000</ele>
  <time>2012-02-26T08:39:18Z</time>
  <sat>8</sat>
</trkpt>
<trkpt lat="39.668429000" lon="-0.410214000">
  <ele>352.200000</ele>
  <time>2012-02-26T08:39:32Z</time>
  <sat>9</sat>
</trkpt>
<trkpt lat="39.668396000" lon="-0.410235000">
  <ele>352.000000</ele>
  <time>2012-02-26T08:39:33Z</time>
  <sat>9</sat>
</trkpt>
<trkpt lat="39.668340000" lon="-0.410270000">
  <ele>352.700000</ele>
  <time>2012-02-26T08:39:35Z</time>
  <sat>8</sat>
</trkpt>
<trkpt lat="39.668306000" lon="-0.410299000">
  <ele>353.500000</ele>
  <time>2012-02-26T08:39:37Z</time>
  <sat>8</sat>
</trkpt>
<trkpt lat="39.668294000" lon="-0.410315000">
  <ele>353.500000</ele>
  <time>2012-02-26T08:39:38Z</time>
  <sat>8</sat>
</trkpt>
<trkpt lat="39.668272000" lon="-0.410347000">
  <ele>353.500000</ele>
  <time>2012-02-26T08:39:40Z</time>
  <sat>8</sat>
</trkpt>
<trkpt lat="39.668232000" lon="-0.410413000">
  <ele>353.200000</ele>
  <time>2012-02-26T08:39:43Z</time>
  <sat>8</sat>
</trkpt>
<trkpt lat="39.668222000" lon="-0.410439000">
  <ele>353.200000</ele>
  <time>2012-02-26T08:39:44Z</time>
  <sat>8</sat>
</trkpt>
<trkpt lat="39.668216000" lon="-0.410461000">
  <ele>353.200000</ele>
  <time>2012-02-26T08:39:45Z</time>
  <sat>8</sat>
</trkpt>
<trkpt lat="39.668213000" lon="-0.410491000">
  <ele>355.000000</ele>
  <time>2012-02-26T08:42:12Z</time>
  <sat>9</sat>
</trkpt>
<trkpt lat="39.668223000" lon="-0.410489000">
  <ele>353.100000</ele>
  <time>2012-02-26T08:42:13Z</time>
  <sat>9</sat>
</trkpt>
<trkpt lat="39.668234000" lon="-0.410455000">
  <ele>352.700000</ele>
  <time>2012-02-26T08:42:20Z</time>
  <sat>8</sat>
</trkpt>
<trkpt lat="39.668241000" lon="-0.410429000">
  <ele>353.300000</ele>
  <time>2012-02-26T08:42:21Z</time>
  <sat>9</sat>
</trkpt>
<trkpt lat="39.668246000" lon="-0.410407000">
  <ele>353.500000</ele>
  <time>2012-02-26T08:42:22Z</time>
  <sat>9</sat>
</trkpt>
<trkpt lat="39.668254000" lon="-0.410383000">
  <ele>354.100000</ele>
  <time>2012-02-26T08:42:23Z</time>
  <sat>9</sat>
</trkpt>
<trkpt lat="39.668272000" lon="-0.410359000">
  <ele>354.200000</ele>
  <time>2012-02-26T08:42:24Z</time>
  <sat>9</sat>
</trkpt>
<trkpt lat="39.668341000" lon="-0.410252000">
  <ele>353.500000</ele>
  <time>2012-02-26T08:42:29Z</time>
  <sat>9</sat>
</trkpt>
<trkpt lat="39.668360000" lon="-0.410238000">
  <ele>353.200000</ele>
  <time>2012-02-26T08:42:30Z</time>
  <sat>9</sat>
</trkpt>
<trkpt lat="39.668381000" lon="-0.410233000">
  <ele>353.000000</ele>
  <time>2012-02-26T08:42:31Z</time>
  <sat>9</sat>
</trkpt>
<trkpt lat="39.668403000" lon="-0.410236000">
  <ele>352.200000</ele>
  <time>2012-02-26T08:42:32Z</time>
  <sat>9</sat>
</trkpt>
<trkpt lat="39.668431000" lon="-0.410258000">
  <ele>351.700000</ele>
  <time>2012-02-26T08:42:34Z</time>
  <sat>9</sat>
</trkpt>
<trkpt lat="39.668437000" lon="-0.410286000">
  <ele>351.700000</ele>
  <time>2012-02-26T08:42:36Z</time>
  <sat>9</sat>
</trkpt>
<trkpt lat="39.668409000" lon="-0.410315000">
  <ele>351.300000</ele>
  <time>2012-02-26T08:42:37Z</time>
  <sat>9</sat>
</trkpt>
<trkpt lat="39.668396000" lon="-0.410333000">
  <ele>351.200000</ele>
  <time>2012-02-26T08:42:38Z</time>
  <sat>9</sat>
</trkpt>
<trkpt lat="39.668330000" lon="-0.410444000">
  <ele>350.600000</ele>
  <time>2012-02-26T08:42:42Z</time>
  <sat>8</sat>
</trkpt>
<trkpt lat="39.668315000" lon="-0.410481000">
  <ele>350.200000</ele>
  <time>2012-02-26T08:42:43Z</time>
  <sat>8</sat>
</trkpt>
<trkpt lat="39.668290000" lon="-0.410570000">
  <ele>349.700000</ele>
  <time>2012-02-26T08:42:45Z</time>
  <sat>9</sat>
</trkpt>
<trkpt lat="39.668283000" lon="-0.410617000">
  <ele>349.200000</ele>
  <time>2012-02-26T08:42:46Z</time>
  <sat>9</sat>
</trkpt>
<trkpt lat="39.668281000" lon="-0.410665000">
  <ele>348.700000</ele>
  <time>2012-02-26T08:42:47Z</time>
  <sat>9</sat>
</trkpt>
<trkpt lat="39.668281000" lon="-0.410713000">
  <ele>347.800000</ele>
  <time>2012-02-26T08:42:48Z</time>
  <sat>9</sat>
</trkpt>
<trkpt lat="39.668288000" lon="-0.410760000">
  <ele>347.300000</ele>
  <time>2012-02-26T08:42:49Z</time>
  <sat>9</sat>
</trkpt>
<trkpt lat="39.668301000" lon="-0.410802000">
  <ele>346.700000</ele>
  <time>2012-02-26T08:42:50Z</time>
  <sat>9</sat>
</trkpt>
<trkpt lat="39.668317000" lon="-0.410902000">
  <ele>344.800000</ele>
  <time>2012-02-26T08:42:52Z</time>
  <sat>9</sat>
</trkpt>
<trkpt lat="39.668318000" lon="-0.410952000">
  <ele>344.000000</ele>
  <time>2012-02-26T08:42:53Z</time>
  <sat>9</sat>
</trkpt>
<trkpt lat="39.668303000" lon="-0.411040000">
  <ele>342.300000</ele>
  <time>2012-02-26T08:42:55Z</time>
  <sat>9</sat>
</trkpt>
<trkpt lat="39.668293000" lon="-0.411080000">
  <ele>341.600000</ele>
  <time>2012-02-26T08:42:56Z</time>
  <sat>9</sat>
</trkpt>
<trkpt lat="39.668248000" lon="-0.411207000">
  <ele>338.200000</ele>
  <time>2012-02-26T08:42:59Z</time>
  <sat>9</sat>
</trkpt>
<trkpt lat="39.668224000" lon="-0.411260000">
  <ele>336.700000</ele>
  <time>2012-02-26T08:43:00Z</time>
  <sat>9</sat>
</trkpt>
<trkpt lat="39.668197000" lon="-0.411309000">
  <ele>335.200000</ele>
  <time>2012-02-26T08:43:01Z</time>
  <sat>9</sat>
</trkpt>
<trkpt lat="39.668086000" lon="-0.411518000">
  <ele>330.700000</ele>
  <time>2012-02-26T08:43:05Z</time>
  <sat>9</sat>
</trkpt>
<trkpt lat="39.668068000" lon="-0.411578000">
  <ele>329.800000</ele>
  <time>2012-02-26T08:43:06Z</time>
  <sat>9</sat>
</trkpt>
<trkpt lat="39.668055000" lon="-0.411644000">
  <ele>329.100000</ele>
  <time>2012-02-26T08:43:07Z</time>
  <sat>9</sat>
</trkpt>
<trkpt lat="39.668033000" lon="-0.411868000">
  <ele>326.700000</ele>
  <time>2012-02-26T08:43:10Z</time>
  <sat>9</sat>
</trkpt>
<trkpt lat="39.667939000" lon="-0.412884000">
  <ele>322.600000</ele>
  <time>2012-02-26T08:43:21Z</time>
  <sat>8</sat>
</trkpt>
<trkpt lat="39.667926000" lon="-0.412944000">
  <ele>323.200000</ele>
  <time>2012-02-26T08:43:22Z</time>
  <sat>8</sat>
</trkpt>
<trkpt lat="39.667827000" lon="-0.413409000">
  <ele>325.500000</ele>
  <time>2012-02-26T08:43:35Z</time>
  <sat>9</sat>
</trkpt>
<trkpt lat="39.667799000" lon="-0.413640000">
  <ele>324.200000</ele>
  <time>2012-02-26T08:43:39Z</time>
  <sat>9</sat>
</trkpt>
<trkpt lat="39.667756000" lon="-0.414366000">
  <ele>321.100000</ele>
  <time>2012-02-26T08:43:49Z</time>
  <sat>9</sat>
</trkpt>
<trkpt lat="39.667762000" lon="-0.414461000">
  <ele>320.800000</ele>
  <time>2012-02-26T08:43:50Z</time>
  <sat>9</sat>
</trkpt>
<trkpt lat="39.667768000" lon="-0.414632000">
  <ele>321.700000</ele>
  <time>2012-02-26T08:43:52Z</time>
  <sat>9</sat>
</trkpt>
<trkpt lat="39.667782000" lon="-0.414835000">
  <ele>321.300000</ele>
  <time>2012-02-26T08:43:55Z</time>
  <sat>9</sat>
</trkpt>
<trkpt lat="39.667796000" lon="-0.414887000">
  <ele>320.800000</ele>
  <time>2012-02-26T08:43:56Z</time>
  <sat>9</sat>
</trkpt>
<trkpt lat="39.667807000" lon="-0.414941000">
  <ele>320.200000</ele>
  <time>2012-02-26T08:43:57Z</time>
  <sat>9</sat>
</trkpt>
<trkpt lat="39.667811000" lon="-0.414992000">
  <ele>319.300000</ele>
  <time>2012-02-26T08:43:58Z</time>
  <sat>9</sat>
</trkpt>
<trkpt lat="39.667808000" lon="-0.415039000">
  <ele>318.600000</ele>
  <time>2012-02-26T08:43:59Z</time>
  <sat>9</sat>
</trkpt>
<trkpt lat="39.667803000" lon="-0.415084000">
  <ele>317.700000</ele>
  <time>2012-02-26T08:44:00Z</time>
  <sat>9</sat>
</trkpt>
<trkpt lat="39.667795000" lon="-0.415126000">
  <ele>316.700000</ele>
  <time>2012-02-26T08:44:01Z</time>
  <sat>9</sat>
</trkpt>
<trkpt lat="39.667780000" lon="-0.415170000">
  <ele>315.700000</ele>
  <time>2012-02-26T08:44:02Z</time>
  <sat>9</sat>
</trkpt>
<trkpt lat="39.667721000" lon="-0.415310000">
  <ele>311.600000</ele>
  <time>2012-02-26T08:44:05Z</time>
  <sat>9</sat>
</trkpt>
<trkpt lat="39.667650000" lon="-0.415508000">
  <ele>307.800000</ele>
  <time>2012-02-26T08:44:10Z</time>
  <sat>9</sat>
</trkpt>
<trkpt lat="39.667642000" lon="-0.415549000">
  <ele>307.200000</ele>
  <time>2012-02-26T08:44:11Z</time>
  <sat>9</sat>
</trkpt>
<trkpt lat="39.667624000" lon="-0.415663000">
  <ele>305.300000</ele>
  <time>2012-02-26T08:44:14Z</time>
  <sat>9</sat>
</trkpt>
<trkpt lat="39.667627000" lon="-0.415700000">
  <ele>305.000000</ele>
  <time>2012-02-26T08:44:15Z</time>
  <sat>9</sat>
</trkpt>
<trkpt lat="39.667632000" lon="-0.415739000">
  <ele>304.200000</ele>
  <time>2012-02-26T08:44:16Z</time>
  <sat>9</sat>
</trkpt>
<trkpt lat="39.667647000" lon="-0.415780000">
  <ele>303.500000</ele>
  <time>2012-02-26T08:44:17Z</time>
  <sat>9</sat>
</trkpt>
<trkpt lat="39.667667000" lon="-0.415821000">
  <ele>302.700000</ele>
  <time>2012-02-26T08:44:18Z</time>
  <sat>9</sat>
</trkpt>
<trkpt lat="39.667693000" lon="-0.415859000">
  <ele>302.100000</ele>
  <time>2012-02-26T08:44:19Z</time>
  <sat>9</sat>
</trkpt>
<trkpt lat="39.667755000" lon="-0.415932000">
  <ele>300.700000</ele>
  <time>2012-02-26T08:44:21Z</time>
  <sat>9</sat>
</trkpt>
<trkpt lat="39.667845000" lon="-0.416044000">
  <ele>298.500000</ele>
  <time>2012-02-26T08:44:25Z</time>
  <sat>9</sat>
</trkpt>
<trkpt lat="39.667861000" lon="-0.416072000">
  <ele>298.100000</ele>
  <time>2012-02-26T08:44:26Z</time>
  <sat>9</sat>
</trkpt>
<trkpt lat="39.667876000" lon="-0.416103000">
  <ele>297.600000</ele>
  <time>2012-02-26T08:44:27Z</time>
  <sat>9</sat>
</trkpt>
<trkpt lat="39.667883000" lon="-0.416133000">
  <ele>296.800000</ele>
  <time>2012-02-26T08:44:28Z</time>
  <sat>9</sat>
</trkpt>
<trkpt lat="39.667886000" lon="-0.416164000">
  <ele>296.300000</ele>
  <time>2012-02-26T08:44:29Z</time>
  <sat>8</sat>
</trkpt>
<trkpt lat="39.667883000" lon="-0.416194000">
  <ele>295.800000</ele>
  <time>2012-02-26T08:44:30Z</time>
  <sat>9</sat>
</trkpt>
<trkpt lat="39.667875000" lon="-0.416224000">
  <ele>295.200000</ele>
  <time>2012-02-26T08:44:31Z</time>
  <sat>9</sat>
</trkpt>
<trkpt lat="39.667822000" lon="-0.416379000">
  <ele>292.100000</ele>
  <time>2012-02-26T08:44:36Z</time>
  <sat>9</sat>
</trkpt>
<trkpt lat="39.667798000" lon="-0.416455000">
  <ele>290.600000</ele>
  <time>2012-02-26T08:44:38Z</time>
  <sat>9</sat>
</trkpt>
<trkpt lat="39.667782000" lon="-0.416532000">
  <ele>289.300000</ele>
  <time>2012-02-26T08:44:40Z</time>
  <sat>9</sat>
</trkpt>
<trkpt lat="39.667776000" lon="-0.416599000">
  <ele>288.300000</ele>
  <time>2012-02-26T08:44:42Z</time>
  <sat>9</sat>
</trkpt>
<trkpt lat="39.667778000" lon="-0.416638000">
  <ele>287.700000</ele>
  <time>2012-02-26T08:44:43Z</time>
  <sat>9</sat>
</trkpt>
<trkpt lat="39.667794000" lon="-0.416734000">
  <ele>286.100000</ele>
  <time>2012-02-26T08:44:46Z</time>
  <sat>9</sat>
</trkpt>
<trkpt lat="39.667809000" lon="-0.416793000">
  <ele>285.200000</ele>
  <time>2012-02-26T08:44:48Z</time>
  <sat>9</sat>
</trkpt>
<trkpt lat="39.667870000" lon="-0.416948000">
  <ele>283.000000</ele>
  <time>2012-02-26T08:44:52Z</time>
  <sat>9</sat>
</trkpt>
<trkpt lat="39.667888000" lon="-0.416982000">
  <ele>282.600000</ele>
  <time>2012-02-26T08:44:53Z</time>
  <sat>9</sat>
</trkpt>
<trkpt lat="39.667905000" lon="-0.417019000">
  <ele>282.000000</ele>
  <time>2012-02-26T08:44:54Z</time>
  <sat>9</sat>
</trkpt>
<trkpt lat="39.667916000" lon="-0.417057000">
  <ele>281.200000</ele>
  <time>2012-02-26T08:44:55Z</time>
  <sat>9</sat>
</trkpt>
<trkpt lat="39.667923000" lon="-0.417097000">
  <ele>280.600000</ele>
  <time>2012-02-26T08:44:56Z</time>
  <sat>9</sat>
</trkpt>
<trkpt lat="39.667924000" lon="-0.417136000">
  <ele>279.800000</ele>
  <time>2012-02-26T08:44:57Z</time>
  <sat>9</sat>
</trkpt>
<trkpt lat="39.667919000" lon="-0.417286000">
  <ele>277.200000</ele>
  <time>2012-02-26T08:45:01Z</time>
  <sat>9</sat>
</trkpt>
<trkpt lat="39.667902000" lon="-0.417430000">
  <ele>274.500000</ele>
  <time>2012-02-26T08:45:05Z</time>
  <sat>9</sat>
</trkpt>
<trkpt lat="39.667880000" lon="-0.417900000">
  <ele>266.200000</ele>
  <time>2012-02-26T08:45:18Z</time>
  <sat>9</sat>
</trkpt>
<trkpt lat="39.667871000" lon="-0.418049000">
  <ele>265.200000</ele>
  <time>2012-02-26T08:45:21Z</time>
  <sat>8</sat>
</trkpt>
<trkpt lat="39.667865000" lon="-0.418083000">
  <ele>264.700000</ele>
  <time>2012-02-26T08:45:22Z</time>
  <sat>8</sat>
</trkpt>
<trkpt lat="39.667836000" lon="-0.418254000">
  <ele>262.700000</ele>
  <time>2012-02-26T08:45:27Z</time>
  <sat>9</sat>
</trkpt>
<trkpt lat="39.667825000" lon="-0.418282000">
  <ele>262.200000</ele>
  <time>2012-02-26T08:45:28Z</time>
  <sat>9</sat>
</trkpt>
<trkpt lat="39.667811000" lon="-0.418309000">
  <ele>261.700000</ele>
  <time>2012-02-26T08:45:29Z</time>
  <sat>9</sat>
</trkpt>
<trkpt lat="39.667681000" lon="-0.418529000">
  <ele>258.700000</ele>
  <time>2012-02-26T08:45:38Z</time>
  <sat>9</sat>
</trkpt>
<trkpt lat="39.667646000" lon="-0.418568000">
  <ele>258.500000</ele>
  <time>2012-02-26T08:45:40Z</time>
  <sat>9</sat>
</trkpt>
<trkpt lat="39.667721000" lon="-0.418571000">
  <ele>255.100000</ele>
  <time>2012-02-26T08:46:05Z</time>
  <sat>9</sat>
</trkpt>
<trkpt lat="39.667738000" lon="-0.418572000">
  <ele>254.600000</ele>
  <time>2012-02-26T08:46:06Z</time>
  <sat>6</sat>
</trkpt>
<trkpt lat="39.667758000" lon="-0.418567000">
  <ele>254.600000</ele>
  <time>2012-02-26T08:46:07Z</time>
  <sat>6</sat>
</trkpt>
<trkpt lat="39.667919000" lon="-0.418495000">
  <ele>256.700000</ele>
  <time>2012-02-26T08:46:20Z</time>
  <sat>7</sat>
</trkpt>
<trkpt lat="39.667945000" lon="-0.418488000">
  <ele>256.300000</ele>
  <time>2012-02-26T08:46:21Z</time>
  <sat>8</sat>
</trkpt>
<trkpt lat="39.668161000" lon="-0.418445000">
  <ele>257.000000</ele>
  <time>2012-02-26T08:46:29Z</time>
  <sat>6</sat>
</trkpt>
<trkpt lat="39.668170000" lon="-0.418461000">
  <ele>257.600000</ele>
  <time>2012-02-26T08:46:30Z</time>
  <sat>7</sat>
</trkpt>
<trkpt lat="39.668193000" lon="-0.418466000">
  <ele>258.500000</ele>
  <time>2012-02-26T08:46:31Z</time>
  <sat>7</sat>
</trkpt>
<trkpt lat="39.668325000" lon="-0.418486000">
  <ele>260.300000</ele>
  <time>2012-02-26T08:46:38Z</time>
  <sat>9</sat>
</trkpt>
<trkpt lat="39.668340000" lon="-0.418483000">
  <ele>260.200000</ele>
  <time>2012-02-26T08:46:39Z</time>
  <sat>9</sat>
</trkpt>
<trkpt lat="39.668356000" lon="-0.418489000">
  <ele>260.500000</ele>
  <time>2012-02-26T08:46:40Z</time>
  <sat>9</sat>
</trkpt>
<trkpt lat="39.668374000" lon="-0.418482000">
  <ele>260.600000</ele>
  <time>2012-02-26T08:46:41Z</time>
  <sat>9</sat>
</trkpt>
<trkpt lat="39.668388000" lon="-0.418478000">
  <ele>260.100000</ele>
  <time>2012-02-26T08:46:42Z</time>
  <sat>9</sat>
</trkpt>
<trkpt lat="39.668455000" lon="-0.418453000">
  <ele>260.200000</ele>
  <time>2012-02-26T08:46:46Z</time>
  <sat>9</sat>
</trkpt>
<trkpt lat="39.668486000" lon="-0.418435000">
  <ele>260.600000</ele>
  <time>2012-02-26T08:46:48Z</time>
  <sat>9</sat>
</trkpt>
<trkpt lat="39.668526000" lon="-0.418387000">
  <ele>260.300000</ele>
  <time>2012-02-26T08:46:51Z</time>
  <sat>6</sat>
</trkpt>
<trkpt lat="39.668536000" lon="-0.418362000">
  <ele>260.300000</ele>
  <time>2012-02-26T08:46:52Z</time>
  <sat>6</sat>
</trkpt>
<trkpt lat="39.668527000" lon="-0.418343000">
  <ele>260.500000</ele>
  <time>2012-02-26T08:46:53Z</time>
  <sat>6</sat>
</trkpt>
<trkpt lat="39.668527000" lon="-0.418343000">
  <ele>260.500000</ele>
  <time>2012-02-26T08:46:54Z</time>
  <sat>6</sat>
</trkpt>
<trkpt lat="39.668541000" lon="-0.418268000">
  <ele>260.000000</ele>
  <time>2012-02-26T08:46:55Z</time>
  <sat>9</sat>
</trkpt>
<trkpt lat="39.668539000" lon="-0.418215000">
  <ele>261.200000</ele>
  <time>2012-02-26T08:46:56Z</time>
  <sat>9</sat>
</trkpt>
<trkpt lat="39.668546000" lon="-0.418189000">
  <ele>261.500000</ele>
  <time>2012-02-26T08:46:57Z</time>
  <sat>9</sat>
</trkpt>
<trkpt lat="39.668551000" lon="-0.418174000">
  <ele>261.800000</ele>
  <time>2012-02-26T08:46:58Z</time>
  <sat>9</sat>
</trkpt>
<trkpt lat="39.668558000" lon="-0.418168000">
  <ele>262.000000</ele>
  <time>2012-02-26T08:46:59Z</time>
  <sat>9</sat>
</trkpt>
<trkpt lat="39.668549000" lon="-0.418178000">
  <ele>262.800000</ele>
  <time>2012-02-26T08:47:00Z</time>
  <sat>9</sat>
</trkpt>
<trkpt lat="39.668551000" lon="-0.418172000">
  <ele>262.800000</ele>
  <time>2012-02-26T08:47:01Z</time>
  <sat>9</sat>
</trkpt>
<trkpt lat="39.668558000" lon="-0.418162000">
  <ele>263.800000</ele>
  <time>2012-02-26T08:47:02Z</time>
  <sat>9</sat>
</trkpt>
<trkpt lat="39.668569000" lon="-0.418156000">
  <ele>264.600000</ele>
  <time>2012-02-26T08:47:03Z</time>
  <sat>9</sat>
</trkpt>
<trkpt lat="39.668576000" lon="-0.418160000">
  <ele>264.500000</ele>
  <time>2012-02-26T08:47:04Z</time>
  <sat>9</sat>
</trkpt>
<trkpt lat="39.668576000" lon="-0.418164000">
  <ele>264.500000</ele>
  <time>2012-02-26T08:47:05Z</time>
  <sat>9</sat>
</trkpt>
<trkpt lat="39.668576000" lon="-0.418164000">
  <ele>264.800000</ele>
  <time>2012-02-26T08:47:06Z</time>
  <sat>9</sat>
</trkpt>
<trkpt lat="39.668579000" lon="-0.418163000">
  <ele>264.600000</ele>
  <time>2012-02-26T08:47:07Z</time>
  <sat>9</sat>
</trkpt>
<trkpt lat="39.668580000" lon="-0.418162000">
  <ele>264.500000</ele>
  <time>2012-02-26T08:47:08Z</time>
  <sat>9</sat>
</trkpt>
<trkpt lat="39.668584000" lon="-0.418162000">
  <ele>264.100000</ele>
  <time>2012-02-26T08:47:09Z</time>
  <sat>9</sat>
</trkpt>
<trkpt lat="39.668641000" lon="-0.418115000">
  <ele>264.600000</ele>
  <time>2012-02-26T08:47:18Z</time>
  <sat>9</sat>
</trkpt>
<trkpt lat="39.668661000" lon="-0.418105000">
  <ele>265.200000</ele>
  <time>2012-02-26T08:47:19Z</time>
  <sat>6</sat>
</trkpt>
<trkpt lat="39.668737000" lon="-0.418073000">
  <ele>268.200000</ele>
  <time>2012-02-26T08:47:24Z</time>
  <sat>8</sat>
</trkpt>
<trkpt lat="39.668800000" lon="-0.418028000">
  <ele>267.100000</ele>
  <time>2012-02-26T08:47:29Z</time>
  <sat>9</sat>
</trkpt>
<trkpt lat="39.668812000" lon="-0.417986000">
  <ele>265.100000</ele>
  <time>2012-02-26T08:47:31Z</time>
  <sat>9</sat>
</trkpt>
<trkpt lat="39.668824000" lon="-0.417965000">
  <ele>264.100000</ele>
  <time>2012-02-26T08:47:32Z</time>
  <sat>9</sat>
</trkpt>
<trkpt lat="39.668857000" lon="-0.417912000">
  <ele>263.500000</ele>
  <time>2012-02-26T08:47:35Z</time>
  <sat>9</sat>
</trkpt>
<trkpt lat="39.668877000" lon="-0.417935000">
  <ele>265.500000</ele>
  <time>2012-02-26T08:47:37Z</time>
  <sat>9</sat>
</trkpt>
<trkpt lat="39.668887000" lon="-0.417936000">
  <ele>266.000000</ele>
  <time>2012-02-26T08:47:38Z</time>
  <sat>7</sat>
</trkpt>
<trkpt lat="39.668899000" lon="-0.417931000">
  <ele>266.500000</ele>
  <time>2012-02-26T08:47:39Z</time>
  <sat>7</sat>
</trkpt>
<trkpt lat="39.668920000" lon="-0.417938000">
  <ele>267.200000</ele>
  <time>2012-02-26T08:47:40Z</time>
  <sat>7</sat>
</trkpt>
<trkpt lat="39.668937000" lon="-0.417939000">
  <ele>267.000000</ele>
  <time>2012-02-26T08:47:41Z</time>
  <sat>7</sat>
</trkpt>
<trkpt lat="39.669210000" lon="-0.417961000">
  <ele>269.500000</ele>
  <time>2012-02-26T08:47:57Z</time>
  <sat>9</sat>
</trkpt>
<trkpt lat="39.669227000" lon="-0.417963000">
  <ele>269.700000</ele>
  <time>2012-02-26T08:47:58Z</time>
  <sat>9</sat>
</trkpt>
<trkpt lat="39.669238000" lon="-0.417959000">
  <ele>270.200000</ele>
  <time>2012-02-26T08:47:59Z</time>
  <sat>9</sat>
</trkpt>
<trkpt lat="39.669254000" lon="-0.417971000">
  <ele>270.700000</ele>
  <time>2012-02-26T08:48:00Z</time>
  <sat>9</sat>
</trkpt>
<trkpt lat="39.669267000" lon="-0.417966000">
  <ele>270.800000</ele>
  <time>2012-02-26T08:48:01Z</time>
  <sat>9</sat>
</trkpt>
<trkpt lat="39.669286000" lon="-0.417967000">
  <ele>270.700000</ele>
  <time>2012-02-26T08:48:02Z</time>
  <sat>9</sat>
</trkpt>
<trkpt lat="39.669301000" lon="-0.417958000">
  <ele>270.800000</ele>
  <time>2012-02-26T08:48:03Z</time>
  <sat>9</sat>
</trkpt>
<trkpt lat="39.669327000" lon="-0.417954000">
  <ele>271.300000</ele>
  <time>2012-02-26T08:48:04Z</time>
  <sat>9</sat>
</trkpt>
<trkpt lat="39.669441000" lon="-0.417958000">
  <ele>272.300000</ele>
  <time>2012-02-26T08:48:09Z</time>
  <sat>6</sat>
</trkpt>
<trkpt lat="39.669459000" lon="-0.417962000">
  <ele>272.800000</ele>
  <time>2012-02-26T08:48:10Z</time>
  <sat>6</sat>
</trkpt>
<trkpt lat="39.669488000" lon="-0.417964000">
  <ele>273.700000</ele>
  <time>2012-02-26T08:48:12Z</time>
  <sat>6</sat>
</trkpt>
<trkpt lat="39.669504000" lon="-0.417958000">
  <ele>274.100000</ele>
  <time>2012-02-26T08:48:13Z</time>
  <sat>6</sat>
</trkpt>
<trkpt lat="39.669521000" lon="-0.417956000">
  <ele>274.200000</ele>
  <time>2012-02-26T08:48:14Z</time>
  <sat>6</sat>
</trkpt>
<trkpt lat="39.669618000" lon="-0.417939000">
  <ele>277.200000</ele>
  <time>2012-02-26T08:48:19Z</time>
  <sat>8</sat>
</trkpt>
<trkpt lat="39.669698000" lon="-0.417942000">
  <ele>276.100000</ele>
  <time>2012-02-26T08:48:23Z</time>
  <sat>8</sat>
</trkpt>
<trkpt lat="39.669733000" lon="-0.417942000">
  <ele>276.000000</ele>
  <time>2012-02-26T08:48:25Z</time>
  <sat>9</sat>
</trkpt>
<trkpt lat="39.669752000" lon="-0.417939000">
  <ele>275.600000</ele>
  <time>2012-02-26T08:48:26Z</time>
  <sat>9</sat>
</trkpt>
<trkpt lat="39.669773000" lon="-0.417940000">
  <ele>276.200000</ele>
  <time>2012-02-26T08:48:27Z</time>
  <sat>9</sat>
</trkpt>
<trkpt lat="39.669934000" lon="-0.417944000">
  <ele>276.700000</ele>
  <time>2012-02-26T08:48:34Z</time>
  <sat>8</sat>
</trkpt>
<trkpt lat="39.669957000" lon="-0.417944000">
  <ele>277.200000</ele>
  <time>2012-02-26T08:48:35Z</time>
  <sat>8</sat>
</trkpt>
<trkpt lat="39.670000000" lon="-0.417948000">
  <ele>277.800000</ele>
  <time>2012-02-26T08:48:37Z</time>
  <sat>8</sat>
</trkpt>
<trkpt lat="39.670020000" lon="-0.417952000">
  <ele>278.500000</ele>
  <time>2012-02-26T08:48:38Z</time>
  <sat>8</sat>
</trkpt>
<trkpt lat="39.670053000" lon="-0.417964000">
  <ele>278.700000</ele>
  <time>2012-02-26T08:48:40Z</time>
  <sat>7</sat>
</trkpt>
<trkpt lat="39.670069000" lon="-0.417973000">
  <ele>278.800000</ele>
  <time>2012-02-26T08:48:41Z</time>
  <sat>7</sat>
</trkpt>
<trkpt lat="39.670085000" lon="-0.417985000">
  <ele>278.800000</ele>
  <time>2012-02-26T08:48:42Z</time>
  <sat>8</sat>
</trkpt>
<trkpt lat="39.670114000" lon="-0.418007000">
  <ele>278.700000</ele>
  <time>2012-02-26T08:48:44Z</time>
  <sat>9</sat>
</trkpt>
<trkpt lat="39.670146000" lon="-0.418068000">
  <ele>278.300000</ele>
  <time>2012-02-26T08:49:04Z</time>
  <sat>9</sat>
</trkpt>
<trkpt lat="39.670152000" lon="-0.418096000">
  <ele>277.500000</ele>
  <time>2012-02-26T08:49:05Z</time>
  <sat>9</sat>
</trkpt>
<trkpt lat="39.670170000" lon="-0.418278000">
  <ele>275.200000</ele>
  <time>2012-02-26T08:49:10Z</time>
  <sat>9</sat>
</trkpt>
<trkpt lat="39.670171000" lon="-0.418317000">
  <ele>275.300000</ele>
  <time>2012-02-26T08:49:11Z</time>
  <sat>9</sat>
</trkpt>
<trkpt lat="39.670165000" lon="-0.418357000">
  <ele>275.300000</ele>
  <time>2012-02-26T08:49:12Z</time>
  <sat>9</sat>
</trkpt>
<trkpt lat="39.670155000" lon="-0.418394000">
  <ele>275.200000</ele>
  <time>2012-02-26T08:49:13Z</time>
  <sat>9</sat>
</trkpt>
<trkpt lat="39.670111000" lon="-0.418525000">
  <ele>274.800000</ele>
  <time>2012-02-26T08:49:17Z</time>
  <sat>9</sat>
</trkpt>
<trkpt lat="39.670076000" lon="-0.418650000">
  <ele>274.200000</ele>
  <time>2012-02-26T08:49:21Z</time>
  <sat>9</sat>
</trkpt>
<trkpt lat="39.670070000" lon="-0.418683000">
  <ele>274.100000</ele>
  <time>2012-02-26T08:49:22Z</time>
  <sat>9</sat>
</trkpt>
<trkpt lat="39.670066000" lon="-0.418717000">
  <ele>274.100000</ele>
  <time>2012-02-26T08:49:23Z</time>
  <sat>9</sat>
</trkpt>
<trkpt lat="39.670060000" lon="-0.418806000">
  <ele>275.600000</ele>
  <time>2012-02-26T08:49:26Z</time>
  <sat>9</sat>
</trkpt>
<trkpt lat="39.670068000" lon="-0.418913000">
  <ele>276.500000</ele>
  <time>2012-02-26T08:49:29Z</time>
  <sat>9</sat>
</trkpt>
<trkpt lat="39.670072000" lon="-0.418985000">
  <ele>276.800000</ele>
  <time>2012-02-26T08:49:31Z</time>
  <sat>9</sat>
</trkpt>
<trkpt lat="39.670079000" lon="-0.419017000">
  <ele>276.700000</ele>
  <time>2012-02-26T08:49:32Z</time>
  <sat>9</sat>
</trkpt>
<trkpt lat="39.670102000" lon="-0.419242000">
  <ele>275.800000</ele>
  <time>2012-02-26T08:49:38Z</time>
  <sat>9</sat>
</trkpt>
<trkpt lat="39.670095000" lon="-0.419282000">
  <ele>276.000000</ele>
  <time>2012-02-26T08:49:39Z</time>
  <sat>9</sat>
</trkpt>
<trkpt lat="39.670048000" lon="-0.419668000">
  <ele>278.100000</ele>
  <time>2012-02-26T08:49:50Z</time>
  <sat>9</sat>
</trkpt>
<trkpt lat="39.670052000" lon="-0.419699000">
  <ele>277.500000</ele>
  <time>2012-02-26T08:49:51Z</time>
  <sat>9</sat>
</trkpt>
<trkpt lat="39.670069000" lon="-0.419772000">
  <ele>276.700000</ele>
  <time>2012-02-26T08:49:53Z</time>
  <sat>9</sat>
</trkpt>
<trkpt lat="39.670116000" lon="-0.419895000">
  <ele>276.200000</ele>
  <time>2012-02-26T08:49:56Z</time>
  <sat>9</sat>
</trkpt>
<trkpt lat="39.670155000" lon="-0.419962000">
  <ele>276.300000</ele>
  <time>2012-02-26T08:49:58Z</time>
  <sat>9</sat>
</trkpt>
<trkpt lat="39.670258000" lon="-0.420048000">
  <ele>276.500000</ele>
  <time>2012-02-26T08:50:01Z</time>
  <sat>9</sat>
</trkpt>
<trkpt lat="39.670276000" lon="-0.420065000">
  <ele>276.700000</ele>
  <time>2012-02-26T08:50:02Z</time>
  <sat>9</sat>
</trkpt>
<trkpt lat="39.670275000" lon="-0.420088000">
  <ele>276.600000</ele>
  <time>2012-02-26T08:50:03Z</time>
  <sat>9</sat>
</trkpt>
<trkpt lat="39.670297000" lon="-0.420118000">
  <ele>277.300000</ele>
  <time>2012-02-26T08:50:04Z</time>
  <sat>9</sat>
</trkpt>
<trkpt lat="39.670308000" lon="-0.420152000">
  <ele>278.300000</ele>
  <time>2012-02-26T08:50:05Z</time>
  <sat>9</sat>
</trkpt>
<trkpt lat="39.670455000" lon="-0.420559000">
  <ele>279.700000</ele>
  <time>2012-02-26T08:50:14Z</time>
  <sat>8</sat>
</trkpt>
<trkpt lat="39.670461000" lon="-0.420608000">
  <ele>279.100000</ele>
  <time>2012-02-26T08:50:15Z</time>
  <sat>8</sat>
</trkpt>
<trkpt lat="39.670502000" lon="-0.421080000">
  <ele>277.000000</ele>
  <time>2012-02-26T08:50:28Z</time>
  <sat>9</sat>
</trkpt>
<trkpt lat="39.670528000" lon="-0.421097000">
  <ele>276.500000</ele>
  <time>2012-02-26T08:50:29Z</time>
  <sat>9</sat>
</trkpt>
<trkpt lat="39.670551000" lon="-0.421104000">
  <ele>276.200000</ele>
  <time>2012-02-26T08:50:30Z</time>
  <sat>9</sat>
</trkpt>
<trkpt lat="39.670574000" lon="-0.421109000">
  <ele>276.100000</ele>
  <time>2012-02-26T08:50:31Z</time>
  <sat>9</sat>
</trkpt>
<trkpt lat="39.670606000" lon="-0.421090000">
  <ele>276.300000</ele>
  <time>2012-02-26T08:50:32Z</time>
  <sat>9</sat>
</trkpt>
<trkpt lat="39.670634000" lon="-0.421077000">
  <ele>276.800000</ele>
  <time>2012-02-26T08:50:33Z</time>
  <sat>9</sat>
</trkpt>
<trkpt lat="39.670662000" lon="-0.421080000">
  <ele>277.200000</ele>
  <time>2012-02-26T08:50:34Z</time>
  <sat>9</sat>
</trkpt>
<trkpt lat="39.670689000" lon="-0.421076000">
  <ele>277.200000</ele>
  <time>2012-02-26T08:50:35Z</time>
  <sat>8</sat>
</trkpt>
<trkpt lat="39.671200000" lon="-0.420962000">
  <ele>278.300000</ele>
  <time>2012-02-26T08:50:53Z</time>
  <sat>7</sat>
</trkpt>
<trkpt lat="39.671223000" lon="-0.420955000">
  <ele>279.100000</ele>
  <time>2012-02-26T08:50:54Z</time>
  <sat>7</sat>
</trkpt>
<trkpt lat="39.671242000" lon="-0.420950000">
  <ele>279.700000</ele>
  <time>2012-02-26T08:50:55Z</time>
  <sat>7</sat>
</trkpt>
<trkpt lat="39.671256000" lon="-0.420946000">
  <ele>279.700000</ele>
  <time>2012-02-26T08:50:56Z</time>
  <sat>7</sat>
</trkpt>
<trkpt lat="39.671317000" lon="-0.420977000">
  <ele>282.100000</ele>
  <time>2012-02-26T08:50:59Z</time>
  <sat>8</sat>
</trkpt>
<trkpt lat="39.671668000" lon="-0.421113000">
  <ele>283.700000</ele>
  <time>2012-02-26T08:51:12Z</time>
  <sat>9</sat>
</trkpt>
<trkpt lat="39.671709000" lon="-0.421118000">
  <ele>283.200000</ele>
  <time>2012-02-26T08:51:13Z</time>
  <sat>9</sat>
</trkpt>
<trkpt lat="39.671816000" lon="-0.421120000">
  <ele>283.800000</ele>
  <time>2012-02-26T08:51:17Z</time>
  <sat>9</sat>
</trkpt>
<trkpt lat="39.671848000" lon="-0.421121000">
  <ele>285.200000</ele>
  <time>2012-02-26T08:51:18Z</time>
  <sat>9</sat>
</trkpt>
<trkpt lat="39.671876000" lon="-0.421119000">
  <ele>285.500000</ele>
  <time>2012-02-26T08:51:19Z</time>
  <sat>9</sat>
</trkpt>
<trkpt lat="39.671936000" lon="-0.421102000">
  <ele>285.600000</ele>
  <time>2012-02-26T08:51:22Z</time>
  <sat>7</sat>
</trkpt>
<trkpt lat="39.672073000" lon="-0.421028000">
  <ele>283.500000</ele>
  <time>2012-02-26T08:51:28Z</time>
  <sat>9</sat>
</trkpt>
<trkpt lat="39.672092000" lon="-0.421010000">
  <ele>283.700000</ele>
  <time>2012-02-26T08:51:29Z</time>
  <sat>9</sat>
</trkpt>
<trkpt lat="39.672193000" lon="-0.420896000">
  <ele>285.200000</ele>
  <time>2012-02-26T08:51:35Z</time>
  <sat>9</sat>
</trkpt>
<trkpt lat="39.672210000" lon="-0.420869000">
  <ele>285.200000</ele>
  <time>2012-02-26T08:51:36Z</time>
  <sat>9</sat>
</trkpt>
<trkpt lat="39.672391000" lon="-0.420586000">
  <ele>287.600000</ele>
  <time>2012-02-26T08:51:47Z</time>
  <sat>9</sat>
</trkpt>
<trkpt lat="39.672404000" lon="-0.420554000">
  <ele>288.100000</ele>
  <time>2012-02-26T08:51:48Z</time>
  <sat>9</sat>
</trkpt>
<trkpt lat="39.672432000" lon="-0.420499000">
  <ele>288.600000</ele>
  <time>2012-02-26T08:51:50Z</time>
  <sat>9</sat>
</trkpt>
<trkpt lat="39.672448000" lon="-0.420476000">
  <ele>288.500000</ele>
  <time>2012-02-26T08:51:51Z</time>
  <sat>9</sat>
</trkpt>
<trkpt lat="39.672486000" lon="-0.420401000">
  <ele>289.200000</ele>
  <time>2012-02-26T08:51:54Z</time>
  <sat>9</sat>
</trkpt>
<trkpt lat="39.672498000" lon="-0.420378000">
  <ele>289.600000</ele>
  <time>2012-02-26T08:51:55Z</time>
  <sat>9</sat>
</trkpt>
<trkpt lat="39.672518000" lon="-0.420330000">
  <ele>290.100000</ele>
  <time>2012-02-26T08:51:57Z</time>
  <sat>9</sat>
</trkpt>
<trkpt lat="39.672549000" lon="-0.420224000">
  <ele>290.200000</ele>
  <time>2012-02-26T08:52:01Z</time>
  <sat>9</sat>
</trkpt>
<trkpt lat="39.672561000" lon="-0.420198000">
  <ele>290.200000</ele>
  <time>2012-02-26T08:52:02Z</time>
  <sat>9</sat>
</trkpt>
<trkpt lat="39.672619000" lon="-0.420053000">
  <ele>292.100000</ele>
  <time>2012-02-26T08:52:08Z</time>
  <sat>9</sat>
</trkpt>
<trkpt lat="39.672643000" lon="-0.420004000">
  <ele>292.200000</ele>
  <time>2012-02-26T08:52:10Z</time>
  <sat>9</sat>
</trkpt>
<trkpt lat="39.672659000" lon="-0.419978000">
  <ele>292.100000</ele>
  <time>2012-02-26T08:52:11Z</time>
  <sat>9</sat>
</trkpt>
<trkpt lat="39.672686000" lon="-0.419920000">
  <ele>291.800000</ele>
  <time>2012-02-26T08:52:13Z</time>
  <sat>8</sat>
</trkpt>
<trkpt lat="39.672765000" lon="-0.419763000">
  <ele>291.700000</ele>
  <time>2012-02-26T08:52:18Z</time>
  <sat>7</sat>
</trkpt>
<trkpt lat="39.672790000" lon="-0.419733000">
  <ele>291.600000</ele>
  <time>2012-02-26T08:52:19Z</time>
  <sat>7</sat>
</trkpt>
<trkpt lat="39.672909000" lon="-0.419578000">
  <ele>291.600000</ele>
  <time>2012-02-26T08:52:25Z</time>
  <sat>9</sat>
</trkpt>
<trkpt lat="39.672935000" lon="-0.419555000">
  <ele>291.000000</ele>
  <time>2012-02-26T08:52:26Z</time>
  <sat>9</sat>
</trkpt>
<trkpt lat="39.672973000" lon="-0.419535000">
  <ele>291.200000</ele>
  <time>2012-02-26T08:52:27Z</time>
  <sat>9</sat>
</trkpt>
<trkpt lat="39.673130000" lon="-0.419473000">
  <ele>291.500000</ele>
  <time>2012-02-26T08:52:31Z</time>
  <sat>8</sat>
</trkpt>
<trkpt lat="39.673206000" lon="-0.419472000">
  <ele>292.000000</ele>
  <time>2012-02-26T08:52:33Z</time>
  <sat>8</sat>
</trkpt>
<trkpt lat="39.673903000" lon="-0.419418000">
  <ele>292.700000</ele>
  <time>2012-02-26T08:52:52Z</time>
  <sat>8</sat>
</trkpt>
<trkpt lat="39.674033000" lon="-0.419408000">
  <ele>292.700000</ele>
  <time>2012-02-26T08:52:56Z</time>
  <sat>8</sat>
</trkpt>
<trkpt lat="39.674061000" lon="-0.419398000">
  <ele>293.000000</ele>
  <time>2012-02-26T08:52:57Z</time>
  <sat>8</sat>
</trkpt>
<trkpt lat="39.674188000" lon="-0.419348000">
  <ele>289.000000</ele>
  <time>2012-02-26T08:53:01Z</time>
  <sat>8</sat>
</trkpt>
<trkpt lat="39.674214000" lon="-0.419329000">
  <ele>288.500000</ele>
  <time>2012-02-26T08:53:02Z</time>
  <sat>8</sat>
</trkpt>
<trkpt lat="39.674510000" lon="-0.419086000">
  <ele>287.800000</ele>
  <time>2012-02-26T08:53:16Z</time>
  <sat>8</sat>
</trkpt>
<trkpt lat="39.674545000" lon="-0.419031000">
  <ele>289.500000</ele>
  <time>2012-02-26T08:53:18Z</time>
  <sat>8</sat>
</trkpt>
<trkpt lat="39.674649000" lon="-0.418902000">
  <ele>292.700000</ele>
  <time>2012-02-26T08:53:26Z</time>
  <sat>9</sat>
</trkpt>
<trkpt lat="39.674661000" lon="-0.418892000">
  <ele>292.700000</ele>
  <time>2012-02-26T08:53:27Z</time>
  <sat>9</sat>
</trkpt>
<trkpt lat="39.674761000" lon="-0.418793000">
  <ele>295.300000</ele>
  <time>2012-02-26T08:53:33Z</time>
  <sat>9</sat>
</trkpt>
<trkpt lat="39.674779000" lon="-0.418781000">
  <ele>295.200000</ele>
  <time>2012-02-26T08:53:34Z</time>
  <sat>9</sat>
</trkpt>
<trkpt lat="39.674868000" lon="-0.418687000">
  <ele>294.700000</ele>
  <time>2012-02-26T08:53:38Z</time>
  <sat>9</sat>
</trkpt>
<trkpt lat="39.675170000" lon="-0.418340000">
  <ele>297.600000</ele>
  <time>2012-02-26T08:53:53Z</time>
  <sat>9</sat>
</trkpt>
<trkpt lat="39.675188000" lon="-0.418313000">
  <ele>298.100000</ele>
  <time>2012-02-26T08:53:54Z</time>
  <sat>9</sat>
</trkpt>
<trkpt lat="39.675318000" lon="-0.418122000">
  <ele>299.200000</ele>
  <time>2012-02-26T08:54:02Z</time>
  <sat>9</sat>
</trkpt>
<trkpt lat="39.675340000" lon="-0.418101000">
  <ele>299.300000</ele>
  <time>2012-02-26T08:54:03Z</time>
  <sat>9</sat>
</trkpt>
<trkpt lat="39.675454000" lon="-0.417995000">
  <ele>299.600000</ele>
  <time>2012-02-26T08:54:08Z</time>
  <sat>9</sat>
</trkpt>
<trkpt lat="39.675479000" lon="-0.417979000">
  <ele>300.000000</ele>
  <time>2012-02-26T08:54:09Z</time>
  <sat>9</sat>
</trkpt>
<trkpt lat="39.675558000" lon="-0.417948000">
  <ele>300.200000</ele>
  <time>2012-02-26T08:54:12Z</time>
  <sat>9</sat>
</trkpt>
<trkpt lat="39.675727000" lon="-0.417891000">
  <ele>301.000000</ele>
  <time>2012-02-26T08:54:19Z</time>
  <sat>7</sat>
</trkpt>
<trkpt lat="39.675751000" lon="-0.417888000">
  <ele>301.700000</ele>
  <time>2012-02-26T08:54:20Z</time>
  <sat>6</sat>
</trkpt>
<trkpt lat="39.675957000" lon="-0.417893000">
  <ele>302.000000</ele>
  <time>2012-02-26T08:54:28Z</time>
  <sat>7</sat>
</trkpt>
<trkpt lat="39.675980000" lon="-0.417898000">
  <ele>302.200000</ele>
  <time>2012-02-26T08:54:29Z</time>
  <sat>7</sat>
</trkpt>
<trkpt lat="39.675996000" lon="-0.417906000">
  <ele>301.700000</ele>
  <time>2012-02-26T08:54:30Z</time>
  <sat>6</sat>
</trkpt>
<trkpt lat="39.676134000" lon="-0.417982000">
  <ele>302.100000</ele>
  <time>2012-02-26T08:54:36Z</time>
  <sat>9</sat>
</trkpt>
<trkpt lat="39.676197000" lon="-0.418002000">
  <ele>302.100000</ele>
  <time>2012-02-26T08:54:39Z</time>
  <sat>9</sat>
</trkpt>
<trkpt lat="39.676235000" lon="-0.418007000">
  <ele>302.600000</ele>
  <time>2012-02-26T08:54:41Z</time>
  <sat>9</sat>
</trkpt>
<trkpt lat="39.676254000" lon="-0.417995000">
  <ele>304.700000</ele>
  <time>2012-02-26T08:54:42Z</time>
  <sat>9</sat>
</trkpt>
<trkpt lat="39.676294000" lon="-0.417951000">
  <ele>305.800000</ele>
  <time>2012-02-26T08:54:44Z</time>
  <sat>9</sat>
</trkpt>
<trkpt lat="39.676306000" lon="-0.417914000">
  <ele>306.600000</ele>
  <time>2012-02-26T08:54:45Z</time>
  <sat>9</sat>
</trkpt>
<trkpt lat="39.676299000" lon="-0.417882000">
  <ele>305.600000</ele>
  <time>2012-02-26T08:54:46Z</time>
  <sat>9</sat>
</trkpt>
<trkpt lat="39.676297000" lon="-0.417856000">
  <ele>305.600000</ele>
  <time>2012-02-26T08:54:47Z</time>
  <sat>9</sat>
</trkpt>
<trkpt lat="39.676281000" lon="-0.417850000">
  <ele>306.100000</ele>
  <time>2012-02-26T08:54:48Z</time>
  <sat>9</sat>
</trkpt>
<trkpt lat="39.676278000" lon="-0.417827000">
  <ele>306.700000</ele>
  <time>2012-02-26T08:54:49Z</time>
  <sat>9</sat>
</trkpt>
<trkpt lat="39.676276000" lon="-0.417805000">
  <ele>307.600000</ele>
  <time>2012-02-26T08:54:50Z</time>
  <sat>8</sat>
</trkpt>
<trkpt lat="39.676275000" lon="-0.417786000">
  <ele>308.200000</ele>
  <time>2012-02-26T08:54:51Z</time>
  <sat>8</sat>
</trkpt>
<trkpt lat="39.676271000" lon="-0.417713000">
  <ele>309.700000</ele>
  <time>2012-02-26T08:54:54Z</time>
  <sat>8</sat>
</trkpt>
<trkpt lat="39.676274000" lon="-0.417693000">
  <ele>309.700000</ele>
  <time>2012-02-26T08:54:55Z</time>
  <sat>8</sat>
</trkpt>
<trkpt lat="39.676285000" lon="-0.417646000">
  <ele>310.200000</ele>
  <time>2012-02-26T08:54:57Z</time>
  <sat>8</sat>
</trkpt>
<trkpt lat="39.676288000" lon="-0.417620000">
  <ele>310.300000</ele>
  <time>2012-02-26T08:54:58Z</time>
  <sat>8</sat>
</trkpt>
<trkpt lat="39.676293000" lon="-0.417318000">
  <ele>310.600000</ele>
  <time>2012-02-26T08:55:12Z</time>
  <sat>7</sat>
</trkpt>
<trkpt lat="39.676292000" lon="-0.417294000">
  <ele>311.200000</ele>
  <time>2012-02-26T08:55:13Z</time>
  <sat>7</sat>
</trkpt>
<trkpt lat="39.676291000" lon="-0.417164000">
  <ele>312.500000</ele>
  <time>2012-02-26T08:55:18Z</time>
  <sat>7</sat>
</trkpt>
<trkpt lat="39.676286000" lon="-0.417114000">
  <ele>313.500000</ele>
  <time>2012-02-26T08:55:20Z</time>
  <sat>8</sat>
</trkpt>
<trkpt lat="39.676263000" lon="-0.417026000">
  <ele>314.700000</ele>
  <time>2012-02-26T08:55:24Z</time>
  <sat>8</sat>
</trkpt>
<trkpt lat="39.676255000" lon="-0.417004000">
  <ele>314.800000</ele>
  <time>2012-02-26T08:55:25Z</time>
  <sat>8</sat>
</trkpt>
<trkpt lat="39.676241000" lon="-0.416991000">
  <ele>315.100000</ele>
  <time>2012-02-26T08:55:26Z</time>
  <sat>8</sat>
</trkpt>
<trkpt lat="39.676228000" lon="-0.416971000">
  <ele>314.200000</ele>
  <time>2012-02-26T08:55:27Z</time>
  <sat>9</sat>
</trkpt>
<trkpt lat="39.676208000" lon="-0.416963000">
  <ele>313.800000</ele>
  <time>2012-02-26T08:55:28Z</time>
  <sat>9</sat>
</trkpt>
<trkpt lat="39.676189000" lon="-0.416965000">
  <ele>313.800000</ele>
  <time>2012-02-26T08:55:29Z</time>
  <sat>9</sat>
</trkpt>
<trkpt lat="39.676153000" lon="-0.416970000">
  <ele>314.000000</ele>
  <time>2012-02-26T08:55:31Z</time>
  <sat>9</sat>
</trkpt>
<trkpt lat="39.676136000" lon="-0.416978000">
  <ele>314.000000</ele>
  <time>2012-02-26T08:55:32Z</time>
  <sat>9</sat>
</trkpt>
<trkpt lat="39.676104000" lon="-0.416993000">
  <ele>314.200000</ele>
  <time>2012-02-26T08:55:34Z</time>
  <sat>8</sat>
</trkpt>
<trkpt lat="39.676087000" lon="-0.416996000">
  <ele>314.300000</ele>
  <time>2012-02-26T08:55:35Z</time>
  <sat>8</sat>
</trkpt>
<trkpt lat="39.676057000" lon="-0.416984000">
  <ele>314.200000</ele>
  <time>2012-02-26T08:55:37Z</time>
  <sat>8</sat>
</trkpt>
<trkpt lat="39.676043000" lon="-0.416973000">
  <ele>314.100000</ele>
  <time>2012-02-26T08:55:38Z</time>
  <sat>8</sat>
</trkpt>
<trkpt lat="39.675928000" lon="-0.416877000">
  <ele>315.200000</ele>
  <time>2012-02-26T08:55:45Z</time>
  <sat>9</sat>
</trkpt>
<trkpt lat="39.675911000" lon="-0.416871000">
  <ele>315.000000</ele>
  <time>2012-02-26T08:55:46Z</time>
  <sat>9</sat>
</trkpt>
<trkpt lat="39.675893000" lon="-0.416859000">
  <ele>315.200000</ele>
  <time>2012-02-26T08:55:47Z</time>
  <sat>9</sat>
</trkpt>
<trkpt lat="39.675860000" lon="-0.416841000">
  <ele>316.300000</ele>
  <time>2012-02-26T08:55:49Z</time>
  <sat>9</sat>
</trkpt>
<trkpt lat="39.675810000" lon="-0.416809000">
  <ele>316.100000</ele>
  <time>2012-02-26T08:55:52Z</time>
  <sat>9</sat>
</trkpt>
<trkpt lat="39.675720000" lon="-0.416764000">
  <ele>317.000000</ele>
  <time>2012-02-26T08:55:57Z</time>
  <sat>9</sat>
</trkpt>
<trkpt lat="39.675703000" lon="-0.416764000">
  <ele>316.700000</ele>
  <time>2012-02-26T08:55:58Z</time>
  <sat>8</sat>
</trkpt>
<trkpt lat="39.675685000" lon="-0.416757000">
  <ele>317.100000</ele>
  <time>2012-02-26T08:55:59Z</time>
  <sat>8</sat>
</trkpt>
<trkpt lat="39.675635000" lon="-0.416731000">
  <ele>317.000000</ele>
  <time>2012-02-26T08:56:02Z</time>
  <sat>7</sat>
</trkpt>
<trkpt lat="39.675617000" lon="-0.416725000">
  <ele>316.800000</ele>
  <time>2012-02-26T08:56:03Z</time>
  <sat>8</sat>
</trkpt>
<trkpt lat="39.675520000" lon="-0.416712000">
  <ele>317.100000</ele>
  <time>2012-02-26T08:56:08Z</time>
  <sat>8</sat>
</trkpt>
<trkpt lat="39.675419000" lon="-0.416703000">
  <ele>318.000000</ele>
  <time>2012-02-26T08:56:14Z</time>
  <sat>9</sat>
</trkpt>
<trkpt lat="39.675403000" lon="-0.416705000">
  <ele>317.700000</ele>
  <time>2012-02-26T08:56:15Z</time>
  <sat>9</sat>
</trkpt>
<trkpt lat="39.675325000" lon="-0.416711000">
  <ele>319.300000</ele>
  <time>2012-02-26T08:56:19Z</time>
  <sat>9</sat>
</trkpt>
<trkpt lat="39.675309000" lon="-0.416703000">
  <ele>319.700000</ele>
  <time>2012-02-26T08:56:20Z</time>
  <sat>9</sat>
</trkpt>
<trkpt lat="39.675295000" lon="-0.416692000">
  <ele>319.700000</ele>
  <time>2012-02-26T08:56:21Z</time>
  <sat>9</sat>
</trkpt>
<trkpt lat="39.675269000" lon="-0.416657000">
  <ele>320.200000</ele>
  <time>2012-02-26T08:56:23Z</time>
  <sat>9</sat>
</trkpt>
<trkpt lat="39.675264000" lon="-0.416634000">
  <ele>320.500000</ele>
  <time>2012-02-26T08:56:24Z</time>
  <sat>9</sat>
</trkpt>
<trkpt lat="39.675262000" lon="-0.416611000">
  <ele>320.100000</ele>
  <time>2012-02-26T08:56:25Z</time>
  <sat>9</sat>
</trkpt>
<trkpt lat="39.675264000" lon="-0.416588000">
  <ele>320.000000</ele>
  <time>2012-02-26T08:56:26Z</time>
  <sat>9</sat>
</trkpt>
<trkpt lat="39.675279000" lon="-0.416544000">
  <ele>320.300000</ele>
  <time>2012-02-26T08:56:28Z</time>
  <sat>8</sat>
</trkpt>
<trkpt lat="39.675293000" lon="-0.416528000">
  <ele>320.200000</ele>
  <time>2012-02-26T08:56:29Z</time>
  <sat>8</sat>
</trkpt>
<trkpt lat="39.675313000" lon="-0.416522000">
  <ele>320.600000</ele>
  <time>2012-02-26T08:56:30Z</time>
  <sat>8</sat>
</trkpt>
<trkpt lat="39.675379000" lon="-0.416510000">
  <ele>321.000000</ele>
  <time>2012-02-26T08:56:33Z</time>
  <sat>8</sat>
</trkpt>
<trkpt lat="39.675400000" lon="-0.416512000">
  <ele>320.700000</ele>
  <time>2012-02-26T08:56:34Z</time>
  <sat>8</sat>
</trkpt>
<trkpt lat="39.675526000" lon="-0.416544000">
  <ele>322.000000</ele>
  <time>2012-02-26T08:56:41Z</time>
  <sat>8</sat>
</trkpt>
<trkpt lat="39.675542000" lon="-0.416542000">
  <ele>322.600000</ele>
  <time>2012-02-26T08:56:42Z</time>
  <sat>8</sat>
</trkpt>
<trkpt lat="39.675605000" lon="-0.416564000">
  <ele>323.700000</ele>
  <time>2012-02-26T08:56:46Z</time>
  <sat>8</sat>
</trkpt>
<trkpt lat="39.675622000" lon="-0.416562000">
  <ele>323.800000</ele>
  <time>2012-02-26T08:56:47Z</time>
  <sat>8</sat>
</trkpt>
<trkpt lat="39.675782000" lon="-0.416544000">
  <ele>327.600000</ele>
  <time>2012-02-26T08:56:56Z</time>
  <sat>8</sat>
</trkpt>
<trkpt lat="39.675798000" lon="-0.416540000">
  <ele>327.700000</ele>
  <time>2012-02-26T08:56:57Z</time>
  <sat>8</sat>
</trkpt>
<trkpt lat="39.675866000" lon="-0.416517000">
  <ele>328.200000</ele>
  <time>2012-02-26T08:57:01Z</time>
  <sat>9</sat>
</trkpt>
<trkpt lat="39.675882000" lon="-0.416508000">
  <ele>328.500000</ele>
  <time>2012-02-26T08:57:02Z</time>
  <sat>9</sat>
</trkpt>
<trkpt lat="39.675979000" lon="-0.416444000">
  <ele>329.600000</ele>
  <time>2012-02-26T08:57:08Z</time>
  <sat>8</sat>
</trkpt>
<trkpt lat="39.676078000" lon="-0.416364000">
  <ele>330.200000</ele>
  <time>2012-02-26T08:57:14Z</time>
  <sat>8</sat>
</trkpt>
<trkpt lat="39.676104000" lon="-0.416334000">
  <ele>330.100000</ele>
  <time>2012-02-26T08:57:16Z</time>
  <sat>8</sat>
</trkpt>
<trkpt lat="39.676115000" lon="-0.416319000">
  <ele>330.200000</ele>
  <time>2012-02-26T08:57:17Z</time>
  <sat>8</sat>
</trkpt>
<trkpt lat="39.676201000" lon="-0.416203000">
  <ele>330.200000</ele>
  <time>2012-02-26T08:57:24Z</time>
  <sat>9</sat>
</trkpt>
<trkpt lat="39.676209000" lon="-0.416183000">
  <ele>330.500000</ele>
  <time>2012-02-26T08:57:25Z</time>
  <sat>9</sat>
</trkpt>
<trkpt lat="39.676283000" lon="-0.415989000">
  <ele>332.000000</ele>
  <time>2012-02-26T08:57:34Z</time>
  <sat>9</sat>
</trkpt>
<trkpt lat="39.676288000" lon="-0.415964000">
  <ele>332.200000</ele>
  <time>2012-02-26T08:57:35Z</time>
  <sat>9</sat>
</trkpt>
<trkpt lat="39.676338000" lon="-0.415671000">
  <ele>334.300000</ele>
  <time>2012-02-26T08:57:47Z</time>
  <sat>8</sat>
</trkpt>
<trkpt lat="39.676361000" lon="-0.415522000">
  <ele>335.100000</ele>
  <time>2012-02-26T08:57:53Z</time>
  <sat>8</sat>
</trkpt>
<trkpt lat="39.676362000" lon="-0.415496000">
  <ele>335.300000</ele>
  <time>2012-02-26T08:57:54Z</time>
  <sat>8</sat>
</trkpt>
<trkpt lat="39.676366000" lon="-0.415448000">
  <ele>335.600000</ele>
  <time>2012-02-26T08:57:56Z</time>
  <sat>8</sat>
</trkpt>
<trkpt lat="39.676375000" lon="-0.415271000">
  <ele>336.700000</ele>
  <time>2012-02-26T08:58:03Z</time>
  <sat>8</sat>
</trkpt>
<trkpt lat="39.676381000" lon="-0.415072000">
  <ele>338.500000</ele>
  <time>2012-02-26T08:58:11Z</time>
  <sat>8</sat>
</trkpt>
<trkpt lat="39.676386000" lon="-0.415048000">
  <ele>338.700000</ele>
  <time>2012-02-26T08:58:12Z</time>
  <sat>8</sat>
</trkpt>
<trkpt lat="39.676408000" lon="-0.414980000">
  <ele>339.100000</ele>
  <time>2012-02-26T08:58:15Z</time>
  <sat>8</sat>
</trkpt>
<trkpt lat="39.676447000" lon="-0.414890000">
  <ele>339.300000</ele>
  <time>2012-02-26T08:58:19Z</time>
  <sat>8</sat>
</trkpt>
<trkpt lat="39.676458000" lon="-0.414868000">
  <ele>339.600000</ele>
  <time>2012-02-26T08:58:20Z</time>
  <sat>8</sat>
</trkpt>
<trkpt lat="39.676545000" lon="-0.414610000">
  <ele>341.600000</ele>
  <time>2012-02-26T08:58:31Z</time>
  <sat>8</sat>
</trkpt>
<trkpt lat="39.676563000" lon="-0.414540000">
  <ele>342.200000</ele>
  <time>2012-02-26T08:58:34Z</time>
  <sat>8</sat>
</trkpt>
<trkpt lat="39.676574000" lon="-0.414517000">
  <ele>342.200000</ele>
  <time>2012-02-26T08:58:35Z</time>
  <sat>8</sat>
</trkpt>
<trkpt lat="39.676622000" lon="-0.414434000">
  <ele>343.000000</ele>
  <time>2012-02-26T08:58:39Z</time>
  <sat>9</sat>
</trkpt>
<trkpt lat="39.676635000" lon="-0.414416000">
  <ele>343.200000</ele>
  <time>2012-02-26T08:58:40Z</time>
  <sat>9</sat>
</trkpt>
<trkpt lat="39.676662000" lon="-0.414383000">
  <ele>343.600000</ele>
  <time>2012-02-26T08:58:42Z</time>
  <sat>9</sat>
</trkpt>
<trkpt lat="39.676766000" lon="-0.414248000">
  <ele>344.800000</ele>
  <time>2012-02-26T08:58:50Z</time>
  <sat>8</sat>
</trkpt>
<trkpt lat="39.676824000" lon="-0.414155000">
  <ele>345.700000</ele>
  <time>2012-02-26T08:58:55Z</time>
  <sat>8</sat>
</trkpt>
<trkpt lat="39.676854000" lon="-0.414095000">
  <ele>346.100000</ele>
  <time>2012-02-26T08:58:58Z</time>
  <sat>8</sat>
</trkpt>
<trkpt lat="39.676862000" lon="-0.414073000">
  <ele>346.200000</ele>
  <time>2012-02-26T08:58:59Z</time>
  <sat>8</sat>
</trkpt>
<trkpt lat="39.676890000" lon="-0.413953000">
  <ele>347.100000</ele>
  <time>2012-02-26T08:59:04Z</time>
  <sat>7</sat>
</trkpt>
<trkpt lat="39.676902000" lon="-0.413851000">
  <ele>347.600000</ele>
  <time>2012-02-26T08:59:08Z</time>
  <sat>7</sat>
</trkpt>
<trkpt lat="39.676928000" lon="-0.413578000">
  <ele>349.000000</ele>
  <time>2012-02-26T08:59:19Z</time>
  <sat>5</sat>
</trkpt>
<trkpt lat="39.676930000" lon="-0.413501000">
  <ele>349.300000</ele>
  <time>2012-02-26T08:59:22Z</time>
  <sat>8</sat>
</trkpt>
<trkpt lat="39.676929000" lon="-0.413474000">
  <ele>349.200000</ele>
  <time>2012-02-26T08:59:23Z</time>
  <sat>8</sat>
</trkpt>
<trkpt lat="39.676933000" lon="-0.413450000">
  <ele>349.200000</ele>
  <time>2012-02-26T08:59:24Z</time>
  <sat>8</sat>
</trkpt>
<trkpt lat="39.676967000" lon="-0.413122000">
  <ele>352.100000</ele>
  <time>2012-02-26T08:59:37Z</time>
  <sat>8</sat>
</trkpt>
<trkpt lat="39.676966000" lon="-0.413069000">
  <ele>352.600000</ele>
  <time>2012-02-26T08:59:39Z</time>
  <sat>8</sat>
</trkpt>
<trkpt lat="39.676962000" lon="-0.412960000">
  <ele>353.200000</ele>
  <time>2012-02-26T08:59:43Z</time>
  <sat>8</sat>
</trkpt>
<trkpt lat="39.676962000" lon="-0.412838000">
  <ele>354.000000</ele>
  <time>2012-02-26T08:59:48Z</time>
  <sat>8</sat>
</trkpt>
<trkpt lat="39.676965000" lon="-0.412811000">
  <ele>354.100000</ele>
  <time>2012-02-26T08:59:49Z</time>
  <sat>8</sat>
</trkpt>
<trkpt lat="39.676980000" lon="-0.412713000">
  <ele>355.000000</ele>
  <time>2012-02-26T08:59:53Z</time>
  <sat>8</sat>
</trkpt>
<trkpt lat="39.676987000" lon="-0.412691000">
  <ele>355.200000</ele>
  <time>2012-02-26T08:59:54Z</time>
  <sat>8</sat>
</trkpt>
<trkpt lat="39.677012000" lon="-0.412624000">
  <ele>356.500000</ele>
  <time>2012-02-26T08:59:57Z</time>
  <sat>7</sat>
</trkpt>
<trkpt lat="39.677045000" lon="-0.412562000">
  <ele>357.200000</ele>
  <time>2012-02-26T09:00:00Z</time>
  <sat>7</sat>
</trkpt>
<trkpt lat="39.677120000" lon="-0.412418000">
  <ele>358.700000</ele>
  <time>2012-02-26T09:00:07Z</time>
  <sat>7</sat>
</trkpt>
<trkpt lat="39.677155000" lon="-0.412334000">
  <ele>359.500000</ele>
  <time>2012-02-26T09:00:11Z</time>
  <sat>7</sat>
</trkpt>
<trkpt lat="39.677161000" lon="-0.412313000">
  <ele>359.700000</ele>
  <time>2012-02-26T09:00:12Z</time>
  <sat>7</sat>
</trkpt>
<trkpt lat="39.677181000" lon="-0.412218000">
  <ele>360.700000</ele>
  <time>2012-02-26T09:00:16Z</time>
  <sat>8</sat>
</trkpt>
<trkpt lat="39.677202000" lon="-0.412145000">
  <ele>361.100000</ele>
  <time>2012-02-26T09:00:19Z</time>
  <sat>7</sat>
</trkpt>
<trkpt lat="39.677219000" lon="-0.412100000">
  <ele>361.700000</ele>
  <time>2012-02-26T09:00:21Z</time>
  <sat>7</sat>
</trkpt>
<trkpt lat="39.677229000" lon="-0.412080000">
  <ele>361.700000</ele>
  <time>2012-02-26T09:00:22Z</time>
  <sat>7</sat>
</trkpt>
<trkpt lat="39.677284000" lon="-0.411982000">
  <ele>362.000000</ele>
  <time>2012-02-26T09:00:27Z</time>
  <sat>8</sat>
</trkpt>
<trkpt lat="39.677296000" lon="-0.411965000">
  <ele>362.200000</ele>
  <time>2012-02-26T09:00:28Z</time>
  <sat>8</sat>
</trkpt>
<trkpt lat="39.677310000" lon="-0.411951000">
  <ele>362.200000</ele>
  <time>2012-02-26T09:00:29Z</time>
  <sat>8</sat>
</trkpt>
<trkpt lat="39.677372000" lon="-0.411892000">
  <ele>363.500000</ele>
  <time>2012-02-26T09:00:33Z</time>
  <sat>8</sat>
</trkpt>
<trkpt lat="39.677480000" lon="-0.411785000">
  <ele>365.200000</ele>
  <time>2012-02-26T09:00:41Z</time>
  <sat>8</sat>
</trkpt>
<trkpt lat="39.677486000" lon="-0.411768000">
  <ele>365.300000</ele>
  <time>2012-02-26T09:00:42Z</time>
  <sat>9</sat>
</trkpt>
<trkpt lat="39.677496000" lon="-0.411750000">
  <ele>365.700000</ele>
  <time>2012-02-26T09:00:43Z</time>
  <sat>9</sat>
</trkpt>
<trkpt lat="39.677567000" lon="-0.411577000">
  <ele>366.700000</ele>
  <time>2012-02-26T09:00:52Z</time>
  <sat>9</sat>
</trkpt>
<trkpt lat="39.677589000" lon="-0.411513000">
  <ele>367.200000</ele>
  <time>2012-02-26T09:00:55Z</time>
  <sat>9</sat>
</trkpt>
<trkpt lat="39.677592000" lon="-0.411491000">
  <ele>367.500000</ele>
  <time>2012-02-26T09:00:56Z</time>
  <sat>9</sat>
</trkpt>
<trkpt lat="39.677599000" lon="-0.411449000">
  <ele>367.500000</ele>
  <time>2012-02-26T09:00:58Z</time>
  <sat>6</sat>
</trkpt>
<trkpt lat="39.677606000" lon="-0.411429000">
  <ele>367.700000</ele>
  <time>2012-02-26T09:00:59Z</time>
  <sat>6</sat>
</trkpt>
<trkpt lat="39.677647000" lon="-0.411299000">
  <ele>368.700000</ele>
  <time>2012-02-26T09:01:05Z</time>
  <sat>6</sat>
</trkpt>
<trkpt lat="39.677681000" lon="-0.411190000">
  <ele>369.300000</ele>
  <time>2012-02-26T09:01:10Z</time>
  <sat>9</sat>
</trkpt>
<trkpt lat="39.677681000" lon="-0.411165000">
  <ele>369.600000</ele>
  <time>2012-02-26T09:01:11Z</time>
  <sat>9</sat>
</trkpt>
<trkpt lat="39.677692000" lon="-0.411070000">
  <ele>370.100000</ele>
  <time>2012-02-26T09:01:15Z</time>
  <sat>9</sat>
</trkpt>
<trkpt lat="39.677710000" lon="-0.410979000">
  <ele>371.200000</ele>
  <time>2012-02-26T09:01:19Z</time>
  <sat>8</sat>
</trkpt>
<trkpt lat="39.677725000" lon="-0.410911000">
  <ele>371.700000</ele>
  <time>2012-02-26T09:01:22Z</time>
  <sat>8</sat>
</trkpt>
<trkpt lat="39.677729000" lon="-0.410887000">
  <ele>371.700000</ele>
  <time>2012-02-26T09:01:23Z</time>
  <sat>8</sat>
</trkpt>
<trkpt lat="39.677738000" lon="-0.410840000">
  <ele>371.700000</ele>
  <time>2012-02-26T09:01:25Z</time>
  <sat>8</sat>
</trkpt>
<trkpt lat="39.677747000" lon="-0.410817000">
  <ele>372.000000</ele>
  <time>2012-02-26T09:01:26Z</time>
  <sat>8</sat>
</trkpt>
<trkpt lat="39.677757000" lon="-0.410796000">
  <ele>372.000000</ele>
  <time>2012-02-26T09:01:27Z</time>
  <sat>8</sat>
</trkpt>
<trkpt lat="39.677791000" lon="-0.410741000">
  <ele>372.300000</ele>
  <time>2012-02-26T09:01:30Z</time>
  <sat>8</sat>
</trkpt>
<trkpt lat="39.677803000" lon="-0.410723000">
  <ele>372.700000</ele>
  <time>2012-02-26T09:01:31Z</time>
  <sat>8</sat>
</trkpt>
<trkpt lat="39.677899000" lon="-0.410588000">
  <ele>374.000000</ele>
  <time>2012-02-26T09:01:39Z</time>
  <sat>8</sat>
</trkpt>
<trkpt lat="39.677921000" lon="-0.410550000">
  <ele>374.300000</ele>
  <time>2012-02-26T09:01:41Z</time>
  <sat>8</sat>
</trkpt>
<trkpt lat="39.677929000" lon="-0.410526000">
  <ele>374.600000</ele>
  <time>2012-02-26T09:01:42Z</time>
  <sat>8</sat>
</trkpt>
<trkpt lat="39.677933000" lon="-0.410501000">
  <ele>374.700000</ele>
  <time>2012-02-26T09:01:43Z</time>
  <sat>8</sat>
</trkpt>
<trkpt lat="39.677935000" lon="-0.410408000">
  <ele>374.700000</ele>
  <time>2012-02-26T09:01:47Z</time>
  <sat>8</sat>
</trkpt>
<trkpt lat="39.677926000" lon="-0.410387000">
  <ele>374.000000</ele>
  <time>2012-02-26T09:01:48Z</time>
  <sat>8</sat>
</trkpt>
<trkpt lat="39.677889000" lon="-0.410360000">
  <ele>373.300000</ele>
  <time>2012-02-26T09:01:51Z</time>
  <sat>8</sat>
</trkpt>
<trkpt lat="39.677870000" lon="-0.410361000">
  <ele>373.600000</ele>
  <time>2012-02-26T09:01:52Z</time>
  <sat>8</sat>
</trkpt>
<trkpt lat="39.677795000" lon="-0.410388000">
  <ele>373.800000</ele>
  <time>2012-02-26T09:01:56Z</time>
  <sat>8</sat>
</trkpt>
<trkpt lat="39.677777000" lon="-0.410406000">
  <ele>374.200000</ele>
  <time>2012-02-26T09:01:57Z</time>
  <sat>8</sat>
</trkpt>
<trkpt lat="39.677739000" lon="-0.410434000">
  <ele>374.600000</ele>
  <time>2012-02-26T09:01:59Z</time>
  <sat>8</sat>
</trkpt>
<trkpt lat="39.677725000" lon="-0.410451000">
  <ele>375.000000</ele>
  <time>2012-02-26T09:02:00Z</time>
  <sat>8</sat>
</trkpt>
<trkpt lat="39.677657000" lon="-0.410519000">
  <ele>376.500000</ele>
  <time>2012-02-26T09:02:04Z</time>
  <sat>8</sat>
</trkpt>
<trkpt lat="39.677641000" lon="-0.410529000">
  <ele>377.200000</ele>
  <time>2012-02-26T09:02:05Z</time>
  <sat>8</sat>
</trkpt>
<trkpt lat="39.677538000" lon="-0.410599000">
  <ele>379.000000</ele>
  <time>2012-02-26T09:02:11Z</time>
  <sat>8</sat>
</trkpt>
<trkpt lat="39.677526000" lon="-0.410610000">
  <ele>379.000000</ele>
  <time>2012-02-26T09:02:12Z</time>
  <sat>8</sat>
</trkpt>
<trkpt lat="39.677509000" lon="-0.410619000">
  <ele>378.700000</ele>
  <time>2012-02-26T09:02:13Z</time>
  <sat>8</sat>
</trkpt>
<trkpt lat="39.677459000" lon="-0.410645000">
  <ele>378.700000</ele>
  <time>2012-02-26T09:02:16Z</time>
  <sat>8</sat>
</trkpt>
<trkpt lat="39.677441000" lon="-0.410652000">
  <ele>378.700000</ele>
  <time>2012-02-26T09:02:17Z</time>
  <sat>8</sat>
</trkpt>
<trkpt lat="39.677312000" lon="-0.410720000">
  <ele>382.200000</ele>
  <time>2012-02-26T09:03:13Z</time>
  <sat>8</sat>
</trkpt>
<trkpt lat="39.677293000" lon="-0.410713000">
  <ele>382.200000</ele>
  <time>2012-02-26T09:03:14Z</time>
  <sat>8</sat>
</trkpt>
<trkpt lat="39.677278000" lon="-0.410710000">
  <ele>382.300000</ele>
  <time>2012-02-26T09:03:15Z</time>
  <sat>8</sat>
</trkpt>
<trkpt lat="39.677265000" lon="-0.410711000">
  <ele>382.300000</ele>
  <time>2012-02-26T09:03:16Z</time>
  <sat>8</sat>
</trkpt>
<trkpt lat="39.677200000" lon="-0.410722000">
  <ele>381.700000</ele>
  <time>2012-02-26T09:03:20Z</time>
  <sat>8</sat>
</trkpt>
<trkpt lat="39.677179000" lon="-0.410721000">
  <ele>381.700000</ele>
  <time>2012-02-26T09:03:21Z</time>
  <sat>7</sat>
</trkpt>
<trkpt lat="39.677158000" lon="-0.410716000">
  <ele>382.000000</ele>
  <time>2012-02-26T09:03:22Z</time>
  <sat>6</sat>
</trkpt>
<trkpt lat="39.677136000" lon="-0.410712000">
  <ele>381.800000</ele>
  <time>2012-02-26T09:03:23Z</time>
  <sat>9</sat>
</trkpt>
<trkpt lat="39.677117000" lon="-0.410701000">
  <ele>382.100000</ele>
  <time>2012-02-26T09:03:24Z</time>
  <sat>9</sat>
</trkpt>
<trkpt lat="39.677078000" lon="-0.410667000">
  <ele>382.200000</ele>
  <time>2012-02-26T09:03:26Z</time>
  <sat>9</sat>
</trkpt>
<trkpt lat="39.677045000" lon="-0.410621000">
  <ele>382.000000</ele>
  <time>2012-02-26T09:03:28Z</time>
  <sat>9</sat>
</trkpt>
<trkpt lat="39.677031000" lon="-0.410591000">
  <ele>381.800000</ele>
  <time>2012-02-26T09:03:29Z</time>
  <sat>9</sat>
</trkpt>
<trkpt lat="39.677019000" lon="-0.410553000">
  <ele>381.800000</ele>
  <time>2012-02-26T09:03:30Z</time>
  <sat>9</sat>
</trkpt>
<trkpt lat="39.676992000" lon="-0.410457000">
  <ele>381.600000</ele>
  <time>2012-02-26T09:03:33Z</time>
  <sat>7</sat>
</trkpt>
<trkpt lat="39.676977000" lon="-0.410381000">
  <ele>381.500000</ele>
  <time>2012-02-26T09:03:35Z</time>
  <sat>7</sat>
</trkpt>
<trkpt lat="39.676970000" lon="-0.410299000">
  <ele>380.700000</ele>
  <time>2012-02-26T09:03:37Z</time>
  <sat>8</sat>
</trkpt>
<trkpt lat="39.676952000" lon="-0.410101000">
  <ele>380.000000</ele>
  <time>2012-02-26T09:03:43Z</time>
  <sat>8</sat>
</trkpt>
<trkpt lat="39.676954000" lon="-0.410114000">
  <ele>380.200000</ele>
  <time>2012-02-26T09:03:44Z</time>
  <sat>8</sat>
</trkpt>
<trkpt lat="39.676952000" lon="-0.410117000">
  <ele>379.800000</ele>
  <time>2012-02-26T09:03:45Z</time>
  <sat>8</sat>
</trkpt>
<trkpt lat="39.676952000" lon="-0.410118000">
  <ele>379.700000</ele>
  <time>2012-02-26T09:03:46Z</time>
  <sat>8</sat>
</trkpt>
<trkpt lat="39.676951000" lon="-0.410119000">
  <ele>379.600000</ele>
  <time>2012-02-26T09:03:47Z</time>
  <sat>8</sat>
</trkpt>
<trkpt lat="39.676950000" lon="-0.410120000">
  <ele>379.700000</ele>
  <time>2012-02-26T09:03:48Z</time>
  <sat>8</sat>
</trkpt>
<trkpt lat="39.676951000" lon="-0.410119000">
  <ele>379.700000</ele>
  <time>2012-02-26T09:03:49Z</time>
  <sat>8</sat>
</trkpt>
<trkpt lat="39.676951000" lon="-0.410119000">
  <ele>379.700000</ele>
  <time>2012-02-26T09:03:50Z</time>
  <sat>8</sat>
</trkpt>
<trkpt lat="39.676951000" lon="-0.410119000">
  <ele>379.700000</ele>
  <time>2012-02-26T09:03:51Z</time>
  <sat>8</sat>
</trkpt>
<trkpt lat="39.676954000" lon="-0.410106000">
  <ele>379.800000</ele>
  <time>2012-02-26T09:03:52Z</time>
  <sat>8</sat>
</trkpt>
<trkpt lat="39.676949000" lon="-0.410072000">
  <ele>380.000000</ele>
  <time>2012-02-26T09:03:53Z</time>
  <sat>8</sat>
</trkpt>
<trkpt lat="39.676926000" lon="-0.409992000">
  <ele>381.200000</ele>
  <time>2012-02-26T09:03:56Z</time>
  <sat>8</sat>
</trkpt>
<trkpt lat="39.676917000" lon="-0.409966000">
  <ele>381.600000</ele>
  <time>2012-02-26T09:03:57Z</time>
  <sat>8</sat>
</trkpt>
<trkpt lat="39.676907000" lon="-0.409904000">
  <ele>381.700000</ele>
  <time>2012-02-26T09:03:59Z</time>
  <sat>8</sat>
</trkpt>
<trkpt lat="39.676852000" lon="-0.409585000">
  <ele>383.700000</ele>
  <time>2012-02-26T09:04:10Z</time>
  <sat>8</sat>
</trkpt>
<trkpt lat="39.676851000" lon="-0.409558000">
  <ele>383.800000</ele>
  <time>2012-02-26T09:04:11Z</time>
  <sat>8</sat>
</trkpt>
<trkpt lat="39.676832000" lon="-0.409287000">
  <ele>385.700000</ele>
  <time>2012-02-26T09:04:20Z</time>
  <sat>8</sat>
</trkpt>
<trkpt lat="39.676835000" lon="-0.409258000">
  <ele>386.100000</ele>
  <time>2012-02-26T09:04:21Z</time>
  <sat>8</sat>
</trkpt>
<trkpt lat="39.676839000" lon="-0.409178000">
  <ele>387.200000</ele>
  <time>2012-02-26T09:04:24Z</time>
  <sat>8</sat>
</trkpt>
<trkpt lat="39.676839000" lon="-0.409095000">
  <ele>387.200000</ele>
  <time>2012-02-26T09:04:27Z</time>
  <sat>8</sat>
</trkpt>
<trkpt lat="39.676833000" lon="-0.407735000">
  <ele>395.200000</ele>
  <time>2012-02-26T09:05:16Z</time>
  <sat>8</sat>
</trkpt>
<trkpt lat="39.676839000" lon="-0.407677000">
  <ele>395.500000</ele>
  <time>2012-02-26T09:05:18Z</time>
  <sat>8</sat>
</trkpt>
<trkpt lat="39.676887000" lon="-0.407168000">
  <ele>397.000000</ele>
  <time>2012-02-26T09:05:36Z</time>
  <sat>8</sat>
</trkpt>
<trkpt lat="39.676886000" lon="-0.407141000">
  <ele>397.100000</ele>
  <time>2012-02-26T09:05:37Z</time>
  <sat>8</sat>
</trkpt>
<trkpt lat="39.676876000" lon="-0.407059000">
  <ele>398.000000</ele>
  <time>2012-02-26T09:05:40Z</time>
  <sat>8</sat>
</trkpt>
<trkpt lat="39.676835000" lon="-0.406834000">
  <ele>399.300000</ele>
  <time>2012-02-26T09:05:48Z</time>
  <sat>8</sat>
</trkpt>
<trkpt lat="39.676794000" lon="-0.406635000">
  <ele>399.700000</ele>
  <time>2012-02-26T09:05:56Z</time>
  <sat>8</sat>
</trkpt>
<trkpt lat="39.676736000" lon="-0.406469000">
  <ele>399.200000</ele>
  <time>2012-02-26T09:06:02Z</time>
  <sat>8</sat>
</trkpt>
<trkpt lat="39.676531000" lon="-0.405987000">
  <ele>402.300000</ele>
  <time>2012-02-26T09:06:22Z</time>
  <sat>8</sat>
</trkpt>
<trkpt lat="39.676420000" lon="-0.405791000">
  <ele>404.500000</ele>
  <time>2012-02-26T09:06:30Z</time>
  <sat>8</sat>
</trkpt>
<trkpt lat="39.676284000" lon="-0.405592000">
  <ele>405.500000</ele>
  <time>2012-02-26T09:06:39Z</time>
  <sat>8</sat>
</trkpt>
<trkpt lat="39.676267000" lon="-0.405570000">
  <ele>405.500000</ele>
  <time>2012-02-26T09:06:40Z</time>
  <sat>8</sat>
</trkpt>
<trkpt lat="39.676231000" lon="-0.405534000">
  <ele>406.600000</ele>
  <time>2012-02-26T09:06:42Z</time>
  <sat>8</sat>
</trkpt>
<trkpt lat="39.676145000" lon="-0.405488000">
  <ele>407.200000</ele>
  <time>2012-02-26T09:06:46Z</time>
  <sat>8</sat>
</trkpt>
<trkpt lat="39.676119000" lon="-0.405485000">
  <ele>407.600000</ele>
  <time>2012-02-26T09:06:47Z</time>
  <sat>8</sat>
</trkpt>
<trkpt lat="39.676079000" lon="-0.405488000">
  <ele>407.200000</ele>
  <time>2012-02-26T09:06:49Z</time>
  <sat>8</sat>
</trkpt>
<trkpt lat="39.675970000" lon="-0.405516000">
  <ele>407.200000</ele>
  <time>2012-02-26T09:06:54Z</time>
  <sat>8</sat>
</trkpt>
<trkpt lat="39.675862000" lon="-0.405557000">
  <ele>407.200000</ele>
  <time>2012-02-26T09:06:59Z</time>
  <sat>8</sat>
</trkpt>
<trkpt lat="39.675610000" lon="-0.405640000">
  <ele>407.000000</ele>
  <time>2012-02-26T09:07:10Z</time>
  <sat>8</sat>
</trkpt>
<trkpt lat="39.675588000" lon="-0.405644000">
  <ele>407.000000</ele>
  <time>2012-02-26T09:07:11Z</time>
  <sat>8</sat>
</trkpt>
<trkpt lat="39.675522000" lon="-0.405661000">
  <ele>407.200000</ele>
  <time>2012-02-26T09:07:14Z</time>
  <sat>9</sat>
</trkpt>
<trkpt lat="39.675225000" lon="-0.405755000">
  <ele>411.300000</ele>
  <time>2012-02-26T09:07:28Z</time>
  <sat>8</sat>
</trkpt>
<trkpt lat="39.675164000" lon="-0.405778000">
  <ele>412.000000</ele>
  <time>2012-02-26T09:07:31Z</time>
  <sat>8</sat>
</trkpt>
<trkpt lat="39.674884000" lon="-0.405915000">
  <ele>415.700000</ele>
  <time>2012-02-26T09:07:45Z</time>
  <sat>7</sat>
</trkpt>
<trkpt lat="39.674880000" lon="-0.405937000">
  <ele>417.700000</ele>
  <time>2012-02-26T09:07:46Z</time>
  <sat>8</sat>
</trkpt>
<trkpt lat="39.674847000" lon="-0.405963000">
  <ele>419.800000</ele>
  <time>2012-02-26T09:07:47Z</time>
  <sat>8</sat>
</trkpt>
<trkpt lat="39.674743000" lon="-0.406060000">
  <ele>421.200000</ele>
  <time>2012-02-26T09:07:52Z</time>
  <sat>8</sat>
</trkpt>
<trkpt lat="39.674563000" lon="-0.406268000">
  <ele>423.700000</ele>
  <time>2012-02-26T09:08:03Z</time>
  <sat>8</sat>
</trkpt>
<trkpt lat="39.674548000" lon="-0.406274000">
  <ele>423.700000</ele>
  <time>2012-02-26T09:08:04Z</time>
  <sat>8</sat>
</trkpt>
<trkpt lat="39.674528000" lon="-0.406272000">
  <ele>423.200000</ele>
  <time>2012-02-26T09:08:05Z</time>
  <sat>8</sat>
</trkpt>
<trkpt lat="39.674492000" lon="-0.406249000">
  <ele>423.200000</ele>
  <time>2012-02-26T09:08:07Z</time>
  <sat>8</sat>
</trkpt>
<trkpt lat="39.674487000" lon="-0.406224000">
  <ele>423.600000</ele>
  <time>2012-02-26T09:08:08Z</time>
  <sat>8</sat>
</trkpt>
<trkpt lat="39.674480000" lon="-0.406201000">
  <ele>423.700000</ele>
  <time>2012-02-26T09:08:09Z</time>
  <sat>8</sat>
</trkpt>
<trkpt lat="39.674487000" lon="-0.406157000">
  <ele>424.000000</ele>
  <time>2012-02-26T09:08:11Z</time>
  <sat>8</sat>
</trkpt>
<trkpt lat="39.674493000" lon="-0.406138000">
  <ele>424.300000</ele>
  <time>2012-02-26T09:08:12Z</time>
  <sat>8</sat>
</trkpt>
<trkpt lat="39.674574000" lon="-0.405968000">
  <ele>426.200000</ele>
  <time>2012-02-26T09:08:22Z</time>
  <sat>8</sat>
</trkpt>
<trkpt lat="39.674633000" lon="-0.405869000">
  <ele>427.200000</ele>
  <time>2012-02-26T09:08:29Z</time>
  <sat>8</sat>
</trkpt>
<trkpt lat="39.674651000" lon="-0.405835000">
  <ele>427.700000</ele>
  <time>2012-02-26T09:08:31Z</time>
  <sat>8</sat>
</trkpt>
<trkpt lat="39.674690000" lon="-0.405751000">
  <ele>429.500000</ele>
  <time>2012-02-26T09:08:36Z</time>
  <sat>8</sat>
</trkpt>
<trkpt lat="39.674731000" lon="-0.405667000">
  <ele>430.600000</ele>
  <time>2012-02-26T09:08:41Z</time>
  <sat>8</sat>
</trkpt>
<trkpt lat="39.674735000" lon="-0.405652000">
  <ele>430.300000</ele>
  <time>2012-02-26T09:08:42Z</time>
  <sat>8</sat>
</trkpt>
<trkpt lat="39.674743000" lon="-0.405638000">
  <ele>430.600000</ele>
  <time>2012-02-26T09:08:43Z</time>
  <sat>8</sat>
</trkpt>
<trkpt lat="39.674811000" lon="-0.405517000">
  <ele>433.700000</ele>
  <time>2012-02-26T09:08:50Z</time>
  <sat>8</sat>
</trkpt>
<trkpt lat="39.674819000" lon="-0.405499000">
  <ele>434.000000</ele>
  <time>2012-02-26T09:08:51Z</time>
  <sat>8</sat>
</trkpt>
<trkpt lat="39.674883000" lon="-0.405397000">
  <ele>436.100000</ele>
  <time>2012-02-26T09:08:58Z</time>
  <sat>8</sat>
</trkpt>
<trkpt lat="39.674888000" lon="-0.405381000">
  <ele>435.800000</ele>
  <time>2012-02-26T09:08:59Z</time>
  <sat>8</sat>
</trkpt>
<trkpt lat="39.674894000" lon="-0.405366000">
  <ele>436.100000</ele>
  <time>2012-02-26T09:09:00Z</time>
  <sat>8</sat>
</trkpt>
<trkpt lat="39.674919000" lon="-0.405318000">
  <ele>436.500000</ele>
  <time>2012-02-26T09:09:04Z</time>
  <sat>8</sat>
</trkpt>
<trkpt lat="39.674926000" lon="-0.405276000">
  <ele>436.500000</ele>
  <time>2012-02-26T09:09:06Z</time>
  <sat>8</sat>
</trkpt>
<trkpt lat="39.674934000" lon="-0.405258000">
  <ele>437.800000</ele>
  <time>2012-02-26T09:09:07Z</time>
  <sat>8</sat>
</trkpt>
<trkpt lat="39.674953000" lon="-0.405230000">
  <ele>438.200000</ele>
  <time>2012-02-26T09:09:09Z</time>
  <sat>8</sat>
</trkpt>
<trkpt lat="39.675006000" lon="-0.405165000">
  <ele>440.200000</ele>
  <time>2012-02-26T09:09:14Z</time>
  <sat>8</sat>
</trkpt>
<trkpt lat="39.675116000" lon="-0.405055000">
  <ele>442.800000</ele>
  <time>2012-02-26T09:09:23Z</time>
  <sat>8</sat>
</trkpt>
<trkpt lat="39.675288000" lon="-0.404776000">
  <ele>443.100000</ele>
  <time>2012-02-26T09:09:41Z</time>
  <sat>8</sat>
</trkpt>
<trkpt lat="39.675328000" lon="-0.404775000">
  <ele>445.000000</ele>
  <time>2012-02-26T09:09:42Z</time>
  <sat>8</sat>
</trkpt>
<trkpt lat="39.675335000" lon="-0.404766000">
  <ele>445.700000</ele>
  <time>2012-02-26T09:09:43Z</time>
  <sat>8</sat>
</trkpt>
<trkpt lat="39.675362000" lon="-0.404743000">
  <ele>446.600000</ele>
  <time>2012-02-26T09:09:45Z</time>
  <sat>8</sat>
</trkpt>
<trkpt lat="39.675375000" lon="-0.404725000">
  <ele>446.800000</ele>
  <time>2012-02-26T09:09:46Z</time>
  <sat>8</sat>
</trkpt>
<trkpt lat="39.675380000" lon="-0.404710000">
  <ele>447.000000</ele>
  <time>2012-02-26T09:09:47Z</time>
  <sat>8</sat>
</trkpt>
<trkpt lat="39.675447000" lon="-0.404531000">
  <ele>449.500000</ele>
  <time>2012-02-26T09:09:57Z</time>
  <sat>8</sat>
</trkpt>
<trkpt lat="39.675451000" lon="-0.404516000">
  <ele>449.100000</ele>
  <time>2012-02-26T09:09:58Z</time>
  <sat>8</sat>
</trkpt>
<trkpt lat="39.675460000" lon="-0.404501000">
  <ele>449.100000</ele>
  <time>2012-02-26T09:09:59Z</time>
  <sat>8</sat>
</trkpt>
<trkpt lat="39.675497000" lon="-0.404437000">
  <ele>451.500000</ele>
  <time>2012-02-26T09:10:03Z</time>
  <sat>8</sat>
</trkpt>
<trkpt lat="39.675528000" lon="-0.404386000">
  <ele>452.600000</ele>
  <time>2012-02-26T09:10:06Z</time>
  <sat>8</sat>
</trkpt>
<trkpt lat="39.675541000" lon="-0.404376000">
  <ele>452.700000</ele>
  <time>2012-02-26T09:10:07Z</time>
  <sat>8</sat>
</trkpt>
<trkpt lat="39.675552000" lon="-0.404362000">
  <ele>453.000000</ele>
  <time>2012-02-26T09:10:08Z</time>
  <sat>8</sat>
</trkpt>
<trkpt lat="39.675575000" lon="-0.404341000">
  <ele>453.500000</ele>
  <time>2012-02-26T09:10:10Z</time>
  <sat>8</sat>
</trkpt>
<trkpt lat="39.675586000" lon="-0.404336000">
  <ele>453.700000</ele>
  <time>2012-02-26T09:10:11Z</time>
  <sat>8</sat>
</trkpt>
<trkpt lat="39.675595000" lon="-0.404339000">
  <ele>453.700000</ele>
  <time>2012-02-26T09:10:36Z</time>
  <sat>9</sat>
</trkpt>
<trkpt lat="39.675602000" lon="-0.404327000">
  <ele>453.800000</ele>
  <time>2012-02-26T09:10:37Z</time>
  <sat>7</sat>
</trkpt>
<trkpt lat="39.675616000" lon="-0.404308000">
  <ele>453.600000</ele>
  <time>2012-02-26T09:10:38Z</time>
  <sat>8</sat>
</trkpt>
<trkpt lat="39.675653000" lon="-0.404279000">
  <ele>453.600000</ele>
  <time>2012-02-26T09:10:40Z</time>
  <sat>8</sat>
</trkpt>
<trkpt lat="39.675785000" lon="-0.404171000">
  <ele>452.600000</ele>
  <time>2012-02-26T09:10:46Z</time>
  <sat>7</sat>
</trkpt>
<trkpt lat="39.675817000" lon="-0.404152000">
  <ele>452.500000</ele>
  <time>2012-02-26T09:10:47Z</time>
  <sat>7</sat>
</trkpt>
<trkpt lat="39.676066000" lon="-0.404006000">
  <ele>453.300000</ele>
  <time>2012-02-26T09:10:56Z</time>
  <sat>5</sat>
</trkpt>
<trkpt lat="39.676105000" lon="-0.403990000">
  <ele>454.500000</ele>
  <time>2012-02-26T09:10:58Z</time>
  <sat>6</sat>
</trkpt>
<trkpt lat="39.676125000" lon="-0.403976000">
  <ele>455.000000</ele>
  <time>2012-02-26T09:10:59Z</time>
  <sat>6</sat>
</trkpt>
<trkpt lat="39.676140000" lon="-0.403960000">
  <ele>455.200000</ele>
  <time>2012-02-26T09:11:00Z</time>
  <sat>7</sat>
</trkpt>
<trkpt lat="39.676203000" lon="-0.403869000">
  <ele>455.800000</ele>
  <time>2012-02-26T09:11:05Z</time>
  <sat>9</sat>
</trkpt>
<trkpt lat="39.676223000" lon="-0.403832000">
  <ele>456.700000</ele>
  <time>2012-02-26T09:11:07Z</time>
  <sat>9</sat>
</trkpt>
<trkpt lat="39.676231000" lon="-0.403816000">
  <ele>457.200000</ele>
  <time>2012-02-26T09:11:08Z</time>
  <sat>9</sat>
</trkpt>
<trkpt lat="39.676252000" lon="-0.403785000">
  <ele>457.300000</ele>
  <time>2012-02-26T09:11:10Z</time>
  <sat>10</sat>
</trkpt>
<trkpt lat="39.676285000" lon="-0.403739000">
  <ele>457.300000</ele>
  <time>2012-02-26T09:11:13Z</time>
  <sat>10</sat>
</trkpt>
<trkpt lat="39.676301000" lon="-0.403725000">
  <ele>457.300000</ele>
  <time>2012-02-26T09:11:14Z</time>
  <sat>10</sat>
</trkpt>
<trkpt lat="39.676321000" lon="-0.403713000">
  <ele>457.500000</ele>
  <time>2012-02-26T09:11:15Z</time>
  <sat>10</sat>
</trkpt>
<trkpt lat="39.678026000" lon="-0.403783000">
  <ele>430.000000</ele>
  <time>2012-02-26T09:11:48Z</time>
  <sat>9</sat>
</trkpt>
<trkpt lat="39.678065000" lon="-0.403784000">
  <ele>431.700000</ele>
  <time>2012-02-26T09:11:49Z</time>
  <sat>8</sat>
</trkpt>
<trkpt lat="39.678113000" lon="-0.403776000">
  <ele>432.000000</ele>
  <time>2012-02-26T09:11:50Z</time>
  <sat>8</sat>
</trkpt>
<trkpt lat="39.678379000" lon="-0.403731000">
  <ele>428.200000</ele>
  <time>2012-02-26T09:11:57Z</time>
  <sat>8</sat>
</trkpt>
<trkpt lat="39.678417000" lon="-0.403736000">
  <ele>427.100000</ele>
  <time>2012-02-26T09:11:58Z</time>
  <sat>8</sat>
</trkpt>
<trkpt lat="39.678517000" lon="-0.403792000">
  <ele>426.000000</ele>
  <time>2012-02-26T09:12:00Z</time>
  <sat>8</sat>
</trkpt>
<trkpt lat="39.678558000" lon="-0.403867000">
  <ele>426.700000</ele>
  <time>2012-02-26T09:12:01Z</time>
  <sat>8</sat>
</trkpt>
<trkpt lat="39.678821000" lon="-0.404342000">
  <ele>423.500000</ele>
  <time>2012-02-26T09:12:08Z</time>
  <sat>8</sat>
</trkpt>
<trkpt lat="39.678865000" lon="-0.404367000">
  <ele>423.600000</ele>
  <time>2012-02-26T09:12:09Z</time>
  <sat>8</sat>
</trkpt>
<trkpt lat="39.678925000" lon="-0.404361000">
  <ele>423.500000</ele>
  <time>2012-02-26T09:12:10Z</time>
  <sat>8</sat>
</trkpt>
<trkpt lat="39.678981000" lon="-0.404343000">
  <ele>423.300000</ele>
  <time>2012-02-26T09:12:11Z</time>
  <sat>8</sat>
</trkpt>
<trkpt lat="39.679035000" lon="-0.404307000">
  <ele>423.200000</ele>
  <time>2012-02-26T09:12:12Z</time>
  <sat>8</sat>
</trkpt>
<trkpt lat="39.679083000" lon="-0.404265000">
  <ele>422.700000</ele>
  <time>2012-02-26T09:12:13Z</time>
  <sat>8</sat>
</trkpt>
<trkpt lat="39.679227000" lon="-0.404134000">
  <ele>422.100000</ele>
  <time>2012-02-26T09:12:16Z</time>
  <sat>8</sat>
</trkpt>
<trkpt lat="39.679282000" lon="-0.404098000">
  <ele>422.000000</ele>
  <time>2012-02-26T09:12:17Z</time>
  <sat>8</sat>
</trkpt>
<trkpt lat="39.679425000" lon="-0.404010000">
  <ele>420.200000</ele>
  <time>2012-02-26T09:12:20Z</time>
  <sat>8</sat>
</trkpt>
<trkpt lat="39.679479000" lon="-0.403991000">
  <ele>420.100000</ele>
  <time>2012-02-26T09:12:21Z</time>
  <sat>8</sat>
</trkpt>
<trkpt lat="39.679534000" lon="-0.403980000">
  <ele>420.000000</ele>
  <time>2012-02-26T09:12:22Z</time>
  <sat>8</sat>
</trkpt>
<trkpt lat="39.679587000" lon="-0.403979000">
  <ele>420.000000</ele>
  <time>2012-02-26T09:12:23Z</time>
  <sat>8</sat>
</trkpt>
<trkpt lat="39.679634000" lon="-0.403986000">
  <ele>419.700000</ele>
  <time>2012-02-26T09:12:24Z</time>
  <sat>8</sat>
</trkpt>
<trkpt lat="39.679957000" lon="-0.404030000">
  <ele>419.300000</ele>
  <time>2012-02-26T09:12:31Z</time>
  <sat>8</sat>
</trkpt>
<trkpt lat="39.680000000" lon="-0.404027000">
  <ele>419.600000</ele>
  <time>2012-02-26T09:12:32Z</time>
  <sat>8</sat>
</trkpt>
<trkpt lat="39.680113000" lon="-0.404024000">
  <ele>420.200000</ele>
  <time>2012-02-26T09:12:35Z</time>
  <sat>8</sat>
</trkpt>
<trkpt lat="39.680150000" lon="-0.404025000">
  <ele>420.100000</ele>
  <time>2012-02-26T09:12:36Z</time>
  <sat>8</sat>
</trkpt>
<trkpt lat="39.680459000" lon="-0.404029000">
  <ele>421.000000</ele>
  <time>2012-02-26T09:12:44Z</time>
  <sat>8</sat>
</trkpt>
<trkpt lat="39.680493000" lon="-0.404024000">
  <ele>421.000000</ele>
  <time>2012-02-26T09:12:45Z</time>
  <sat>8</sat>
</trkpt>
<trkpt lat="39.680668000" lon="-0.403994000">
  <ele>422.200000</ele>
  <time>2012-02-26T09:12:53Z</time>
  <sat>8</sat>
</trkpt>
<trkpt lat="39.680692000" lon="-0.403997000">
  <ele>422.600000</ele>
  <time>2012-02-26T09:12:54Z</time>
  <sat>8</sat>
</trkpt>
<trkpt lat="39.680713000" lon="-0.404002000">
  <ele>422.700000</ele>
  <time>2012-02-26T09:12:55Z</time>
  <sat>8</sat>
</trkpt>
<trkpt lat="39.680835000" lon="-0.404015000">
  <ele>423.100000</ele>
  <time>2012-02-26T09:13:00Z</time>
  <sat>8</sat>
</trkpt>
<trkpt lat="39.680858000" lon="-0.404013000">
  <ele>423.200000</ele>
  <time>2012-02-26T09:13:01Z</time>
  <sat>8</sat>
</trkpt>
<trkpt lat="39.680881000" lon="-0.404009000">
  <ele>423.500000</ele>
  <time>2012-02-26T09:13:02Z</time>
  <sat>8</sat>
</trkpt>
<trkpt lat="39.680935000" lon="-0.403977000">
  <ele>424.100000</ele>
  <time>2012-02-26T09:13:05Z</time>
  <sat>8</sat>
</trkpt>
<trkpt lat="39.680943000" lon="-0.403938000">
  <ele>424.600000</ele>
  <time>2012-02-26T09:13:06Z</time>
  <sat>8</sat>
</trkpt>
<trkpt lat="39.680956000" lon="-0.403911000">
  <ele>424.700000</ele>
  <time>2012-02-26T09:13:07Z</time>
  <sat>8</sat>
</trkpt>
<trkpt lat="39.681012000" lon="-0.403802000">
  <ele>426.200000</ele>
  <time>2012-02-26T09:13:12Z</time>
  <sat>8</sat>
</trkpt>
<trkpt lat="39.681020000" lon="-0.403785000">
  <ele>426.200000</ele>
  <time>2012-02-26T09:13:13Z</time>
  <sat>8</sat>
</trkpt>
<trkpt lat="39.681034000" lon="-0.403769000">
  <ele>426.500000</ele>
  <time>2012-02-26T09:13:14Z</time>
  <sat>8</sat>
</trkpt>
<trkpt lat="39.681340000" lon="-0.403442000">
  <ele>433.200000</ele>
  <time>2012-02-26T09:13:33Z</time>
  <sat>9</sat>
</trkpt>
<trkpt lat="39.681363000" lon="-0.403419000">
  <ele>434.100000</ele>
  <time>2012-02-26T09:13:34Z</time>
  <sat>9</sat>
</trkpt>
<trkpt lat="39.681382000" lon="-0.403399000">
  <ele>434.300000</ele>
  <time>2012-02-26T09:13:35Z</time>
  <sat>9</sat>
</trkpt>
<trkpt lat="39.681401000" lon="-0.403370000">
  <ele>434.700000</ele>
  <time>2012-02-26T09:13:36Z</time>
  <sat>9</sat>
</trkpt>
<trkpt lat="39.681437000" lon="-0.403289000">
  <ele>435.200000</ele>
  <time>2012-02-26T09:13:39Z</time>
  <sat>8</sat>
</trkpt>
<trkpt lat="39.681481000" lon="-0.403167000">
  <ele>434.600000</ele>
  <time>2012-02-26T09:13:43Z</time>
  <sat>8</sat>
</trkpt>
<trkpt lat="39.681498000" lon="-0.403137000">
  <ele>434.700000</ele>
  <time>2012-02-26T09:13:44Z</time>
  <sat>8</sat>
</trkpt>
<trkpt lat="39.681503000" lon="-0.403108000">
  <ele>434.800000</ele>
  <time>2012-02-26T09:13:45Z</time>
  <sat>8</sat>
</trkpt>
<trkpt lat="39.681521000" lon="-0.403049000">
  <ele>434.700000</ele>
  <time>2012-02-26T09:13:47Z</time>
  <sat>8</sat>
</trkpt>
<trkpt lat="39.681544000" lon="-0.402993000">
  <ele>434.800000</ele>
  <time>2012-02-26T09:13:49Z</time>
  <sat>8</sat>
</trkpt>
<trkpt lat="39.681635000" lon="-0.402738000">
  <ele>435.200000</ele>
  <time>2012-02-26T09:13:57Z</time>
  <sat>8</sat>
</trkpt>
<trkpt lat="39.681643000" lon="-0.402704000">
  <ele>435.200000</ele>
  <time>2012-02-26T09:13:58Z</time>
  <sat>8</sat>
</trkpt>
<trkpt lat="39.681668000" lon="-0.402525000">
  <ele>435.200000</ele>
  <time>2012-02-26T09:14:03Z</time>
  <sat>8</sat>
</trkpt>
<trkpt lat="39.681670000" lon="-0.402489000">
  <ele>435.300000</ele>
  <time>2012-02-26T09:14:04Z</time>
  <sat>8</sat>
</trkpt>
<trkpt lat="39.681796000" lon="-0.401521000">
  <ele>437.100000</ele>
  <time>2012-02-26T09:14:32Z</time>
  <sat>7</sat>
</trkpt>
<trkpt lat="39.681803000" lon="-0.401489000">
  <ele>437.200000</ele>
  <time>2012-02-26T09:14:33Z</time>
  <sat>8</sat>
</trkpt>
<trkpt lat="39.681817000" lon="-0.401464000">
  <ele>437.600000</ele>
  <time>2012-02-26T09:14:34Z</time>
  <sat>8</sat>
</trkpt>
<trkpt lat="39.681884000" lon="-0.401335000">
  <ele>437.100000</ele>
  <time>2012-02-26T09:14:39Z</time>
  <sat>10</sat>
</trkpt>
<trkpt lat="39.681902000" lon="-0.401315000">
  <ele>437.000000</ele>
  <time>2012-02-26T09:14:40Z</time>
  <sat>10</sat>
</trkpt>
<trkpt lat="39.682049000" lon="-0.401133000">
  <ele>439.700000</ele>
  <time>2012-02-26T09:14:48Z</time>
  <sat>10</sat>
</trkpt>
<trkpt lat="39.682063000" lon="-0.401101000">
  <ele>439.600000</ele>
  <time>2012-02-26T09:14:49Z</time>
  <sat>10</sat>
</trkpt>
<trkpt lat="39.682124000" lon="-0.400983000">
  <ele>439.200000</ele>
  <time>2012-02-26T09:14:53Z</time>
  <sat>10</sat>
</trkpt>
<trkpt lat="39.682140000" lon="-0.400963000">
  <ele>439.200000</ele>
  <time>2012-02-26T09:14:54Z</time>
  <sat>10</sat>
</trkpt>
<trkpt lat="39.682279000" lon="-0.400790000">
  <ele>442.200000</ele>
  <time>2012-02-26T09:15:02Z</time>
  <sat>10</sat>
</trkpt>
<trkpt lat="39.682298000" lon="-0.400774000">
  <ele>442.800000</ele>
  <time>2012-02-26T09:15:03Z</time>
  <sat>9</sat>
</trkpt>
<trkpt lat="39.682330000" lon="-0.400737000">
  <ele>442.700000</ele>
  <time>2012-02-26T09:15:05Z</time>
  <sat>8</sat>
</trkpt>
<trkpt lat="39.682348000" lon="-0.400718000">
  <ele>442.700000</ele>
  <time>2012-02-26T09:15:06Z</time>
  <sat>8</sat>
</trkpt>
<trkpt lat="39.682494000" lon="-0.400516000">
  <ele>442.700000</ele>
  <time>2012-02-26T09:15:16Z</time>
  <sat>7</sat>
</trkpt>
<trkpt lat="39.682618000" lon="-0.400343000">
  <ele>446.500000</ele>
  <time>2012-02-26T09:15:26Z</time>
  <sat>9</sat>
</trkpt>
<trkpt lat="39.682628000" lon="-0.400325000">
  <ele>447.200000</ele>
  <time>2012-02-26T09:15:27Z</time>
  <sat>9</sat>
</trkpt>
<trkpt lat="39.682635000" lon="-0.400307000">
  <ele>448.200000</ele>
  <time>2012-02-26T09:15:28Z</time>
  <sat>9</sat>
</trkpt>
<trkpt lat="39.682647000" lon="-0.400289000">
  <ele>448.500000</ele>
  <time>2012-02-26T09:15:29Z</time>
  <sat>9</sat>
</trkpt>
<trkpt lat="39.682677000" lon="-0.400247000">
  <ele>448.300000</ele>
  <time>2012-02-26T09:15:32Z</time>
  <sat>8</sat>
</trkpt>
<trkpt lat="39.682686000" lon="-0.400233000">
  <ele>448.500000</ele>
  <time>2012-02-26T09:15:33Z</time>
  <sat>8</sat>
</trkpt>
<trkpt lat="39.682699000" lon="-0.400221000">
  <ele>448.700000</ele>
  <time>2012-02-26T09:15:34Z</time>
  <sat>8</sat>
</trkpt>
<trkpt lat="39.682836000" lon="-0.400135000">
  <ele>449.700000</ele>
  <time>2012-02-26T09:15:42Z</time>
  <sat>8</sat>
</trkpt>
<trkpt lat="39.682860000" lon="-0.400130000">
  <ele>449.700000</ele>
  <time>2012-02-26T09:15:43Z</time>
  <sat>8</sat>
</trkpt>
<trkpt lat="39.682877000" lon="-0.400121000">
  <ele>449.800000</ele>
  <time>2012-02-26T09:15:44Z</time>
  <sat>8</sat>
</trkpt>
<trkpt lat="39.682921000" lon="-0.400095000">
  <ele>450.100000</ele>
  <time>2012-02-26T09:15:47Z</time>
  <sat>8</sat>
</trkpt>
<trkpt lat="39.682940000" lon="-0.400093000">
  <ele>450.300000</ele>
  <time>2012-02-26T09:15:48Z</time>
  <sat>8</sat>
</trkpt>
<trkpt lat="39.682956000" lon="-0.400099000">
  <ele>450.700000</ele>
  <time>2012-02-26T09:15:49Z</time>
  <sat>7</sat>
</trkpt>
<trkpt lat="39.682968000" lon="-0.400108000">
  <ele>450.700000</ele>
  <time>2012-02-26T09:15:50Z</time>
  <sat>7</sat>
</trkpt>
<trkpt lat="39.683032000" lon="-0.400152000">
  <ele>451.500000</ele>
  <time>2012-02-26T09:15:54Z</time>
  <sat>7</sat>
</trkpt>
<trkpt lat="39.683047000" lon="-0.400161000">
  <ele>452.000000</ele>
  <time>2012-02-26T09:15:55Z</time>
  <sat>7</sat>
</trkpt>
<trkpt lat="39.683199000" lon="-0.400274000">
  <ele>450.000000</ele>
  <time>2012-02-26T09:16:06Z</time>
  <sat>7</sat>
</trkpt>
<trkpt lat="39.683210000" lon="-0.400291000">
  <ele>450.200000</ele>
  <time>2012-02-26T09:16:07Z</time>
  <sat>7</sat>
</trkpt>
<trkpt lat="39.683255000" lon="-0.400347000">
  <ele>450.200000</ele>
  <time>2012-02-26T09:16:11Z</time>
  <sat>6</sat>
</trkpt>
<trkpt lat="39.683353000" lon="-0.400442000">
  <ele>453.600000</ele>
  <time>2012-02-26T09:16:20Z</time>
  <sat>8</sat>
</trkpt>
<trkpt lat="39.683368000" lon="-0.400442000">
  <ele>453.500000</ele>
  <time>2012-02-26T09:16:21Z</time>
  <sat>8</sat>
</trkpt>
<trkpt lat="39.683382000" lon="-0.400442000">
  <ele>453.700000</ele>
  <time>2012-02-26T09:16:22Z</time>
  <sat>8</sat>
</trkpt>
<trkpt lat="39.683421000" lon="-0.400444000">
  <ele>454.800000</ele>
  <time>2012-02-26T09:16:25Z</time>
  <sat>8</sat>
</trkpt>
<trkpt lat="39.683430000" lon="-0.400452000">
  <ele>454.800000</ele>
  <time>2012-02-26T09:16:40Z</time>
  <sat>8</sat>
</trkpt>
<trkpt lat="39.683449000" lon="-0.400470000">
  <ele>455.500000</ele>
  <time>2012-02-26T09:16:41Z</time>
  <sat>8</sat>
</trkpt>
<trkpt lat="39.683464000" lon="-0.400474000">
  <ele>455.600000</ele>
  <time>2012-02-26T09:16:42Z</time>
  <sat>8</sat>
</trkpt>
<trkpt lat="39.683478000" lon="-0.400497000">
  <ele>456.800000</ele>
  <time>2012-02-26T09:16:43Z</time>
  <sat>8</sat>
</trkpt>
<trkpt lat="39.683486000" lon="-0.400526000">
  <ele>457.200000</ele>
  <time>2012-02-26T09:16:44Z</time>
  <sat>8</sat>
</trkpt>
<trkpt lat="39.683774000" lon="-0.401385000">
  <ele>452.000000</ele>
  <time>2012-02-26T09:17:01Z</time>
  <sat>9</sat>
</trkpt>
<trkpt lat="39.683801000" lon="-0.401433000">
  <ele>452.100000</ele>
  <time>2012-02-26T09:17:02Z</time>
  <sat>9</sat>
</trkpt>
<trkpt lat="39.683879000" lon="-0.401605000">
  <ele>451.300000</ele>
  <time>2012-02-26T09:17:05Z</time>
  <sat>9</sat>
</trkpt>
<trkpt lat="39.683894000" lon="-0.401679000">
  <ele>451.000000</ele>
  <time>2012-02-26T09:17:06Z</time>
  <sat>9</sat>
</trkpt>
<trkpt lat="39.683890000" lon="-0.401750000">
  <ele>451.000000</ele>
  <time>2012-02-26T09:17:07Z</time>
  <sat>9</sat>
</trkpt>
<trkpt lat="39.683897000" lon="-0.401817000">
  <ele>450.200000</ele>
  <time>2012-02-26T09:17:08Z</time>
  <sat>9</sat>
</trkpt>
<trkpt lat="39.683882000" lon="-0.401943000">
  <ele>449.500000</ele>
  <time>2012-02-26T09:17:10Z</time>
  <sat>9</sat>
</trkpt>
<trkpt lat="39.683873000" lon="-0.402077000">
  <ele>450.000000</ele>
  <time>2012-02-26T09:17:12Z</time>
  <sat>9</sat>
</trkpt>
<trkpt lat="39.683887000" lon="-0.402389000">
  <ele>448.300000</ele>
  <time>2012-02-26T09:17:16Z</time>
  <sat>9</sat>
</trkpt>
<trkpt lat="39.683905000" lon="-0.402572000">
  <ele>447.700000</ele>
  <time>2012-02-26T09:17:18Z</time>
  <sat>9</sat>
</trkpt>
<trkpt lat="39.683955000" lon="-0.402829000">
  <ele>445.600000</ele>
  <time>2012-02-26T09:17:21Z</time>
  <sat>8</sat>
</trkpt>
<trkpt lat="39.684044000" lon="-0.403158000">
  <ele>443.300000</ele>
  <time>2012-02-26T09:17:25Z</time>
  <sat>8</sat>
</trkpt>
<trkpt lat="39.684048000" lon="-0.403243000">
  <ele>443.300000</ele>
  <time>2012-02-26T09:17:26Z</time>
  <sat>8</sat>
</trkpt>
<trkpt lat="39.684032000" lon="-0.403414000">
  <ele>442.800000</ele>
  <time>2012-02-26T09:17:28Z</time>
  <sat>8</sat>
</trkpt>
<trkpt lat="39.684003000" lon="-0.403582000">
  <ele>443.000000</ele>
  <time>2012-02-26T09:17:30Z</time>
  <sat>8</sat>
</trkpt>
<trkpt lat="39.683974000" lon="-0.403884000">
  <ele>440.700000</ele>
  <time>2012-02-26T09:17:34Z</time>
  <sat>8</sat>
</trkpt>
<trkpt lat="39.683982000" lon="-0.403963000">
  <ele>440.200000</ele>
  <time>2012-02-26T09:17:35Z</time>
  <sat>8</sat>
</trkpt>
<trkpt lat="39.684014000" lon="-0.404407000">
  <ele>439.000000</ele>
  <time>2012-02-26T09:17:40Z</time>
  <sat>8</sat>
</trkpt>
<trkpt lat="39.684041000" lon="-0.404485000">
  <ele>438.500000</ele>
  <time>2012-02-26T09:17:41Z</time>
  <sat>8</sat>
</trkpt>
<trkpt lat="39.684095000" lon="-0.404632000">
  <ele>438.200000</ele>
  <time>2012-02-26T09:17:43Z</time>
  <sat>8</sat>
</trkpt>
<trkpt lat="39.684105000" lon="-0.404711000">
  <ele>438.200000</ele>
  <time>2012-02-26T09:17:44Z</time>
  <sat>8</sat>
</trkpt>
<trkpt lat="39.684107000" lon="-0.404786000">
  <ele>438.200000</ele>
  <time>2012-02-26T09:17:45Z</time>
  <sat>8</sat>
</trkpt>
<trkpt lat="39.684135000" lon="-0.405151000">
  <ele>437.300000</ele>
  <time>2012-02-26T09:17:50Z</time>
  <sat>8</sat>
</trkpt>
<trkpt lat="39.684215000" lon="-0.405891000">
  <ele>435.300000</ele>
  <time>2012-02-26T09:17:59Z</time>
  <sat>8</sat>
</trkpt>
<trkpt lat="39.684241000" lon="-0.405962000">
  <ele>435.600000</ele>
  <time>2012-02-26T09:18:00Z</time>
  <sat>8</sat>
</trkpt>
<trkpt lat="39.684297000" lon="-0.406087000">
  <ele>435.200000</ele>
  <time>2012-02-26T09:18:02Z</time>
  <sat>8</sat>
</trkpt>
<trkpt lat="39.684334000" lon="-0.406142000">
  <ele>434.300000</ele>
  <time>2012-02-26T09:18:03Z</time>
  <sat>8</sat>
</trkpt>
<trkpt lat="39.684424000" lon="-0.406297000">
  <ele>433.500000</ele>
  <time>2012-02-26T09:18:06Z</time>
  <sat>8</sat>
</trkpt>
<trkpt lat="39.684432000" lon="-0.406356000">
  <ele>433.200000</ele>
  <time>2012-02-26T09:18:07Z</time>
  <sat>8</sat>
</trkpt>
<trkpt lat="39.684473000" lon="-0.406908000">
  <ele>430.200000</ele>
  <time>2012-02-26T09:18:14Z</time>
  <sat>8</sat>
</trkpt>
<trkpt lat="39.684454000" lon="-0.406949000">
  <ele>429.700000</ele>
  <time>2012-02-26T09:18:15Z</time>
  <sat>8</sat>
</trkpt>
<trkpt lat="39.684410000" lon="-0.406985000">
  <ele>429.700000</ele>
  <time>2012-02-26T09:18:16Z</time>
  <sat>7</sat>
</trkpt>
<trkpt lat="39.684350000" lon="-0.407010000">
  <ele>430.700000</ele>
  <time>2012-02-26T09:18:18Z</time>
  <sat>7</sat>
</trkpt>
<trkpt lat="39.684325000" lon="-0.407015000">
  <ele>430.500000</ele>
  <time>2012-02-26T09:18:19Z</time>
  <sat>7</sat>
</trkpt>
<trkpt lat="39.684237000" lon="-0.407036000">
  <ele>430.500000</ele>
  <time>2012-02-26T09:18:22Z</time>
  <sat>7</sat>
</trkpt>
<trkpt lat="39.684170000" lon="-0.407071000">
  <ele>429.700000</ele>
  <time>2012-02-26T09:18:25Z</time>
  <sat>7</sat>
</trkpt>
<trkpt lat="39.684128000" lon="-0.407095000">
  <ele>429.100000</ele>
  <time>2012-02-26T09:18:26Z</time>
  <sat>7</sat>
</trkpt>
<trkpt lat="39.684099000" lon="-0.407119000">
  <ele>429.700000</ele>
  <time>2012-02-26T09:18:27Z</time>
  <sat>7</sat>
</trkpt>
<trkpt lat="39.684013000" lon="-0.407178000">
  <ele>429.300000</ele>
  <time>2012-02-26T09:18:30Z</time>
  <sat>7</sat>
</trkpt>
<trkpt lat="39.683988000" lon="-0.407216000">
  <ele>429.500000</ele>
  <time>2012-02-26T09:18:31Z</time>
  <sat>7</sat>
</trkpt>
<trkpt lat="39.683949000" lon="-0.407276000">
  <ele>428.600000</ele>
  <time>2012-02-26T09:18:33Z</time>
  <sat>7</sat>
</trkpt>
<trkpt lat="39.683931000" lon="-0.407303000">
  <ele>428.100000</ele>
  <time>2012-02-26T09:18:34Z</time>
  <sat>7</sat>
</trkpt>
<trkpt lat="39.683829000" lon="-0.407444000">
  <ele>429.000000</ele>
  <time>2012-02-26T09:18:39Z</time>
  <sat>8</sat>
</trkpt>
<trkpt lat="39.683809000" lon="-0.407469000">
  <ele>428.700000</ele>
  <time>2012-02-26T09:18:40Z</time>
  <sat>8</sat>
</trkpt>
<trkpt lat="39.683793000" lon="-0.407485000">
  <ele>428.000000</ele>
  <time>2012-02-26T09:18:41Z</time>
  <sat>8</sat>
</trkpt>
<trkpt lat="39.683775000" lon="-0.407511000">
  <ele>427.700000</ele>
  <time>2012-02-26T09:18:42Z</time>
  <sat>8</sat>
</trkpt>
<trkpt lat="39.683573000" lon="-0.407767000">
  <ele>425.200000</ele>
  <time>2012-02-26T09:18:54Z</time>
  <sat>8</sat>
</trkpt>
<trkpt lat="39.683554000" lon="-0.407779000">
  <ele>425.200000</ele>
  <time>2012-02-26T09:18:55Z</time>
  <sat>8</sat>
</trkpt>
<trkpt lat="39.683539000" lon="-0.407795000">
  <ele>425.200000</ele>
  <time>2012-02-26T09:18:56Z</time>
  <sat>8</sat>
</trkpt>
<trkpt lat="39.683526000" lon="-0.407818000">
  <ele>425.700000</ele>
  <time>2012-02-26T09:18:57Z</time>
  <sat>7</sat>
</trkpt>
<trkpt lat="39.683519000" lon="-0.407843000">
  <ele>425.800000</ele>
  <time>2012-02-26T09:18:58Z</time>
  <sat>7</sat>
</trkpt>
<trkpt lat="39.683517000" lon="-0.407869000">
  <ele>426.500000</ele>
  <time>2012-02-26T09:18:59Z</time>
  <sat>8</sat>
</trkpt>
<trkpt lat="39.683522000" lon="-0.407926000">
  <ele>427.700000</ele>
  <time>2012-02-26T09:19:01Z</time>
  <sat>7</sat>
</trkpt>
<trkpt lat="39.683528000" lon="-0.407949000">
  <ele>428.100000</ele>
  <time>2012-02-26T09:19:02Z</time>
  <sat>7</sat>
</trkpt>
<trkpt lat="39.683543000" lon="-0.407961000">
  <ele>428.200000</ele>
  <time>2012-02-26T09:19:03Z</time>
  <sat>6</sat>
</trkpt>
<trkpt lat="39.683565000" lon="-0.407971000">
  <ele>428.600000</ele>
  <time>2012-02-26T09:19:04Z</time>
  <sat>6</sat>
</trkpt>
<trkpt lat="39.683632000" lon="-0.407922000">
  <ele>429.000000</ele>
  <time>2012-02-26T09:19:06Z</time>
  <sat>7</sat>
</trkpt>
<trkpt lat="39.683653000" lon="-0.407917000">
  <ele>429.500000</ele>
  <time>2012-02-26T09:19:07Z</time>
  <sat>7</sat>
</trkpt>
<trkpt lat="39.683674000" lon="-0.407885000">
  <ele>429.500000</ele>
  <time>2012-02-26T09:19:08Z</time>
  <sat>7</sat>
</trkpt>
<trkpt lat="39.683696000" lon="-0.407865000">
  <ele>429.500000</ele>
  <time>2012-02-26T09:19:09Z</time>
  <sat>7</sat>
</trkpt>
<trkpt lat="39.683828000" lon="-0.407770000">
  <ele>429.700000</ele>
  <time>2012-02-26T09:19:14Z</time>
  <sat>7</sat>
</trkpt>
<trkpt lat="39.683936000" lon="-0.407713000">
  <ele>430.100000</ele>
  <time>2012-02-26T09:19:18Z</time>
  <sat>6</sat>
</trkpt>
<trkpt lat="39.683971000" lon="-0.407701000">
  <ele>430.100000</ele>
  <time>2012-02-26T09:19:19Z</time>
  <sat>6</sat>
</trkpt>
<trkpt lat="39.684260000" lon="-0.407568000">
  <ele>429.700000</ele>
  <time>2012-02-26T09:19:28Z</time>
  <sat>8</sat>
</trkpt>
<trkpt lat="39.684293000" lon="-0.407561000">
  <ele>430.100000</ele>
  <time>2012-02-26T09:19:29Z</time>
  <sat>8</sat>
</trkpt>
<trkpt lat="39.684355000" lon="-0.407548000">
  <ele>430.800000</ele>
  <time>2012-02-26T09:19:31Z</time>
  <sat>8</sat>
</trkpt>
<trkpt lat="39.684385000" lon="-0.407548000">
  <ele>431.100000</ele>
  <time>2012-02-26T09:19:32Z</time>
  <sat>7</sat>
</trkpt>
<trkpt lat="39.684417000" lon="-0.407547000">
  <ele>431.300000</ele>
  <time>2012-02-26T09:19:33Z</time>
  <sat>8</sat>
</trkpt>
<trkpt lat="39.684449000" lon="-0.407550000">
  <ele>431.300000</ele>
  <time>2012-02-26T09:19:34Z</time>
  <sat>8</sat>
</trkpt>
<trkpt lat="39.684992000" lon="-0.407611000">
  <ele>435.500000</ele>
  <time>2012-02-26T09:19:52Z</time>
  <sat>7</sat>
</trkpt>
<trkpt lat="39.685013000" lon="-0.407622000">
  <ele>435.700000</ele>
  <time>2012-02-26T09:19:53Z</time>
  <sat>7</sat>
</trkpt>
<trkpt lat="39.685035000" lon="-0.407638000">
  <ele>436.200000</ele>
  <time>2012-02-26T09:19:54Z</time>
  <sat>8</sat>
</trkpt>
<trkpt lat="39.685053000" lon="-0.407656000">
  <ele>436.500000</ele>
  <time>2012-02-26T09:19:55Z</time>
  <sat>8</sat>
</trkpt>
<trkpt lat="39.685070000" lon="-0.407705000">
  <ele>436.500000</ele>
  <time>2012-02-26T09:19:57Z</time>
  <sat>8</sat>
</trkpt>
<trkpt lat="39.685067000" lon="-0.407724000">
  <ele>436.300000</ele>
  <time>2012-02-26T09:19:58Z</time>
  <sat>8</sat>
</trkpt>
<trkpt lat="39.685026000" lon="-0.407781000">
  <ele>436.700000</ele>
  <time>2012-02-26T09:20:00Z</time>
  <sat>8</sat>
</trkpt>
<trkpt lat="39.684996000" lon="-0.407791000">
  <ele>436.800000</ele>
  <time>2012-02-26T09:20:01Z</time>
  <sat>8</sat>
</trkpt>
<trkpt lat="39.684937000" lon="-0.407781000">
  <ele>437.800000</ele>
  <time>2012-02-26T09:20:03Z</time>
  <sat>8</sat>
</trkpt>
<trkpt lat="39.684915000" lon="-0.407778000">
  <ele>438.500000</ele>
  <time>2012-02-26T09:20:04Z</time>
  <sat>8</sat>
</trkpt>
<trkpt lat="39.684900000" lon="-0.407780000">
  <ele>438.800000</ele>
  <time>2012-02-26T09:20:05Z</time>
  <sat>8</sat>
</trkpt>
<trkpt lat="39.684789000" lon="-0.407768000">
  <ele>436.300000</ele>
  <time>2012-02-26T09:20:11Z</time>
  <sat>8</sat>
</trkpt>
<trkpt lat="39.684771000" lon="-0.407772000">
  <ele>436.000000</ele>
  <time>2012-02-26T09:20:12Z</time>
  <sat>8</sat>
</trkpt>
<trkpt lat="39.684751000" lon="-0.407780000">
  <ele>436.100000</ele>
  <time>2012-02-26T09:20:13Z</time>
  <sat>8</sat>
</trkpt>
<trkpt lat="39.684521000" lon="-0.407884000">
  <ele>438.200000</ele>
  <time>2012-02-26T09:20:23Z</time>
  <sat>8</sat>
</trkpt>
<trkpt lat="39.684500000" lon="-0.407897000">
  <ele>438.300000</ele>
  <time>2012-02-26T09:20:24Z</time>
  <sat>8</sat>
</trkpt>
<trkpt lat="39.684361000" lon="-0.407994000">
  <ele>439.600000</ele>
  <time>2012-02-26T09:20:31Z</time>
  <sat>8</sat>
</trkpt>
<trkpt lat="39.684219000" lon="-0.408095000">
  <ele>440.800000</ele>
  <time>2012-02-26T09:20:38Z</time>
  <sat>7</sat>
</trkpt>
<trkpt lat="39.684164000" lon="-0.408133000">
  <ele>441.200000</ele>
  <time>2012-02-26T09:20:41Z</time>
  <sat>8</sat>
</trkpt>
<trkpt lat="39.684002000" lon="-0.408267000">
  <ele>442.200000</ele>
  <time>2012-02-26T09:20:49Z</time>
  <sat>8</sat>
</trkpt>
<trkpt lat="39.683984000" lon="-0.408286000">
  <ele>442.600000</ele>
  <time>2012-02-26T09:20:50Z</time>
  <sat>8</sat>
</trkpt>
<trkpt lat="39.683967000" lon="-0.408305000">
  <ele>442.700000</ele>
  <time>2012-02-26T09:20:51Z</time>
  <sat>8</sat>
</trkpt>
<trkpt lat="39.683935000" lon="-0.408352000">
  <ele>442.800000</ele>
  <time>2012-02-26T09:20:53Z</time>
  <sat>7</sat>
</trkpt>
<trkpt lat="39.683853000" lon="-0.408490000">
  <ele>443.700000</ele>
  <time>2012-02-26T09:20:59Z</time>
  <sat>7</sat>
</trkpt>
<trkpt lat="39.683829000" lon="-0.408543000">
  <ele>443.700000</ele>
  <time>2012-02-26T09:21:01Z</time>
  <sat>8</sat>
</trkpt>
<trkpt lat="39.683759000" lon="-0.408730000">
  <ele>443.600000</ele>
  <time>2012-02-26T09:21:08Z</time>
  <sat>7</sat>
</trkpt>
<trkpt lat="39.683590000" lon="-0.409178000">
  <ele>447.100000</ele>
  <time>2012-02-26T09:21:23Z</time>
  <sat>7</sat>
</trkpt>
<trkpt lat="39.683576000" lon="-0.409207000">
  <ele>447.300000</ele>
  <time>2012-02-26T09:21:24Z</time>
  <sat>7</sat>
</trkpt>
<trkpt lat="39.683564000" lon="-0.409233000">
  <ele>447.600000</ele>
  <time>2012-02-26T09:21:25Z</time>
  <sat>7</sat>
</trkpt>
<trkpt lat="39.683415000" lon="-0.409550000">
  <ele>448.600000</ele>
  <time>2012-02-26T09:21:37Z</time>
  <sat>7</sat>
</trkpt>
<trkpt lat="39.683368000" lon="-0.409678000">
  <ele>448.600000</ele>
  <time>2012-02-26T09:21:42Z</time>
  <sat>6</sat>
</trkpt>
<trkpt lat="39.683357000" lon="-0.409699000">
  <ele>448.600000</ele>
  <time>2012-02-26T09:21:43Z</time>
  <sat>6</sat>
</trkpt>
<trkpt lat="39.683340000" lon="-0.409746000">
  <ele>449.000000</ele>
  <time>2012-02-26T09:21:45Z</time>
  <sat>7</sat>
</trkpt>
<trkpt lat="39.683319000" lon="-0.409808000">
  <ele>450.500000</ele>
  <time>2012-02-26T09:21:49Z</time>
  <sat>8</sat>
</trkpt>
<trkpt lat="39.683317000" lon="-0.409830000">
  <ele>450.600000</ele>
  <time>2012-02-26T09:21:50Z</time>
  <sat>8</sat>
</trkpt>
<trkpt lat="39.683309000" lon="-0.409876000">
  <ele>451.000000</ele>
  <time>2012-02-26T09:21:52Z</time>
  <sat>8</sat>
</trkpt>
<trkpt lat="39.683256000" lon="-0.410293000">
  <ele>456.800000</ele>
  <time>2012-02-26T09:22:07Z</time>
  <sat>7</sat>
</trkpt>
<trkpt lat="39.683256000" lon="-0.410384000">
  <ele>457.700000</ele>
  <time>2012-02-26T09:22:11Z</time>
  <sat>8</sat>
</trkpt>
<trkpt lat="39.683261000" lon="-0.410401000">
  <ele>457.300000</ele>
  <time>2012-02-26T09:22:12Z</time>
  <sat>8</sat>
</trkpt>
<trkpt lat="39.683262000" lon="-0.410424000">
  <ele>456.700000</ele>
  <time>2012-02-26T09:22:13Z</time>
  <sat>8</sat>
</trkpt>
<trkpt lat="39.683264000" lon="-0.410452000">
  <ele>456.700000</ele>
  <time>2012-02-26T09:22:14Z</time>
  <sat>9</sat>
</trkpt>
<trkpt lat="39.683259000" lon="-0.410482000">
  <ele>456.700000</ele>
  <time>2012-02-26T09:22:15Z</time>
  <sat>9</sat>
</trkpt>
<trkpt lat="39.683249000" lon="-0.410653000">
  <ele>458.100000</ele>
  <time>2012-02-26T09:22:21Z</time>
  <sat>6</sat>
</trkpt>
<trkpt lat="39.683248000" lon="-0.410799000">
  <ele>458.200000</ele>
  <time>2012-02-26T09:22:26Z</time>
  <sat>6</sat>
</trkpt>
<trkpt lat="39.683249000" lon="-0.410833000">
  <ele>458.300000</ele>
  <time>2012-02-26T09:22:27Z</time>
  <sat>6</sat>
</trkpt>
<trkpt lat="39.683266000" lon="-0.411253000">
  <ele>460.100000</ele>
  <time>2012-02-26T09:22:41Z</time>
  <sat>9</sat>
</trkpt>
<trkpt lat="39.683265000" lon="-0.411283000">
  <ele>460.600000</ele>
  <time>2012-02-26T09:22:42Z</time>
  <sat>9</sat>
</trkpt>
<trkpt lat="39.683265000" lon="-0.411346000">
  <ele>460.500000</ele>
  <time>2012-02-26T09:22:44Z</time>
  <sat>6</sat>
</trkpt>
<trkpt lat="39.683270000" lon="-0.411379000">
  <ele>460.700000</ele>
  <time>2012-02-26T09:22:45Z</time>
  <sat>6</sat>
</trkpt>
<trkpt lat="39.683282000" lon="-0.411468000">
  <ele>460.800000</ele>
  <time>2012-02-26T09:22:48Z</time>
  <sat>6</sat>
</trkpt>
<trkpt lat="39.683283000" lon="-0.411525000">
  <ele>461.300000</ele>
  <time>2012-02-26T09:22:50Z</time>
  <sat>8</sat>
</trkpt>
<trkpt lat="39.683270000" lon="-0.411671000">
  <ele>461.600000</ele>
  <time>2012-02-26T09:22:55Z</time>
  <sat>8</sat>
</trkpt>
<trkpt lat="39.683260000" lon="-0.411728000">
  <ele>462.800000</ele>
  <time>2012-02-26T09:22:57Z</time>
  <sat>8</sat>
</trkpt>
<trkpt lat="39.683252000" lon="-0.411764000">
  <ele>463.100000</ele>
  <time>2012-02-26T09:22:58Z</time>
  <sat>8</sat>
</trkpt>
<trkpt lat="39.683242000" lon="-0.411790000">
  <ele>463.200000</ele>
  <time>2012-02-26T09:22:59Z</time>
  <sat>8</sat>
</trkpt>
<trkpt lat="39.683098000" lon="-0.412161000">
  <ele>465.800000</ele>
  <time>2012-02-26T09:23:14Z</time>
  <sat>8</sat>
</trkpt>
<trkpt lat="39.683061000" lon="-0.412290000">
  <ele>466.700000</ele>
  <time>2012-02-26T09:23:19Z</time>
  <sat>8</sat>
</trkpt>
<trkpt lat="39.683012000" lon="-0.412496000">
  <ele>469.200000</ele>
  <time>2012-02-26T09:23:27Z</time>
  <sat>8</sat>
</trkpt>
<trkpt lat="39.683006000" lon="-0.412550000">
  <ele>469.200000</ele>
  <time>2012-02-26T09:23:29Z</time>
  <sat>8</sat>
</trkpt>
<trkpt lat="39.683004000" lon="-0.412575000">
  <ele>469.000000</ele>
  <time>2012-02-26T09:23:30Z</time>
  <sat>8</sat>
</trkpt>
<trkpt lat="39.682987000" lon="-0.412629000">
  <ele>469.700000</ele>
  <time>2012-02-26T09:23:32Z</time>
  <sat>8</sat>
</trkpt>
<trkpt lat="39.682964000" lon="-0.412683000">
  <ele>470.500000</ele>
  <time>2012-02-26T09:23:34Z</time>
  <sat>7</sat>
</trkpt>
<trkpt lat="39.682925000" lon="-0.412753000">
  <ele>470.700000</ele>
  <time>2012-02-26T09:23:37Z</time>
  <sat>7</sat>
</trkpt>
<trkpt lat="39.682911000" lon="-0.412773000">
  <ele>470.700000</ele>
  <time>2012-02-26T09:23:38Z</time>
  <sat>7</sat>
</trkpt>
<trkpt lat="39.682877000" lon="-0.412814000">
  <ele>471.200000</ele>
  <time>2012-02-26T09:23:40Z</time>
  <sat>7</sat>
</trkpt>
<trkpt lat="39.682858000" lon="-0.412832000">
  <ele>471.200000</ele>
  <time>2012-02-26T09:23:41Z</time>
  <sat>7</sat>
</trkpt>
<trkpt lat="39.682836000" lon="-0.412844000">
  <ele>471.200000</ele>
  <time>2012-02-26T09:23:42Z</time>
  <sat>7</sat>
</trkpt>
<trkpt lat="39.682777000" lon="-0.412881000">
  <ele>471.700000</ele>
  <time>2012-02-26T09:23:45Z</time>
  <sat>7</sat>
</trkpt>
<trkpt lat="39.682757000" lon="-0.412895000">
  <ele>471.700000</ele>
  <time>2012-02-26T09:23:46Z</time>
  <sat>7</sat>
</trkpt>
<trkpt lat="39.682722000" lon="-0.412932000">
  <ele>471.800000</ele>
  <time>2012-02-26T09:23:48Z</time>
  <sat>7</sat>
</trkpt>
<trkpt lat="39.682708000" lon="-0.412956000">
  <ele>471.800000</ele>
  <time>2012-02-26T09:23:49Z</time>
  <sat>7</sat>
</trkpt>
<trkpt lat="39.682699000" lon="-0.412983000">
  <ele>472.100000</ele>
  <time>2012-02-26T09:23:50Z</time>
  <sat>7</sat>
</trkpt>
<trkpt lat="39.682690000" lon="-0.413036000">
  <ele>472.100000</ele>
  <time>2012-02-26T09:23:52Z</time>
  <sat>8</sat>
</trkpt>
<trkpt lat="39.682710000" lon="-0.413042000">
  <ele>471.700000</ele>
  <time>2012-02-26T09:23:53Z</time>
  <sat>8</sat>
</trkpt>
<trkpt lat="39.682734000" lon="-0.413056000">
  <ele>472.100000</ele>
  <time>2012-02-26T09:23:54Z</time>
  <sat>8</sat>
</trkpt>
<trkpt lat="39.682748000" lon="-0.413023000">
  <ele>473.100000</ele>
  <time>2012-02-26T09:23:55Z</time>
  <sat>8</sat>
</trkpt>
<trkpt lat="39.682768000" lon="-0.413016000">
  <ele>473.600000</ele>
  <time>2012-02-26T09:23:56Z</time>
  <sat>8</sat>
</trkpt>
<trkpt lat="39.682785000" lon="-0.413010000">
  <ele>473.500000</ele>
  <time>2012-02-26T09:23:57Z</time>
  <sat>8</sat>
</trkpt>
<trkpt lat="39.682804000" lon="-0.413001000">
  <ele>473.300000</ele>
  <time>2012-02-26T09:23:58Z</time>
  <sat>8</sat>
</trkpt>
<trkpt lat="39.682822000" lon="-0.412991000">
  <ele>473.200000</ele>
  <time>2012-02-26T09:23:59Z</time>
  <sat>8</sat>
</trkpt>
<trkpt lat="39.682841000" lon="-0.412981000">
  <ele>472.700000</ele>
  <time>2012-02-26T09:24:00Z</time>
  <sat>7</sat>
</trkpt>
<trkpt lat="39.682860000" lon="-0.412971000">
  <ele>472.200000</ele>
  <time>2012-02-26T09:24:01Z</time>
  <sat>7</sat>
</trkpt>
<trkpt lat="39.682878000" lon="-0.412956000">
  <ele>472.500000</ele>
  <time>2012-02-26T09:24:02Z</time>
  <sat>7</sat>
</trkpt>
<trkpt lat="39.682937000" lon="-0.412917000">
  <ele>472.600000</ele>
  <time>2012-02-26T09:24:05Z</time>
  <sat>8</sat>
</trkpt>
<trkpt lat="39.682961000" lon="-0.412907000">
  <ele>472.500000</ele>
  <time>2012-02-26T09:24:06Z</time>
  <sat>9</sat>
</trkpt>
<trkpt lat="39.682976000" lon="-0.412893000">
  <ele>472.200000</ele>
  <time>2012-02-26T09:24:07Z</time>
  <sat>9</sat>
</trkpt>
<trkpt lat="39.683014000" lon="-0.412865000">
  <ele>472.300000</ele>
  <time>2012-02-26T09:24:09Z</time>
  <sat>9</sat>
</trkpt>
<trkpt lat="39.683043000" lon="-0.412842000">
  <ele>472.200000</ele>
  <time>2012-02-26T09:24:11Z</time>
  <sat>9</sat>
</trkpt>
<trkpt lat="39.683052000" lon="-0.412827000">
  <ele>472.700000</ele>
  <time>2012-02-26T09:24:12Z</time>
  <sat>10</sat>
</trkpt>
<trkpt lat="39.683063000" lon="-0.412807000">
  <ele>473.000000</ele>
  <time>2012-02-26T09:24:13Z</time>
  <sat>10</sat>
</trkpt>
<trkpt lat="39.683090000" lon="-0.412772000">
  <ele>473.700000</ele>
  <time>2012-02-26T09:24:15Z</time>
  <sat>10</sat>
</trkpt>
<trkpt lat="39.683167000" lon="-0.412650000">
  <ele>476.100000</ele>
  <time>2012-02-26T09:24:21Z</time>
  <sat>9</sat>
</trkpt>
<trkpt lat="39.683175000" lon="-0.412628000">
  <ele>476.200000</ele>
  <time>2012-02-26T09:24:22Z</time>
  <sat>9</sat>
</trkpt>
<trkpt lat="39.683192000" lon="-0.412590000">
  <ele>477.100000</ele>
  <time>2012-02-26T09:24:24Z</time>
  <sat>9</sat>
</trkpt>
<trkpt lat="39.683280000" lon="-0.412417000">
  <ele>478.100000</ele>
  <time>2012-02-26T09:24:33Z</time>
  <sat>7</sat>
</trkpt>
<trkpt lat="39.683300000" lon="-0.412391000">
  <ele>477.500000</ele>
  <time>2012-02-26T09:24:34Z</time>
  <sat>8</sat>
</trkpt>
<trkpt lat="39.683320000" lon="-0.412372000">
  <ele>477.700000</ele>
  <time>2012-02-26T09:24:35Z</time>
  <sat>8</sat>
</trkpt>
<trkpt lat="39.683574000" lon="-0.412046000">
  <ele>476.700000</ele>
  <time>2012-02-26T09:24:47Z</time>
  <sat>10</sat>
</trkpt>
<trkpt lat="39.683747000" lon="-0.411825000">
  <ele>477.200000</ele>
  <time>2012-02-26T09:24:52Z</time>
  <sat>9</sat>
</trkpt>
<trkpt lat="39.683791000" lon="-0.411786000">
  <ele>477.700000</ele>
  <time>2012-02-26T09:24:53Z</time>
  <sat>8</sat>
</trkpt>
<trkpt lat="39.683964000" lon="-0.411628000">
  <ele>478.800000</ele>
  <time>2012-02-26T09:24:57Z</time>
  <sat>8</sat>
</trkpt>
<trkpt lat="39.684013000" lon="-0.411634000">
  <ele>478.700000</ele>
  <time>2012-02-26T09:24:58Z</time>
  <sat>8</sat>
</trkpt>
<trkpt lat="39.684061000" lon="-0.411633000">
  <ele>478.700000</ele>
  <time>2012-02-26T09:24:59Z</time>
  <sat>8</sat>
</trkpt>
<trkpt lat="39.684096000" lon="-0.411660000">
  <ele>478.700000</ele>
  <time>2012-02-26T09:25:00Z</time>
  <sat>9</sat>
</trkpt>
<trkpt lat="39.684388000" lon="-0.411872000">
  <ele>477.700000</ele>
  <time>2012-02-26T09:25:06Z</time>
  <sat>9</sat>
</trkpt>
<trkpt lat="39.684442000" lon="-0.411884000">
  <ele>477.600000</ele>
  <time>2012-02-26T09:25:07Z</time>
  <sat>7</sat>
</trkpt>
<trkpt lat="39.684553000" lon="-0.411899000">
  <ele>477.600000</ele>
  <time>2012-02-26T09:25:09Z</time>
  <sat>8</sat>
</trkpt>
<trkpt lat="39.684611000" lon="-0.411894000">
  <ele>477.100000</ele>
  <time>2012-02-26T09:25:10Z</time>
  <sat>8</sat>
</trkpt>
<trkpt lat="39.684921000" lon="-0.411849000">
  <ele>474.700000</ele>
  <time>2012-02-26T09:25:15Z</time>
  <sat>9</sat>
</trkpt>
<trkpt lat="39.684987000" lon="-0.411862000">
  <ele>474.700000</ele>
  <time>2012-02-26T09:25:16Z</time>
  <sat>9</sat>
</trkpt>
<trkpt lat="39.685107000" lon="-0.411929000">
  <ele>474.200000</ele>
  <time>2012-02-26T09:25:18Z</time>
  <sat>9</sat>
</trkpt>
<trkpt lat="39.685571000" lon="-0.412262000">
  <ele>471.200000</ele>
  <time>2012-02-26T09:25:24Z</time>
  <sat>9</sat>
</trkpt>
<trkpt lat="39.685862000" lon="-0.412507000">
  <ele>468.600000</ele>
  <time>2012-02-26T09:25:28Z</time>
  <sat>8</sat>
</trkpt>
<trkpt lat="39.685933000" lon="-0.412583000">
  <ele>468.100000</ele>
  <time>2012-02-26T09:25:29Z</time>
  <sat>8</sat>
</trkpt>
<trkpt lat="39.686057000" lon="-0.412746000">
  <ele>467.500000</ele>
  <time>2012-02-26T09:25:31Z</time>
  <sat>8</sat>
</trkpt>
<trkpt lat="39.686114000" lon="-0.412835000">
  <ele>466.700000</ele>
  <time>2012-02-26T09:25:32Z</time>
  <sat>8</sat>
</trkpt>
<trkpt lat="39.686373000" lon="-0.413286000">
  <ele>462.700000</ele>
  <time>2012-02-26T09:25:37Z</time>
  <sat>8</sat>
</trkpt>
<trkpt lat="39.686411000" lon="-0.413384000">
  <ele>462.300000</ele>
  <time>2012-02-26T09:25:38Z</time>
  <sat>8</sat>
</trkpt>
<trkpt lat="39.686498000" lon="-0.413698000">
  <ele>461.700000</ele>
  <time>2012-02-26T09:25:41Z</time>
  <sat>8</sat>
</trkpt>
<trkpt lat="39.686516000" lon="-0.413806000">
  <ele>461.000000</ele>
  <time>2012-02-26T09:25:42Z</time>
  <sat>8</sat>
</trkpt>
<trkpt lat="39.686520000" lon="-0.413910000">
  <ele>460.500000</ele>
  <time>2012-02-26T09:25:43Z</time>
  <sat>8</sat>
</trkpt>
<trkpt lat="39.686542000" lon="-0.414126000">
  <ele>458.600000</ele>
  <time>2012-02-26T09:25:45Z</time>
  <sat>8</sat>
</trkpt>
<trkpt lat="39.686567000" lon="-0.414228000">
  <ele>457.600000</ele>
  <time>2012-02-26T09:25:46Z</time>
  <sat>8</sat>
</trkpt>
<trkpt lat="39.686677000" lon="-0.414541000">
  <ele>455.100000</ele>
  <time>2012-02-26T09:25:49Z</time>
  <sat>8</sat>
</trkpt>
<trkpt lat="39.686826000" lon="-0.414846000">
  <ele>452.800000</ele>
  <time>2012-02-26T09:25:52Z</time>
  <sat>8</sat>
</trkpt>
<trkpt lat="39.687064000" lon="-0.415224000">
  <ele>449.700000</ele>
  <time>2012-02-26T09:25:56Z</time>
  <sat>8</sat>
</trkpt>
<trkpt lat="39.687243000" lon="-0.415476000">
  <ele>448.300000</ele>
  <time>2012-02-26T09:25:59Z</time>
  <sat>8</sat>
</trkpt>
<trkpt lat="39.687311000" lon="-0.415547000">
  <ele>448.200000</ele>
  <time>2012-02-26T09:26:00Z</time>
  <sat>8</sat>
</trkpt>
<trkpt lat="39.687457000" lon="-0.415672000">
  <ele>448.600000</ele>
  <time>2012-02-26T09:26:02Z</time>
  <sat>8</sat>
</trkpt>
<trkpt lat="39.687617000" lon="-0.415773000">
  <ele>447.700000</ele>
  <time>2012-02-26T09:26:04Z</time>
  <sat>8</sat>
</trkpt>
<trkpt lat="39.687789000" lon="-0.415841000">
  <ele>445.800000</ele>
  <time>2012-02-26T09:26:06Z</time>
  <sat>7</sat>
</trkpt>
<trkpt lat="39.688058000" lon="-0.415897000">
  <ele>444.300000</ele>
  <time>2012-02-26T09:26:09Z</time>
  <sat>7</sat>
</trkpt>
<trkpt lat="39.688468000" lon="-0.415962000">
  <ele>442.200000</ele>
  <time>2012-02-26T09:26:14Z</time>
  <sat>9</sat>
</trkpt>
<trkpt lat="39.688502000" lon="-0.416004000">
  <ele>442.100000</ele>
  <time>2012-02-26T09:26:15Z</time>
  <sat>9</sat>
</trkpt>
<trkpt lat="39.688643000" lon="-0.416235000">
  <ele>440.800000</ele>
  <time>2012-02-26T09:26:18Z</time>
  <sat>9</sat>
</trkpt>
<trkpt lat="39.688741000" lon="-0.416377000">
  <ele>439.200000</ele>
  <time>2012-02-26T09:26:20Z</time>
  <sat>9</sat>
</trkpt>
<trkpt lat="39.688796000" lon="-0.416437000">
  <ele>438.800000</ele>
  <time>2012-02-26T09:26:21Z</time>
  <sat>9</sat>
</trkpt>
<trkpt lat="39.688918000" lon="-0.416547000">
  <ele>437.100000</ele>
  <time>2012-02-26T09:26:23Z</time>
  <sat>9</sat>
</trkpt>
<trkpt lat="39.689046000" lon="-0.416633000">
  <ele>435.300000</ele>
  <time>2012-02-26T09:26:25Z</time>
  <sat>9</sat>
</trkpt>
<trkpt lat="39.689113000" lon="-0.416664000">
  <ele>434.700000</ele>
  <time>2012-02-26T09:26:26Z</time>
  <sat>9</sat>
</trkpt>
<trkpt lat="39.689184000" lon="-0.416682000">
  <ele>434.200000</ele>
  <time>2012-02-26T09:26:27Z</time>
  <sat>9</sat>
</trkpt>
<trkpt lat="39.689258000" lon="-0.416683000">
  <ele>433.700000</ele>
  <time>2012-02-26T09:26:28Z</time>
  <sat>8</sat>
</trkpt>
<trkpt lat="39.689330000" lon="-0.416676000">
  <ele>433.100000</ele>
  <time>2012-02-26T09:26:29Z</time>
  <sat>8</sat>
</trkpt>
<trkpt lat="39.689411000" lon="-0.416624000">
  <ele>430.200000</ele>
  <time>2012-02-26T09:26:30Z</time>
  <sat>9</sat>
</trkpt>
<trkpt lat="39.689856000" lon="-0.416233000">
  <ele>426.300000</ele>
  <time>2012-02-26T09:26:36Z</time>
  <sat>8</sat>
</trkpt>
<trkpt lat="39.689925000" lon="-0.416154000">
  <ele>426.100000</ele>
  <time>2012-02-26T09:26:37Z</time>
  <sat>7</sat>
</trkpt>
<trkpt lat="39.690109000" lon="-0.415879000">
  <ele>426.500000</ele>
  <time>2012-02-26T09:26:40Z</time>
  <sat>8</sat>
</trkpt>
<trkpt lat="39.690137000" lon="-0.415788000">
  <ele>426.700000</ele>
  <time>2012-02-26T09:26:41Z</time>
  <sat>8</sat>
</trkpt>
<trkpt lat="39.690188000" lon="-0.415599000">
  <ele>425.800000</ele>
  <time>2012-02-26T09:26:43Z</time>
  <sat>8</sat>
</trkpt>
<trkpt lat="39.690189000" lon="-0.415496000">
  <ele>425.000000</ele>
  <time>2012-02-26T09:26:44Z</time>
  <sat>8</sat>
</trkpt>
<trkpt lat="39.690175000" lon="-0.415297000">
  <ele>424.800000</ele>
  <time>2012-02-26T09:26:46Z</time>
  <sat>8</sat>
</trkpt>
<trkpt lat="39.690170000" lon="-0.414962000">
  <ele>424.100000</ele>
  <time>2012-02-26T09:26:50Z</time>
  <sat>8</sat>
</trkpt>
<trkpt lat="39.690181000" lon="-0.414913000">
  <ele>424.200000</ele>
  <time>2012-02-26T09:26:51Z</time>
  <sat>8</sat>
</trkpt>
<trkpt lat="39.690209000" lon="-0.414876000">
  <ele>424.200000</ele>
  <time>2012-02-26T09:26:52Z</time>
  <sat>8</sat>
</trkpt>
<trkpt lat="39.690242000" lon="-0.414859000">
  <ele>424.300000</ele>
  <time>2012-02-26T09:26:53Z</time>
  <sat>8</sat>
</trkpt>
<trkpt lat="39.690290000" lon="-0.414857000">
  <ele>424.200000</ele>
  <time>2012-02-26T09:26:54Z</time>
  <sat>8</sat>
</trkpt>
<trkpt lat="39.690342000" lon="-0.414880000">
  <ele>424.100000</ele>
  <time>2012-02-26T09:26:55Z</time>
  <sat>8</sat>
</trkpt>
<trkpt lat="39.690535000" lon="-0.414933000">
  <ele>422.700000</ele>
  <time>2012-02-26T09:26:58Z</time>
  <sat>7</sat>
</trkpt>
<trkpt lat="39.690681000" lon="-0.414930000">
  <ele>421.600000</ele>
  <time>2012-02-26T09:27:00Z</time>
  <sat>7</sat>
</trkpt>
<trkpt lat="39.690853000" lon="-0.414907000">
  <ele>420.000000</ele>
  <time>2012-02-26T09:27:02Z</time>
  <sat>7</sat>
</trkpt>
<trkpt lat="39.691020000" lon="-0.414860000">
  <ele>418.500000</ele>
  <time>2012-02-26T09:27:04Z</time>
  <sat>7</sat>
</trkpt>
<trkpt lat="39.691191000" lon="-0.414783000">
  <ele>417.000000</ele>
  <time>2012-02-26T09:27:06Z</time>
  <sat>7</sat>
</trkpt>
<trkpt lat="39.691436000" lon="-0.414683000">
  <ele>415.700000</ele>
  <time>2012-02-26T09:27:09Z</time>
  <sat>7</sat>
</trkpt>
<trkpt lat="39.691519000" lon="-0.414664000">
  <ele>415.600000</ele>
  <time>2012-02-26T09:27:10Z</time>
  <sat>8</sat>
</trkpt>
<trkpt lat="39.691917000" lon="-0.414564000">
  <ele>412.800000</ele>
  <time>2012-02-26T09:27:15Z</time>
  <sat>8</sat>
</trkpt>
<trkpt lat="39.691993000" lon="-0.414523000">
  <ele>412.600000</ele>
  <time>2012-02-26T09:27:16Z</time>
  <sat>8</sat>
</trkpt>
<trkpt lat="39.692118000" lon="-0.414405000">
  <ele>413.000000</ele>
  <time>2012-02-26T09:27:18Z</time>
  <sat>8</sat>
</trkpt>
<trkpt lat="39.692237000" lon="-0.414250000">
  <ele>412.500000</ele>
  <time>2012-02-26T09:27:20Z</time>
  <sat>8</sat>
</trkpt>
<trkpt lat="39.692331000" lon="-0.414097000">
  <ele>411.300000</ele>
  <time>2012-02-26T09:27:22Z</time>
  <sat>7</sat>
</trkpt>
<trkpt lat="39.692360000" lon="-0.414018000">
  <ele>410.700000</ele>
  <time>2012-02-26T09:27:23Z</time>
  <sat>7</sat>
</trkpt>
<trkpt lat="39.692480000" lon="-0.413768000">
  <ele>409.700000</ele>
  <time>2012-02-26T09:27:27Z</time>
  <sat>7</sat>
</trkpt>
<trkpt lat="39.692505000" lon="-0.413724000">
  <ele>409.500000</ele>
  <time>2012-02-26T09:27:28Z</time>
  <sat>7</sat>
</trkpt>
<trkpt lat="39.692534000" lon="-0.413694000">
  <ele>409.300000</ele>
  <time>2012-02-26T09:27:29Z</time>
  <sat>7</sat>
</trkpt>
<trkpt lat="39.692570000" lon="-0.413673000">
  <ele>409.200000</ele>
  <time>2012-02-26T09:27:30Z</time>
  <sat>7</sat>
</trkpt>
<trkpt lat="39.692600000" lon="-0.413662000">
  <ele>409.200000</ele>
  <time>2012-02-26T09:27:31Z</time>
  <sat>7</sat>
</trkpt>
<trkpt lat="39.692632000" lon="-0.413659000">
  <ele>409.000000</ele>
  <time>2012-02-26T09:27:32Z</time>
  <sat>7</sat>
</trkpt>
<trkpt lat="39.692656000" lon="-0.413672000">
  <ele>408.700000</ele>
  <time>2012-02-26T09:27:33Z</time>
  <sat>7</sat>
</trkpt>
<trkpt lat="39.692676000" lon="-0.413705000">
  <ele>408.200000</ele>
  <time>2012-02-26T09:27:34Z</time>
  <sat>7</sat>
</trkpt>
<trkpt lat="39.692689000" lon="-0.413721000">
  <ele>408.200000</ele>
  <time>2012-02-26T09:27:35Z</time>
  <sat>7</sat>
</trkpt>
<trkpt lat="39.692697000" lon="-0.413743000">
  <ele>410.000000</ele>
  <time>2012-02-26T09:29:06Z</time>
  <sat>7</sat>
</trkpt>
<trkpt lat="39.692765000" lon="-0.413701000">
  <ele>410.700000</ele>
  <time>2012-02-26T09:29:07Z</time>
  <sat>7</sat>
</trkpt>
<trkpt lat="39.692761000" lon="-0.413699000">
  <ele>411.200000</ele>
  <time>2012-02-26T09:29:08Z</time>
  <sat>7</sat>
</trkpt>
<trkpt lat="39.692759000" lon="-0.413697000">
  <ele>411.200000</ele>
  <time>2012-02-26T09:29:09Z</time>
  <sat>7</sat>
</trkpt>
<trkpt lat="39.692757000" lon="-0.413697000">
  <ele>411.200000</ele>
  <time>2012-02-26T09:29:10Z</time>
  <sat>7</sat>
</trkpt>
<trkpt lat="39.692756000" lon="-0.413695000">
  <ele>411.100000</ele>
  <time>2012-02-26T09:29:11Z</time>
  <sat>7</sat>
</trkpt>
<trkpt lat="39.692754000" lon="-0.413695000">
  <ele>410.700000</ele>
  <time>2012-02-26T09:29:12Z</time>
  <sat>7</sat>
</trkpt>
<trkpt lat="39.692752000" lon="-0.413695000">
  <ele>410.700000</ele>
  <time>2012-02-26T09:29:13Z</time>
  <sat>7</sat>
</trkpt>
<trkpt lat="39.692752000" lon="-0.413695000">
  <ele>410.700000</ele>
  <time>2012-02-26T09:29:14Z</time>
  <sat>7</sat>
</trkpt>
<trkpt lat="39.692753000" lon="-0.413697000">
  <ele>410.600000</ele>
  <time>2012-02-26T09:29:15Z</time>
  <sat>7</sat>
</trkpt>
<trkpt lat="39.692752000" lon="-0.413699000">
  <ele>410.500000</ele>
  <time>2012-02-26T09:29:16Z</time>
  <sat>7</sat>
</trkpt>
<trkpt lat="39.692752000" lon="-0.413700000">
  <ele>410.500000</ele>
  <time>2012-02-26T09:29:17Z</time>
  <sat>7</sat>
</trkpt>
<trkpt lat="39.692752000" lon="-0.413700000">
  <ele>410.300000</ele>
  <time>2012-02-26T09:29:18Z</time>
  <sat>7</sat>
</trkpt>
<trkpt lat="39.692752000" lon="-0.413700000">
  <ele>410.300000</ele>
  <time>2012-02-26T09:29:19Z</time>
  <sat>7</sat>
</trkpt>
<trkpt lat="39.692752000" lon="-0.413699000">
  <ele>410.300000</ele>
  <time>2012-02-26T09:29:20Z</time>
  <sat>7</sat>
</trkpt>
<trkpt lat="39.692752000" lon="-0.413699000">
  <ele>410.300000</ele>
  <time>2012-02-26T09:29:21Z</time>
  <sat>7</sat>
</trkpt>
<trkpt lat="39.692752000" lon="-0.413699000">
  <ele>410.300000</ele>
  <time>2012-02-26T09:29:22Z</time>
  <sat>7</sat>
</trkpt>
<trkpt lat="39.692752000" lon="-0.413699000">
  <ele>410.300000</ele>
  <time>2012-02-26T09:29:23Z</time>
  <sat>7</sat>
</trkpt>
<trkpt lat="39.692745000" lon="-0.413696000">
  <ele>410.100000</ele>
  <time>2012-02-26T09:29:24Z</time>
  <sat>7</sat>
</trkpt>
<trkpt lat="39.692737000" lon="-0.413697000">
  <ele>410.100000</ele>
  <time>2012-02-26T09:29:25Z</time>
  <sat>7</sat>
</trkpt>
<trkpt lat="39.692720000" lon="-0.413698000">
  <ele>409.300000</ele>
  <time>2012-02-26T09:29:26Z</time>
  <sat>7</sat>
</trkpt>
<trkpt lat="39.692700000" lon="-0.413707000">
  <ele>409.200000</ele>
  <time>2012-02-26T09:29:27Z</time>
  <sat>7</sat>
</trkpt>
<trkpt lat="39.692705000" lon="-0.413720000">
  <ele>410.000000</ele>
  <time>2012-02-26T09:29:28Z</time>
  <sat>7</sat>
</trkpt>
<trkpt lat="39.692703000" lon="-0.413718000">
  <ele>410.200000</ele>
  <time>2012-02-26T09:29:29Z</time>
  <sat>7</sat>
</trkpt>
<trkpt lat="39.692696000" lon="-0.413715000">
  <ele>409.700000</ele>
  <time>2012-02-26T09:31:56Z</time>
  <sat>7</sat>
</trkpt>
<trkpt lat="39.692682000" lon="-0.413694000">
  <ele>406.200000</ele>
  <time>2012-02-26T09:31:57Z</time>
  <sat>7</sat>
</trkpt>
<trkpt lat="39.692681000" lon="-0.413692000">
  <ele>405.800000</ele>
  <time>2012-02-26T09:31:58Z</time>
  <sat>6</sat>
</trkpt>
<trkpt lat="39.692679000" lon="-0.413693000">
  <ele>406.100000</ele>
  <time>2012-02-26T09:31:59Z</time>
  <sat>7</sat>
</trkpt>
<trkpt lat="39.692679000" lon="-0.413691000">
  <ele>406.200000</ele>
  <time>2012-02-26T09:32:00Z</time>
  <sat>7</sat>
</trkpt>
<trkpt lat="39.692682000" lon="-0.413688000">
  <ele>406.100000</ele>
  <time>2012-02-26T09:32:01Z</time>
  <sat>7</sat>
</trkpt>
<trkpt lat="39.692683000" lon="-0.413686000">
  <ele>405.800000</ele>
  <time>2012-02-26T09:32:02Z</time>
  <sat>7</sat>
</trkpt>
<trkpt lat="39.692683000" lon="-0.413686000">
  <ele>405.800000</ele>
  <time>2012-02-26T09:32:03Z</time>
  <sat>7</sat>
</trkpt>
<trkpt lat="39.692683000" lon="-0.413687000">
  <ele>405.800000</ele>
  <time>2012-02-26T09:32:04Z</time>
  <sat>7</sat>
</trkpt>
<trkpt lat="39.692683000" lon="-0.413689000">
  <ele>405.800000</ele>
  <time>2012-02-26T09:32:05Z</time>
  <sat>7</sat>
</trkpt>
<trkpt lat="39.692683000" lon="-0.413691000">
  <ele>406.000000</ele>
  <time>2012-02-26T09:32:06Z</time>
  <sat>7</sat>
</trkpt>
<trkpt lat="39.692683000" lon="-0.413690000">
  <ele>406.100000</ele>
  <time>2012-02-26T09:32:07Z</time>
  <sat>7</sat>
</trkpt>
<trkpt lat="39.692683000" lon="-0.413690000">
  <ele>406.100000</ele>
  <time>2012-02-26T09:32:08Z</time>
  <sat>7</sat>
</trkpt>
<trkpt lat="39.692682000" lon="-0.413691000">
  <ele>406.200000</ele>
  <time>2012-02-26T09:32:09Z</time>
  <sat>7</sat>
</trkpt>
<trkpt lat="39.692682000" lon="-0.413691000">
  <ele>406.000000</ele>
  <time>2012-02-26T09:32:10Z</time>
  <sat>7</sat>
</trkpt>
<trkpt lat="39.692682000" lon="-0.413692000">
  <ele>405.800000</ele>
  <time>2012-02-26T09:32:11Z</time>
  <sat>7</sat>
</trkpt>
<trkpt lat="39.692683000" lon="-0.413692000">
  <ele>405.800000</ele>
  <time>2012-02-26T09:32:12Z</time>
  <sat>7</sat>
</trkpt>
<trkpt lat="39.692683000" lon="-0.413692000">
  <ele>405.700000</ele>
  <time>2012-02-26T09:32:13Z</time>
  <sat>7</sat>
</trkpt>
<trkpt lat="39.692683000" lon="-0.413692000">
  <ele>405.700000</ele>
  <time>2012-02-26T09:32:14Z</time>
  <sat>7</sat>
</trkpt>
<trkpt lat="39.692683000" lon="-0.413692000">
  <ele>405.700000</ele>
  <time>2012-02-26T09:32:15Z</time>
  <sat>7</sat>
</trkpt>
<trkpt lat="39.692683000" lon="-0.413692000">
  <ele>405.700000</ele>
  <time>2012-02-26T09:32:16Z</time>
  <sat>7</sat>
</trkpt>
<trkpt lat="39.692683000" lon="-0.413692000">
  <ele>405.700000</ele>
  <time>2012-02-26T09:32:17Z</time>
  <sat>7</sat>
</trkpt>
<trkpt lat="39.692683000" lon="-0.413692000">
  <ele>405.700000</ele>
  <time>2012-02-26T09:32:18Z</time>
  <sat>7</sat>
</trkpt>
<trkpt lat="39.692683000" lon="-0.413692000">
  <ele>405.700000</ele>
  <time>2012-02-26T09:32:19Z</time>
  <sat>7</sat>
</trkpt>
<trkpt lat="39.692683000" lon="-0.413692000">
  <ele>405.700000</ele>
  <time>2012-02-26T09:32:20Z</time>
  <sat>7</sat>
</trkpt>
<trkpt lat="39.692683000" lon="-0.413692000">
  <ele>405.700000</ele>
  <time>2012-02-26T09:32:21Z</time>
  <sat>7</sat>
</trkpt>
<trkpt lat="39.692683000" lon="-0.413692000">
  <ele>405.700000</ele>
  <time>2012-02-26T09:32:22Z</time>
  <sat>7</sat>
</trkpt>
<trkpt lat="39.692683000" lon="-0.413692000">
  <ele>405.700000</ele>
  <time>2012-02-26T09:32:23Z</time>
  <sat>7</sat>
</trkpt>
<trkpt lat="39.692683000" lon="-0.413692000">
  <ele>405.700000</ele>
  <time>2012-02-26T09:32:24Z</time>
  <sat>7</sat>
</trkpt>
<trkpt lat="39.692683000" lon="-0.413692000">
  <ele>405.700000</ele>
  <time>2012-02-26T09:32:25Z</time>
  <sat>7</sat>
</trkpt>
<trkpt lat="39.692695000" lon="-0.413731000">
  <ele>403.200000</ele>
  <time>2012-02-26T09:33:58Z</time>
  <sat>7</sat>
</trkpt>
<trkpt lat="39.692713000" lon="-0.413750000">
  <ele>403.300000</ele>
  <time>2012-02-26T09:33:59Z</time>
  <sat>7</sat>
</trkpt>
<trkpt lat="39.692777000" lon="-0.413775000">
  <ele>404.200000</ele>
  <time>2012-02-26T09:34:01Z</time>
  <sat>7</sat>
</trkpt>
<trkpt lat="39.692960000" lon="-0.413762000">
  <ele>402.200000</ele>
  <time>2012-02-26T09:34:04Z</time>
  <sat>7</sat>
</trkpt>
<trkpt lat="39.693070000" lon="-0.413738000">
  <ele>400.200000</ele>
  <time>2012-02-26T09:34:06Z</time>
  <sat>7</sat>
</trkpt>
<trkpt lat="39.693124000" lon="-0.413720000">
  <ele>399.700000</ele>
  <time>2012-02-26T09:34:07Z</time>
  <sat>7</sat>
</trkpt>
<trkpt lat="39.693174000" lon="-0.413694000">
  <ele>400.100000</ele>
  <time>2012-02-26T09:34:08Z</time>
  <sat>7</sat>
</trkpt>
<trkpt lat="39.693306000" lon="-0.413602000">
  <ele>399.700000</ele>
  <time>2012-02-26T09:34:11Z</time>
  <sat>7</sat>
</trkpt>
<trkpt lat="39.693405000" lon="-0.413556000">
  <ele>399.200000</ele>
  <time>2012-02-26T09:34:13Z</time>
  <sat>7</sat>
</trkpt>
<trkpt lat="39.693461000" lon="-0.413557000">
  <ele>399.200000</ele>
  <time>2012-02-26T09:34:14Z</time>
  <sat>7</sat>
</trkpt>
<trkpt lat="39.693565000" lon="-0.413591000">
  <ele>399.800000</ele>
  <time>2012-02-26T09:34:17Z</time>
  <sat>8</sat>
</trkpt>
<trkpt lat="39.693567000" lon="-0.413594000">
  <ele>400.200000</ele>
  <time>2012-02-26T09:34:18Z</time>
  <sat>8</sat>
</trkpt>
<trkpt lat="39.693574000" lon="-0.413613000">
  <ele>400.200000</ele>
  <time>2012-02-26T09:34:19Z</time>
  <sat>8</sat>
</trkpt>
<trkpt lat="39.693575000" lon="-0.413633000">
  <ele>400.300000</ele>
  <time>2012-02-26T09:34:20Z</time>
  <sat>8</sat>
</trkpt>
<trkpt lat="39.693571000" lon="-0.413643000">
  <ele>399.800000</ele>
  <time>2012-02-26T09:34:21Z</time>
  <sat>8</sat>
</trkpt>
<trkpt lat="39.693565000" lon="-0.413669000">
  <ele>399.800000</ele>
  <time>2012-02-26T09:34:22Z</time>
  <sat>7</sat>
</trkpt>
<trkpt lat="39.693562000" lon="-0.413693000">
  <ele>399.700000</ele>
  <time>2012-02-26T09:34:23Z</time>
  <sat>7</sat>
</trkpt>
<trkpt lat="39.693564000" lon="-0.413725000">
  <ele>399.800000</ele>
  <time>2012-02-26T09:34:24Z</time>
  <sat>7</sat>
</trkpt>
<trkpt lat="39.693572000" lon="-0.413947000">
  <ele>402.100000</ele>
  <time>2012-02-26T09:34:30Z</time>
  <sat>8</sat>
</trkpt>
<trkpt lat="39.693573000" lon="-0.413996000">
  <ele>401.700000</ele>
  <time>2012-02-26T09:34:31Z</time>
  <sat>8</sat>
</trkpt>
<trkpt lat="39.693571000" lon="-0.414050000">
  <ele>402.100000</ele>
  <time>2012-02-26T09:34:32Z</time>
  <sat>8</sat>
</trkpt>
<trkpt lat="39.693565000" lon="-0.414090000">
  <ele>402.000000</ele>
  <time>2012-02-26T09:34:33Z</time>
  <sat>8</sat>
</trkpt>
<trkpt lat="39.693554000" lon="-0.414125000">
  <ele>400.600000</ele>
  <time>2012-02-26T09:34:34Z</time>
  <sat>8</sat>
</trkpt>
<trkpt lat="39.693391000" lon="-0.414587000">
  <ele>394.800000</ele>
  <time>2012-02-26T09:34:48Z</time>
  <sat>8</sat>
</trkpt>
<trkpt lat="39.693375000" lon="-0.414619000">
  <ele>394.700000</ele>
  <time>2012-02-26T09:34:49Z</time>
  <sat>8</sat>
</trkpt>
<trkpt lat="39.693351000" lon="-0.414649000">
  <ele>395.300000</ele>
  <time>2012-02-26T09:34:50Z</time>
  <sat>8</sat>
</trkpt>
<trkpt lat="39.693203000" lon="-0.414826000">
  <ele>399.000000</ele>
  <time>2012-02-26T09:34:57Z</time>
  <sat>8</sat>
</trkpt>
<trkpt lat="39.693190000" lon="-0.414859000">
  <ele>398.700000</ele>
  <time>2012-02-26T09:34:58Z</time>
  <sat>8</sat>
</trkpt>
<trkpt lat="39.692948000" lon="-0.415556000">
  <ele>393.200000</ele>
  <time>2012-02-26T09:35:15Z</time>
  <sat>7</sat>
</trkpt>
<trkpt lat="39.692937000" lon="-0.415601000">
  <ele>393.200000</ele>
  <time>2012-02-26T09:35:16Z</time>
  <sat>7</sat>
</trkpt>
<trkpt lat="39.692779000" lon="-0.416336000">
  <ele>392.200000</ele>
  <time>2012-02-26T09:35:30Z</time>
  <sat>8</sat>
</trkpt>
<trkpt lat="39.692741000" lon="-0.416510000">
  <ele>392.200000</ele>
  <time>2012-02-26T09:35:33Z</time>
  <sat>7</sat>
</trkpt>
<trkpt lat="39.692722000" lon="-0.416561000">
  <ele>392.300000</ele>
  <time>2012-02-26T09:35:34Z</time>
  <sat>7</sat>
</trkpt>
<trkpt lat="39.692632000" lon="-0.416895000">
  <ele>392.100000</ele>
  <time>2012-02-26T09:35:40Z</time>
  <sat>8</sat>
</trkpt>
<trkpt lat="39.692495000" lon="-0.417506000">
  <ele>393.200000</ele>
  <time>2012-02-26T09:35:51Z</time>
  <sat>10</sat>
</trkpt>
<trkpt lat="39.692450000" lon="-0.417795000">
  <ele>393.200000</ele>
  <time>2012-02-26T09:35:56Z</time>
  <sat>9</sat>
</trkpt>
<trkpt lat="39.692446000" lon="-0.417903000">
  <ele>393.200000</ele>
  <time>2012-02-26T09:35:58Z</time>
  <sat>9</sat>
</trkpt>
<trkpt lat="39.692454000" lon="-0.417958000">
  <ele>393.600000</ele>
  <time>2012-02-26T09:35:59Z</time>
  <sat>8</sat>
</trkpt>
<trkpt lat="39.692476000" lon="-0.418059000">
  <ele>393.600000</ele>
  <time>2012-02-26T09:36:01Z</time>
  <sat>9</sat>
</trkpt>
<trkpt lat="39.692498000" lon="-0.418103000">
  <ele>393.700000</ele>
  <time>2012-02-26T09:36:02Z</time>
  <sat>9</sat>
</trkpt>
<trkpt lat="39.692543000" lon="-0.418129000">
  <ele>393.700000</ele>
  <time>2012-02-26T09:36:03Z</time>
  <sat>9</sat>
</trkpt>
<trkpt lat="39.692578000" lon="-0.418161000">
  <ele>393.800000</ele>
  <time>2012-02-26T09:36:04Z</time>
  <sat>9</sat>
</trkpt>
<trkpt lat="39.692687000" lon="-0.418283000">
  <ele>393.300000</ele>
  <time>2012-02-26T09:36:07Z</time>
  <sat>8</sat>
</trkpt>
<trkpt lat="39.692752000" lon="-0.418374000">
  <ele>393.300000</ele>
  <time>2012-02-26T09:36:09Z</time>
  <sat>8</sat>
</trkpt>
<trkpt lat="39.692806000" lon="-0.418479000">
  <ele>393.000000</ele>
  <time>2012-02-26T09:36:11Z</time>
  <sat>9</sat>
</trkpt>
<trkpt lat="39.692820000" lon="-0.418536000">
  <ele>392.700000</ele>
  <time>2012-02-26T09:36:12Z</time>
  <sat>9</sat>
</trkpt>
<trkpt lat="39.692833000" lon="-0.418645000">
  <ele>392.800000</ele>
  <time>2012-02-26T09:36:14Z</time>
  <sat>9</sat>
</trkpt>
<trkpt lat="39.692804000" lon="-0.418734000">
  <ele>393.200000</ele>
  <time>2012-02-26T09:36:15Z</time>
  <sat>9</sat>
</trkpt>
<trkpt lat="39.692772000" lon="-0.418773000">
  <ele>392.500000</ele>
  <time>2012-02-26T09:36:16Z</time>
  <sat>9</sat>
</trkpt>
<trkpt lat="39.692743000" lon="-0.418819000">
  <ele>392.300000</ele>
  <time>2012-02-26T09:36:17Z</time>
  <sat>9</sat>
</trkpt>
<trkpt lat="39.692717000" lon="-0.418866000">
  <ele>392.800000</ele>
  <time>2012-02-26T09:36:18Z</time>
  <sat>9</sat>
</trkpt>
<trkpt lat="39.692660000" lon="-0.419012000">
  <ele>394.300000</ele>
  <time>2012-02-26T09:36:21Z</time>
  <sat>9</sat>
</trkpt>
<trkpt lat="39.692649000" lon="-0.419068000">
  <ele>394.800000</ele>
  <time>2012-02-26T09:36:22Z</time>
  <sat>9</sat>
</trkpt>
<trkpt lat="39.692619000" lon="-0.419374000">
  <ele>396.600000</ele>
  <time>2012-02-26T09:36:27Z</time>
  <sat>8</sat>
</trkpt>
<trkpt lat="39.692586000" lon="-0.419864000">
  <ele>398.600000</ele>
  <time>2012-02-26T09:36:35Z</time>
  <sat>8</sat>
</trkpt>
<trkpt lat="39.692592000" lon="-0.419927000">
  <ele>398.700000</ele>
  <time>2012-02-26T09:36:36Z</time>
  <sat>8</sat>
</trkpt>
<trkpt lat="39.692644000" lon="-0.420218000">
  <ele>400.000000</ele>
  <time>2012-02-26T09:36:41Z</time>
  <sat>9</sat>
</trkpt>
<trkpt lat="39.692665000" lon="-0.420273000">
  <ele>400.200000</ele>
  <time>2012-02-26T09:36:42Z</time>
  <sat>9</sat>
</trkpt>
<trkpt lat="39.692732000" lon="-0.420427000">
  <ele>401.100000</ele>
  <time>2012-02-26T09:36:45Z</time>
  <sat>8</sat>
</trkpt>
<trkpt lat="39.692760000" lon="-0.420461000">
  <ele>400.800000</ele>
  <time>2012-02-26T09:36:46Z</time>
  <sat>8</sat>
</trkpt>
<trkpt lat="39.692800000" lon="-0.420498000">
  <ele>400.500000</ele>
  <time>2012-02-26T09:36:47Z</time>
  <sat>8</sat>
</trkpt>
<trkpt lat="39.692947000" lon="-0.420597000">
  <ele>401.200000</ele>
  <time>2012-02-26T09:36:51Z</time>
  <sat>8</sat>
</trkpt>
<trkpt lat="39.692976000" lon="-0.420596000">
  <ele>402.000000</ele>
  <time>2012-02-26T09:36:52Z</time>
  <sat>7</sat>
</trkpt>
<trkpt lat="39.693009000" lon="-0.420605000">
  <ele>402.600000</ele>
  <time>2012-02-26T09:36:53Z</time>
  <sat>8</sat>
</trkpt>
<trkpt lat="39.693106000" lon="-0.420624000">
  <ele>404.000000</ele>
  <time>2012-02-26T09:36:57Z</time>
  <sat>8</sat>
</trkpt>
<trkpt lat="39.693133000" lon="-0.420615000">
  <ele>404.200000</ele>
  <time>2012-02-26T09:36:58Z</time>
  <sat>9</sat>
</trkpt>
<trkpt lat="39.693158000" lon="-0.420613000">
  <ele>404.200000</ele>
  <time>2012-02-26T09:36:59Z</time>
  <sat>9</sat>
</trkpt>
<trkpt lat="39.693200000" lon="-0.420593000">
  <ele>404.600000</ele>
  <time>2012-02-26T09:37:01Z</time>
  <sat>9</sat>
</trkpt>
<trkpt lat="39.693236000" lon="-0.420567000">
  <ele>403.700000</ele>
  <time>2012-02-26T09:37:03Z</time>
  <sat>9</sat>
</trkpt>
<trkpt lat="39.693267000" lon="-0.420527000">
  <ele>402.300000</ele>
  <time>2012-02-26T09:37:05Z</time>
  <sat>8</sat>
</trkpt>
<trkpt lat="39.693336000" lon="-0.420419000">
  <ele>401.700000</ele>
  <time>2012-02-26T09:37:10Z</time>
  <sat>8</sat>
</trkpt>
<trkpt lat="39.693342000" lon="-0.420396000">
  <ele>402.100000</ele>
  <time>2012-02-26T09:37:11Z</time>
  <sat>7</sat>
</trkpt>
<trkpt lat="39.693361000" lon="-0.420343000">
  <ele>403.300000</ele>
  <time>2012-02-26T09:37:13Z</time>
  <sat>8</sat>
</trkpt>
<trkpt lat="39.693385000" lon="-0.420237000">
  <ele>405.200000</ele>
  <time>2012-02-26T09:37:17Z</time>
  <sat>8</sat>
</trkpt>
<trkpt lat="39.693389000" lon="-0.420203000">
  <ele>405.700000</ele>
  <time>2012-02-26T09:37:18Z</time>
  <sat>8</sat>
</trkpt>
<trkpt lat="39.693406000" lon="-0.420109000">
  <ele>406.200000</ele>
  <time>2012-02-26T09:37:21Z</time>
  <sat>8</sat>
</trkpt>
<trkpt lat="39.693416000" lon="-0.420081000">
  <ele>406.100000</ele>
  <time>2012-02-26T09:37:22Z</time>
  <sat>8</sat>
</trkpt>
<trkpt lat="39.693522000" lon="-0.419833000">
  <ele>408.300000</ele>
  <time>2012-02-26T09:37:31Z</time>
  <sat>8</sat>
</trkpt>
<trkpt lat="39.693540000" lon="-0.419811000">
  <ele>408.700000</ele>
  <time>2012-02-26T09:37:32Z</time>
  <sat>8</sat>
</trkpt>
<trkpt lat="39.693553000" lon="-0.419789000">
  <ele>409.100000</ele>
  <time>2012-02-26T09:37:33Z</time>
  <sat>8</sat>
</trkpt>
<trkpt lat="39.693618000" lon="-0.419657000">
  <ele>410.700000</ele>
  <time>2012-02-26T09:37:38Z</time>
  <sat>8</sat>
</trkpt>
<trkpt lat="39.693664000" lon="-0.419577000">
  <ele>410.700000</ele>
  <time>2012-02-26T09:37:41Z</time>
  <sat>8</sat>
</trkpt>
<trkpt lat="39.693682000" lon="-0.419552000">
  <ele>410.300000</ele>
  <time>2012-02-26T09:37:42Z</time>
  <sat>8</sat>
</trkpt>
<trkpt lat="39.693701000" lon="-0.419538000">
  <ele>410.300000</ele>
  <time>2012-02-26T09:37:43Z</time>
  <sat>8</sat>
</trkpt>
<trkpt lat="39.693724000" lon="-0.419526000">
  <ele>411.000000</ele>
  <time>2012-02-26T09:37:44Z</time>
  <sat>8</sat>
</trkpt>
<trkpt lat="39.693772000" lon="-0.419513000">
  <ele>411.500000</ele>
  <time>2012-02-26T09:37:46Z</time>
  <sat>7</sat>
</trkpt>
<trkpt lat="39.693794000" lon="-0.419517000">
  <ele>412.000000</ele>
  <time>2012-02-26T09:37:47Z</time>
  <sat>7</sat>
</trkpt>
<trkpt lat="39.693867000" lon="-0.419540000">
  <ele>413.100000</ele>
  <time>2012-02-26T09:37:51Z</time>
  <sat>8</sat>
</trkpt>
<trkpt lat="39.693881000" lon="-0.419551000">
  <ele>413.200000</ele>
  <time>2012-02-26T09:37:52Z</time>
  <sat>8</sat>
</trkpt>
<trkpt lat="39.694109000" lon="-0.419729000">
  <ele>413.800000</ele>
  <time>2012-02-26T09:38:05Z</time>
  <sat>8</sat>
</trkpt>
<trkpt lat="39.694117000" lon="-0.419752000">
  <ele>414.600000</ele>
  <time>2012-02-26T09:38:06Z</time>
  <sat>8</sat>
</trkpt>
<trkpt lat="39.694131000" lon="-0.419763000">
  <ele>415.200000</ele>
  <time>2012-02-26T09:38:07Z</time>
  <sat>8</sat>
</trkpt>
<trkpt lat="39.694146000" lon="-0.419776000">
  <ele>415.800000</ele>
  <time>2012-02-26T09:38:08Z</time>
  <sat>8</sat>
</trkpt>
<trkpt lat="39.694182000" lon="-0.419804000">
  <ele>416.600000</ele>
  <time>2012-02-26T09:38:10Z</time>
  <sat>8</sat>
</trkpt>
<trkpt lat="39.694257000" lon="-0.419863000">
  <ele>417.700000</ele>
  <time>2012-02-26T09:38:15Z</time>
  <sat>9</sat>
</trkpt>
<trkpt lat="39.694288000" lon="-0.419886000">
  <ele>419.200000</ele>
  <time>2012-02-26T09:38:17Z</time>
  <sat>9</sat>
</trkpt>
<trkpt lat="39.694306000" lon="-0.419894000">
  <ele>420.000000</ele>
  <time>2012-02-26T09:38:18Z</time>
  <sat>8</sat>
</trkpt>
<trkpt lat="39.694403000" lon="-0.419922000">
  <ele>421.200000</ele>
  <time>2012-02-26T09:38:24Z</time>
  <sat>8</sat>
</trkpt>
<trkpt lat="39.694420000" lon="-0.419927000">
  <ele>421.600000</ele>
  <time>2012-02-26T09:38:25Z</time>
  <sat>8</sat>
</trkpt>
<trkpt lat="39.694437000" lon="-0.419925000">
  <ele>421.600000</ele>
  <time>2012-02-26T09:38:26Z</time>
  <sat>8</sat>
</trkpt>
<trkpt lat="39.694455000" lon="-0.419925000">
  <ele>421.200000</ele>
  <time>2012-02-26T09:38:27Z</time>
  <sat>8</sat>
</trkpt>
<trkpt lat="39.694474000" lon="-0.419928000">
  <ele>421.200000</ele>
  <time>2012-02-26T09:38:28Z</time>
  <sat>8</sat>
</trkpt>
<trkpt lat="39.694492000" lon="-0.419924000">
  <ele>421.300000</ele>
  <time>2012-02-26T09:38:29Z</time>
  <sat>9</sat>
</trkpt>
<trkpt lat="39.694509000" lon="-0.419916000">
  <ele>421.500000</ele>
  <time>2012-02-26T09:38:30Z</time>
  <sat>9</sat>
</trkpt>
<trkpt lat="39.694523000" lon="-0.419903000">
  <ele>421.200000</ele>
  <time>2012-02-26T09:38:31Z</time>
  <sat>9</sat>
</trkpt>
<trkpt lat="39.694538000" lon="-0.419869000">
  <ele>421.200000</ele>
  <time>2012-02-26T09:38:33Z</time>
  <sat>9</sat>
</trkpt>
<trkpt lat="39.694538000" lon="-0.419848000">
  <ele>421.100000</ele>
  <time>2012-02-26T09:38:34Z</time>
  <sat>9</sat>
</trkpt>
<trkpt lat="39.694524000" lon="-0.419719000">
  <ele>422.500000</ele>
  <time>2012-02-26T09:38:39Z</time>
  <sat>9</sat>
</trkpt>
<trkpt lat="39.694505000" lon="-0.419586000">
  <ele>424.700000</ele>
  <time>2012-02-26T09:38:45Z</time>
  <sat>8</sat>
</trkpt>
<trkpt lat="39.694497000" lon="-0.419541000">
  <ele>425.700000</ele>
  <time>2012-02-26T09:38:47Z</time>
  <sat>9</sat>
</trkpt>
<trkpt lat="39.694483000" lon="-0.419526000">
  <ele>426.100000</ele>
  <time>2012-02-26T09:38:48Z</time>
  <sat>9</sat>
</trkpt>
<trkpt lat="39.694469000" lon="-0.419505000">
  <ele>426.200000</ele>
  <time>2012-02-26T09:38:49Z</time>
  <sat>9</sat>
</trkpt>
<trkpt lat="39.694455000" lon="-0.419487000">
  <ele>426.600000</ele>
  <time>2012-02-26T09:38:50Z</time>
  <sat>9</sat>
</trkpt>
<trkpt lat="39.694437000" lon="-0.419477000">
  <ele>426.800000</ele>
  <time>2012-02-26T09:38:51Z</time>
  <sat>9</sat>
</trkpt>
<trkpt lat="39.694356000" lon="-0.419450000">
  <ele>427.800000</ele>
  <time>2012-02-26T09:38:55Z</time>
  <sat>9</sat>
</trkpt>
<trkpt lat="39.694065000" lon="-0.419333000">
  <ele>432.500000</ele>
  <time>2012-02-26T09:39:10Z</time>
  <sat>8</sat>
</trkpt>
<trkpt lat="39.693942000" lon="-0.419279000">
  <ele>434.100000</ele>
  <time>2012-02-26T09:39:16Z</time>
  <sat>8</sat>
</trkpt>
<trkpt lat="39.693929000" lon="-0.419263000">
  <ele>434.300000</ele>
  <time>2012-02-26T09:39:17Z</time>
  <sat>8</sat>
</trkpt>
<trkpt lat="39.693852000" lon="-0.419154000">
  <ele>434.500000</ele>
  <time>2012-02-26T09:39:23Z</time>
  <sat>8</sat>
</trkpt>
<trkpt lat="39.693802000" lon="-0.419109000">
  <ele>434.500000</ele>
  <time>2012-02-26T09:39:26Z</time>
  <sat>8</sat>
</trkpt>
<trkpt lat="39.693791000" lon="-0.419103000">
  <ele>434.800000</ele>
  <time>2012-02-26T09:39:27Z</time>
  <sat>8</sat>
</trkpt>
<trkpt lat="39.693623000" lon="-0.418987000">
  <ele>433.100000</ele>
  <time>2012-02-26T09:39:38Z</time>
  <sat>7</sat>
</trkpt>
<trkpt lat="39.693565000" lon="-0.418942000">
  <ele>434.600000</ele>
  <time>2012-02-26T09:39:42Z</time>
  <sat>9</sat>
</trkpt>
<trkpt lat="39.693558000" lon="-0.418916000">
  <ele>434.700000</ele>
  <time>2012-02-26T09:39:43Z</time>
  <sat>9</sat>
</trkpt>
<trkpt lat="39.693558000" lon="-0.418865000">
  <ele>434.600000</ele>
  <time>2012-02-26T09:39:45Z</time>
  <sat>9</sat>
</trkpt>
<trkpt lat="39.693569000" lon="-0.418784000">
  <ele>434.500000</ele>
  <time>2012-02-26T09:39:49Z</time>
  <sat>9</sat>
</trkpt>
<trkpt lat="39.693573000" lon="-0.418764000">
  <ele>434.200000</ele>
  <time>2012-02-26T09:39:50Z</time>
  <sat>9</sat>
</trkpt>
<trkpt lat="39.693583000" lon="-0.418749000">
  <ele>434.500000</ele>
  <time>2012-02-26T09:39:51Z</time>
  <sat>9</sat>
</trkpt>
<trkpt lat="39.693598000" lon="-0.418737000">
  <ele>434.600000</ele>
  <time>2012-02-26T09:39:52Z</time>
  <sat>9</sat>
</trkpt>
<trkpt lat="39.693615000" lon="-0.418726000">
  <ele>434.700000</ele>
  <time>2012-02-26T09:39:53Z</time>
  <sat>9</sat>
</trkpt>
<trkpt lat="39.693628000" lon="-0.418718000">
  <ele>434.600000</ele>
  <time>2012-02-26T09:39:54Z</time>
  <sat>9</sat>
</trkpt>
<trkpt lat="39.693636000" lon="-0.418728000">
  <ele>435.200000</ele>
  <time>2012-02-26T09:39:55Z</time>
  <sat>9</sat>
</trkpt>
<trkpt lat="39.693681000" lon="-0.418783000">
  <ele>436.300000</ele>
  <time>2012-02-26T09:39:59Z</time>
  <sat>9</sat>
</trkpt>
<trkpt lat="39.693692000" lon="-0.418793000">
  <ele>436.500000</ele>
  <time>2012-02-26T09:40:00Z</time>
  <sat>9</sat>
</trkpt>
<trkpt lat="39.693736000" lon="-0.418831000">
  <ele>438.100000</ele>
  <time>2012-02-26T09:40:04Z</time>
  <sat>9</sat>
</trkpt>
<trkpt lat="39.693748000" lon="-0.418840000">
  <ele>438.600000</ele>
  <time>2012-02-26T09:40:05Z</time>
  <sat>9</sat>
</trkpt>
<trkpt lat="39.693758000" lon="-0.418848000">
  <ele>439.100000</ele>
  <time>2012-02-26T09:40:06Z</time>
  <sat>9</sat>
</trkpt>
<trkpt lat="39.693771000" lon="-0.418852000">
  <ele>439.200000</ele>
  <time>2012-02-26T09:40:07Z</time>
  <sat>9</sat>
</trkpt>
<trkpt lat="39.693782000" lon="-0.418859000">
  <ele>439.500000</ele>
  <time>2012-02-26T09:40:08Z</time>
  <sat>8</sat>
</trkpt>
<trkpt lat="39.693804000" lon="-0.418857000">
  <ele>439.800000</ele>
  <time>2012-02-26T09:40:10Z</time>
  <sat>9</sat>
</trkpt>
<trkpt lat="39.693820000" lon="-0.418860000">
  <ele>440.000000</ele>
  <time>2012-02-26T09:40:11Z</time>
  <sat>9</sat>
</trkpt>
<trkpt lat="39.693839000" lon="-0.418873000">
  <ele>440.000000</ele>
  <time>2012-02-26T09:40:12Z</time>
  <sat>9</sat>
</trkpt>
<trkpt lat="39.693856000" lon="-0.418877000">
  <ele>440.700000</ele>
  <time>2012-02-26T09:40:13Z</time>
  <sat>9</sat>
</trkpt>
<trkpt lat="39.693873000" lon="-0.418896000">
  <ele>440.500000</ele>
  <time>2012-02-26T09:40:14Z</time>
  <sat>9</sat>
</trkpt>
<trkpt lat="39.693892000" lon="-0.418898000">
  <ele>440.500000</ele>
  <time>2012-02-26T09:40:15Z</time>
  <sat>9</sat>
</trkpt>
<trkpt lat="39.693910000" lon="-0.418903000">
  <ele>440.500000</ele>
  <time>2012-02-26T09:40:16Z</time>
  <sat>9</sat>
</trkpt>
<trkpt lat="39.693964000" lon="-0.418938000">
  <ele>443.500000</ele>
  <time>2012-02-26T09:40:20Z</time>
  <sat>9</sat>
</trkpt>
<trkpt lat="39.693976000" lon="-0.418936000">
  <ele>444.100000</ele>
  <time>2012-02-26T09:40:21Z</time>
  <sat>9</sat>
</trkpt>
<trkpt lat="39.693991000" lon="-0.418932000">
  <ele>443.800000</ele>
  <time>2012-02-26T09:40:22Z</time>
  <sat>9</sat>
</trkpt>
<trkpt lat="39.694007000" lon="-0.418931000">
  <ele>444.500000</ele>
  <time>2012-02-26T09:40:23Z</time>
  <sat>9</sat>
</trkpt>
<trkpt lat="39.694033000" lon="-0.418923000">
  <ele>447.200000</ele>
  <time>2012-02-26T09:40:25Z</time>
  <sat>9</sat>
</trkpt>
<trkpt lat="39.694061000" lon="-0.418922000">
  <ele>448.700000</ele>
  <time>2012-02-26T09:40:27Z</time>
  <sat>9</sat>
</trkpt>
<trkpt lat="39.694074000" lon="-0.418924000">
  <ele>449.000000</ele>
  <time>2012-02-26T09:40:28Z</time>
  <sat>9</sat>
</trkpt>
<trkpt lat="39.694090000" lon="-0.418931000">
  <ele>448.700000</ele>
  <time>2012-02-26T09:40:29Z</time>
  <sat>9</sat>
</trkpt>
<trkpt lat="39.694181000" lon="-0.418954000">
  <ele>449.100000</ele>
  <time>2012-02-26T09:40:36Z</time>
  <sat>9</sat>
</trkpt>
<trkpt lat="39.694284000" lon="-0.418954000">
  <ele>449.200000</ele>
  <time>2012-02-26T09:40:42Z</time>
  <sat>9</sat>
</trkpt>
<trkpt lat="39.694301000" lon="-0.418955000">
  <ele>449.200000</ele>
  <time>2012-02-26T09:40:43Z</time>
  <sat>9</sat>
</trkpt>
<trkpt lat="39.694319000" lon="-0.418953000">
  <ele>449.100000</ele>
  <time>2012-02-26T09:40:44Z</time>
  <sat>9</sat>
</trkpt>
<trkpt lat="39.694509000" lon="-0.418901000">
  <ele>449.700000</ele>
  <time>2012-02-26T09:40:55Z</time>
  <sat>8</sat>
</trkpt>
<trkpt lat="39.694520000" lon="-0.418876000">
  <ele>449.700000</ele>
  <time>2012-02-26T09:40:56Z</time>
  <sat>8</sat>
</trkpt>
<trkpt lat="39.694538000" lon="-0.418858000">
  <ele>449.600000</ele>
  <time>2012-02-26T09:40:57Z</time>
  <sat>8</sat>
</trkpt>
<trkpt lat="39.694547000" lon="-0.418842000">
  <ele>449.700000</ele>
  <time>2012-02-26T09:40:58Z</time>
  <sat>8</sat>
</trkpt>
<trkpt lat="39.694572000" lon="-0.418787000">
  <ele>449.100000</ele>
  <time>2012-02-26T09:41:01Z</time>
  <sat>8</sat>
</trkpt>
<trkpt lat="39.694596000" lon="-0.418730000">
  <ele>448.200000</ele>
  <time>2012-02-26T09:41:04Z</time>
  <sat>8</sat>
</trkpt>
<trkpt lat="39.694613000" lon="-0.418665000">
  <ele>448.700000</ele>
  <time>2012-02-26T09:41:07Z</time>
  <sat>8</sat>
</trkpt>
<trkpt lat="39.694614000" lon="-0.418642000">
  <ele>449.100000</ele>
  <time>2012-02-26T09:41:08Z</time>
  <sat>8</sat>
</trkpt>
<trkpt lat="39.694637000" lon="-0.418510000">
  <ele>450.700000</ele>
  <time>2012-02-26T09:41:14Z</time>
  <sat>8</sat>
</trkpt>
<trkpt lat="39.694658000" lon="-0.418403000">
  <ele>451.700000</ele>
  <time>2012-02-26T09:41:19Z</time>
  <sat>7</sat>
</trkpt>
<trkpt lat="39.694693000" lon="-0.418184000">
  <ele>455.800000</ele>
  <time>2012-02-26T09:41:29Z</time>
  <sat>8</sat>
</trkpt>
<trkpt lat="39.694716000" lon="-0.418050000">
  <ele>455.200000</ele>
  <time>2012-02-26T09:41:35Z</time>
  <sat>8</sat>
</trkpt>
<trkpt lat="39.694719000" lon="-0.418035000">
  <ele>454.700000</ele>
  <time>2012-02-26T09:41:36Z</time>
  <sat>8</sat>
</trkpt>
<trkpt lat="39.694723000" lon="-0.417993000">
  <ele>454.300000</ele>
  <time>2012-02-26T09:41:38Z</time>
  <sat>8</sat>
</trkpt>
<trkpt lat="39.694699000" lon="-0.417899000">
  <ele>456.200000</ele>
  <time>2012-02-26T09:41:43Z</time>
  <sat>8</sat>
</trkpt>
<trkpt lat="39.694680000" lon="-0.417830000">
  <ele>457.000000</ele>
  <time>2012-02-26T09:41:47Z</time>
  <sat>8</sat>
</trkpt>
<trkpt lat="39.694676000" lon="-0.417808000">
  <ele>456.700000</ele>
  <time>2012-02-26T09:41:48Z</time>
  <sat>8</sat>
</trkpt>
<trkpt lat="39.694677000" lon="-0.417703000">
  <ele>461.200000</ele>
  <time>2012-02-26T09:41:54Z</time>
  <sat>8</sat>
</trkpt>
<trkpt lat="39.694682000" lon="-0.417687000">
  <ele>463.000000</ele>
  <time>2012-02-26T09:41:55Z</time>
  <sat>8</sat>
</trkpt>
<trkpt lat="39.694677000" lon="-0.417660000">
  <ele>463.300000</ele>
  <time>2012-02-26T09:41:56Z</time>
  <sat>8</sat>
</trkpt>
<trkpt lat="39.694672000" lon="-0.417631000">
  <ele>464.000000</ele>
  <time>2012-02-26T09:41:57Z</time>
  <sat>8</sat>
</trkpt>
<trkpt lat="39.694672000" lon="-0.417613000">
  <ele>464.200000</ele>
  <time>2012-02-26T09:41:58Z</time>
  <sat>8</sat>
</trkpt>
<trkpt lat="39.694666000" lon="-0.417597000">
  <ele>465.100000</ele>
  <time>2012-02-26T09:41:59Z</time>
  <sat>9</sat>
</trkpt>
<trkpt lat="39.694666000" lon="-0.417584000">
  <ele>465.200000</ele>
  <time>2012-02-26T09:42:00Z</time>
  <sat>9</sat>
</trkpt>
<trkpt lat="39.694660000" lon="-0.417545000">
  <ele>465.300000</ele>
  <time>2012-02-26T09:42:02Z</time>
  <sat>9</sat>
</trkpt>
<trkpt lat="39.694651000" lon="-0.417460000">
  <ele>465.300000</ele>
  <time>2012-02-26T09:42:05Z</time>
  <sat>8</sat>
</trkpt>
<trkpt lat="39.694622000" lon="-0.417360000">
  <ele>466.300000</ele>
  <time>2012-02-26T09:42:10Z</time>
  <sat>9</sat>
</trkpt>
<trkpt lat="39.694606000" lon="-0.417347000">
  <ele>466.700000</ele>
  <time>2012-02-26T09:42:11Z</time>
  <sat>9</sat>
</trkpt>
<trkpt lat="39.694596000" lon="-0.417330000">
  <ele>467.100000</ele>
  <time>2012-02-26T09:42:12Z</time>
  <sat>9</sat>
</trkpt>
<trkpt lat="39.694585000" lon="-0.417273000">
  <ele>467.100000</ele>
  <time>2012-02-26T09:42:15Z</time>
  <sat>9</sat>
</trkpt>
<trkpt lat="39.694576000" lon="-0.417244000">
  <ele>465.800000</ele>
  <time>2012-02-26T09:42:17Z</time>
  <sat>9</sat>
</trkpt>
<trkpt lat="39.694565000" lon="-0.417225000">
  <ele>466.100000</ele>
  <time>2012-02-26T09:42:18Z</time>
  <sat>9</sat>
</trkpt>
<trkpt lat="39.694534000" lon="-0.417159000">
  <ele>465.300000</ele>
  <time>2012-02-26T09:42:22Z</time>
  <sat>10</sat>
</trkpt>
<trkpt lat="39.694478000" lon="-0.417058000">
  <ele>466.300000</ele>
  <time>2012-02-26T09:43:11Z</time>
  <sat>8</sat>
</trkpt>
<trkpt lat="39.694479000" lon="-0.417045000">
  <ele>466.200000</ele>
  <time>2012-02-26T09:43:12Z</time>
  <sat>8</sat>
</trkpt>
<trkpt lat="39.694480000" lon="-0.417027000">
  <ele>466.000000</ele>
  <time>2012-02-26T09:43:13Z</time>
  <sat>8</sat>
</trkpt>
<trkpt lat="39.694490000" lon="-0.416964000">
  <ele>464.800000</ele>
  <time>2012-02-26T09:43:19Z</time>
  <sat>8</sat>
</trkpt>
<trkpt lat="39.694530000" lon="-0.416925000">
  <ele>466.800000</ele>
  <time>2012-02-26T09:43:20Z</time>
  <sat>8</sat>
</trkpt>
<trkpt lat="39.694546000" lon="-0.416913000">
  <ele>467.000000</ele>
  <time>2012-02-26T09:43:21Z</time>
  <sat>8</sat>
</trkpt>
<trkpt lat="39.694560000" lon="-0.416894000">
  <ele>467.200000</ele>
  <time>2012-02-26T09:43:22Z</time>
  <sat>8</sat>
</trkpt>
<trkpt lat="39.694697000" lon="-0.416696000">
  <ele>469.200000</ele>
  <time>2012-02-26T09:43:34Z</time>
  <sat>6</sat>
</trkpt>
<trkpt lat="39.694706000" lon="-0.416684000">
  <ele>469.800000</ele>
  <time>2012-02-26T09:43:35Z</time>
  <sat>7</sat>
</trkpt>
<trkpt lat="39.694713000" lon="-0.416660000">
  <ele>470.200000</ele>
  <time>2012-02-26T09:43:36Z</time>
  <sat>9</sat>
</trkpt>
<trkpt lat="39.694732000" lon="-0.416602000">
  <ele>472.000000</ele>
  <time>2012-02-26T09:43:39Z</time>
  <sat>9</sat>
</trkpt>
<trkpt lat="39.694785000" lon="-0.416477000">
  <ele>473.500000</ele>
  <time>2012-02-26T09:43:46Z</time>
  <sat>5</sat>
</trkpt>
<trkpt lat="39.694892000" lon="-0.416472000">
  <ele>475.600000</ele>
  <time>2012-02-26T09:43:52Z</time>
  <sat>9</sat>
</trkpt>
<trkpt lat="39.694895000" lon="-0.416464000">
  <ele>475.000000</ele>
  <time>2012-02-26T09:43:53Z</time>
  <sat>9</sat>
</trkpt>
<trkpt lat="39.694903000" lon="-0.416474000">
  <ele>476.100000</ele>
  <time>2012-02-26T09:43:54Z</time>
  <sat>10</sat>
</trkpt>
<trkpt lat="39.694915000" lon="-0.416468000">
  <ele>477.000000</ele>
  <time>2012-02-26T09:43:55Z</time>
  <sat>10</sat>
</trkpt>
<trkpt lat="39.694927000" lon="-0.416458000">
  <ele>479.000000</ele>
  <time>2012-02-26T09:43:56Z</time>
  <sat>10</sat>
</trkpt>
<trkpt lat="39.694948000" lon="-0.416463000">
  <ele>479.500000</ele>
  <time>2012-02-26T09:43:57Z</time>
  <sat>10</sat>
</trkpt>
<trkpt lat="39.694963000" lon="-0.416462000">
  <ele>479.700000</ele>
  <time>2012-02-26T09:43:58Z</time>
  <sat>10</sat>
</trkpt>
<trkpt lat="39.694983000" lon="-0.416465000">
  <ele>480.200000</ele>
  <time>2012-02-26T09:43:59Z</time>
  <sat>10</sat>
</trkpt>
<trkpt lat="39.695002000" lon="-0.416450000">
  <ele>480.300000</ele>
  <time>2012-02-26T09:44:00Z</time>
  <sat>10</sat>
</trkpt>
<trkpt lat="39.695037000" lon="-0.416413000">
  <ele>477.000000</ele>
  <time>2012-02-26T09:44:02Z</time>
  <sat>10</sat>
</trkpt>
<trkpt lat="39.695046000" lon="-0.416394000">
  <ele>475.300000</ele>
  <time>2012-02-26T09:44:03Z</time>
  <sat>8</sat>
</trkpt>
<trkpt lat="39.695069000" lon="-0.416347000">
  <ele>475.300000</ele>
  <time>2012-02-26T09:44:06Z</time>
  <sat>9</sat>
</trkpt>
<trkpt lat="39.695080000" lon="-0.416332000">
  <ele>475.300000</ele>
  <time>2012-02-26T09:44:07Z</time>
  <sat>9</sat>
</trkpt>
<trkpt lat="39.695089000" lon="-0.416320000">
  <ele>475.200000</ele>
  <time>2012-02-26T09:44:08Z</time>
  <sat>9</sat>
</trkpt>
<trkpt lat="39.695122000" lon="-0.416286000">
  <ele>476.000000</ele>
  <time>2012-02-26T09:44:11Z</time>
  <sat>9</sat>
</trkpt>
<trkpt lat="39.695204000" lon="-0.416213000">
  <ele>478.200000</ele>
  <time>2012-02-26T09:44:18Z</time>
  <sat>8</sat>
</trkpt>
<trkpt lat="39.695216000" lon="-0.416203000">
  <ele>478.600000</ele>
  <time>2012-02-26T09:44:19Z</time>
  <sat>8</sat>
</trkpt>
<trkpt lat="39.695241000" lon="-0.416185000">
  <ele>479.100000</ele>
  <time>2012-02-26T09:44:21Z</time>
  <sat>8</sat>
</trkpt>
<trkpt lat="39.695270000" lon="-0.416172000">
  <ele>479.200000</ele>
  <time>2012-02-26T09:44:23Z</time>
  <sat>9</sat>
</trkpt>
<trkpt lat="39.695344000" lon="-0.416140000">
  <ele>478.700000</ele>
  <time>2012-02-26T09:44:28Z</time>
  <sat>10</sat>
</trkpt>
<trkpt lat="39.695378000" lon="-0.416124000">
  <ele>480.300000</ele>
  <time>2012-02-26T09:44:31Z</time>
  <sat>10</sat>
</trkpt>
<trkpt lat="39.695388000" lon="-0.416115000">
  <ele>480.600000</ele>
  <time>2012-02-26T09:44:32Z</time>
  <sat>10</sat>
</trkpt>
<trkpt lat="39.695401000" lon="-0.416108000">
  <ele>480.700000</ele>
  <time>2012-02-26T09:44:33Z</time>
  <sat>10</sat>
</trkpt>
<trkpt lat="39.695453000" lon="-0.416073000">
  <ele>481.300000</ele>
  <time>2012-02-26T09:44:37Z</time>
  <sat>10</sat>
</trkpt>
<trkpt lat="39.695462000" lon="-0.416063000">
  <ele>481.700000</ele>
  <time>2012-02-26T09:44:38Z</time>
  <sat>10</sat>
</trkpt>
<trkpt lat="39.695537000" lon="-0.415984000">
  <ele>483.300000</ele>
  <time>2012-02-26T09:44:45Z</time>
  <sat>10</sat>
</trkpt>
<trkpt lat="39.695576000" lon="-0.415933000">
  <ele>483.300000</ele>
  <time>2012-02-26T09:44:49Z</time>
  <sat>9</sat>
</trkpt>
<trkpt lat="39.695611000" lon="-0.415891000">
  <ele>485.600000</ele>
  <time>2012-02-26T09:44:53Z</time>
  <sat>9</sat>
</trkpt>
<trkpt lat="39.695616000" lon="-0.415877000">
  <ele>486.200000</ele>
  <time>2012-02-26T09:44:54Z</time>
  <sat>9</sat>
</trkpt>
<trkpt lat="39.695641000" lon="-0.415797000">
  <ele>486.300000</ele>
  <time>2012-02-26T09:44:59Z</time>
  <sat>8</sat>
</trkpt>
<trkpt lat="39.695642000" lon="-0.415780000">
  <ele>486.500000</ele>
  <time>2012-02-26T09:45:00Z</time>
  <sat>8</sat>
</trkpt>
<trkpt lat="39.695644000" lon="-0.415760000">
  <ele>486.700000</ele>
  <time>2012-02-26T09:45:01Z</time>
  <sat>8</sat>
</trkpt>
<trkpt lat="39.695646000" lon="-0.415744000">
  <ele>486.700000</ele>
  <time>2012-02-26T09:45:02Z</time>
  <sat>8</sat>
</trkpt>
<trkpt lat="39.695646000" lon="-0.415701000">
  <ele>487.600000</ele>
  <time>2012-02-26T09:45:05Z</time>
  <sat>8</sat>
</trkpt>
<trkpt lat="39.695651000" lon="-0.415685000">
  <ele>487.800000</ele>
  <time>2012-02-26T09:45:06Z</time>
  <sat>8</sat>
</trkpt>
<trkpt lat="39.695658000" lon="-0.415672000">
  <ele>488.600000</ele>
  <time>2012-02-26T09:45:07Z</time>
  <sat>8</sat>
</trkpt>
<trkpt lat="39.695666000" lon="-0.415644000">
  <ele>489.100000</ele>
  <time>2012-02-26T09:45:09Z</time>
  <sat>8</sat>
</trkpt>
<trkpt lat="39.695670000" lon="-0.415609000">
  <ele>489.500000</ele>
  <time>2012-02-26T09:45:11Z</time>
  <sat>8</sat>
</trkpt>
<trkpt lat="39.695674000" lon="-0.415531000">
  <ele>490.600000</ele>
  <time>2012-02-26T09:45:15Z</time>
  <sat>9</sat>
</trkpt>
<trkpt lat="39.695672000" lon="-0.415514000">
  <ele>491.000000</ele>
  <time>2012-02-26T09:45:16Z</time>
  <sat>9</sat>
</trkpt>
<trkpt lat="39.695672000" lon="-0.415493000">
  <ele>491.100000</ele>
  <time>2012-02-26T09:45:17Z</time>
  <sat>9</sat>
</trkpt>
<trkpt lat="39.695659000" lon="-0.415303000">
  <ele>494.200000</ele>
  <time>2012-02-26T09:45:26Z</time>
  <sat>9</sat>
</trkpt>
<trkpt lat="39.695654000" lon="-0.415281000">
  <ele>494.500000</ele>
  <time>2012-02-26T09:45:27Z</time>
  <sat>9</sat>
</trkpt>
<trkpt lat="39.695650000" lon="-0.415242000">
  <ele>495.000000</ele>
  <time>2012-02-26T09:45:29Z</time>
  <sat>9</sat>
</trkpt>
<trkpt lat="39.695652000" lon="-0.415219000">
  <ele>494.100000</ele>
  <time>2012-02-26T09:45:30Z</time>
  <sat>9</sat>
</trkpt>
<trkpt lat="39.695672000" lon="-0.415090000">
  <ele>492.700000</ele>
  <time>2012-02-26T09:45:36Z</time>
  <sat>9</sat>
</trkpt>
<trkpt lat="39.695684000" lon="-0.415050000">
  <ele>493.700000</ele>
  <time>2012-02-26T09:45:38Z</time>
  <sat>9</sat>
</trkpt>
<trkpt lat="39.695711000" lon="-0.414953000">
  <ele>494.700000</ele>
  <time>2012-02-26T09:45:43Z</time>
  <sat>8</sat>
</trkpt>
<trkpt lat="39.695719000" lon="-0.414937000">
  <ele>494.600000</ele>
  <time>2012-02-26T09:45:44Z</time>
  <sat>8</sat>
</trkpt>
<trkpt lat="39.695737000" lon="-0.414903000">
  <ele>495.200000</ele>
  <time>2012-02-26T09:45:46Z</time>
  <sat>9</sat>
</trkpt>
<trkpt lat="39.695747000" lon="-0.414886000">
  <ele>496.100000</ele>
  <time>2012-02-26T09:45:47Z</time>
  <sat>9</sat>
</trkpt>
<trkpt lat="39.695760000" lon="-0.414872000">
  <ele>495.700000</ele>
  <time>2012-02-26T09:45:48Z</time>
  <sat>9</sat>
</trkpt>
<trkpt lat="39.695774000" lon="-0.414859000">
  <ele>495.800000</ele>
  <time>2012-02-26T09:45:49Z</time>
  <sat>9</sat>
</trkpt>
<trkpt lat="39.695909000" lon="-0.414737000">
  <ele>496.500000</ele>
  <time>2012-02-26T09:45:58Z</time>
  <sat>10</sat>
</trkpt>
<trkpt lat="39.695948000" lon="-0.414692000">
  <ele>497.100000</ele>
  <time>2012-02-26T09:46:01Z</time>
  <sat>8</sat>
</trkpt>
<trkpt lat="39.695975000" lon="-0.414645000">
  <ele>497.000000</ele>
  <time>2012-02-26T09:46:03Z</time>
  <sat>7</sat>
</trkpt>
<trkpt lat="39.695995000" lon="-0.414602000">
  <ele>498.000000</ele>
  <time>2012-02-26T09:46:05Z</time>
  <sat>8</sat>
</trkpt>
<trkpt lat="39.696004000" lon="-0.414576000">
  <ele>497.700000</ele>
  <time>2012-02-26T09:46:06Z</time>
  <sat>8</sat>
</trkpt>
<trkpt lat="39.696013000" lon="-0.414550000">
  <ele>498.000000</ele>
  <time>2012-02-26T09:46:07Z</time>
  <sat>8</sat>
</trkpt>
<trkpt lat="39.696017000" lon="-0.414524000">
  <ele>497.700000</ele>
  <time>2012-02-26T09:46:08Z</time>
  <sat>8</sat>
</trkpt>
<trkpt lat="39.696024000" lon="-0.414416000">
  <ele>498.800000</ele>
  <time>2012-02-26T09:46:12Z</time>
  <sat>8</sat>
</trkpt>
<trkpt lat="39.696020000" lon="-0.414394000">
  <ele>499.700000</ele>
  <time>2012-02-26T09:46:13Z</time>
  <sat>8</sat>
</trkpt>
<trkpt lat="39.695998000" lon="-0.414297000">
  <ele>500.700000</ele>
  <time>2012-02-26T09:46:17Z</time>
  <sat>8</sat>
</trkpt>
<trkpt lat="39.695989000" lon="-0.414276000">
  <ele>501.200000</ele>
  <time>2012-02-26T09:46:18Z</time>
  <sat>8</sat>
</trkpt>
<trkpt lat="39.695984000" lon="-0.414257000">
  <ele>500.500000</ele>
  <time>2012-02-26T09:46:19Z</time>
  <sat>8</sat>
</trkpt>
<trkpt lat="39.695977000" lon="-0.414239000">
  <ele>500.200000</ele>
  <time>2012-02-26T09:46:20Z</time>
  <sat>8</sat>
</trkpt>
<trkpt lat="39.695916000" lon="-0.414118000">
  <ele>502.600000</ele>
  <time>2012-02-26T09:46:26Z</time>
  <sat>9</sat>
</trkpt>
<trkpt lat="39.695792000" lon="-0.413824000">
  <ele>506.300000</ele>
  <time>2012-02-26T09:46:41Z</time>
  <sat>9</sat>
</trkpt>
<trkpt lat="39.695783000" lon="-0.413807000">
  <ele>507.200000</ele>
  <time>2012-02-26T09:46:42Z</time>
  <sat>9</sat>
</trkpt>
<trkpt lat="39.695743000" lon="-0.413706000">
  <ele>510.000000</ele>
  <time>2012-02-26T09:46:47Z</time>
  <sat>10</sat>
</trkpt>
<trkpt lat="39.695742000" lon="-0.413658000">
  <ele>509.700000</ele>
  <time>2012-02-26T09:46:49Z</time>
  <sat>10</sat>
</trkpt>
<trkpt lat="39.695741000" lon="-0.413625000">
  <ele>509.200000</ele>
  <time>2012-02-26T09:46:50Z</time>
  <sat>10</sat>
</trkpt>
<trkpt lat="39.695763000" lon="-0.413497000">
  <ele>506.200000</ele>
  <time>2012-02-26T09:46:55Z</time>
  <sat>9</sat>
</trkpt>
<trkpt lat="39.695769000" lon="-0.413435000">
  <ele>504.800000</ele>
  <time>2012-02-26T09:46:57Z</time>
  <sat>8</sat>
</trkpt>
<trkpt lat="39.695772000" lon="-0.413284000">
  <ele>504.300000</ele>
  <time>2012-02-26T09:47:02Z</time>
  <sat>8</sat>
</trkpt>
<trkpt lat="39.695774000" lon="-0.413234000">
  <ele>504.800000</ele>
  <time>2012-02-26T09:47:04Z</time>
  <sat>8</sat>
</trkpt>
<trkpt lat="39.695780000" lon="-0.413212000">
  <ele>505.200000</ele>
  <time>2012-02-26T09:47:05Z</time>
  <sat>9</sat>
</trkpt>
<trkpt lat="39.695788000" lon="-0.413195000">
  <ele>505.300000</ele>
  <time>2012-02-26T09:47:06Z</time>
  <sat>9</sat>
</trkpt>
<trkpt lat="39.695802000" lon="-0.413178000">
  <ele>504.700000</ele>
  <time>2012-02-26T09:47:07Z</time>
  <sat>9</sat>
</trkpt>
<trkpt lat="39.695816000" lon="-0.413166000">
  <ele>504.800000</ele>
  <time>2012-02-26T09:47:08Z</time>
  <sat>9</sat>
</trkpt>
<trkpt lat="39.695828000" lon="-0.413156000">
  <ele>504.800000</ele>
  <time>2012-02-26T09:47:09Z</time>
  <sat>9</sat>
</trkpt>
<trkpt lat="39.695840000" lon="-0.413150000">
  <ele>504.700000</ele>
  <time>2012-02-26T09:47:10Z</time>
  <sat>9</sat>
</trkpt>
<trkpt lat="39.695855000" lon="-0.413145000">
  <ele>505.000000</ele>
  <time>2012-02-26T09:47:11Z</time>
  <sat>10</sat>
</trkpt>
<trkpt lat="39.695864000" lon="-0.413151000">
  <ele>505.200000</ele>
  <time>2012-02-26T09:47:12Z</time>
  <sat>10</sat>
</trkpt>
<trkpt lat="39.695878000" lon="-0.413156000">
  <ele>505.700000</ele>
  <time>2012-02-26T09:47:13Z</time>
  <sat>10</sat>
</trkpt>
<trkpt lat="39.695893000" lon="-0.413161000">
  <ele>506.300000</ele>
  <time>2012-02-26T09:47:14Z</time>
  <sat>10</sat>
</trkpt>
<trkpt lat="39.695936000" lon="-0.413168000">
  <ele>508.700000</ele>
  <time>2012-02-26T09:47:17Z</time>
  <sat>10</sat>
</trkpt>
<trkpt lat="39.696057000" lon="-0.413196000">
  <ele>514.700000</ele>
  <time>2012-02-26T09:47:26Z</time>
  <sat>8</sat>
</trkpt>
<trkpt lat="39.696071000" lon="-0.413199000">
  <ele>515.000000</ele>
  <time>2012-02-26T09:47:27Z</time>
  <sat>8</sat>
</trkpt>
<trkpt lat="39.696085000" lon="-0.413193000">
  <ele>515.400000</ele>
  <time>2012-02-26T09:47:28Z</time>
  <sat>10</sat>
</trkpt>
<trkpt lat="39.696123000" lon="-0.413177000">
  <ele>515.700000</ele>
  <time>2012-02-26T09:47:31Z</time>
  <sat>10</sat>
</trkpt>
<trkpt lat="39.696131000" lon="-0.413163000">
  <ele>516.000000</ele>
  <time>2012-02-26T09:47:32Z</time>
  <sat>10</sat>
</trkpt>
<trkpt lat="39.696135000" lon="-0.413150000">
  <ele>516.700000</ele>
  <time>2012-02-26T09:47:33Z</time>
  <sat>10</sat>
</trkpt>
<trkpt lat="39.696145000" lon="-0.413129000">
  <ele>516.700000</ele>
  <time>2012-02-26T09:47:34Z</time>
  <sat>10</sat>
</trkpt>
<trkpt lat="39.696183000" lon="-0.413079000">
  <ele>515.500000</ele>
  <time>2012-02-26T09:47:36Z</time>
  <sat>10</sat>
</trkpt>
<trkpt lat="39.696252000" lon="-0.412983000">
  <ele>515.700000</ele>
  <time>2012-02-26T09:47:42Z</time>
  <sat>9</sat>
</trkpt>
<trkpt lat="39.696259000" lon="-0.412972000">
  <ele>515.700000</ele>
  <time>2012-02-26T09:47:43Z</time>
  <sat>9</sat>
</trkpt>
<trkpt lat="39.696278000" lon="-0.412938000">
  <ele>516.500000</ele>
  <time>2012-02-26T09:47:45Z</time>
  <sat>9</sat>
</trkpt>
<trkpt lat="39.696306000" lon="-0.412878000">
  <ele>515.500000</ele>
  <time>2012-02-26T09:47:48Z</time>
  <sat>9</sat>
</trkpt>
<trkpt lat="39.696311000" lon="-0.412860000">
  <ele>515.700000</ele>
  <time>2012-02-26T09:47:49Z</time>
  <sat>9</sat>
</trkpt>
<trkpt lat="39.696354000" lon="-0.412692000">
  <ele>515.200000</ele>
  <time>2012-02-26T09:47:57Z</time>
  <sat>8</sat>
</trkpt>
<trkpt lat="39.696357000" lon="-0.412670000">
  <ele>515.000000</ele>
  <time>2012-02-26T09:47:58Z</time>
  <sat>8</sat>
</trkpt>
<trkpt lat="39.696399000" lon="-0.412351000">
  <ele>517.000000</ele>
  <time>2012-02-26T09:48:12Z</time>
  <sat>9</sat>
</trkpt>
<trkpt lat="39.696403000" lon="-0.412334000">
  <ele>517.200000</ele>
  <time>2012-02-26T09:48:13Z</time>
  <sat>8</sat>
</trkpt>
<trkpt lat="39.696411000" lon="-0.412315000">
  <ele>517.400000</ele>
  <time>2012-02-26T09:48:14Z</time>
  <sat>9</sat>
</trkpt>
<trkpt lat="39.696420000" lon="-0.412298000">
  <ele>518.000000</ele>
  <time>2012-02-26T09:48:15Z</time>
  <sat>9</sat>
</trkpt>
<trkpt lat="39.696430000" lon="-0.412282000">
  <ele>518.700000</ele>
  <time>2012-02-26T09:48:16Z</time>
  <sat>10</sat>
</trkpt>
<trkpt lat="39.696442000" lon="-0.412268000">
  <ele>519.000000</ele>
  <time>2012-02-26T09:48:17Z</time>
  <sat>10</sat>
</trkpt>
<trkpt lat="39.696480000" lon="-0.412215000">
  <ele>526.700000</ele>
  <time>2012-02-26T09:48:45Z</time>
  <sat>9</sat>
</trkpt>
<trkpt lat="39.696485000" lon="-0.412208000">
  <ele>526.700000</ele>
  <time>2012-02-26T09:48:46Z</time>
  <sat>9</sat>
</trkpt>
<trkpt lat="39.696626000" lon="-0.412075000">
  <ele>530.700000</ele>
  <time>2012-02-26T09:49:26Z</time>
  <sat>8</sat>
</trkpt>
<trkpt lat="39.696635000" lon="-0.412069000">
  <ele>531.500000</ele>
  <time>2012-02-26T09:49:27Z</time>
  <sat>9</sat>
</trkpt>
<trkpt lat="39.696646000" lon="-0.412064000">
  <ele>531.500000</ele>
  <time>2012-02-26T09:49:28Z</time>
  <sat>10</sat>
</trkpt>
<trkpt lat="39.696759000" lon="-0.411989000">
  <ele>534.500000</ele>
  <time>2012-02-26T09:49:42Z</time>
  <sat>9</sat>
</trkpt>
<trkpt lat="39.696767000" lon="-0.411983000">
  <ele>534.700000</ele>
  <time>2012-02-26T09:49:43Z</time>
  <sat>8</sat>
</trkpt>
<trkpt lat="39.696777000" lon="-0.411969000">
  <ele>534.000000</ele>
  <time>2012-02-26T09:49:49Z</time>
  <sat>8</sat>
</trkpt>
<trkpt lat="39.696785000" lon="-0.411960000">
  <ele>534.200000</ele>
  <time>2012-02-26T09:49:50Z</time>
  <sat>9</sat>
</trkpt>
<trkpt lat="39.696859000" lon="-0.411840000">
  <ele>534.000000</ele>
  <time>2012-02-26T09:49:57Z</time>
  <sat>9</sat>
</trkpt>
<trkpt lat="39.696942000" lon="-0.411673000">
  <ele>531.900000</ele>
  <time>2012-02-26T09:50:03Z</time>
  <sat>9</sat>
</trkpt>
<trkpt lat="39.696951000" lon="-0.411642000">
  <ele>531.400000</ele>
  <time>2012-02-26T09:50:04Z</time>
  <sat>9</sat>
</trkpt>
<trkpt lat="39.697010000" lon="-0.411479000">
  <ele>530.400000</ele>
  <time>2012-02-26T09:50:09Z</time>
  <sat>9</sat>
</trkpt>
<trkpt lat="39.697222000" lon="-0.410972000">
  <ele>529.400000</ele>
  <time>2012-02-26T09:50:23Z</time>
  <sat>9</sat>
</trkpt>
<trkpt lat="39.697242000" lon="-0.410941000">
  <ele>529.500000</ele>
  <time>2012-02-26T09:50:24Z</time>
  <sat>9</sat>
</trkpt>
<trkpt lat="39.697339000" lon="-0.410769000">
  <ele>531.400000</ele>
  <time>2012-02-26T09:50:30Z</time>
  <sat>9</sat>
</trkpt>
<trkpt lat="39.697352000" lon="-0.410735000">
  <ele>531.000000</ele>
  <time>2012-02-26T09:50:31Z</time>
  <sat>9</sat>
</trkpt>
<trkpt lat="39.697574000" lon="-0.410120000">
  <ele>527.400000</ele>
  <time>2012-02-26T09:50:47Z</time>
  <sat>9</sat>
</trkpt>
<trkpt lat="39.697597000" lon="-0.410087000">
  <ele>527.700000</ele>
  <time>2012-02-26T09:50:48Z</time>
  <sat>9</sat>
</trkpt>
<trkpt lat="39.697700000" lon="-0.409945000">
  <ele>530.200000</ele>
  <time>2012-02-26T09:50:54Z</time>
  <sat>9</sat>
</trkpt>
<trkpt lat="39.697713000" lon="-0.409926000">
  <ele>530.500000</ele>
  <time>2012-02-26T09:50:55Z</time>
  <sat>9</sat>
</trkpt>
<trkpt lat="39.697780000" lon="-0.409885000">
  <ele>531.000000</ele>
  <time>2012-02-26T09:50:58Z</time>
  <sat>9</sat>
</trkpt>
<trkpt lat="39.697799000" lon="-0.409875000">
  <ele>531.400000</ele>
  <time>2012-02-26T09:50:59Z</time>
  <sat>9</sat>
</trkpt>
<trkpt lat="39.698022000" lon="-0.409750000">
  <ele>534.000000</ele>
  <time>2012-02-26T09:51:13Z</time>
  <sat>9</sat>
</trkpt>
<trkpt lat="39.698034000" lon="-0.409732000">
  <ele>534.500000</ele>
  <time>2012-02-26T09:51:14Z</time>
  <sat>9</sat>
</trkpt>
<trkpt lat="39.698061000" lon="-0.409700000">
  <ele>535.700000</ele>
  <time>2012-02-26T09:51:16Z</time>
  <sat>9</sat>
</trkpt>
<trkpt lat="39.698101000" lon="-0.409622000">
  <ele>537.500000</ele>
  <time>2012-02-26T09:51:20Z</time>
  <sat>9</sat>
</trkpt>
<trkpt lat="39.698198000" lon="-0.409447000">
  <ele>540.700000</ele>
  <time>2012-02-26T09:51:29Z</time>
  <sat>9</sat>
</trkpt>
<trkpt lat="39.698205000" lon="-0.409439000">
  <ele>541.000000</ele>
  <time>2012-02-26T09:51:30Z</time>
  <sat>8</sat>
</trkpt>
<trkpt lat="39.698253000" lon="-0.409404000">
  <ele>542.200000</ele>
  <time>2012-02-26T09:51:33Z</time>
  <sat>9</sat>
</trkpt>
<trkpt lat="39.698287000" lon="-0.409392000">
  <ele>542.500000</ele>
  <time>2012-02-26T09:51:35Z</time>
  <sat>9</sat>
</trkpt>
<trkpt lat="39.698373000" lon="-0.409377000">
  <ele>543.700000</ele>
  <time>2012-02-26T09:51:40Z</time>
  <sat>9</sat>
</trkpt>
<trkpt lat="39.698515000" lon="-0.409350000">
  <ele>543.400000</ele>
  <time>2012-02-26T09:51:48Z</time>
  <sat>9</sat>
</trkpt>
<trkpt lat="39.698532000" lon="-0.409344000">
  <ele>543.200000</ele>
  <time>2012-02-26T09:51:49Z</time>
  <sat>9</sat>
</trkpt>
<trkpt lat="39.698589000" lon="-0.409321000">
  <ele>544.400000</ele>
  <time>2012-02-26T09:51:53Z</time>
  <sat>9</sat>
</trkpt>
<trkpt lat="39.698598000" lon="-0.409293000">
  <ele>544.700000</ele>
  <time>2012-02-26T09:51:54Z</time>
  <sat>9</sat>
</trkpt>
<trkpt lat="39.698607000" lon="-0.409272000">
  <ele>544.700000</ele>
  <time>2012-02-26T09:51:55Z</time>
  <sat>9</sat>
</trkpt>
<trkpt lat="39.698619000" lon="-0.409257000">
  <ele>545.000000</ele>
  <time>2012-02-26T09:51:56Z</time>
  <sat>9</sat>
</trkpt>
<trkpt lat="39.698742000" lon="-0.409045000">
  <ele>550.500000</ele>
  <time>2012-02-26T09:52:09Z</time>
  <sat>9</sat>
</trkpt>
<trkpt lat="39.698777000" lon="-0.408986000">
  <ele>551.000000</ele>
  <time>2012-02-26T09:52:13Z</time>
  <sat>9</sat>
</trkpt>
<trkpt lat="39.698793000" lon="-0.408978000">
  <ele>551.200000</ele>
  <time>2012-02-26T09:52:14Z</time>
  <sat>9</sat>
</trkpt>
<trkpt lat="39.698797000" lon="-0.408963000">
  <ele>551.700000</ele>
  <time>2012-02-26T09:52:15Z</time>
  <sat>9</sat>
</trkpt>
<trkpt lat="39.698806000" lon="-0.408955000">
  <ele>551.700000</ele>
  <time>2012-02-26T09:52:16Z</time>
  <sat>9</sat>
</trkpt>
<trkpt lat="39.698886000" lon="-0.408894000">
  <ele>551.000000</ele>
  <time>2012-02-26T09:52:21Z</time>
  <sat>9</sat>
</trkpt>
<trkpt lat="39.698937000" lon="-0.408863000">
  <ele>550.700000</ele>
  <time>2012-02-26T09:52:24Z</time>
  <sat>9</sat>
</trkpt>
<trkpt lat="39.699054000" lon="-0.408789000">
  <ele>553.000000</ele>
  <time>2012-02-26T09:52:32Z</time>
  <sat>9</sat>
</trkpt>
<trkpt lat="39.699068000" lon="-0.408772000">
  <ele>553.000000</ele>
  <time>2012-02-26T09:52:33Z</time>
  <sat>9</sat>
</trkpt>
<trkpt lat="39.699229000" lon="-0.408546000">
  <ele>556.200000</ele>
  <time>2012-02-26T09:52:46Z</time>
  <sat>9</sat>
</trkpt>
<trkpt lat="39.699237000" lon="-0.408526000">
  <ele>555.900000</ele>
  <time>2012-02-26T09:52:47Z</time>
  <sat>9</sat>
</trkpt>
<trkpt lat="39.699254000" lon="-0.408485000">
  <ele>557.200000</ele>
  <time>2012-02-26T09:52:49Z</time>
  <sat>9</sat>
</trkpt>
<trkpt lat="39.699347000" lon="-0.408286000">
  <ele>560.000000</ele>
  <time>2012-02-26T09:52:59Z</time>
  <sat>9</sat>
</trkpt>
<trkpt lat="39.699357000" lon="-0.408268000">
  <ele>560.500000</ele>
  <time>2012-02-26T09:53:00Z</time>
  <sat>9</sat>
</trkpt>
<trkpt lat="39.699577000" lon="-0.407631000">
  <ele>561.400000</ele>
  <time>2012-02-26T09:53:34Z</time>
  <sat>8</sat>
</trkpt>
<trkpt lat="39.699591000" lon="-0.407576000">
  <ele>562.500000</ele>
  <time>2012-02-26T09:53:37Z</time>
  <sat>9</sat>
</trkpt>
<trkpt lat="39.699601000" lon="-0.407489000">
  <ele>565.700000</ele>
  <time>2012-02-26T09:53:42Z</time>
  <sat>9</sat>
</trkpt>
<trkpt lat="39.699625000" lon="-0.407345000">
  <ele>566.500000</ele>
  <time>2012-02-26T09:53:49Z</time>
  <sat>9</sat>
</trkpt>
<trkpt lat="39.699628000" lon="-0.407330000">
  <ele>566.500000</ele>
  <time>2012-02-26T09:53:50Z</time>
  <sat>9</sat>
</trkpt>
<trkpt lat="39.699630000" lon="-0.407324000">
  <ele>566.200000</ele>
  <time>2012-02-26T09:53:51Z</time>
  <sat>9</sat>
</trkpt>
<trkpt lat="39.699637000" lon="-0.407316000">
  <ele>566.700000</ele>
  <time>2012-02-26T09:53:52Z</time>
  <sat>9</sat>
</trkpt>
<trkpt lat="39.699652000" lon="-0.407297000">
  <ele>566.400000</ele>
  <time>2012-02-26T09:53:53Z</time>
  <sat>9</sat>
</trkpt>
<trkpt lat="39.699665000" lon="-0.407286000">
  <ele>566.200000</ele>
  <time>2012-02-26T09:53:54Z</time>
  <sat>9</sat>
</trkpt>
<trkpt lat="39.699681000" lon="-0.407277000">
  <ele>565.700000</ele>
  <time>2012-02-26T09:53:55Z</time>
  <sat>9</sat>
</trkpt>
<trkpt lat="39.699695000" lon="-0.407272000">
  <ele>565.500000</ele>
  <time>2012-02-26T09:53:56Z</time>
  <sat>8</sat>
</trkpt>
<trkpt lat="39.699712000" lon="-0.407270000">
  <ele>565.200000</ele>
  <time>2012-02-26T09:53:57Z</time>
  <sat>8</sat>
</trkpt>
<trkpt lat="39.699733000" lon="-0.407277000">
  <ele>565.000000</ele>
  <time>2012-02-26T09:53:58Z</time>
  <sat>8</sat>
</trkpt>
<trkpt lat="39.699749000" lon="-0.407277000">
  <ele>564.700000</ele>
  <time>2012-02-26T09:53:59Z</time>
  <sat>9</sat>
</trkpt>
<trkpt lat="39.699840000" lon="-0.407299000">
  <ele>565.400000</ele>
  <time>2012-02-26T09:54:04Z</time>
  <sat>9</sat>
</trkpt>
<trkpt lat="39.699862000" lon="-0.407305000">
  <ele>565.400000</ele>
  <time>2012-02-26T09:54:05Z</time>
  <sat>9</sat>
</trkpt>
<trkpt lat="39.700091000" lon="-0.407337000">
  <ele>568.000000</ele>
  <time>2012-02-26T09:54:14Z</time>
  <sat>9</sat>
</trkpt>
<trkpt lat="39.700111000" lon="-0.407353000">
  <ele>567.900000</ele>
  <time>2012-02-26T09:54:15Z</time>
  <sat>9</sat>
</trkpt>
<trkpt lat="39.700183000" lon="-0.407438000">
  <ele>569.000000</ele>
  <time>2012-02-26T09:54:19Z</time>
  <sat>9</sat>
</trkpt>
<trkpt lat="39.700258000" lon="-0.407499000">
  <ele>570.000000</ele>
  <time>2012-02-26T09:54:23Z</time>
  <sat>9</sat>
</trkpt>
<trkpt lat="39.700283000" lon="-0.407490000">
  <ele>569.700000</ele>
  <time>2012-02-26T09:54:24Z</time>
  <sat>9</sat>
</trkpt>
<trkpt lat="39.700487000" lon="-0.407407000">
  <ele>569.000000</ele>
  <time>2012-02-26T09:54:33Z</time>
  <sat>9</sat>
</trkpt>
<trkpt lat="39.700518000" lon="-0.407395000">
  <ele>568.500000</ele>
  <time>2012-02-26T09:54:34Z</time>
  <sat>9</sat>
</trkpt>
<trkpt lat="39.700533000" lon="-0.407371000">
  <ele>568.500000</ele>
  <time>2012-02-26T09:54:35Z</time>
  <sat>9</sat>
</trkpt>
<trkpt lat="39.700539000" lon="-0.407350000">
  <ele>569.400000</ele>
  <time>2012-02-26T09:54:36Z</time>
  <sat>9</sat>
</trkpt>
<trkpt lat="39.700534000" lon="-0.407330000">
  <ele>569.200000</ele>
  <time>2012-02-26T09:54:37Z</time>
  <sat>9</sat>
</trkpt>
<trkpt lat="39.700520000" lon="-0.407305000">
  <ele>568.400000</ele>
  <time>2012-02-26T09:54:38Z</time>
  <sat>9</sat>
</trkpt>
<trkpt lat="39.700508000" lon="-0.407283000">
  <ele>568.000000</ele>
  <time>2012-02-26T09:54:39Z</time>
  <sat>9</sat>
</trkpt>
<trkpt lat="39.700501000" lon="-0.407260000">
  <ele>568.000000</ele>
  <time>2012-02-26T09:54:40Z</time>
  <sat>9</sat>
</trkpt>
<trkpt lat="39.700467000" lon="-0.407193000">
  <ele>568.700000</ele>
  <time>2012-02-26T09:54:43Z</time>
  <sat>9</sat>
</trkpt>
<trkpt lat="39.700441000" lon="-0.407141000">
  <ele>568.500000</ele>
  <time>2012-02-26T09:54:45Z</time>
  <sat>7</sat>
</trkpt>
<trkpt lat="39.700435000" lon="-0.407112000">
  <ele>569.000000</ele>
  <time>2012-02-26T09:54:46Z</time>
  <sat>7</sat>
</trkpt>
<trkpt lat="39.700414000" lon="-0.407056000">
  <ele>569.000000</ele>
  <time>2012-02-26T09:54:48Z</time>
  <sat>5</sat>
</trkpt>
<trkpt lat="39.700345000" lon="-0.406886000">
  <ele>569.700000</ele>
  <time>2012-02-26T09:54:54Z</time>
  <sat>8</sat>
</trkpt>
<trkpt lat="39.700336000" lon="-0.406855000">
  <ele>570.900000</ele>
  <time>2012-02-26T09:54:55Z</time>
  <sat>8</sat>
</trkpt>
<trkpt lat="39.700293000" lon="-0.406685000">
  <ele>570.200000</ele>
  <time>2012-02-26T09:55:00Z</time>
  <sat>8</sat>
</trkpt>
<trkpt lat="39.700287000" lon="-0.406640000">
  <ele>570.000000</ele>
  <time>2012-02-26T09:55:01Z</time>
  <sat>7</sat>
</trkpt>
<trkpt lat="39.700271000" lon="-0.406431000">
  <ele>565.700000</ele>
  <time>2012-02-26T09:55:05Z</time>
  <sat>8</sat>
</trkpt>
<trkpt lat="39.700273000" lon="-0.406374000">
  <ele>565.400000</ele>
  <time>2012-02-26T09:55:06Z</time>
  <sat>8</sat>
</trkpt>
<trkpt lat="39.700319000" lon="-0.405989000">
  <ele>564.000000</ele>
  <time>2012-02-26T09:55:12Z</time>
  <sat>7</sat>
</trkpt>
<trkpt lat="39.700602000" lon="-0.404039000">
  <ele>556.500000</ele>
  <time>2012-02-26T09:55:35Z</time>
  <sat>8</sat>
</trkpt>
<trkpt lat="39.700594000" lon="-0.403976000">
  <ele>556.500000</ele>
  <time>2012-02-26T09:55:36Z</time>
  <sat>8</sat>
</trkpt>
<trkpt lat="39.700569000" lon="-0.403820000">
  <ele>555.700000</ele>
  <time>2012-02-26T09:55:40Z</time>
  <sat>8</sat>
</trkpt>
<trkpt lat="39.700572000" lon="-0.403776000">
  <ele>556.000000</ele>
  <time>2012-02-26T09:55:41Z</time>
  <sat>8</sat>
</trkpt>
<trkpt lat="39.700576000" lon="-0.403654000">
  <ele>556.900000</ele>
  <time>2012-02-26T09:55:44Z</time>
  <sat>8</sat>
</trkpt>
<trkpt lat="39.700593000" lon="-0.403627000">
  <ele>557.200000</ele>
  <time>2012-02-26T09:55:45Z</time>
  <sat>8</sat>
</trkpt>
<trkpt lat="39.700634000" lon="-0.403575000">
  <ele>556.500000</ele>
  <time>2012-02-26T09:55:47Z</time>
  <sat>8</sat>
</trkpt>
<trkpt lat="39.700662000" lon="-0.403567000">
  <ele>556.500000</ele>
  <time>2012-02-26T09:55:48Z</time>
  <sat>8</sat>
</trkpt>
<trkpt lat="39.700790000" lon="-0.403541000">
  <ele>556.000000</ele>
  <time>2012-02-26T09:55:53Z</time>
  <sat>8</sat>
</trkpt>
<trkpt lat="39.700972000" lon="-0.403550000">
  <ele>556.700000</ele>
  <time>2012-02-26T09:55:59Z</time>
  <sat>8</sat>
</trkpt>
<trkpt lat="39.701026000" lon="-0.403520000">
  <ele>555.400000</ele>
  <time>2012-02-26T09:56:00Z</time>
  <sat>8</sat>
</trkpt>
<trkpt lat="39.701068000" lon="-0.403511000">
  <ele>554.700000</ele>
  <time>2012-02-26T09:56:01Z</time>
  <sat>8</sat>
</trkpt>
<trkpt lat="39.701227000" lon="-0.403504000">
  <ele>554.400000</ele>
  <time>2012-02-26T09:56:05Z</time>
  <sat>8</sat>
</trkpt>
<trkpt lat="39.701329000" lon="-0.403506000">
  <ele>554.000000</ele>
  <time>2012-02-26T09:56:08Z</time>
  <sat>8</sat>
</trkpt>
<trkpt lat="39.701378000" lon="-0.403489000">
  <ele>553.200000</ele>
  <time>2012-02-26T09:56:09Z</time>
  <sat>8</sat>
</trkpt>
<trkpt lat="39.701419000" lon="-0.403487000">
  <ele>552.400000</ele>
  <time>2012-02-26T09:56:10Z</time>
  <sat>8</sat>
</trkpt>
<trkpt lat="39.701624000" lon="-0.403490000">
  <ele>549.500000</ele>
  <time>2012-02-26T09:56:15Z</time>
  <sat>8</sat>
</trkpt>
<trkpt lat="39.701659000" lon="-0.403503000">
  <ele>549.700000</ele>
  <time>2012-02-26T09:56:16Z</time>
  <sat>8</sat>
</trkpt>
<trkpt lat="39.701949000" lon="-0.403580000">
  <ele>546.900000</ele>
  <time>2012-02-26T09:56:22Z</time>
  <sat>8</sat>
</trkpt>
<trkpt lat="39.702003000" lon="-0.403581000">
  <ele>546.000000</ele>
  <time>2012-02-26T09:56:23Z</time>
  <sat>8</sat>
</trkpt>
<trkpt lat="39.702103000" lon="-0.403571000">
  <ele>545.400000</ele>
  <time>2012-02-26T09:56:25Z</time>
  <sat>8</sat>
</trkpt>
<trkpt lat="39.702152000" lon="-0.403554000">
  <ele>545.500000</ele>
  <time>2012-02-26T09:56:26Z</time>
  <sat>8</sat>
</trkpt>
<trkpt lat="39.702244000" lon="-0.403506000">
  <ele>544.000000</ele>
  <time>2012-02-26T09:56:28Z</time>
  <sat>8</sat>
</trkpt>
<trkpt lat="39.702335000" lon="-0.403427000">
  <ele>540.200000</ele>
  <time>2012-02-26T09:56:30Z</time>
  <sat>8</sat>
</trkpt>
<trkpt lat="39.702787000" lon="-0.402992000">
  <ele>533.400000</ele>
  <time>2012-02-26T09:56:39Z</time>
  <sat>8</sat>
</trkpt>
<trkpt lat="39.702827000" lon="-0.402940000">
  <ele>532.900000</ele>
  <time>2012-02-26T09:56:40Z</time>
  <sat>8</sat>
</trkpt>
<trkpt lat="39.702950000" lon="-0.402818000">
  <ele>531.700000</ele>
  <time>2012-02-26T09:56:43Z</time>
  <sat>8</sat>
</trkpt>
<trkpt lat="39.703000000" lon="-0.402784000">
  <ele>531.900000</ele>
  <time>2012-02-26T09:56:44Z</time>
  <sat>8</sat>
</trkpt>
<trkpt lat="39.703054000" lon="-0.402775000">
  <ele>532.000000</ele>
  <time>2012-02-26T09:56:45Z</time>
  <sat>8</sat>
</trkpt>
<trkpt lat="39.703119000" lon="-0.402772000">
  <ele>531.700000</ele>
  <time>2012-02-26T09:56:46Z</time>
  <sat>8</sat>
</trkpt>
<trkpt lat="39.703173000" lon="-0.402787000">
  <ele>531.000000</ele>
  <time>2012-02-26T09:56:47Z</time>
  <sat>8</sat>
</trkpt>
<trkpt lat="39.703363000" lon="-0.402881000">
  <ele>529.900000</ele>
  <time>2012-02-26T09:56:50Z</time>
  <sat>8</sat>
</trkpt>
<trkpt lat="39.703783000" lon="-0.403073000">
  <ele>526.000000</ele>
  <time>2012-02-26T09:56:57Z</time>
  <sat>8</sat>
</trkpt>
<trkpt lat="39.703842000" lon="-0.403061000">
  <ele>525.500000</ele>
  <time>2012-02-26T09:56:58Z</time>
  <sat>8</sat>
</trkpt>
<trkpt lat="39.703960000" lon="-0.403058000">
  <ele>525.700000</ele>
  <time>2012-02-26T09:57:00Z</time>
  <sat>7</sat>
</trkpt>
<trkpt lat="39.704020000" lon="-0.403069000">
  <ele>525.700000</ele>
  <time>2012-02-26T09:57:01Z</time>
  <sat>7</sat>
</trkpt>
<trkpt lat="39.704618000" lon="-0.403144000">
  <ele>524.200000</ele>
  <time>2012-02-26T09:57:11Z</time>
  <sat>7</sat>
</trkpt>
<trkpt lat="39.704662000" lon="-0.403129000">
  <ele>523.500000</ele>
  <time>2012-02-26T09:57:12Z</time>
  <sat>7</sat>
</trkpt>
<trkpt lat="39.704702000" lon="-0.403127000">
  <ele>523.000000</ele>
  <time>2012-02-26T09:57:13Z</time>
  <sat>7</sat>
</trkpt>
<trkpt lat="39.704747000" lon="-0.403127000">
  <ele>522.500000</ele>
  <time>2012-02-26T09:57:14Z</time>
  <sat>7</sat>
</trkpt>
<trkpt lat="39.704794000" lon="-0.403138000">
  <ele>521.000000</ele>
  <time>2012-02-26T09:57:15Z</time>
  <sat>7</sat>
</trkpt>
<trkpt lat="39.704843000" lon="-0.403149000">
  <ele>519.900000</ele>
  <time>2012-02-26T09:57:16Z</time>
  <sat>7</sat>
</trkpt>
<trkpt lat="39.704894000" lon="-0.403152000">
  <ele>516.200000</ele>
  <time>2012-02-26T09:57:17Z</time>
  <sat>7</sat>
</trkpt>
<trkpt lat="39.704943000" lon="-0.403164000">
  <ele>514.200000</ele>
  <time>2012-02-26T09:57:18Z</time>
  <sat>7</sat>
</trkpt>
<trkpt lat="39.704983000" lon="-0.403197000">
  <ele>512.200000</ele>
  <time>2012-02-26T09:57:19Z</time>
  <sat>7</sat>
</trkpt>
<trkpt lat="39.705031000" lon="-0.403225000">
  <ele>510.300000</ele>
  <time>2012-02-26T09:57:20Z</time>
  <sat>7</sat>
</trkpt>
<trkpt lat="39.705080000" lon="-0.403246000">
  <ele>510.000000</ele>
  <time>2012-02-26T09:57:21Z</time>
  <sat>7</sat>
</trkpt>
<trkpt lat="39.705114000" lon="-0.403250000">
  <ele>509.800000</ele>
  <time>2012-02-26T09:57:22Z</time>
  <sat>7</sat>
</trkpt>
<trkpt lat="39.705147000" lon="-0.403251000">
  <ele>510.000000</ele>
  <time>2012-02-26T09:57:23Z</time>
  <sat>7</sat>
</trkpt>
<trkpt lat="39.705181000" lon="-0.403237000">
  <ele>508.800000</ele>
  <time>2012-02-26T09:57:24Z</time>
  <sat>7</sat>
</trkpt>
<trkpt lat="39.705207000" lon="-0.403216000">
  <ele>508.200000</ele>
  <time>2012-02-26T09:57:25Z</time>
  <sat>7</sat>
</trkpt>
<trkpt lat="39.705277000" lon="-0.403175000">
  <ele>507.300000</ele>
  <time>2012-02-26T09:57:27Z</time>
  <sat>7</sat>
</trkpt>
<trkpt lat="39.705314000" lon="-0.403151000">
  <ele>506.000000</ele>
  <time>2012-02-26T09:57:28Z</time>
  <sat>7</sat>
</trkpt>
<trkpt lat="39.705438000" lon="-0.403095000">
  <ele>502.700000</ele>
  <time>2012-02-26T09:57:31Z</time>
  <sat>7</sat>
</trkpt>
<trkpt lat="39.705823000" lon="-0.402979000">
  <ele>494.500000</ele>
  <time>2012-02-26T09:57:40Z</time>
  <sat>8</sat>
</trkpt>
<trkpt lat="39.705796000" lon="-0.402978000">
  <ele>494.800000</ele>
  <time>2012-02-26T09:57:41Z</time>
  <sat>8</sat>
</trkpt>
<trkpt lat="39.705811000" lon="-0.402970000">
  <ele>493.500000</ele>
  <time>2012-02-26T09:57:42Z</time>
  <sat>8</sat>
</trkpt>
<trkpt lat="39.705799000" lon="-0.402982000">
  <ele>493.000000</ele>
  <time>2012-02-26T09:57:43Z</time>
  <sat>8</sat>
</trkpt>
<trkpt lat="39.705791000" lon="-0.402978000">
  <ele>492.500000</ele>
  <time>2012-02-26T09:57:44Z</time>
  <sat>8</sat>
</trkpt>
<trkpt lat="39.705810000" lon="-0.402978000">
  <ele>491.800000</ele>
  <time>2012-02-26T09:57:45Z</time>
  <sat>8</sat>
</trkpt>
<trkpt lat="39.705814000" lon="-0.403002000">
  <ele>494.000000</ele>
  <time>2012-02-26T09:58:20Z</time>
  <sat>8</sat>
</trkpt>
<trkpt lat="39.705832000" lon="-0.402984000">
  <ele>493.500000</ele>
  <time>2012-02-26T09:58:21Z</time>
  <sat>8</sat>
</trkpt>
<trkpt lat="39.705850000" lon="-0.402968000">
  <ele>493.500000</ele>
  <time>2012-02-26T09:58:22Z</time>
  <sat>8</sat>
</trkpt>
<trkpt lat="39.705959000" lon="-0.402848000">
  <ele>493.300000</ele>
  <time>2012-02-26T09:58:28Z</time>
  <sat>8</sat>
</trkpt>
<trkpt lat="39.706042000" lon="-0.402735000">
  <ele>494.200000</ele>
  <time>2012-02-26T09:58:33Z</time>
  <sat>8</sat>
</trkpt>
<trkpt lat="39.706060000" lon="-0.402712000">
  <ele>493.800000</ele>
  <time>2012-02-26T09:58:34Z</time>
  <sat>8</sat>
</trkpt>
<trkpt lat="39.706074000" lon="-0.402683000">
  <ele>493.000000</ele>
  <time>2012-02-26T09:58:35Z</time>
  <sat>8</sat>
</trkpt>
<trkpt lat="39.706121000" lon="-0.402586000">
  <ele>491.500000</ele>
  <time>2012-02-26T09:58:40Z</time>
  <sat>8</sat>
</trkpt>
<trkpt lat="39.706127000" lon="-0.402574000">
  <ele>491.500000</ele>
  <time>2012-02-26T09:58:41Z</time>
  <sat>8</sat>
</trkpt>
<trkpt lat="39.706262000" lon="-0.402343000">
  <ele>490.800000</ele>
  <time>2012-02-26T09:58:52Z</time>
  <sat>8</sat>
</trkpt>
<trkpt lat="39.706282000" lon="-0.402322000">
  <ele>490.600000</ele>
  <time>2012-02-26T09:58:53Z</time>
  <sat>8</sat>
</trkpt>
<trkpt lat="39.706352000" lon="-0.402226000">
  <ele>489.600000</ele>
  <time>2012-02-26T09:58:57Z</time>
  <sat>8</sat>
</trkpt>
<trkpt lat="39.706643000" lon="-0.401794000">
  <ele>488.100000</ele>
  <time>2012-02-26T09:59:11Z</time>
  <sat>8</sat>
</trkpt>
<trkpt lat="39.706662000" lon="-0.401760000">
  <ele>488.200000</ele>
  <time>2012-02-26T09:59:12Z</time>
  <sat>8</sat>
</trkpt>
<trkpt lat="39.706801000" lon="-0.401516000">
  <ele>492.000000</ele>
  <time>2012-02-26T09:59:22Z</time>
  <sat>8</sat>
</trkpt>
<trkpt lat="39.706813000" lon="-0.401499000">
  <ele>491.800000</ele>
  <time>2012-02-26T09:59:23Z</time>
  <sat>8</sat>
</trkpt>
<trkpt lat="39.706879000" lon="-0.401448000">
  <ele>491.600000</ele>
  <time>2012-02-26T09:59:26Z</time>
  <sat>8</sat>
</trkpt>
<trkpt lat="39.706958000" lon="-0.401403000">
  <ele>490.500000</ele>
  <time>2012-02-26T09:59:30Z</time>
  <sat>8</sat>
</trkpt>
<trkpt lat="39.707079000" lon="-0.401312000">
  <ele>486.800000</ele>
  <time>2012-02-26T09:59:35Z</time>
  <sat>8</sat>
</trkpt>
<trkpt lat="39.707099000" lon="-0.401290000">
  <ele>486.100000</ele>
  <time>2012-02-26T09:59:36Z</time>
  <sat>8</sat>
</trkpt>
<trkpt lat="39.707132000" lon="-0.401261000">
  <ele>485.200000</ele>
  <time>2012-02-26T09:59:39Z</time>
  <sat>8</sat>
</trkpt>
<trkpt lat="39.707133000" lon="-0.401242000">
  <ele>483.600000</ele>
  <time>2012-02-26T10:00:02Z</time>
  <sat>8</sat>
</trkpt>
<trkpt lat="39.707135000" lon="-0.401171000">
  <ele>482.700000</ele>
  <time>2012-02-26T10:00:05Z</time>
  <sat>8</sat>
</trkpt>
<trkpt lat="39.707190000" lon="-0.400852000">
  <ele>483.100000</ele>
  <time>2012-02-26T10:00:13Z</time>
  <sat>8</sat>
</trkpt>
<trkpt lat="39.707185000" lon="-0.400826000">
  <ele>482.600000</ele>
  <time>2012-02-26T10:00:14Z</time>
  <sat>8</sat>
</trkpt>
<trkpt lat="39.707205000" lon="-0.400798000">
  <ele>482.200000</ele>
  <time>2012-02-26T10:00:15Z</time>
  <sat>8</sat>
</trkpt>
<trkpt lat="39.707228000" lon="-0.400762000">
  <ele>481.000000</ele>
  <time>2012-02-26T10:00:16Z</time>
  <sat>8</sat>
</trkpt>
<trkpt lat="39.707401000" lon="-0.400491000">
  <ele>477.700000</ele>
  <time>2012-02-26T10:00:25Z</time>
  <sat>8</sat>
</trkpt>
<trkpt lat="39.707416000" lon="-0.400461000">
  <ele>477.200000</ele>
  <time>2012-02-26T10:00:26Z</time>
  <sat>8</sat>
</trkpt>
<trkpt lat="39.707442000" lon="-0.400389000">
  <ele>476.800000</ele>
  <time>2012-02-26T10:00:28Z</time>
  <sat>8</sat>
</trkpt>
<trkpt lat="39.707449000" lon="-0.400347000">
  <ele>476.800000</ele>
  <time>2012-02-26T10:00:29Z</time>
  <sat>8</sat>
</trkpt>
<trkpt lat="39.707443000" lon="-0.400306000">
  <ele>476.700000</ele>
  <time>2012-02-26T10:00:30Z</time>
  <sat>8</sat>
</trkpt>
<trkpt lat="39.707442000" lon="-0.400266000">
  <ele>477.100000</ele>
  <time>2012-02-26T10:00:31Z</time>
  <sat>8</sat>
</trkpt>
<trkpt lat="39.707453000" lon="-0.400062000">
  <ele>476.300000</ele>
  <time>2012-02-26T10:00:38Z</time>
  <sat>8</sat>
</trkpt>
<trkpt lat="39.707464000" lon="-0.400037000">
  <ele>475.600000</ele>
  <time>2012-02-26T10:00:39Z</time>
  <sat>8</sat>
</trkpt>
<trkpt lat="39.707477000" lon="-0.399987000">
  <ele>476.100000</ele>
  <time>2012-02-26T10:00:41Z</time>
  <sat>8</sat>
</trkpt>
<trkpt lat="39.707482000" lon="-0.399876000">
  <ele>477.500000</ele>
  <time>2012-02-26T10:00:45Z</time>
  <sat>8</sat>
</trkpt>
<trkpt lat="39.707472000" lon="-0.399798000">
  <ele>477.100000</ele>
  <time>2012-02-26T10:00:48Z</time>
  <sat>8</sat>
</trkpt>
<trkpt lat="39.707467000" lon="-0.399778000">
  <ele>476.200000</ele>
  <time>2012-02-26T10:00:49Z</time>
  <sat>8</sat>
</trkpt>
<trkpt lat="39.707447000" lon="-0.399735000">
  <ele>473.700000</ele>
  <time>2012-02-26T10:00:57Z</time>
  <sat>8</sat>
</trkpt>
<trkpt lat="39.707440000" lon="-0.399744000">
  <ele>472.700000</ele>
  <time>2012-02-26T10:00:58Z</time>
  <sat>8</sat>
</trkpt>
<trkpt lat="39.707440000" lon="-0.399746000">
  <ele>472.200000</ele>
  <time>2012-02-26T10:00:59Z</time>
  <sat>8</sat>
</trkpt>
<trkpt lat="39.707439000" lon="-0.399749000">
  <ele>471.800000</ele>
  <time>2012-02-26T10:01:00Z</time>
  <sat>8</sat>
</trkpt>
<trkpt lat="39.707439000" lon="-0.399751000">
  <ele>471.600000</ele>
  <time>2012-02-26T10:01:01Z</time>
  <sat>8</sat>
</trkpt>
<trkpt lat="39.707437000" lon="-0.399749000">
  <ele>471.300000</ele>
  <time>2012-02-26T10:01:02Z</time>
  <sat>8</sat>
</trkpt>
<trkpt lat="39.707436000" lon="-0.399745000">
  <ele>471.200000</ele>
  <time>2012-02-26T10:01:03Z</time>
  <sat>8</sat>
</trkpt>
<trkpt lat="39.707436000" lon="-0.399744000">
  <ele>471.200000</ele>
  <time>2012-02-26T10:01:04Z</time>
  <sat>8</sat>
</trkpt>
<trkpt lat="39.707436000" lon="-0.399744000">
  <ele>471.200000</ele>
  <time>2012-02-26T10:01:05Z</time>
  <sat>8</sat>
</trkpt>
<trkpt lat="39.707440000" lon="-0.399739000">
  <ele>471.100000</ele>
  <time>2012-02-26T10:01:06Z</time>
  <sat>8</sat>
</trkpt>
<trkpt lat="39.707442000" lon="-0.399727000">
  <ele>471.200000</ele>
  <time>2012-02-26T10:01:07Z</time>
  <sat>8</sat>
</trkpt>
<trkpt lat="39.707450000" lon="-0.399719000">
  <ele>470.800000</ele>
  <time>2012-02-26T10:01:08Z</time>
  <sat>8</sat>
</trkpt>
<trkpt lat="39.707457000" lon="-0.399715000">
  <ele>471.100000</ele>
  <time>2012-02-26T10:01:09Z</time>
  <sat>8</sat>
</trkpt>
<trkpt lat="39.707459000" lon="-0.399714000">
  <ele>471.500000</ele>
  <time>2012-02-26T10:01:10Z</time>
  <sat>8</sat>
</trkpt>
<trkpt lat="39.707460000" lon="-0.399716000">
  <ele>471.700000</ele>
  <time>2012-02-26T10:01:11Z</time>
  <sat>8</sat>
</trkpt>
<trkpt lat="39.707463000" lon="-0.399715000">
  <ele>471.700000</ele>
  <time>2012-02-26T10:01:12Z</time>
  <sat>8</sat>
</trkpt>
<trkpt lat="39.707473000" lon="-0.399700000">
  <ele>471.700000</ele>
  <time>2012-02-26T10:01:13Z</time>
  <sat>8</sat>
</trkpt>
<trkpt lat="39.707481000" lon="-0.399690000">
  <ele>472.100000</ele>
  <time>2012-02-26T10:01:14Z</time>
  <sat>8</sat>
</trkpt>
<trkpt lat="39.707487000" lon="-0.399682000">
  <ele>472.200000</ele>
  <time>2012-02-26T10:01:15Z</time>
  <sat>8</sat>
</trkpt>
<trkpt lat="39.707491000" lon="-0.399674000">
  <ele>472.600000</ele>
  <time>2012-02-26T10:01:16Z</time>
  <sat>8</sat>
</trkpt>
<trkpt lat="39.707492000" lon="-0.399672000">
  <ele>472.700000</ele>
  <time>2012-02-26T10:01:17Z</time>
  <sat>8</sat>
</trkpt>
<trkpt lat="39.707493000" lon="-0.399671000">
  <ele>472.800000</ele>
  <time>2012-02-26T10:01:18Z</time>
  <sat>8</sat>
</trkpt>
<trkpt lat="39.707493000" lon="-0.399671000">
  <ele>473.000000</ele>
  <time>2012-02-26T10:01:19Z</time>
  <sat>8</sat>
</trkpt>
<trkpt lat="39.707494000" lon="-0.399671000">
  <ele>473.200000</ele>
  <time>2012-02-26T10:01:20Z</time>
  <sat>8</sat>
</trkpt>
<trkpt lat="39.707494000" lon="-0.399671000">
  <ele>473.200000</ele>
  <time>2012-02-26T10:01:21Z</time>
  <sat>8</sat>
</trkpt>
<trkpt lat="39.707493000" lon="-0.399672000">
  <ele>473.500000</ele>
  <time>2012-02-26T10:01:22Z</time>
  <sat>8</sat>
</trkpt>
<trkpt lat="39.707493000" lon="-0.399672000">
  <ele>473.500000</ele>
  <time>2012-02-26T10:01:23Z</time>
  <sat>8</sat>
</trkpt>
<trkpt lat="39.707494000" lon="-0.399671000">
  <ele>473.700000</ele>
  <time>2012-02-26T10:01:24Z</time>
  <sat>8</sat>
</trkpt>
<trkpt lat="39.707493000" lon="-0.399671000">
  <ele>473.800000</ele>
  <time>2012-02-26T10:01:25Z</time>
  <sat>8</sat>
</trkpt>
<trkpt lat="39.707493000" lon="-0.399671000">
  <ele>474.000000</ele>
  <time>2012-02-26T10:01:26Z</time>
  <sat>8</sat>
</trkpt>
<trkpt lat="39.707493000" lon="-0.399671000">
  <ele>474.000000</ele>
  <time>2012-02-26T10:01:27Z</time>
  <sat>8</sat>
</trkpt>
<trkpt lat="39.707493000" lon="-0.399671000">
  <ele>474.000000</ele>
  <time>2012-02-26T10:01:28Z</time>
  <sat>8</sat>
</trkpt>
<trkpt lat="39.707493000" lon="-0.399671000">
  <ele>474.000000</ele>
  <time>2012-02-26T10:01:29Z</time>
  <sat>8</sat>
</trkpt>
<trkpt lat="39.707493000" lon="-0.399671000">
  <ele>474.000000</ele>
  <time>2012-02-26T10:01:30Z</time>
  <sat>8</sat>
</trkpt>
<trkpt lat="39.707493000" lon="-0.399671000">
  <ele>474.000000</ele>
  <time>2012-02-26T10:01:31Z</time>
  <sat>8</sat>
</trkpt>
<trkpt lat="39.707493000" lon="-0.399671000">
  <ele>474.000000</ele>
  <time>2012-02-26T10:01:32Z</time>
  <sat>8</sat>
</trkpt>
<trkpt lat="39.707493000" lon="-0.399671000">
  <ele>474.000000</ele>
  <time>2012-02-26T10:01:33Z</time>
  <sat>8</sat>
</trkpt>
<trkpt lat="39.707493000" lon="-0.399671000">
  <ele>474.000000</ele>
  <time>2012-02-26T10:01:34Z</time>
  <sat>8</sat>
</trkpt>
<trkpt lat="39.707493000" lon="-0.399671000">
  <ele>474.000000</ele>
  <time>2012-02-26T10:01:35Z</time>
  <sat>8</sat>
</trkpt>
<trkpt lat="39.707493000" lon="-0.399671000">
  <ele>474.000000</ele>
  <time>2012-02-26T10:01:36Z</time>
  <sat>8</sat>
</trkpt>
<trkpt lat="39.707493000" lon="-0.399671000">
  <ele>474.000000</ele>
  <time>2012-02-26T10:01:38Z</time>
  <sat>8</sat>
</trkpt>
<trkpt lat="39.707493000" lon="-0.399671000">
  <ele>474.000000</ele>
  <time>2012-02-26T10:01:39Z</time>
  <sat>8</sat>
</trkpt>
<trkpt lat="39.707493000" lon="-0.399671000">
  <ele>474.000000</ele>
  <time>2012-02-26T10:01:40Z</time>
  <sat>8</sat>
</trkpt>
<trkpt lat="39.707493000" lon="-0.399671000">
  <ele>474.000000</ele>
  <time>2012-02-26T10:01:41Z</time>
  <sat>8</sat>
</trkpt>
<trkpt lat="39.707493000" lon="-0.399671000">
  <ele>474.000000</ele>
  <time>2012-02-26T10:01:42Z</time>
  <sat>8</sat>
</trkpt>
<trkpt lat="39.707493000" lon="-0.399671000">
  <ele>474.000000</ele>
  <time>2012-02-26T10:01:43Z</time>
  <sat>8</sat>
</trkpt>
<trkpt lat="39.707493000" lon="-0.399671000">
  <ele>474.000000</ele>
  <time>2012-02-26T10:01:44Z</time>
  <sat>8</sat>
</trkpt>
<trkpt lat="39.707493000" lon="-0.399671000">
  <ele>474.000000</ele>
  <time>2012-02-26T10:01:45Z</time>
  <sat>8</sat>
</trkpt>
<trkpt lat="39.707493000" lon="-0.399671000">
  <ele>474.000000</ele>
  <time>2012-02-26T10:01:46Z</time>
  <sat>6</sat>
</trkpt>
<trkpt lat="39.707493000" lon="-0.399671000">
  <ele>474.000000</ele>
  <time>2012-02-26T10:01:47Z</time>
  <sat>6</sat>
</trkpt>
<trkpt lat="39.707493000" lon="-0.399671000">
  <ele>474.000000</ele>
  <time>2012-02-26T10:01:48Z</time>
  <sat>6</sat>
</trkpt>
<trkpt lat="39.707493000" lon="-0.399671000">
  <ele>474.000000</ele>
  <time>2012-02-26T10:01:49Z</time>
  <sat>6</sat>
</trkpt>
<trkpt lat="39.707493000" lon="-0.399671000">
  <ele>474.000000</ele>
  <time>2012-02-26T10:01:50Z</time>
  <sat>6</sat>
</trkpt>
<trkpt lat="39.707493000" lon="-0.399671000">
  <ele>474.000000</ele>
  <time>2012-02-26T10:01:51Z</time>
  <sat>6</sat>
</trkpt>
<trkpt lat="39.707493000" lon="-0.399671000">
  <ele>474.000000</ele>
  <time>2012-02-26T10:01:52Z</time>
  <sat>6</sat>
</trkpt>
<trkpt lat="39.707493000" lon="-0.399671000">
  <ele>474.000000</ele>
  <time>2012-02-26T10:01:53Z</time>
  <sat>6</sat>
</trkpt>
<trkpt lat="39.707493000" lon="-0.399671000">
  <ele>474.000000</ele>
  <time>2012-02-26T10:01:54Z</time>
  <sat>6</sat>
</trkpt>
<trkpt lat="39.707493000" lon="-0.399671000">
  <ele>474.000000</ele>
  <time>2012-02-26T10:01:55Z</time>
  <sat>6</sat>
</trkpt>
<trkpt lat="39.707493000" lon="-0.399671000">
  <ele>474.000000</ele>
  <time>2012-02-26T10:01:56Z</time>
  <sat>6</sat>
</trkpt>
<trkpt lat="39.707493000" lon="-0.399671000">
  <ele>474.000000</ele>
  <time>2012-02-26T10:01:57Z</time>
  <sat>6</sat>
</trkpt>
<trkpt lat="39.707493000" lon="-0.399671000">
  <ele>474.000000</ele>
  <time>2012-02-26T10:01:58Z</time>
  <sat>6</sat>
</trkpt>
<trkpt lat="39.707493000" lon="-0.399671000">
  <ele>474.000000</ele>
  <time>2012-02-26T10:01:59Z</time>
  <sat>6</sat>
</trkpt>
<trkpt lat="39.707491000" lon="-0.399667000">
  <ele>474.200000</ele>
  <time>2012-02-26T10:02:00Z</time>
  <sat>7</sat>
</trkpt>
<trkpt lat="39.707489000" lon="-0.399661000">
  <ele>474.200000</ele>
  <time>2012-02-26T10:02:01Z</time>
  <sat>7</sat>
</trkpt>
<trkpt lat="39.707487000" lon="-0.399658000">
  <ele>473.800000</ele>
  <time>2012-02-26T10:02:02Z</time>
  <sat>7</sat>
</trkpt>
<trkpt lat="39.707487000" lon="-0.399658000">
  <ele>474.200000</ele>
  <time>2012-02-26T10:02:03Z</time>
  <sat>8</sat>
</trkpt>
<trkpt lat="39.707485000" lon="-0.399658000">
  <ele>474.700000</ele>
  <time>2012-02-26T10:02:04Z</time>
  <sat>8</sat>
</trkpt>
<trkpt lat="39.707483000" lon="-0.399659000">
  <ele>474.800000</ele>
  <time>2012-02-26T10:02:05Z</time>
  <sat>8</sat>
</trkpt>
<trkpt lat="39.707484000" lon="-0.399658000">
  <ele>474.800000</ele>
  <time>2012-02-26T10:02:06Z</time>
  <sat>8</sat>
</trkpt>
<trkpt lat="39.707484000" lon="-0.399658000">
  <ele>474.800000</ele>
  <time>2012-02-26T10:02:08Z</time>
  <sat>8</sat>
</trkpt>
<trkpt lat="39.707485000" lon="-0.399654000">
  <ele>475.000000</ele>
  <time>2012-02-26T10:02:09Z</time>
  <sat>8</sat>
</trkpt>
<trkpt lat="39.707484000" lon="-0.399645000">
  <ele>475.000000</ele>
  <time>2012-02-26T10:02:10Z</time>
  <sat>7</sat>
</trkpt>
<trkpt lat="39.707487000" lon="-0.399621000">
  <ele>475.500000</ele>
  <time>2012-02-26T10:02:11Z</time>
  <sat>7</sat>
</trkpt>
<trkpt lat="39.707498000" lon="-0.399493000">
  <ele>477.200000</ele>
  <time>2012-02-26T10:02:17Z</time>
  <sat>8</sat>
</trkpt>
<trkpt lat="39.707497000" lon="-0.399475000">
  <ele>477.300000</ele>
  <time>2012-02-26T10:02:18Z</time>
  <sat>8</sat>
</trkpt>
<trkpt lat="39.707493000" lon="-0.399371000">
  <ele>477.500000</ele>
  <time>2012-02-26T10:02:23Z</time>
  <sat>8</sat>
</trkpt>
<trkpt lat="39.707494000" lon="-0.399352000">
  <ele>477.600000</ele>
  <time>2012-02-26T10:02:24Z</time>
  <sat>8</sat>
</trkpt>
<trkpt lat="39.707498000" lon="-0.399208000">
  <ele>479.700000</ele>
  <time>2012-02-26T10:02:31Z</time>
  <sat>7</sat>
</trkpt>
<trkpt lat="39.707493000" lon="-0.399186000">
  <ele>479.700000</ele>
  <time>2012-02-26T10:02:32Z</time>
  <sat>7</sat>
</trkpt>
<trkpt lat="39.707491000" lon="-0.399169000">
  <ele>479.700000</ele>
  <time>2012-02-26T10:02:33Z</time>
  <sat>7</sat>
</trkpt>
<trkpt lat="39.707493000" lon="-0.399128000">
  <ele>480.800000</ele>
  <time>2012-02-26T10:02:35Z</time>
  <sat>7</sat>
</trkpt>
<trkpt lat="39.707493000" lon="-0.399071000">
  <ele>482.200000</ele>
  <time>2012-02-26T10:02:38Z</time>
  <sat>8</sat>
</trkpt>
<trkpt lat="39.707491000" lon="-0.399051000">
  <ele>482.200000</ele>
  <time>2012-02-26T10:02:39Z</time>
  <sat>8</sat>
</trkpt>
<trkpt lat="39.707482000" lon="-0.399034000">
  <ele>482.500000</ele>
  <time>2012-02-26T10:02:40Z</time>
  <sat>8</sat>
</trkpt>
<trkpt lat="39.707478000" lon="-0.399013000">
  <ele>482.700000</ele>
  <time>2012-02-26T10:02:41Z</time>
  <sat>8</sat>
</trkpt>
<trkpt lat="39.707471000" lon="-0.398955000">
  <ele>482.700000</ele>
  <time>2012-02-26T10:02:44Z</time>
  <sat>8</sat>
</trkpt>
<trkpt lat="39.707476000" lon="-0.398934000">
  <ele>482.500000</ele>
  <time>2012-02-26T10:02:45Z</time>
  <sat>8</sat>
</trkpt>
<trkpt lat="39.707476000" lon="-0.398878000">
  <ele>482.600000</ele>
  <time>2012-02-26T10:02:48Z</time>
  <sat>8</sat>
</trkpt>
<trkpt lat="39.707471000" lon="-0.398865000">
  <ele>483.200000</ele>
  <time>2012-02-26T10:02:49Z</time>
  <sat>7</sat>
</trkpt>
<trkpt lat="39.707448000" lon="-0.398814000">
  <ele>483.700000</ele>
  <time>2012-02-26T10:02:52Z</time>
  <sat>7</sat>
</trkpt>
<trkpt lat="39.707431000" lon="-0.398784000">
  <ele>484.700000</ele>
  <time>2012-02-26T10:02:54Z</time>
  <sat>7</sat>
</trkpt>
<trkpt lat="39.707425000" lon="-0.398766000">
  <ele>485.100000</ele>
  <time>2012-02-26T10:02:55Z</time>
  <sat>7</sat>
</trkpt>
<trkpt lat="39.707413000" lon="-0.398718000">
  <ele>486.000000</ele>
  <time>2012-02-26T10:02:58Z</time>
  <sat>8</sat>
</trkpt>
<trkpt lat="39.707409000" lon="-0.398678000">
  <ele>486.700000</ele>
  <time>2012-02-26T10:03:00Z</time>
  <sat>8</sat>
</trkpt>
<trkpt lat="39.707402000" lon="-0.398646000">
  <ele>488.500000</ele>
  <time>2012-02-26T10:03:02Z</time>
  <sat>8</sat>
</trkpt>
<trkpt lat="39.707400000" lon="-0.398634000">
  <ele>488.700000</ele>
  <time>2012-02-26T10:03:03Z</time>
  <sat>8</sat>
</trkpt>
<trkpt lat="39.707402000" lon="-0.398617000">
  <ele>487.800000</ele>
  <time>2012-02-26T10:03:04Z</time>
  <sat>8</sat>
</trkpt>
<trkpt lat="39.707401000" lon="-0.398568000">
  <ele>487.200000</ele>
  <time>2012-02-26T10:03:07Z</time>
  <sat>7</sat>
</trkpt>
<trkpt lat="39.707367000" lon="-0.398301000">
  <ele>486.800000</ele>
  <time>2012-02-26T10:03:21Z</time>
  <sat>7</sat>
</trkpt>
<trkpt lat="39.707389000" lon="-0.398263000">
  <ele>485.100000</ele>
  <time>2012-02-26T10:03:22Z</time>
  <sat>7</sat>
</trkpt>
<trkpt lat="39.707403000" lon="-0.398240000">
  <ele>485.000000</ele>
  <time>2012-02-26T10:03:23Z</time>
  <sat>7</sat>
</trkpt>
<trkpt lat="39.707402000" lon="-0.398226000">
  <ele>484.800000</ele>
  <time>2012-02-26T10:03:24Z</time>
  <sat>8</sat>
</trkpt>
<trkpt lat="39.707403000" lon="-0.398205000">
  <ele>485.100000</ele>
  <time>2012-02-26T10:03:25Z</time>
  <sat>8</sat>
</trkpt>
<trkpt lat="39.707384000" lon="-0.398197000">
  <ele>485.600000</ele>
  <time>2012-02-26T10:03:26Z</time>
  <sat>8</sat>
</trkpt>
<trkpt lat="39.707381000" lon="-0.398186000">
  <ele>485.500000</ele>
  <time>2012-02-26T10:03:27Z</time>
  <sat>8</sat>
</trkpt>
<trkpt lat="39.707387000" lon="-0.398160000">
  <ele>486.000000</ele>
  <time>2012-02-26T10:03:28Z</time>
  <sat>8</sat>
</trkpt>
<trkpt lat="39.707380000" lon="-0.398146000">
  <ele>486.300000</ele>
  <time>2012-02-26T10:03:29Z</time>
  <sat>8</sat>
</trkpt>
<trkpt lat="39.707382000" lon="-0.398121000">
  <ele>487.100000</ele>
  <time>2012-02-26T10:03:30Z</time>
  <sat>8</sat>
</trkpt>
<trkpt lat="39.707403000" lon="-0.397936000">
  <ele>492.500000</ele>
  <time>2012-02-26T10:03:39Z</time>
  <sat>8</sat>
</trkpt>
<trkpt lat="39.707407000" lon="-0.397926000">
  <ele>492.300000</ele>
  <time>2012-02-26T10:03:40Z</time>
  <sat>8</sat>
</trkpt>
<trkpt lat="39.710008000" lon="-0.395140000">
  <ele>479.600000</ele>
  <time>2012-02-26T10:19:34Z</time>
  <sat>6</sat>
</trkpt>
<trkpt lat="39.710086000" lon="-0.395118000">
  <ele>460.000000</ele>
  <time>2012-02-26T10:21:04Z</time>
  <sat>8</sat>
</trkpt>
<trkpt lat="39.710078000" lon="-0.395116000">
  <ele>459.800000</ele>
  <time>2012-02-26T10:24:46Z</time>
  <sat>8</sat>
</trkpt>
<trkpt lat="39.710078000" lon="-0.395116000">
  <ele>459.800000</ele>
  <time>2012-02-26T10:24:47Z</time>
  <sat>8</sat>
</trkpt>
<trkpt lat="39.710077000" lon="-0.395116000">
  <ele>459.800000</ele>
  <time>2012-02-26T10:24:48Z</time>
  <sat>8</sat>
</trkpt>
<trkpt lat="39.710077000" lon="-0.395116000">
  <ele>459.800000</ele>
  <time>2012-02-26T10:24:49Z</time>
  <sat>8</sat>
</trkpt>
<trkpt lat="39.710077000" lon="-0.395116000">
  <ele>459.800000</ele>
  <time>2012-02-26T10:24:50Z</time>
  <sat>8</sat>
</trkpt>
<trkpt lat="39.710077000" lon="-0.395116000">
  <ele>459.800000</ele>
  <time>2012-02-26T10:24:51Z</time>
  <sat>8</sat>
</trkpt>
<trkpt lat="39.710077000" lon="-0.395116000">
  <ele>460.000000</ele>
  <time>2012-02-26T10:24:52Z</time>
  <sat>8</sat>
</trkpt>
<trkpt lat="39.710077000" lon="-0.395116000">
  <ele>460.000000</ele>
  <time>2012-02-26T10:24:53Z</time>
  <sat>8</sat>
</trkpt>
<trkpt lat="39.710077000" lon="-0.395116000">
  <ele>460.000000</ele>
  <time>2012-02-26T10:24:54Z</time>
  <sat>8</sat>
</trkpt>
<trkpt lat="39.710077000" lon="-0.395116000">
  <ele>460.000000</ele>
  <time>2012-02-26T10:24:55Z</time>
  <sat>8</sat>
</trkpt>
<trkpt lat="39.710077000" lon="-0.395116000">
  <ele>459.800000</ele>
  <time>2012-02-26T10:24:56Z</time>
  <sat>8</sat>
</trkpt>
<trkpt lat="39.710078000" lon="-0.395116000">
  <ele>459.800000</ele>
  <time>2012-02-26T10:24:57Z</time>
  <sat>8</sat>
</trkpt>
<trkpt lat="39.710074000" lon="-0.395104000">
  <ele>450.000000</ele>
  <time>2012-02-26T10:25:53Z</time>
  <sat>8</sat>
</trkpt>
<trkpt lat="39.710087000" lon="-0.395086000">
  <ele>450.200000</ele>
  <time>2012-02-26T10:25:54Z</time>
  <sat>8</sat>
</trkpt>
<trkpt lat="39.710177000" lon="-0.394960000">
  <ele>450.800000</ele>
  <time>2012-02-26T10:26:00Z</time>
  <sat>8</sat>
</trkpt>
<trkpt lat="39.710298000" lon="-0.394774000">
  <ele>450.700000</ele>
  <time>2012-02-26T10:26:07Z</time>
  <sat>8</sat>
</trkpt>
<trkpt lat="39.710307000" lon="-0.394744000">
  <ele>449.800000</ele>
  <time>2012-02-26T10:26:08Z</time>
  <sat>8</sat>
</trkpt>
<trkpt lat="39.710313000" lon="-0.394671000">
  <ele>449.200000</ele>
  <time>2012-02-26T10:26:10Z</time>
  <sat>8</sat>
</trkpt>
<trkpt lat="39.710311000" lon="-0.394439000">
  <ele>449.200000</ele>
  <time>2012-02-26T10:26:17Z</time>
  <sat>8</sat>
</trkpt>
<trkpt lat="39.710299000" lon="-0.393937000">
  <ele>445.200000</ele>
  <time>2012-02-26T10:26:27Z</time>
  <sat>8</sat>
</trkpt>
<trkpt lat="39.710307000" lon="-0.393891000">
  <ele>444.300000</ele>
  <time>2012-02-26T10:26:28Z</time>
  <sat>8</sat>
</trkpt>
<trkpt lat="39.710332000" lon="-0.393820000">
  <ele>444.200000</ele>
  <time>2012-02-26T10:26:30Z</time>
  <sat>8</sat>
</trkpt>
<trkpt lat="39.710382000" lon="-0.393712000">
  <ele>443.700000</ele>
  <time>2012-02-26T10:26:33Z</time>
  <sat>8</sat>
</trkpt>
<trkpt lat="39.710533000" lon="-0.393457000">
  <ele>438.300000</ele>
  <time>2012-02-26T10:26:41Z</time>
  <sat>8</sat>
</trkpt>
<trkpt lat="39.710554000" lon="-0.393445000">
  <ele>437.800000</ele>
  <time>2012-02-26T10:26:42Z</time>
  <sat>8</sat>
</trkpt>
<trkpt lat="39.710579000" lon="-0.393444000">
  <ele>437.500000</ele>
  <time>2012-02-26T10:26:43Z</time>
  <sat>8</sat>
</trkpt>
<trkpt lat="39.710593000" lon="-0.393450000">
  <ele>437.500000</ele>
  <time>2012-02-26T10:26:44Z</time>
  <sat>8</sat>
</trkpt>
<trkpt lat="39.710629000" lon="-0.393494000">
  <ele>436.800000</ele>
  <time>2012-02-26T10:26:46Z</time>
  <sat>8</sat>
</trkpt>
<trkpt lat="39.710661000" lon="-0.393552000">
  <ele>436.200000</ele>
  <time>2012-02-26T10:26:48Z</time>
  <sat>8</sat>
</trkpt>
<trkpt lat="39.710796000" lon="-0.393786000">
  <ele>436.500000</ele>
  <time>2012-02-26T10:26:56Z</time>
  <sat>8</sat>
</trkpt>
<trkpt lat="39.710821000" lon="-0.393806000">
  <ele>437.200000</ele>
  <time>2012-02-26T10:26:57Z</time>
  <sat>8</sat>
</trkpt>
<trkpt lat="39.711015000" lon="-0.393956000">
  <ele>440.000000</ele>
  <time>2012-02-26T10:27:07Z</time>
  <sat>8</sat>
</trkpt>
<trkpt lat="39.711041000" lon="-0.393967000">
  <ele>440.600000</ele>
  <time>2012-02-26T10:27:08Z</time>
  <sat>8</sat>
</trkpt>
<trkpt lat="39.711105000" lon="-0.393999000">
  <ele>441.700000</ele>
  <time>2012-02-26T10:27:12Z</time>
  <sat>8</sat>
</trkpt>
<trkpt lat="39.711216000" lon="-0.394058000">
  <ele>442.300000</ele>
  <time>2012-02-26T10:27:18Z</time>
  <sat>8</sat>
</trkpt>
<trkpt lat="39.711226000" lon="-0.394057000">
  <ele>442.600000</ele>
  <time>2012-02-26T10:27:19Z</time>
  <sat>8</sat>
</trkpt>
<trkpt lat="39.711224000" lon="-0.394054000">
  <ele>442.700000</ele>
  <time>2012-02-26T10:27:20Z</time>
  <sat>8</sat>
</trkpt>
<trkpt lat="39.711219000" lon="-0.394050000">
  <ele>441.800000</ele>
  <time>2012-02-26T10:27:21Z</time>
  <sat>8</sat>
</trkpt>
<trkpt lat="39.711217000" lon="-0.394047000">
  <ele>442.100000</ele>
  <time>2012-02-26T10:27:22Z</time>
  <sat>8</sat>
</trkpt>
<trkpt lat="39.711212000" lon="-0.394037000">
  <ele>442.000000</ele>
  <time>2012-02-26T10:27:23Z</time>
  <sat>8</sat>
</trkpt>
<trkpt lat="39.711212000" lon="-0.394038000">
  <ele>442.500000</ele>
  <time>2012-02-26T10:27:24Z</time>
  <sat>8</sat>
</trkpt>
<trkpt lat="39.711214000" lon="-0.394041000">
  <ele>442.200000</ele>
  <time>2012-02-26T10:27:25Z</time>
  <sat>8</sat>
</trkpt>
<trkpt lat="39.711221000" lon="-0.394045000">
  <ele>442.600000</ele>
  <time>2012-02-26T10:27:32Z</time>
  <sat>8</sat>
</trkpt>
<trkpt lat="39.711231000" lon="-0.394054000">
  <ele>442.200000</ele>
  <time>2012-02-26T10:27:33Z</time>
  <sat>8</sat>
</trkpt>
<trkpt lat="39.711239000" lon="-0.394064000">
  <ele>442.100000</ele>
  <time>2012-02-26T10:27:34Z</time>
  <sat>8</sat>
</trkpt>
<trkpt lat="39.711254000" lon="-0.394080000">
  <ele>442.600000</ele>
  <time>2012-02-26T10:27:35Z</time>
  <sat>8</sat>
</trkpt>
<trkpt lat="39.711265000" lon="-0.394089000">
  <ele>442.700000</ele>
  <time>2012-02-26T10:27:36Z</time>
  <sat>8</sat>
</trkpt>
<trkpt lat="39.711410000" lon="-0.394217000">
  <ele>444.800000</ele>
  <time>2012-02-26T10:27:52Z</time>
  <sat>8</sat>
</trkpt>
<trkpt lat="39.711442000" lon="-0.394248000">
  <ele>444.200000</ele>
  <time>2012-02-26T10:27:55Z</time>
  <sat>8</sat>
</trkpt>
<trkpt lat="39.711453000" lon="-0.394255000">
  <ele>443.500000</ele>
  <time>2012-02-26T10:27:56Z</time>
  <sat>8</sat>
</trkpt>
<trkpt lat="39.711459000" lon="-0.394250000">
  <ele>443.100000</ele>
  <time>2012-02-26T10:27:57Z</time>
  <sat>8</sat>
</trkpt>
<trkpt lat="39.711469000" lon="-0.394241000">
  <ele>442.700000</ele>
  <time>2012-02-26T10:27:58Z</time>
  <sat>8</sat>
</trkpt>
<trkpt lat="39.711470000" lon="-0.394239000">
  <ele>442.800000</ele>
  <time>2012-02-26T10:27:59Z</time>
  <sat>8</sat>
</trkpt>
<trkpt lat="39.711472000" lon="-0.394237000">
  <ele>442.500000</ele>
  <time>2012-02-26T10:28:00Z</time>
  <sat>8</sat>
</trkpt>
<trkpt lat="39.711473000" lon="-0.394237000">
  <ele>442.200000</ele>
  <time>2012-02-26T10:28:01Z</time>
  <sat>8</sat>
</trkpt>
<trkpt lat="39.711475000" lon="-0.394237000">
  <ele>442.000000</ele>
  <time>2012-02-26T10:28:02Z</time>
  <sat>8</sat>
</trkpt>
<trkpt lat="39.711475000" lon="-0.394236000">
  <ele>442.200000</ele>
  <time>2012-02-26T10:28:03Z</time>
  <sat>8</sat>
</trkpt>
<trkpt lat="39.711475000" lon="-0.394235000">
  <ele>442.000000</ele>
  <time>2012-02-26T10:28:04Z</time>
  <sat>8</sat>
</trkpt>
<trkpt lat="39.711477000" lon="-0.394236000">
  <ele>442.000000</ele>
  <time>2012-02-26T10:28:05Z</time>
  <sat>8</sat>
</trkpt>
<trkpt lat="39.711511000" lon="-0.394187000">
  <ele>439.300000</ele>
  <time>2012-02-26T10:28:29Z</time>
  <sat>8</sat>
</trkpt>
<trkpt lat="39.711517000" lon="-0.394177000">
  <ele>439.000000</ele>
  <time>2012-02-26T10:28:30Z</time>
  <sat>8</sat>
</trkpt>
<trkpt lat="39.711603000" lon="-0.394030000">
  <ele>428.700000</ele>
  <time>2012-02-26T10:29:03Z</time>
  <sat>8</sat>
</trkpt>
<trkpt lat="39.711603000" lon="-0.394040000">
  <ele>428.800000</ele>
  <time>2012-02-26T10:29:04Z</time>
  <sat>8</sat>
</trkpt>
<trkpt lat="39.711605000" lon="-0.394052000">
  <ele>428.700000</ele>
  <time>2012-02-26T10:29:05Z</time>
  <sat>8</sat>
</trkpt>
<trkpt lat="39.711613000" lon="-0.394057000">
  <ele>429.500000</ele>
  <time>2012-02-26T10:29:06Z</time>
  <sat>8</sat>
</trkpt>
<trkpt lat="39.711620000" lon="-0.394068000">
  <ele>429.200000</ele>
  <time>2012-02-26T10:29:07Z</time>
  <sat>8</sat>
</trkpt>
<trkpt lat="39.711675000" lon="-0.394058000">
  <ele>429.000000</ele>
  <time>2012-02-26T10:29:23Z</time>
  <sat>8</sat>
</trkpt>
<trkpt lat="39.711692000" lon="-0.394065000">
  <ele>428.700000</ele>
  <time>2012-02-26T10:29:24Z</time>
  <sat>8</sat>
</trkpt>
<trkpt lat="39.711705000" lon="-0.394069000">
  <ele>427.700000</ele>
  <time>2012-02-26T10:29:25Z</time>
  <sat>8</sat>
</trkpt>
<trkpt lat="39.711715000" lon="-0.394065000">
  <ele>427.700000</ele>
  <time>2012-02-26T10:29:26Z</time>
  <sat>8</sat>
</trkpt>
<trkpt lat="39.711723000" lon="-0.394060000">
  <ele>427.700000</ele>
  <time>2012-02-26T10:29:27Z</time>
  <sat>8</sat>
</trkpt>
<trkpt lat="39.711728000" lon="-0.394050000">
  <ele>427.500000</ele>
  <time>2012-02-26T10:29:28Z</time>
  <sat>8</sat>
</trkpt>
<trkpt lat="39.711733000" lon="-0.394035000">
  <ele>427.300000</ele>
  <time>2012-02-26T10:29:29Z</time>
  <sat>8</sat>
</trkpt>
<trkpt lat="39.711732000" lon="-0.394033000">
  <ele>426.800000</ele>
  <time>2012-02-26T10:29:30Z</time>
  <sat>8</sat>
</trkpt>
<trkpt lat="39.711729000" lon="-0.394026000">
  <ele>426.500000</ele>
  <time>2012-02-26T10:29:31Z</time>
  <sat>8</sat>
</trkpt>
<trkpt lat="39.711732000" lon="-0.394020000">
  <ele>426.700000</ele>
  <time>2012-02-26T10:29:32Z</time>
  <sat>8</sat>
</trkpt>
<trkpt lat="39.711736000" lon="-0.394012000">
  <ele>426.500000</ele>
  <time>2012-02-26T10:29:33Z</time>
  <sat>8</sat>
</trkpt>
<trkpt lat="39.711741000" lon="-0.394006000">
  <ele>426.500000</ele>
  <time>2012-02-26T10:29:34Z</time>
  <sat>8</sat>
</trkpt>
<trkpt lat="39.711741000" lon="-0.394000000">
  <ele>426.600000</ele>
  <time>2012-02-26T10:29:35Z</time>
  <sat>8</sat>
</trkpt>
<trkpt lat="39.711745000" lon="-0.393997000">
  <ele>426.300000</ele>
  <time>2012-02-26T10:29:36Z</time>
  <sat>8</sat>
</trkpt>
<trkpt lat="39.711755000" lon="-0.393995000">
  <ele>426.300000</ele>
  <time>2012-02-26T10:29:37Z</time>
  <sat>8</sat>
</trkpt>
<trkpt lat="39.711767000" lon="-0.393985000">
  <ele>426.500000</ele>
  <time>2012-02-26T10:29:41Z</time>
  <sat>8</sat>
</trkpt>
<trkpt lat="39.711779000" lon="-0.393980000">
  <ele>426.500000</ele>
  <time>2012-02-26T10:29:42Z</time>
  <sat>8</sat>
</trkpt>
<trkpt lat="39.711790000" lon="-0.393974000">
  <ele>426.200000</ele>
  <time>2012-02-26T10:29:43Z</time>
  <sat>8</sat>
</trkpt>
<trkpt lat="39.711798000" lon="-0.393968000">
  <ele>425.800000</ele>
  <time>2012-02-26T10:29:44Z</time>
  <sat>8</sat>
</trkpt>
<trkpt lat="39.711803000" lon="-0.393963000">
  <ele>425.600000</ele>
  <time>2012-02-26T10:29:45Z</time>
  <sat>8</sat>
</trkpt>
<trkpt lat="39.711809000" lon="-0.393948000">
  <ele>425.200000</ele>
  <time>2012-02-26T10:29:46Z</time>
  <sat>8</sat>
</trkpt>
<trkpt lat="39.711822000" lon="-0.393938000">
  <ele>424.700000</ele>
  <time>2012-02-26T10:29:47Z</time>
  <sat>8</sat>
</trkpt>
<trkpt lat="39.711832000" lon="-0.393931000">
  <ele>424.500000</ele>
  <time>2012-02-26T10:29:48Z</time>
  <sat>8</sat>
</trkpt>
<trkpt lat="39.711845000" lon="-0.393918000">
  <ele>424.200000</ele>
  <time>2012-02-26T10:29:49Z</time>
  <sat>8</sat>
</trkpt>
<trkpt lat="39.711852000" lon="-0.393911000">
  <ele>424.500000</ele>
  <time>2012-02-26T10:29:50Z</time>
  <sat>8</sat>
</trkpt>
<trkpt lat="39.711856000" lon="-0.393913000">
  <ele>424.700000</ele>
  <time>2012-02-26T10:29:51Z</time>
  <sat>8</sat>
</trkpt>
<trkpt lat="39.711862000" lon="-0.393904000">
  <ele>425.100000</ele>
  <time>2012-02-26T10:29:52Z</time>
  <sat>8</sat>
</trkpt>
<trkpt lat="39.711873000" lon="-0.393905000">
  <ele>424.000000</ele>
  <time>2012-02-26T10:29:53Z</time>
  <sat>8</sat>
</trkpt>
<trkpt lat="39.711879000" lon="-0.393902000">
  <ele>423.500000</ele>
  <time>2012-02-26T10:29:54Z</time>
  <sat>8</sat>
</trkpt>
<trkpt lat="39.711885000" lon="-0.393897000">
  <ele>423.200000</ele>
  <time>2012-02-26T10:29:55Z</time>
  <sat>8</sat>
</trkpt>
<trkpt lat="39.711891000" lon="-0.393901000">
  <ele>423.200000</ele>
  <time>2012-02-26T10:29:56Z</time>
  <sat>8</sat>
</trkpt>
<trkpt lat="39.711891000" lon="-0.393889000">
  <ele>423.100000</ele>
  <time>2012-02-26T10:29:57Z</time>
  <sat>8</sat>
</trkpt>
<trkpt lat="39.711901000" lon="-0.393883000">
  <ele>422.700000</ele>
  <time>2012-02-26T10:29:58Z</time>
  <sat>8</sat>
</trkpt>
<trkpt lat="39.711907000" lon="-0.393877000">
  <ele>421.700000</ele>
  <time>2012-02-26T10:29:59Z</time>
  <sat>8</sat>
</trkpt>
<trkpt lat="39.711913000" lon="-0.393866000">
  <ele>421.700000</ele>
  <time>2012-02-26T10:30:00Z</time>
  <sat>8</sat>
</trkpt>
<trkpt lat="39.711926000" lon="-0.393868000">
  <ele>421.700000</ele>
  <time>2012-02-26T10:30:01Z</time>
  <sat>8</sat>
</trkpt>
<trkpt lat="39.711940000" lon="-0.393865000">
  <ele>421.700000</ele>
  <time>2012-02-26T10:30:02Z</time>
  <sat>8</sat>
</trkpt>
<trkpt lat="39.711952000" lon="-0.393862000">
  <ele>421.200000</ele>
  <time>2012-02-26T10:30:03Z</time>
  <sat>8</sat>
</trkpt>
<trkpt lat="39.711950000" lon="-0.393851000">
  <ele>421.000000</ele>
  <time>2012-02-26T10:30:04Z</time>
  <sat>8</sat>
</trkpt>
<trkpt lat="39.711954000" lon="-0.393841000">
  <ele>420.600000</ele>
  <time>2012-02-26T10:30:05Z</time>
  <sat>8</sat>
</trkpt>
<trkpt lat="39.711949000" lon="-0.393823000">
  <ele>420.500000</ele>
  <time>2012-02-26T10:30:06Z</time>
  <sat>8</sat>
</trkpt>
<trkpt lat="39.711945000" lon="-0.393804000">
  <ele>420.600000</ele>
  <time>2012-02-26T10:30:07Z</time>
  <sat>8</sat>
</trkpt>
<trkpt lat="39.711948000" lon="-0.393792000">
  <ele>420.600000</ele>
  <time>2012-02-26T10:30:08Z</time>
  <sat>8</sat>
</trkpt>
<trkpt lat="39.711952000" lon="-0.393770000">
  <ele>419.700000</ele>
  <time>2012-02-26T10:30:09Z</time>
  <sat>8</sat>
</trkpt>
<trkpt lat="39.711955000" lon="-0.393760000">
  <ele>420.000000</ele>
  <time>2012-02-26T10:30:10Z</time>
  <sat>8</sat>
</trkpt>
<trkpt lat="39.711957000" lon="-0.393752000">
  <ele>420.000000</ele>
  <time>2012-02-26T10:30:11Z</time>
  <sat>8</sat>
</trkpt>
<trkpt lat="39.711957000" lon="-0.393752000">
  <ele>419.700000</ele>
  <time>2012-02-26T10:30:12Z</time>
  <sat>8</sat>
</trkpt>
<trkpt lat="39.711962000" lon="-0.393748000">
  <ele>417.100000</ele>
  <time>2012-02-26T10:30:13Z</time>
  <sat>8</sat>
</trkpt>
<trkpt lat="39.711971000" lon="-0.393749000">
  <ele>417.200000</ele>
  <time>2012-02-26T10:30:14Z</time>
  <sat>8</sat>
</trkpt>
<trkpt lat="39.711974000" lon="-0.393750000">
  <ele>415.800000</ele>
  <time>2012-02-26T10:30:15Z</time>
  <sat>8</sat>
</trkpt>
<trkpt lat="39.711983000" lon="-0.393746000">
  <ele>415.700000</ele>
  <time>2012-02-26T10:30:16Z</time>
  <sat>8</sat>
</trkpt>
<trkpt lat="39.711991000" lon="-0.393734000">
  <ele>415.000000</ele>
  <time>2012-02-26T10:30:17Z</time>
  <sat>8</sat>
</trkpt>
<trkpt lat="39.711993000" lon="-0.393721000">
  <ele>414.800000</ele>
  <time>2012-02-26T10:30:18Z</time>
  <sat>8</sat>
</trkpt>
<trkpt lat="39.711998000" lon="-0.393717000">
  <ele>414.600000</ele>
  <time>2012-02-26T10:30:19Z</time>
  <sat>8</sat>
</trkpt>
<trkpt lat="39.712002000" lon="-0.393717000">
  <ele>414.200000</ele>
  <time>2012-02-26T10:30:20Z</time>
  <sat>8</sat>
</trkpt>
<trkpt lat="39.712008000" lon="-0.393713000">
  <ele>413.800000</ele>
  <time>2012-02-26T10:30:21Z</time>
  <sat>8</sat>
</trkpt>
<trkpt lat="39.712010000" lon="-0.393704000">
  <ele>413.600000</ele>
  <time>2012-02-26T10:30:22Z</time>
  <sat>8</sat>
</trkpt>
<trkpt lat="39.712015000" lon="-0.393686000">
  <ele>413.600000</ele>
  <time>2012-02-26T10:30:23Z</time>
  <sat>8</sat>
</trkpt>
<trkpt lat="39.712018000" lon="-0.393675000">
  <ele>413.800000</ele>
  <time>2012-02-26T10:30:24Z</time>
  <sat>8</sat>
</trkpt>
<trkpt lat="39.712023000" lon="-0.393665000">
  <ele>413.300000</ele>
  <time>2012-02-26T10:30:25Z</time>
  <sat>8</sat>
</trkpt>
<trkpt lat="39.712036000" lon="-0.393640000">
  <ele>412.700000</ele>
  <time>2012-02-26T10:30:27Z</time>
  <sat>8</sat>
</trkpt>
<trkpt lat="39.712037000" lon="-0.393625000">
  <ele>412.700000</ele>
  <time>2012-02-26T10:30:28Z</time>
  <sat>8</sat>
</trkpt>
<trkpt lat="39.712969000" lon="-0.394223000">
  <ele>371.200000</ele>
  <time>2012-02-26T10:33:29Z</time>
  <sat>8</sat>
</trkpt>
<trkpt lat="39.712971000" lon="-0.394266000">
  <ele>370.800000</ele>
  <time>2012-02-26T10:33:30Z</time>
  <sat>8</sat>
</trkpt>
<trkpt lat="39.712997000" lon="-0.394365000">
  <ele>371.700000</ele>
  <time>2012-02-26T10:33:32Z</time>
  <sat>9</sat>
</trkpt>
<trkpt lat="39.713003000" lon="-0.394404000">
  <ele>371.500000</ele>
  <time>2012-02-26T10:33:33Z</time>
  <sat>9</sat>
</trkpt>
<trkpt lat="39.713005000" lon="-0.394438000">
  <ele>372.500000</ele>
  <time>2012-02-26T10:33:34Z</time>
  <sat>9</sat>
</trkpt>
<trkpt lat="39.713025000" lon="-0.394564000">
  <ele>369.600000</ele>
  <time>2012-02-26T10:33:37Z</time>
  <sat>9</sat>
</trkpt>
<trkpt lat="39.713067000" lon="-0.394727000">
  <ele>367.500000</ele>
  <time>2012-02-26T10:33:41Z</time>
  <sat>7</sat>
</trkpt>
<trkpt lat="39.713265000" lon="-0.395295000">
  <ele>358.000000</ele>
  <time>2012-02-26T10:33:54Z</time>
  <sat>8</sat>
</trkpt>
<trkpt lat="39.713281000" lon="-0.395327000">
  <ele>357.200000</ele>
  <time>2012-02-26T10:33:55Z</time>
  <sat>8</sat>
</trkpt>
<trkpt lat="39.713304000" lon="-0.395396000">
  <ele>356.200000</ele>
  <time>2012-02-26T10:33:57Z</time>
  <sat>9</sat>
</trkpt>
<trkpt lat="39.713308000" lon="-0.395440000">
  <ele>355.700000</ele>
  <time>2012-02-26T10:33:58Z</time>
  <sat>9</sat>
</trkpt>
<trkpt lat="39.713350000" lon="-0.395640000">
  <ele>355.000000</ele>
  <time>2012-02-26T10:34:03Z</time>
  <sat>9</sat>
</trkpt>
<trkpt lat="39.713478000" lon="-0.396211000">
  <ele>353.700000</ele>
  <time>2012-02-26T10:34:17Z</time>
  <sat>9</sat>
</trkpt>
<trkpt lat="39.713481000" lon="-0.396262000">
  <ele>353.700000</ele>
  <time>2012-02-26T10:34:18Z</time>
  <sat>9</sat>
</trkpt>
<trkpt lat="39.713520000" lon="-0.396492000">
  <ele>354.000000</ele>
  <time>2012-02-26T10:34:23Z</time>
  <sat>8</sat>
</trkpt>
<trkpt lat="39.713534000" lon="-0.396544000">
  <ele>353.700000</ele>
  <time>2012-02-26T10:34:24Z</time>
  <sat>8</sat>
</trkpt>
<trkpt lat="39.713558000" lon="-0.396581000">
  <ele>353.500000</ele>
  <time>2012-02-26T10:34:25Z</time>
  <sat>8</sat>
</trkpt>
<trkpt lat="39.713610000" lon="-0.396621000">
  <ele>353.000000</ele>
  <time>2012-02-26T10:34:27Z</time>
  <sat>8</sat>
</trkpt>
<trkpt lat="39.713643000" lon="-0.396622000">
  <ele>352.700000</ele>
  <time>2012-02-26T10:34:28Z</time>
  <sat>8</sat>
</trkpt>
<trkpt lat="39.713683000" lon="-0.396627000">
  <ele>352.100000</ele>
  <time>2012-02-26T10:34:29Z</time>
  <sat>8</sat>
</trkpt>
<trkpt lat="39.713721000" lon="-0.396621000">
  <ele>351.700000</ele>
  <time>2012-02-26T10:34:30Z</time>
  <sat>8</sat>
</trkpt>
<trkpt lat="39.713754000" lon="-0.396608000">
  <ele>350.700000</ele>
  <time>2012-02-26T10:34:31Z</time>
  <sat>8</sat>
</trkpt>
<trkpt lat="39.713779000" lon="-0.396598000">
  <ele>350.200000</ele>
  <time>2012-02-26T10:34:32Z</time>
  <sat>8</sat>
</trkpt>
<trkpt lat="39.713908000" lon="-0.396503000">
  <ele>348.500000</ele>
  <time>2012-02-26T10:34:36Z</time>
  <sat>8</sat>
</trkpt>
<trkpt lat="39.714088000" lon="-0.396310000">
  <ele>344.700000</ele>
  <time>2012-02-26T10:34:44Z</time>
  <sat>8</sat>
</trkpt>
<trkpt lat="39.714113000" lon="-0.396294000">
  <ele>344.700000</ele>
  <time>2012-02-26T10:34:45Z</time>
  <sat>8</sat>
</trkpt>
<trkpt lat="39.714141000" lon="-0.396293000">
  <ele>345.200000</ele>
  <time>2012-02-26T10:34:46Z</time>
  <sat>8</sat>
</trkpt>
<trkpt lat="39.714197000" lon="-0.396286000">
  <ele>346.200000</ele>
  <time>2012-02-26T10:34:48Z</time>
  <sat>8</sat>
</trkpt>
<trkpt lat="39.714236000" lon="-0.396285000">
  <ele>346.200000</ele>
  <time>2012-02-26T10:34:49Z</time>
  <sat>8</sat>
</trkpt>
<trkpt lat="39.714268000" lon="-0.396291000">
  <ele>346.600000</ele>
  <time>2012-02-26T10:34:50Z</time>
  <sat>8</sat>
</trkpt>
<trkpt lat="39.714455000" lon="-0.396280000">
  <ele>346.300000</ele>
  <time>2012-02-26T10:34:54Z</time>
  <sat>8</sat>
</trkpt>
<trkpt lat="39.714601000" lon="-0.396251000">
  <ele>346.200000</ele>
  <time>2012-02-26T10:34:59Z</time>
  <sat>8</sat>
</trkpt>
<trkpt lat="39.714639000" lon="-0.396232000">
  <ele>346.200000</ele>
  <time>2012-02-26T10:35:00Z</time>
  <sat>8</sat>
</trkpt>
<trkpt lat="39.714707000" lon="-0.396215000">
  <ele>346.500000</ele>
  <time>2012-02-26T10:35:02Z</time>
  <sat>8</sat>
</trkpt>
<trkpt lat="39.714777000" lon="-0.396214000">
  <ele>344.300000</ele>
  <time>2012-02-26T10:35:04Z</time>
  <sat>8</sat>
</trkpt>
<trkpt lat="39.714812000" lon="-0.396217000">
  <ele>343.500000</ele>
  <time>2012-02-26T10:35:05Z</time>
  <sat>8</sat>
</trkpt>
<trkpt lat="39.714865000" lon="-0.396231000">
  <ele>342.700000</ele>
  <time>2012-02-26T10:35:07Z</time>
  <sat>8</sat>
</trkpt>
<trkpt lat="39.714913000" lon="-0.396267000">
  <ele>342.100000</ele>
  <time>2012-02-26T10:35:09Z</time>
  <sat>8</sat>
</trkpt>
<trkpt lat="39.714958000" lon="-0.396289000">
  <ele>340.600000</ele>
  <time>2012-02-26T10:35:11Z</time>
  <sat>8</sat>
</trkpt>
<trkpt lat="39.715001000" lon="-0.396291000">
  <ele>339.800000</ele>
  <time>2012-02-26T10:35:13Z</time>
  <sat>8</sat>
</trkpt>
<trkpt lat="39.715093000" lon="-0.396299000">
  <ele>338.000000</ele>
  <time>2012-02-26T10:35:17Z</time>
  <sat>8</sat>
</trkpt>
<trkpt lat="39.715101000" lon="-0.396276000">
  <ele>337.000000</ele>
  <time>2012-02-26T10:35:18Z</time>
  <sat>8</sat>
</trkpt>
<trkpt lat="39.715122000" lon="-0.396270000">
  <ele>335.000000</ele>
  <time>2012-02-26T10:35:19Z</time>
  <sat>8</sat>
</trkpt>
<trkpt lat="39.715145000" lon="-0.396256000">
  <ele>333.600000</ele>
  <time>2012-02-26T10:35:20Z</time>
  <sat>8</sat>
</trkpt>
<trkpt lat="39.715161000" lon="-0.396243000">
  <ele>332.200000</ele>
  <time>2012-02-26T10:35:21Z</time>
  <sat>8</sat>
</trkpt>
<trkpt lat="39.715181000" lon="-0.396222000">
  <ele>331.200000</ele>
  <time>2012-02-26T10:35:22Z</time>
  <sat>8</sat>
</trkpt>
<trkpt lat="39.715314000" lon="-0.396067000">
  <ele>328.000000</ele>
  <time>2012-02-26T10:35:29Z</time>
  <sat>8</sat>
</trkpt>
<trkpt lat="39.715328000" lon="-0.396039000">
  <ele>326.600000</ele>
  <time>2012-02-26T10:35:30Z</time>
  <sat>8</sat>
</trkpt>
<trkpt lat="39.715350000" lon="-0.396010000">
  <ele>325.700000</ele>
  <time>2012-02-26T10:35:31Z</time>
  <sat>8</sat>
</trkpt>
<trkpt lat="39.715436000" lon="-0.395876000">
  <ele>323.000000</ele>
  <time>2012-02-26T10:35:36Z</time>
  <sat>8</sat>
</trkpt>
<trkpt lat="39.715446000" lon="-0.395862000">
  <ele>322.700000</ele>
  <time>2012-02-26T10:35:37Z</time>
  <sat>8</sat>
</trkpt>
<trkpt lat="39.715457000" lon="-0.395841000">
  <ele>322.600000</ele>
  <time>2012-02-26T10:35:38Z</time>
  <sat>8</sat>
</trkpt>
<trkpt lat="39.715473000" lon="-0.395817000">
  <ele>322.300000</ele>
  <time>2012-02-26T10:35:39Z</time>
  <sat>8</sat>
</trkpt>
<trkpt lat="39.715505000" lon="-0.395759000">
  <ele>324.700000</ele>
  <time>2012-02-26T10:35:42Z</time>
  <sat>8</sat>
</trkpt>
<trkpt lat="39.715518000" lon="-0.395740000">
  <ele>325.600000</ele>
  <time>2012-02-26T10:35:43Z</time>
  <sat>8</sat>
</trkpt>
<trkpt lat="39.715609000" lon="-0.395654000">
  <ele>324.000000</ele>
  <time>2012-02-26T10:35:47Z</time>
  <sat>8</sat>
</trkpt>
<trkpt lat="39.715828000" lon="-0.395449000">
  <ele>312.000000</ele>
  <time>2012-02-26T10:35:56Z</time>
  <sat>8</sat>
</trkpt>
<trkpt lat="39.715853000" lon="-0.395412000">
  <ele>311.700000</ele>
  <time>2012-02-26T10:35:57Z</time>
  <sat>8</sat>
</trkpt>
<trkpt lat="39.715895000" lon="-0.395241000">
  <ele>311.600000</ele>
  <time>2012-02-26T10:36:16Z</time>
  <sat>8</sat>
</trkpt>
<trkpt lat="39.715894000" lon="-0.395221000">
  <ele>312.500000</ele>
  <time>2012-02-26T10:36:17Z</time>
  <sat>8</sat>
</trkpt>
<trkpt lat="39.715895000" lon="-0.395217000">
  <ele>312.100000</ele>
  <time>2012-02-26T10:36:18Z</time>
  <sat>8</sat>
</trkpt>
<trkpt lat="39.715900000" lon="-0.395206000">
  <ele>311.700000</ele>
  <time>2012-02-26T10:36:19Z</time>
  <sat>8</sat>
</trkpt>
<trkpt lat="39.715914000" lon="-0.395188000">
  <ele>311.300000</ele>
  <time>2012-02-26T10:36:20Z</time>
  <sat>8</sat>
</trkpt>
<trkpt lat="39.717198000" lon="-0.393508000">
  <ele>300.300000</ele>
  <time>2012-02-26T10:37:01Z</time>
  <sat>10</sat>
</trkpt>
<trkpt lat="39.717242000" lon="-0.393470000">
  <ele>300.200000</ele>
  <time>2012-02-26T10:37:02Z</time>
  <sat>10</sat>
</trkpt>
<trkpt lat="39.717334000" lon="-0.393402000">
  <ele>299.300000</ele>
  <time>2012-02-26T10:37:04Z</time>
  <sat>10</sat>
</trkpt>
<trkpt lat="39.717522000" lon="-0.393251000">
  <ele>300.500000</ele>
  <time>2012-02-26T10:37:09Z</time>
  <sat>10</sat>
</trkpt>
<trkpt lat="39.717536000" lon="-0.393219000">
  <ele>300.200000</ele>
  <time>2012-02-26T10:37:10Z</time>
  <sat>10</sat>
</trkpt>
<trkpt lat="39.717551000" lon="-0.393188000">
  <ele>299.600000</ele>
  <time>2012-02-26T10:37:11Z</time>
  <sat>10</sat>
</trkpt>
<trkpt lat="39.717573000" lon="-0.393164000">
  <ele>299.700000</ele>
  <time>2012-02-26T10:37:12Z</time>
  <sat>10</sat>
</trkpt>
<trkpt lat="39.717634000" lon="-0.393124000">
  <ele>299.300000</ele>
  <time>2012-02-26T10:37:14Z</time>
  <sat>10</sat>
</trkpt>
<trkpt lat="39.717739000" lon="-0.393022000">
  <ele>297.700000</ele>
  <time>2012-02-26T10:37:17Z</time>
  <sat>10</sat>
</trkpt>
<trkpt lat="39.717759000" lon="-0.392971000">
  <ele>297.100000</ele>
  <time>2012-02-26T10:37:18Z</time>
  <sat>10</sat>
</trkpt>
<trkpt lat="39.717764000" lon="-0.392911000">
  <ele>296.700000</ele>
  <time>2012-02-26T10:37:19Z</time>
  <sat>10</sat>
</trkpt>
<trkpt lat="39.717740000" lon="-0.392852000">
  <ele>296.600000</ele>
  <time>2012-02-26T10:37:20Z</time>
  <sat>10</sat>
</trkpt>
<trkpt lat="39.717722000" lon="-0.392803000">
  <ele>296.200000</ele>
  <time>2012-02-26T10:37:21Z</time>
  <sat>10</sat>
</trkpt>
<trkpt lat="39.717668000" lon="-0.392707000">
  <ele>294.700000</ele>
  <time>2012-02-26T10:37:23Z</time>
  <sat>10</sat>
</trkpt>
<trkpt lat="39.717625000" lon="-0.392668000">
  <ele>294.200000</ele>
  <time>2012-02-26T10:37:24Z</time>
  <sat>9</sat>
</trkpt>
<trkpt lat="39.717580000" lon="-0.392622000">
  <ele>294.000000</ele>
  <time>2012-02-26T10:37:25Z</time>
  <sat>10</sat>
</trkpt>
<trkpt lat="39.717528000" lon="-0.392563000">
  <ele>293.500000</ele>
  <time>2012-02-26T10:37:26Z</time>
  <sat>10</sat>
</trkpt>
<trkpt lat="39.717296000" lon="-0.392259000">
  <ele>291.800000</ele>
  <time>2012-02-26T10:37:31Z</time>
  <sat>8</sat>
</trkpt>
<trkpt lat="39.717262000" lon="-0.392191000">
  <ele>291.700000</ele>
  <time>2012-02-26T10:37:32Z</time>
  <sat>7</sat>
</trkpt>
<trkpt lat="39.717131000" lon="-0.391876000">
  <ele>287.600000</ele>
  <time>2012-02-26T10:37:36Z</time>
  <sat>8</sat>
</trkpt>
<trkpt lat="39.717071000" lon="-0.391697000">
  <ele>285.800000</ele>
  <time>2012-02-26T10:37:38Z</time>
  <sat>9</sat>
</trkpt>
<trkpt lat="39.717062000" lon="-0.391623000">
  <ele>285.700000</ele>
  <time>2012-02-26T10:37:39Z</time>
  <sat>9</sat>
</trkpt>
<trkpt lat="39.717078000" lon="-0.391565000">
  <ele>285.800000</ele>
  <time>2012-02-26T10:37:40Z</time>
  <sat>9</sat>
</trkpt>
<trkpt lat="39.717102000" lon="-0.391525000">
  <ele>285.700000</ele>
  <time>2012-02-26T10:37:41Z</time>
  <sat>9</sat>
</trkpt>
<trkpt lat="39.717169000" lon="-0.391393000">
  <ele>285.100000</ele>
  <time>2012-02-26T10:37:44Z</time>
  <sat>9</sat>
</trkpt>
<trkpt lat="39.717310000" lon="-0.391162000">
  <ele>284.700000</ele>
  <time>2012-02-26T10:37:49Z</time>
  <sat>9</sat>
</trkpt>
<trkpt lat="39.717520000" lon="-0.390790000">
  <ele>281.700000</ele>
  <time>2012-02-26T10:37:56Z</time>
  <sat>10</sat>
</trkpt>
<trkpt lat="39.717541000" lon="-0.390720000">
  <ele>280.300000</ele>
  <time>2012-02-26T10:37:57Z</time>
  <sat>10</sat>
</trkpt>
<trkpt lat="39.717598000" lon="-0.390508000">
  <ele>279.200000</ele>
  <time>2012-02-26T10:38:00Z</time>
  <sat>10</sat>
</trkpt>
<trkpt lat="39.717633000" lon="-0.390451000">
  <ele>279.300000</ele>
  <time>2012-02-26T10:38:01Z</time>
  <sat>10</sat>
</trkpt>
<trkpt lat="39.717887000" lon="-0.390093000">
  <ele>277.700000</ele>
  <time>2012-02-26T10:38:07Z</time>
  <sat>10</sat>
</trkpt>
<trkpt lat="39.717929000" lon="-0.390052000">
  <ele>277.600000</ele>
  <time>2012-02-26T10:38:08Z</time>
  <sat>10</sat>
</trkpt>
<trkpt lat="39.718007000" lon="-0.390002000">
  <ele>277.200000</ele>
  <time>2012-02-26T10:38:10Z</time>
  <sat>10</sat>
</trkpt>
<trkpt lat="39.718044000" lon="-0.390002000">
  <ele>277.200000</ele>
  <time>2012-02-26T10:38:11Z</time>
  <sat>10</sat>
</trkpt>
<trkpt lat="39.718132000" lon="-0.390003000">
  <ele>277.200000</ele>
  <time>2012-02-26T10:38:13Z</time>
  <sat>10</sat>
</trkpt>
<trkpt lat="39.718166000" lon="-0.389979000">
  <ele>276.600000</ele>
  <time>2012-02-26T10:38:14Z</time>
  <sat>10</sat>
</trkpt>
<trkpt lat="39.718252000" lon="-0.389896000">
  <ele>275.700000</ele>
  <time>2012-02-26T10:38:16Z</time>
  <sat>10</sat>
</trkpt>
<trkpt lat="39.718284000" lon="-0.389846000">
  <ele>275.200000</ele>
  <time>2012-02-26T10:38:17Z</time>
  <sat>10</sat>
</trkpt>
<trkpt lat="39.718522000" lon="-0.389467000">
  <ele>271.100000</ele>
  <time>2012-02-26T10:38:27Z</time>
  <sat>10</sat>
</trkpt>
<trkpt lat="39.718533000" lon="-0.389458000">
  <ele>270.700000</ele>
  <time>2012-02-26T10:38:28Z</time>
  <sat>10</sat>
</trkpt>
<trkpt lat="39.718551000" lon="-0.389453000">
  <ele>270.800000</ele>
  <time>2012-02-26T10:38:29Z</time>
  <sat>10</sat>
</trkpt>
<trkpt lat="39.718568000" lon="-0.389450000">
  <ele>270.300000</ele>
  <time>2012-02-26T10:38:30Z</time>
  <sat>10</sat>
</trkpt>
<trkpt lat="39.718590000" lon="-0.389460000">
  <ele>268.700000</ele>
  <time>2012-02-26T10:38:31Z</time>
  <sat>10</sat>
</trkpt>
<trkpt lat="39.718640000" lon="-0.389458000">
  <ele>266.500000</ele>
  <time>2012-02-26T10:38:33Z</time>
  <sat>8</sat>
</trkpt>
<trkpt lat="39.718666000" lon="-0.389460000">
  <ele>265.700000</ele>
  <time>2012-02-26T10:38:34Z</time>
  <sat>8</sat>
</trkpt>
<trkpt lat="39.718687000" lon="-0.389456000">
  <ele>265.700000</ele>
  <time>2012-02-26T10:38:35Z</time>
  <sat>8</sat>
</trkpt>
<trkpt lat="39.718727000" lon="-0.389432000">
  <ele>264.600000</ele>
  <time>2012-02-26T10:38:37Z</time>
  <sat>10</sat>
</trkpt>
<trkpt lat="39.718737000" lon="-0.389415000">
  <ele>264.500000</ele>
  <time>2012-02-26T10:38:38Z</time>
  <sat>10</sat>
</trkpt>
<trkpt lat="39.718864000" lon="-0.389148000">
  <ele>259.600000</ele>
  <time>2012-02-26T10:38:48Z</time>
  <sat>10</sat>
</trkpt>
<trkpt lat="39.718892000" lon="-0.389086000">
  <ele>258.300000</ele>
  <time>2012-02-26T10:38:51Z</time>
  <sat>10</sat>
</trkpt>
<trkpt lat="39.718900000" lon="-0.389068000">
  <ele>258.700000</ele>
  <time>2012-02-26T10:38:52Z</time>
  <sat>10</sat>
</trkpt>
<trkpt lat="39.718910000" lon="-0.389055000">
  <ele>258.700000</ele>
  <time>2012-02-26T10:38:53Z</time>
  <sat>10</sat>
</trkpt>
<trkpt lat="39.719066000" lon="-0.388867000">
  <ele>255.800000</ele>
  <time>2012-02-26T10:39:03Z</time>
  <sat>10</sat>
</trkpt>
<trkpt lat="39.719077000" lon="-0.388854000">
  <ele>255.500000</ele>
  <time>2012-02-26T10:39:04Z</time>
  <sat>10</sat>
</trkpt>
<trkpt lat="39.719189000" lon="-0.388736000">
  <ele>254.100000</ele>
  <time>2012-02-26T10:39:09Z</time>
  <sat>10</sat>
</trkpt>
<trkpt lat="39.719217000" lon="-0.388715000">
  <ele>254.000000</ele>
  <time>2012-02-26T10:39:10Z</time>
  <sat>10</sat>
</trkpt>
<trkpt lat="39.719259000" lon="-0.388666000">
  <ele>254.000000</ele>
  <time>2012-02-26T10:39:12Z</time>
  <sat>10</sat>
</trkpt>
<trkpt lat="39.719335000" lon="-0.388571000">
  <ele>253.100000</ele>
  <time>2012-02-26T10:39:15Z</time>
  <sat>10</sat>
</trkpt>
<trkpt lat="39.719341000" lon="-0.388506000">
  <ele>248.800000</ele>
  <time>2012-02-26T10:39:16Z</time>
  <sat>10</sat>
</trkpt>
<trkpt lat="39.719342000" lon="-0.388463000">
  <ele>246.800000</ele>
  <time>2012-02-26T10:39:17Z</time>
  <sat>10</sat>
</trkpt>
<trkpt lat="39.719353000" lon="-0.388426000">
  <ele>246.300000</ele>
  <time>2012-02-26T10:39:18Z</time>
  <sat>9</sat>
</trkpt>
<trkpt lat="39.719367000" lon="-0.388380000">
  <ele>246.100000</ele>
  <time>2012-02-26T10:39:19Z</time>
  <sat>9</sat>
</trkpt>
<trkpt lat="39.719381000" lon="-0.388331000">
  <ele>245.600000</ele>
  <time>2012-02-26T10:39:20Z</time>
  <sat>9</sat>
</trkpt>
<trkpt lat="39.719375000" lon="-0.388217000">
  <ele>244.600000</ele>
  <time>2012-02-26T10:39:23Z</time>
  <sat>9</sat>
</trkpt>
<trkpt lat="39.719360000" lon="-0.388144000">
  <ele>243.600000</ele>
  <time>2012-02-26T10:39:24Z</time>
  <sat>9</sat>
</trkpt>
<trkpt lat="39.719345000" lon="-0.388075000">
  <ele>242.600000</ele>
  <time>2012-02-26T10:39:26Z</time>
  <sat>9</sat>
</trkpt>
<trkpt lat="39.719346000" lon="-0.388052000">
  <ele>242.100000</ele>
  <time>2012-02-26T10:39:27Z</time>
  <sat>9</sat>
</trkpt>
<trkpt lat="39.719379000" lon="-0.388027000">
  <ele>241.100000</ele>
  <time>2012-02-26T10:39:29Z</time>
  <sat>9</sat>
</trkpt>
<trkpt lat="39.719503000" lon="-0.388001000">
  <ele>240.300000</ele>
  <time>2012-02-26T10:39:33Z</time>
  <sat>9</sat>
</trkpt>
<trkpt lat="39.719591000" lon="-0.388015000">
  <ele>243.000000</ele>
  <time>2012-02-26T10:39:39Z</time>
  <sat>9</sat>
</trkpt>
<trkpt lat="39.719751000" lon="-0.388019000">
  <ele>243.100000</ele>
  <time>2012-02-26T10:39:44Z</time>
  <sat>9</sat>
</trkpt>
<trkpt lat="39.719779000" lon="-0.388015000">
  <ele>243.500000</ele>
  <time>2012-02-26T10:39:45Z</time>
  <sat>9</sat>
</trkpt>
<trkpt lat="39.719806000" lon="-0.388015000">
  <ele>243.600000</ele>
  <time>2012-02-26T10:39:46Z</time>
  <sat>9</sat>
</trkpt>
<trkpt lat="39.719852000" lon="-0.388025000">
  <ele>243.300000</ele>
  <time>2012-02-26T10:39:48Z</time>
  <sat>9</sat>
</trkpt>
<trkpt lat="39.720017000" lon="-0.388065000">
  <ele>240.300000</ele>
  <time>2012-02-26T10:39:54Z</time>
  <sat>9</sat>
</trkpt>
<trkpt lat="39.720047000" lon="-0.388079000">
  <ele>240.100000</ele>
  <time>2012-02-26T10:39:55Z</time>
  <sat>9</sat>
</trkpt>
<trkpt lat="39.720073000" lon="-0.388099000">
  <ele>240.000000</ele>
  <time>2012-02-26T10:39:56Z</time>
  <sat>9</sat>
</trkpt>
<trkpt lat="39.720141000" lon="-0.388169000">
  <ele>240.100000</ele>
  <time>2012-02-26T10:40:00Z</time>
  <sat>9</sat>
</trkpt>
<trkpt lat="39.720210000" lon="-0.388246000">
  <ele>240.600000</ele>
  <time>2012-02-26T10:40:04Z</time>
  <sat>9</sat>
</trkpt>
<trkpt lat="39.720233000" lon="-0.388270000">
  <ele>240.600000</ele>
  <time>2012-02-26T10:40:05Z</time>
  <sat>9</sat>
</trkpt>
<trkpt lat="39.720270000" lon="-0.388298000">
  <ele>241.300000</ele>
  <time>2012-02-26T10:40:07Z</time>
  <sat>8</sat>
</trkpt>
<trkpt lat="39.720292000" lon="-0.388302000">
  <ele>241.100000</ele>
  <time>2012-02-26T10:40:09Z</time>
  <sat>9</sat>
</trkpt>
<trkpt lat="39.720302000" lon="-0.388292000">
  <ele>241.800000</ele>
  <time>2012-02-26T10:40:10Z</time>
  <sat>9</sat>
</trkpt>
<trkpt lat="39.720323000" lon="-0.388266000">
  <ele>241.500000</ele>
  <time>2012-02-26T10:40:12Z</time>
  <sat>9</sat>
</trkpt>
<trkpt lat="39.720330000" lon="-0.388236000">
  <ele>240.600000</ele>
  <time>2012-02-26T10:40:13Z</time>
  <sat>9</sat>
</trkpt>
<trkpt lat="39.720345000" lon="-0.388218000">
  <ele>239.800000</ele>
  <time>2012-02-26T10:40:14Z</time>
  <sat>9</sat>
</trkpt>
<trkpt lat="39.720396000" lon="-0.388174000">
  <ele>238.000000</ele>
  <time>2012-02-26T10:40:17Z</time>
  <sat>9</sat>
</trkpt>
<trkpt lat="39.720416000" lon="-0.388159000">
  <ele>237.500000</ele>
  <time>2012-02-26T10:40:18Z</time>
  <sat>9</sat>
</trkpt>
<trkpt lat="39.720433000" lon="-0.388157000">
  <ele>237.100000</ele>
  <time>2012-02-26T10:40:19Z</time>
  <sat>9</sat>
</trkpt>
<trkpt lat="39.720456000" lon="-0.388167000">
  <ele>237.100000</ele>
  <time>2012-02-26T10:40:20Z</time>
  <sat>9</sat>
</trkpt>
<trkpt lat="39.720479000" lon="-0.388172000">
  <ele>237.100000</ele>
  <time>2012-02-26T10:40:21Z</time>
  <sat>9</sat>
</trkpt>
<trkpt lat="39.720502000" lon="-0.388172000">
  <ele>237.000000</ele>
  <time>2012-02-26T10:40:22Z</time>
  <sat>9</sat>
</trkpt>
<trkpt lat="39.720531000" lon="-0.388166000">
  <ele>236.500000</ele>
  <time>2012-02-26T10:40:23Z</time>
  <sat>9</sat>
</trkpt>
<trkpt lat="39.720564000" lon="-0.388155000">
  <ele>235.600000</ele>
  <time>2012-02-26T10:40:24Z</time>
  <sat>9</sat>
</trkpt>
<trkpt lat="39.720637000" lon="-0.388115000">
  <ele>234.300000</ele>
  <time>2012-02-26T10:40:26Z</time>
  <sat>7</sat>
</trkpt>
<trkpt lat="39.720755000" lon="-0.388065000">
  <ele>233.600000</ele>
  <time>2012-02-26T10:40:29Z</time>
  <sat>9</sat>
</trkpt>
<trkpt lat="39.720794000" lon="-0.388051000">
  <ele>233.800000</ele>
  <time>2012-02-26T10:40:30Z</time>
  <sat>9</sat>
</trkpt>
<trkpt lat="39.721013000" lon="-0.387948000">
  <ele>232.300000</ele>
  <time>2012-02-26T10:40:40Z</time>
  <sat>7</sat>
</trkpt>
<trkpt lat="39.721046000" lon="-0.387921000">
  <ele>232.800000</ele>
  <time>2012-02-26T10:40:41Z</time>
  <sat>7</sat>
</trkpt>
<trkpt lat="39.721059000" lon="-0.387899000">
  <ele>232.600000</ele>
  <time>2012-02-26T10:40:42Z</time>
  <sat>7</sat>
</trkpt>
<trkpt lat="39.721072000" lon="-0.387884000">
  <ele>232.800000</ele>
  <time>2012-02-26T10:40:43Z</time>
  <sat>7</sat>
</trkpt>
<trkpt lat="39.721117000" lon="-0.387852000">
  <ele>232.800000</ele>
  <time>2012-02-26T10:40:45Z</time>
  <sat>7</sat>
</trkpt>
<trkpt lat="39.721179000" lon="-0.387833000">
  <ele>232.800000</ele>
  <time>2012-02-26T10:40:47Z</time>
  <sat>10</sat>
</trkpt>
<trkpt lat="39.721290000" lon="-0.387799000">
  <ele>231.800000</ele>
  <time>2012-02-26T10:40:51Z</time>
  <sat>10</sat>
</trkpt>
<trkpt lat="39.721316000" lon="-0.387781000">
  <ele>231.800000</ele>
  <time>2012-02-26T10:40:52Z</time>
  <sat>10</sat>
</trkpt>
<trkpt lat="39.721366000" lon="-0.387765000">
  <ele>231.300000</ele>
  <time>2012-02-26T10:40:54Z</time>
  <sat>10</sat>
</trkpt>
<trkpt lat="39.721428000" lon="-0.387760000">
  <ele>231.100000</ele>
  <time>2012-02-26T10:40:56Z</time>
  <sat>10</sat>
</trkpt>
<trkpt lat="39.721451000" lon="-0.387769000">
  <ele>231.800000</ele>
  <time>2012-02-26T10:40:57Z</time>
  <sat>10</sat>
</trkpt>
<trkpt lat="39.721527000" lon="-0.387798000">
  <ele>232.100000</ele>
  <time>2012-02-26T10:40:59Z</time>
  <sat>10</sat>
</trkpt>
<trkpt lat="39.721565000" lon="-0.387821000">
  <ele>231.800000</ele>
  <time>2012-02-26T10:41:00Z</time>
  <sat>10</sat>
</trkpt>
<trkpt lat="39.721621000" lon="-0.387877000">
  <ele>232.300000</ele>
  <time>2012-02-26T10:41:02Z</time>
  <sat>10</sat>
</trkpt>
<trkpt lat="39.721640000" lon="-0.387915000">
  <ele>233.000000</ele>
  <time>2012-02-26T10:41:03Z</time>
  <sat>10</sat>
</trkpt>
<trkpt lat="39.721715000" lon="-0.388127000">
  <ele>233.100000</ele>
  <time>2012-02-26T10:41:08Z</time>
  <sat>10</sat>
</trkpt>
<trkpt lat="39.721728000" lon="-0.388176000">
  <ele>233.800000</ele>
  <time>2012-02-26T10:41:09Z</time>
  <sat>10</sat>
</trkpt>
<trkpt lat="39.721733000" lon="-0.388215000">
  <ele>234.300000</ele>
  <time>2012-02-26T10:41:10Z</time>
  <sat>10</sat>
</trkpt>
<trkpt lat="39.721776000" lon="-0.388471000">
  <ele>233.800000</ele>
  <time>2012-02-26T10:41:16Z</time>
  <sat>10</sat>
</trkpt>
<trkpt lat="39.721798000" lon="-0.388515000">
  <ele>233.300000</ele>
  <time>2012-02-26T10:41:17Z</time>
  <sat>10</sat>
</trkpt>
<trkpt lat="39.721879000" lon="-0.388611000">
  <ele>233.000000</ele>
  <time>2012-02-26T10:41:19Z</time>
  <sat>10</sat>
</trkpt>
<trkpt lat="39.721914000" lon="-0.388672000">
  <ele>233.000000</ele>
  <time>2012-02-26T10:41:20Z</time>
  <sat>9</sat>
</trkpt>
<trkpt lat="39.722089000" lon="-0.388964000">
  <ele>230.100000</ele>
  <time>2012-02-26T10:41:25Z</time>
  <sat>7</sat>
</trkpt>
<trkpt lat="39.722136000" lon="-0.389000000">
  <ele>229.800000</ele>
  <time>2012-02-26T10:41:26Z</time>
  <sat>7</sat>
</trkpt>
<trkpt lat="39.722210000" lon="-0.389026000">
  <ele>228.800000</ele>
  <time>2012-02-26T10:41:27Z</time>
  <sat>10</sat>
</trkpt>
<trkpt lat="39.722279000" lon="-0.389029000">
  <ele>227.800000</ele>
  <time>2012-02-26T10:41:28Z</time>
  <sat>10</sat>
</trkpt>
<trkpt lat="39.722335000" lon="-0.389026000">
  <ele>228.100000</ele>
  <time>2012-02-26T10:41:29Z</time>
  <sat>10</sat>
</trkpt>
<trkpt lat="39.722397000" lon="-0.389004000">
  <ele>228.300000</ele>
  <time>2012-02-26T10:41:30Z</time>
  <sat>10</sat>
</trkpt>
<trkpt lat="39.722801000" lon="-0.388873000">
  <ele>223.000000</ele>
  <time>2012-02-26T10:41:37Z</time>
  <sat>9</sat>
</trkpt>
<trkpt lat="39.722847000" lon="-0.388878000">
  <ele>222.600000</ele>
  <time>2012-02-26T10:41:38Z</time>
  <sat>8</sat>
</trkpt>
<trkpt lat="39.722890000" lon="-0.388877000">
  <ele>222.600000</ele>
  <time>2012-02-26T10:41:39Z</time>
  <sat>8</sat>
</trkpt>
<trkpt lat="39.722928000" lon="-0.388863000">
  <ele>222.600000</ele>
  <time>2012-02-26T10:41:40Z</time>
  <sat>8</sat>
</trkpt>
<trkpt lat="39.723395000" lon="-0.388754000">
  <ele>217.800000</ele>
  <time>2012-02-26T10:41:50Z</time>
  <sat>9</sat>
</trkpt>
<trkpt lat="39.723441000" lon="-0.388718000">
  <ele>216.100000</ele>
  <time>2012-02-26T10:41:52Z</time>
  <sat>9</sat>
</trkpt>
<trkpt lat="39.723456000" lon="-0.388693000">
  <ele>216.000000</ele>
  <time>2012-02-26T10:41:53Z</time>
  <sat>9</sat>
</trkpt>
<trkpt lat="39.723465000" lon="-0.388611000">
  <ele>216.600000</ele>
  <time>2012-02-26T10:41:55Z</time>
  <sat>9</sat>
</trkpt>
<trkpt lat="39.723456000" lon="-0.388392000">
  <ele>215.100000</ele>
  <time>2012-02-26T10:41:59Z</time>
  <sat>10</sat>
</trkpt>
<trkpt lat="39.723422000" lon="-0.386950000">
  <ele>210.300000</ele>
  <time>2012-02-26T10:42:19Z</time>
  <sat>9</sat>
</trkpt>
<trkpt lat="39.723401000" lon="-0.386866000">
  <ele>210.800000</ele>
  <time>2012-02-26T10:42:20Z</time>
  <sat>9</sat>
</trkpt>
<trkpt lat="39.722911000" lon="-0.385139000">
  <ele>205.100000</ele>
  <time>2012-02-26T10:42:39Z</time>
  <sat>7</sat>
</trkpt>
<trkpt lat="39.722782000" lon="-0.384704000">
  <ele>203.600000</ele>
  <time>2012-02-26T10:42:44Z</time>
  <sat>9</sat>
</trkpt>
<trkpt lat="39.722773000" lon="-0.384613000">
  <ele>203.300000</ele>
  <time>2012-02-26T10:42:45Z</time>
  <sat>9</sat>
</trkpt>
<trkpt lat="39.722776000" lon="-0.384525000">
  <ele>202.300000</ele>
  <time>2012-02-26T10:42:46Z</time>
  <sat>9</sat>
</trkpt>
<trkpt lat="39.722793000" lon="-0.384436000">
  <ele>201.300000</ele>
  <time>2012-02-26T10:42:47Z</time>
  <sat>9</sat>
</trkpt>
<trkpt lat="39.722873000" lon="-0.384156000">
  <ele>201.000000</ele>
  <time>2012-02-26T10:42:50Z</time>
  <sat>10</sat>
</trkpt>
<trkpt lat="39.723195000" lon="-0.382772000">
  <ele>199.000000</ele>
  <time>2012-02-26T10:43:05Z</time>
  <sat>10</sat>
</trkpt>
<trkpt lat="39.723233000" lon="-0.382618000">
  <ele>198.800000</ele>
  <time>2012-02-26T10:43:07Z</time>
  <sat>10</sat>
</trkpt>
<trkpt lat="39.723235000" lon="-0.382547000">
  <ele>198.600000</ele>
  <time>2012-02-26T10:43:08Z</time>
  <sat>10</sat>
</trkpt>
<trkpt lat="39.723221000" lon="-0.382480000">
  <ele>198.300000</ele>
  <time>2012-02-26T10:43:09Z</time>
  <sat>10</sat>
</trkpt>
<trkpt lat="39.723171000" lon="-0.382435000">
  <ele>198.800000</ele>
  <time>2012-02-26T10:43:10Z</time>
  <sat>10</sat>
</trkpt>
<trkpt lat="39.723132000" lon="-0.382388000">
  <ele>199.000000</ele>
  <time>2012-02-26T10:43:11Z</time>
  <sat>10</sat>
</trkpt>
<trkpt lat="39.722717000" lon="-0.381890000">
  <ele>198.500000</ele>
  <time>2012-02-26T10:43:20Z</time>
  <sat>7</sat>
</trkpt>
<trkpt lat="39.722679000" lon="-0.381818000">
  <ele>198.100000</ele>
  <time>2012-02-26T10:43:21Z</time>
  <sat>7</sat>
</trkpt>
<trkpt lat="39.722642000" lon="-0.381750000">
  <ele>197.600000</ele>
  <time>2012-02-26T10:43:22Z</time>
  <sat>8</sat>
</trkpt>
<trkpt lat="39.722209000" lon="-0.381111000">
  <ele>197.800000</ele>
  <time>2012-02-26T10:43:32Z</time>
  <sat>9</sat>
</trkpt>
<trkpt lat="39.722115000" lon="-0.381089000">
  <ele>198.000000</ele>
  <time>2012-02-26T10:43:34Z</time>
  <sat>9</sat>
</trkpt>
<trkpt lat="39.722068000" lon="-0.381131000">
  <ele>198.000000</ele>
  <time>2012-02-26T10:43:35Z</time>
  <sat>9</sat>
</trkpt>
<trkpt lat="39.721583000" lon="-0.381548000">
  <ele>203.600000</ele>
  <time>2012-02-26T10:43:46Z</time>
  <sat>9</sat>
</trkpt>
<trkpt lat="39.721549000" lon="-0.381555000">
  <ele>204.100000</ele>
  <time>2012-02-26T10:43:47Z</time>
  <sat>9</sat>
</trkpt>
<trkpt lat="39.721522000" lon="-0.381550000">
  <ele>205.000000</ele>
  <time>2012-02-26T10:43:48Z</time>
  <sat>9</sat>
</trkpt>
<trkpt lat="39.721503000" lon="-0.381525000">
  <ele>205.600000</ele>
  <time>2012-02-26T10:43:49Z</time>
  <sat>10</sat>
</trkpt>
<trkpt lat="39.721490000" lon="-0.381490000">
  <ele>205.600000</ele>
  <time>2012-02-26T10:43:50Z</time>
  <sat>10</sat>
</trkpt>
<trkpt lat="39.721490000" lon="-0.381443000">
  <ele>205.300000</ele>
  <time>2012-02-26T10:43:51Z</time>
  <sat>10</sat>
</trkpt>
<trkpt lat="39.721470000" lon="-0.380911000">
  <ele>202.500000</ele>
  <time>2012-02-26T10:44:00Z</time>
  <sat>9</sat>
</trkpt>
<trkpt lat="39.721459000" lon="-0.380849000">
  <ele>202.300000</ele>
  <time>2012-02-26T10:44:01Z</time>
  <sat>9</sat>
</trkpt>
<trkpt lat="39.721380000" lon="-0.380521000">
  <ele>201.300000</ele>
  <time>2012-02-26T10:44:06Z</time>
  <sat>7</sat>
</trkpt>
<trkpt lat="39.721083000" lon="-0.379239000">
  <ele>199.100000</ele>
  <time>2012-02-26T10:44:23Z</time>
  <sat>7</sat>
</trkpt>
<trkpt lat="39.721078000" lon="-0.379153000">
  <ele>199.300000</ele>
  <time>2012-02-26T10:44:24Z</time>
  <sat>7</sat>
</trkpt>
<trkpt lat="39.721016000" lon="-0.378654000">
  <ele>200.000000</ele>
  <time>2012-02-26T10:44:30Z</time>
  <sat>7</sat>
</trkpt>
<trkpt lat="39.720998000" lon="-0.378572000">
  <ele>200.300000</ele>
  <time>2012-02-26T10:44:31Z</time>
  <sat>8</sat>
</trkpt>
<trkpt lat="39.720907000" lon="-0.378253000">
  <ele>200.600000</ele>
  <time>2012-02-26T10:44:35Z</time>
  <sat>9</sat>
</trkpt>
<trkpt lat="39.720793000" lon="-0.377953000">
  <ele>201.300000</ele>
  <time>2012-02-26T10:44:39Z</time>
  <sat>9</sat>
</trkpt>
<trkpt lat="39.720701000" lon="-0.377757000">
  <ele>201.100000</ele>
  <time>2012-02-26T10:44:42Z</time>
  <sat>8</sat>
</trkpt>
<trkpt lat="39.720657000" lon="-0.377694000">
  <ele>200.800000</ele>
  <time>2012-02-26T10:44:43Z</time>
  <sat>8</sat>
</trkpt>
<trkpt lat="39.719845000" lon="-0.376549000">
  <ele>198.000000</ele>
  <time>2012-02-26T10:45:01Z</time>
  <sat>10</sat>
</trkpt>
<trkpt lat="39.719814000" lon="-0.376456000">
  <ele>198.100000</ele>
  <time>2012-02-26T10:45:02Z</time>
  <sat>10</sat>
</trkpt>
<trkpt lat="39.719563000" lon="-0.375713000">
  <ele>199.300000</ele>
  <time>2012-02-26T10:45:12Z</time>
  <sat>10</sat>
</trkpt>
<trkpt lat="39.719530000" lon="-0.375668000">
  <ele>199.300000</ele>
  <time>2012-02-26T10:45:13Z</time>
  <sat>10</sat>
</trkpt>
<trkpt lat="39.719347000" lon="-0.375467000">
  <ele>199.100000</ele>
  <time>2012-02-26T10:45:18Z</time>
  <sat>10</sat>
</trkpt>
<trkpt lat="39.719265000" lon="-0.375370000">
  <ele>198.100000</ele>
  <time>2012-02-26T10:45:20Z</time>
  <sat>10</sat>
</trkpt>
<trkpt lat="39.719228000" lon="-0.375307000">
  <ele>197.600000</ele>
  <time>2012-02-26T10:45:21Z</time>
  <sat>10</sat>
</trkpt>
<trkpt lat="39.719162000" lon="-0.375178000">
  <ele>197.500000</ele>
  <time>2012-02-26T10:45:23Z</time>
  <sat>9</sat>
</trkpt>
<trkpt lat="39.719092000" lon="-0.375057000">
  <ele>197.600000</ele>
  <time>2012-02-26T10:45:25Z</time>
  <sat>9</sat>
</trkpt>
<trkpt lat="39.719049000" lon="-0.375007000">
  <ele>197.800000</ele>
  <time>2012-02-26T10:45:26Z</time>
  <sat>9</sat>
</trkpt>
<trkpt lat="39.718850000" lon="-0.374764000">
  <ele>197.600000</ele>
  <time>2012-02-26T10:45:31Z</time>
  <sat>9</sat>
</trkpt>
<trkpt lat="39.718823000" lon="-0.374712000">
  <ele>197.800000</ele>
  <time>2012-02-26T10:45:32Z</time>
  <sat>9</sat>
</trkpt>
<trkpt lat="39.718698000" lon="-0.374461000">
  <ele>196.000000</ele>
  <time>2012-02-26T10:45:38Z</time>
  <sat>9</sat>
</trkpt>
<trkpt lat="39.718690000" lon="-0.374422000">
  <ele>195.800000</ele>
  <time>2012-02-26T10:45:39Z</time>
  <sat>9</sat>
</trkpt>
<trkpt lat="39.718655000" lon="-0.374313000">
  <ele>195.300000</ele>
  <time>2012-02-26T10:45:42Z</time>
  <sat>9</sat>
</trkpt>
<trkpt lat="39.718624000" lon="-0.374194000">
  <ele>195.300000</ele>
  <time>2012-02-26T10:45:46Z</time>
  <sat>9</sat>
</trkpt>
<trkpt lat="39.718628000" lon="-0.374166000">
  <ele>195.300000</ele>
  <time>2012-02-26T10:45:47Z</time>
  <sat>9</sat>
</trkpt>
<trkpt lat="39.718628000" lon="-0.374127000">
  <ele>195.500000</ele>
  <time>2012-02-26T10:45:48Z</time>
  <sat>9</sat>
</trkpt>
<trkpt lat="39.718624000" lon="-0.373889000">
  <ele>196.000000</ele>
  <time>2012-02-26T10:45:54Z</time>
  <sat>10</sat>
</trkpt>
<trkpt lat="39.718608000" lon="-0.373727000">
  <ele>194.100000</ele>
  <time>2012-02-26T10:46:00Z</time>
  <sat>10</sat>
</trkpt>
<trkpt lat="39.718604000" lon="-0.373701000">
  <ele>195.500000</ele>
  <time>2012-02-26T10:46:01Z</time>
  <sat>10</sat>
</trkpt>
<trkpt lat="39.718597000" lon="-0.373677000">
  <ele>196.100000</ele>
  <time>2012-02-26T10:46:02Z</time>
  <sat>10</sat>
</trkpt>
<trkpt lat="39.718571000" lon="-0.373614000">
  <ele>196.100000</ele>
  <time>2012-02-26T10:46:05Z</time>
  <sat>9</sat>
</trkpt>
<trkpt lat="39.718555000" lon="-0.373590000">
  <ele>196.100000</ele>
  <time>2012-02-26T10:46:06Z</time>
  <sat>9</sat>
</trkpt>
<trkpt lat="39.718531000" lon="-0.373542000">
  <ele>196.100000</ele>
  <time>2012-02-26T10:46:08Z</time>
  <sat>8</sat>
</trkpt>
<trkpt lat="39.718522000" lon="-0.373517000">
  <ele>196.100000</ele>
  <time>2012-02-26T10:46:09Z</time>
  <sat>9</sat>
</trkpt>
<trkpt lat="39.718454000" lon="-0.373243000">
  <ele>194.100000</ele>
  <time>2012-02-26T10:46:18Z</time>
  <sat>10</sat>
</trkpt>
<trkpt lat="39.718446000" lon="-0.373195000">
  <ele>193.600000</ele>
  <time>2012-02-26T10:46:20Z</time>
  <sat>10</sat>
</trkpt>
<trkpt lat="39.718448000" lon="-0.373167000">
  <ele>193.500000</ele>
  <time>2012-02-26T10:46:21Z</time>
  <sat>9</sat>
</trkpt>
<trkpt lat="39.718443000" lon="-0.373088000">
  <ele>192.000000</ele>
  <time>2012-02-26T10:46:24Z</time>
  <sat>8</sat>
</trkpt>
<trkpt lat="39.718430000" lon="-0.372909000">
  <ele>189.800000</ele>
  <time>2012-02-26T10:46:28Z</time>
  <sat>9</sat>
</trkpt>
<trkpt lat="39.718432000" lon="-0.372858000">
  <ele>189.000000</ele>
  <time>2012-02-26T10:46:29Z</time>
  <sat>9</sat>
</trkpt>
<trkpt lat="39.718382000" lon="-0.372535000">
  <ele>184.300000</ele>
  <time>2012-02-26T10:46:37Z</time>
  <sat>8</sat>
</trkpt>
<trkpt lat="39.718354000" lon="-0.372427000">
  <ele>182.500000</ele>
  <time>2012-02-26T10:46:40Z</time>
  <sat>9</sat>
</trkpt>
<trkpt lat="39.718330000" lon="-0.372325000">
  <ele>181.800000</ele>
  <time>2012-02-26T10:46:42Z</time>
  <sat>9</sat>
</trkpt>
<trkpt lat="39.718322000" lon="-0.372273000">
  <ele>181.500000</ele>
  <time>2012-02-26T10:46:43Z</time>
  <sat>8</sat>
</trkpt>
<trkpt lat="39.718327000" lon="-0.372104000">
  <ele>180.300000</ele>
  <time>2012-02-26T10:46:46Z</time>
  <sat>10</sat>
</trkpt>
<trkpt lat="39.718342000" lon="-0.372055000">
  <ele>179.800000</ele>
  <time>2012-02-26T10:46:47Z</time>
  <sat>10</sat>
</trkpt>
<trkpt lat="39.718419000" lon="-0.371935000">
  <ele>179.300000</ele>
  <time>2012-02-26T10:46:49Z</time>
  <sat>10</sat>
</trkpt>
<trkpt lat="39.718450000" lon="-0.371871000">
  <ele>179.000000</ele>
  <time>2012-02-26T10:46:50Z</time>
  <sat>10</sat>
</trkpt>
<trkpt lat="39.718717000" lon="-0.371286000">
  <ele>177.800000</ele>
  <time>2012-02-26T10:46:58Z</time>
  <sat>10</sat>
</trkpt>
<trkpt lat="39.718736000" lon="-0.371199000">
  <ele>177.300000</ele>
  <time>2012-02-26T10:46:59Z</time>
  <sat>10</sat>
</trkpt>
<trkpt lat="39.718762000" lon="-0.371026000">
  <ele>176.800000</ele>
  <time>2012-02-26T10:47:01Z</time>
  <sat>10</sat>
</trkpt>
<trkpt lat="39.718800000" lon="-0.370573000">
  <ele>175.800000</ele>
  <time>2012-02-26T10:47:06Z</time>
  <sat>10</sat>
</trkpt>
<trkpt lat="39.718796000" lon="-0.370367000">
  <ele>175.600000</ele>
  <time>2012-02-26T10:47:08Z</time>
  <sat>10</sat>
</trkpt>
<trkpt lat="39.718788000" lon="-0.370006000">
  <ele>170.800000</ele>
  <time>2012-02-26T10:47:12Z</time>
  <sat>9</sat>
</trkpt>
<trkpt lat="39.718797000" lon="-0.369918000">
  <ele>170.300000</ele>
  <time>2012-02-26T10:47:13Z</time>
  <sat>9</sat>
</trkpt>
<trkpt lat="39.718766000" lon="-0.369643000">
  <ele>169.800000</ele>
  <time>2012-02-26T10:47:16Z</time>
  <sat>9</sat>
</trkpt>
<trkpt lat="39.718688000" lon="-0.369595000">
  <ele>170.300000</ele>
  <time>2012-02-26T10:47:17Z</time>
  <sat>9</sat>
</trkpt>
<trkpt lat="39.718615000" lon="-0.369603000">
  <ele>169.600000</ele>
  <time>2012-02-26T10:47:18Z</time>
  <sat>9</sat>
</trkpt>
<trkpt lat="39.717511000" lon="-0.369918000">
  <ele>162.100000</ele>
  <time>2012-02-26T10:47:33Z</time>
  <sat>8</sat>
</trkpt>
<trkpt lat="39.717427000" lon="-0.369951000">
  <ele>161.600000</ele>
  <time>2012-02-26T10:47:34Z</time>
  <sat>8</sat>
</trkpt>
<trkpt lat="39.717319000" lon="-0.370103000">
  <ele>161.100000</ele>
  <time>2012-02-26T10:47:36Z</time>
  <sat>10</sat>
</trkpt>
<trkpt lat="39.717202000" lon="-0.370375000">
  <ele>159.800000</ele>
  <time>2012-02-26T10:47:40Z</time>
  <sat>10</sat>
</trkpt>
<trkpt lat="39.717163000" lon="-0.370381000">
  <ele>159.100000</ele>
  <time>2012-02-26T10:47:41Z</time>
  <sat>10</sat>
</trkpt>
<trkpt lat="39.717078000" lon="-0.370376000">
  <ele>157.800000</ele>
  <time>2012-02-26T10:47:43Z</time>
  <sat>10</sat>
</trkpt>
<trkpt lat="39.717048000" lon="-0.370328000">
  <ele>157.500000</ele>
  <time>2012-02-26T10:47:44Z</time>
  <sat>10</sat>
</trkpt>
<trkpt lat="39.716822000" lon="-0.369935000">
  <ele>161.000000</ele>
  <time>2012-02-26T10:47:55Z</time>
  <sat>8</sat>
</trkpt>
<trkpt lat="39.716784000" lon="-0.369875000">
  <ele>162.300000</ele>
  <time>2012-02-26T10:47:58Z</time>
  <sat>7</sat>
</trkpt>
<trkpt lat="39.716720000" lon="-0.369772000">
  <ele>163.300000</ele>
  <time>2012-02-26T10:48:03Z</time>
  <sat>8</sat>
</trkpt>
<trkpt lat="39.716709000" lon="-0.369741000">
  <ele>163.600000</ele>
  <time>2012-02-26T10:48:04Z</time>
  <sat>8</sat>
</trkpt>
<trkpt lat="39.716660000" lon="-0.369608000">
  <ele>164.600000</ele>
  <time>2012-02-26T10:48:09Z</time>
  <sat>7</sat>
</trkpt>
<trkpt lat="39.716651000" lon="-0.369582000">
  <ele>164.800000</ele>
  <time>2012-02-26T10:48:10Z</time>
  <sat>7</sat>
</trkpt>
<trkpt lat="39.716611000" lon="-0.369399000">
  <ele>166.000000</ele>
  <time>2012-02-26T10:48:16Z</time>
  <sat>9</sat>
</trkpt>
<trkpt lat="39.716608000" lon="-0.369366000">
  <ele>166.300000</ele>
  <time>2012-02-26T10:48:17Z</time>
  <sat>10</sat>
</trkpt>
<trkpt lat="39.716594000" lon="-0.369304000">
  <ele>166.300000</ele>
  <time>2012-02-26T10:48:19Z</time>
  <sat>10</sat>
</trkpt>
<trkpt lat="39.716580000" lon="-0.369164000">
  <ele>166.600000</ele>
  <time>2012-02-26T10:48:23Z</time>
  <sat>10</sat>
</trkpt>
<trkpt lat="39.716577000" lon="-0.369129000">
  <ele>167.000000</ele>
  <time>2012-02-26T10:48:24Z</time>
  <sat>10</sat>
</trkpt>
<trkpt lat="39.716580000" lon="-0.368970000">
  <ele>166.800000</ele>
  <time>2012-02-26T10:48:28Z</time>
  <sat>10</sat>
</trkpt>
<trkpt lat="39.716581000" lon="-0.368927000">
  <ele>166.600000</ele>
  <time>2012-02-26T10:48:29Z</time>
  <sat>9</sat>
</trkpt>
<trkpt lat="39.716591000" lon="-0.368839000">
  <ele>166.100000</ele>
  <time>2012-02-26T10:48:31Z</time>
  <sat>9</sat>
</trkpt>
<trkpt lat="39.716603000" lon="-0.368790000">
  <ele>165.800000</ele>
  <time>2012-02-26T10:48:32Z</time>
  <sat>9</sat>
</trkpt>
<trkpt lat="39.716624000" lon="-0.368735000">
  <ele>165.500000</ele>
  <time>2012-02-26T10:48:33Z</time>
  <sat>9</sat>
</trkpt>
<trkpt lat="39.716713000" lon="-0.368538000">
  <ele>163.500000</ele>
  <time>2012-02-26T10:48:36Z</time>
  <sat>10</sat>
</trkpt>
<trkpt lat="39.716757000" lon="-0.368472000">
  <ele>163.600000</ele>
  <time>2012-02-26T10:48:37Z</time>
  <sat>10</sat>
</trkpt>
<trkpt lat="39.716890000" lon="-0.368264000">
  <ele>163.800000</ele>
  <time>2012-02-26T10:48:40Z</time>
  <sat>10</sat>
</trkpt>
<trkpt lat="39.716974000" lon="-0.368132000">
  <ele>163.000000</ele>
  <time>2012-02-26T10:48:42Z</time>
  <sat>10</sat>
</trkpt>
<trkpt lat="39.717005000" lon="-0.368052000">
  <ele>162.100000</ele>
  <time>2012-02-26T10:48:43Z</time>
  <sat>10</sat>
</trkpt>
<trkpt lat="39.717024000" lon="-0.367965000">
  <ele>160.800000</ele>
  <time>2012-02-26T10:48:44Z</time>
  <sat>10</sat>
</trkpt>
<trkpt lat="39.717027000" lon="-0.367876000">
  <ele>160.300000</ele>
  <time>2012-02-26T10:48:45Z</time>
  <sat>10</sat>
</trkpt>
<trkpt lat="39.717008000" lon="-0.367790000">
  <ele>159.500000</ele>
  <time>2012-02-26T10:48:46Z</time>
  <sat>10</sat>
</trkpt>
<trkpt lat="39.716891000" lon="-0.367373000">
  <ele>158.600000</ele>
  <time>2012-02-26T10:48:51Z</time>
  <sat>9</sat>
</trkpt>
<trkpt lat="39.716857000" lon="-0.367301000">
  <ele>158.300000</ele>
  <time>2012-02-26T10:48:52Z</time>
  <sat>9</sat>
</trkpt>
<trkpt lat="39.716811000" lon="-0.367240000">
  <ele>158.100000</ele>
  <time>2012-02-26T10:48:53Z</time>
  <sat>10</sat>
</trkpt>
<trkpt lat="39.716762000" lon="-0.367195000">
  <ele>158.100000</ele>
  <time>2012-02-26T10:48:54Z</time>
  <sat>10</sat>
</trkpt>
<trkpt lat="39.716477000" lon="-0.366985000">
  <ele>156.600000</ele>
  <time>2012-02-26T10:48:59Z</time>
  <sat>9</sat>
</trkpt>
<trkpt lat="39.716414000" lon="-0.366947000">
  <ele>156.300000</ele>
  <time>2012-02-26T10:49:00Z</time>
  <sat>9</sat>
</trkpt>
<trkpt lat="39.716278000" lon="-0.366891000">
  <ele>155.800000</ele>
  <time>2012-02-26T10:49:02Z</time>
  <sat>10</sat>
</trkpt>
<trkpt lat="39.716146000" lon="-0.366848000">
  <ele>155.600000</ele>
  <time>2012-02-26T10:49:04Z</time>
  <sat>10</sat>
</trkpt>
<trkpt lat="39.716091000" lon="-0.366806000">
  <ele>155.800000</ele>
  <time>2012-02-26T10:49:05Z</time>
  <sat>10</sat>
</trkpt>
<trkpt lat="39.715813000" lon="-0.366588000">
  <ele>155.100000</ele>
  <time>2012-02-26T10:49:11Z</time>
  <sat>10</sat>
</trkpt>
<trkpt lat="39.715776000" lon="-0.366547000">
  <ele>154.500000</ele>
  <time>2012-02-26T10:49:12Z</time>
  <sat>10</sat>
</trkpt>
<trkpt lat="39.715747000" lon="-0.366503000">
  <ele>153.800000</ele>
  <time>2012-02-26T10:49:13Z</time>
  <sat>10</sat>
</trkpt>
<trkpt lat="39.715658000" lon="-0.366359000">
  <ele>153.600000</ele>
  <time>2012-02-26T10:49:16Z</time>
  <sat>10</sat>
</trkpt>
<trkpt lat="39.715429000" lon="-0.366038000">
  <ele>153.500000</ele>
  <time>2012-02-26T10:49:22Z</time>
  <sat>10</sat>
</trkpt>
<trkpt lat="39.715382000" lon="-0.365989000">
  <ele>153.500000</ele>
  <time>2012-02-26T10:49:23Z</time>
  <sat>10</sat>
</trkpt>
<trkpt lat="39.714834000" lon="-0.365392000">
  <ele>156.600000</ele>
  <time>2012-02-26T10:49:38Z</time>
  <sat>10</sat>
</trkpt>
<trkpt lat="39.714808000" lon="-0.365354000">
  <ele>156.800000</ele>
  <time>2012-02-26T10:49:39Z</time>
  <sat>10</sat>
</trkpt>
<trkpt lat="39.713827000" lon="-0.364224000">
  <ele>154.300000</ele>
  <time>2012-02-26T10:50:05Z</time>
  <sat>8</sat>
</trkpt>
<trkpt lat="39.713695000" lon="-0.364032000">
  <ele>153.100000</ele>
  <time>2012-02-26T10:50:08Z</time>
  <sat>9</sat>
</trkpt>
<trkpt lat="39.713426000" lon="-0.363596000">
  <ele>151.000000</ele>
  <time>2012-02-26T10:50:14Z</time>
  <sat>9</sat>
</trkpt>
<trkpt lat="39.713254000" lon="-0.363256000">
  <ele>148.300000</ele>
  <time>2012-02-26T10:50:18Z</time>
  <sat>9</sat>
</trkpt>
<trkpt lat="39.713218000" lon="-0.363162000">
  <ele>147.600000</ele>
  <time>2012-02-26T10:50:19Z</time>
  <sat>9</sat>
</trkpt>
<trkpt lat="39.712973000" lon="-0.362589000">
  <ele>145.300000</ele>
  <time>2012-02-26T10:50:25Z</time>
  <sat>8</sat>
</trkpt>
<trkpt lat="39.712919000" lon="-0.362507000">
  <ele>145.000000</ele>
  <time>2012-02-26T10:50:26Z</time>
  <sat>9</sat>
</trkpt>
<trkpt lat="39.712811000" lon="-0.362372000">
  <ele>144.800000</ele>
  <time>2012-02-26T10:50:28Z</time>
  <sat>9</sat>
</trkpt>
<trkpt lat="39.712506000" lon="-0.362046000">
  <ele>143.300000</ele>
  <time>2012-02-26T10:50:35Z</time>
  <sat>9</sat>
</trkpt>
<trkpt lat="39.712500000" lon="-0.362013000">
  <ele>143.100000</ele>
  <time>2012-02-26T10:50:36Z</time>
  <sat>9</sat>
</trkpt>
<trkpt lat="39.712515000" lon="-0.361971000">
  <ele>142.600000</ele>
  <time>2012-02-26T10:50:37Z</time>
  <sat>9</sat>
</trkpt>
<trkpt lat="39.712553000" lon="-0.361954000">
  <ele>142.600000</ele>
  <time>2012-02-26T10:50:38Z</time>
  <sat>10</sat>
</trkpt>
<trkpt lat="39.712717000" lon="-0.361886000">
  <ele>141.100000</ele>
  <time>2012-02-26T10:50:41Z</time>
  <sat>10</sat>
</trkpt>
<trkpt lat="39.712755000" lon="-0.361846000">
  <ele>140.800000</ele>
  <time>2012-02-26T10:50:42Z</time>
  <sat>10</sat>
</trkpt>
<trkpt lat="39.712787000" lon="-0.361802000">
  <ele>140.600000</ele>
  <time>2012-02-26T10:50:43Z</time>
  <sat>10</sat>
</trkpt>
<trkpt lat="39.712813000" lon="-0.361741000">
  <ele>139.500000</ele>
  <time>2012-02-26T10:50:44Z</time>
  <sat>10</sat>
</trkpt>
<trkpt lat="39.712830000" lon="-0.361674000">
  <ele>138.500000</ele>
  <time>2012-02-26T10:50:45Z</time>
  <sat>10</sat>
</trkpt>
<trkpt lat="39.712830000" lon="-0.361611000">
  <ele>137.800000</ele>
  <time>2012-02-26T10:50:46Z</time>
  <sat>10</sat>
</trkpt>
<trkpt lat="39.712811000" lon="-0.361520000">
  <ele>136.800000</ele>
  <time>2012-02-26T10:50:47Z</time>
  <sat>10</sat>
</trkpt>
<trkpt lat="39.712798000" lon="-0.361427000">
  <ele>136.100000</ele>
  <time>2012-02-26T10:50:48Z</time>
  <sat>10</sat>
</trkpt>
<trkpt lat="39.712798000" lon="-0.361323000">
  <ele>135.600000</ele>
  <time>2012-02-26T10:50:49Z</time>
  <sat>10</sat>
</trkpt>
<trkpt lat="39.712809000" lon="-0.361228000">
  <ele>135.000000</ele>
  <time>2012-02-26T10:50:50Z</time>
  <sat>9</sat>
</trkpt>
<trkpt lat="39.712848000" lon="-0.360913000">
  <ele>133.600000</ele>
  <time>2012-02-26T10:50:56Z</time>
  <sat>9</sat>
</trkpt>
<trkpt lat="39.712835000" lon="-0.360870000">
  <ele>133.600000</ele>
  <time>2012-02-26T10:50:57Z</time>
  <sat>9</sat>
</trkpt>
<trkpt lat="39.712778000" lon="-0.360747000">
  <ele>133.000000</ele>
  <time>2012-02-26T10:51:00Z</time>
  <sat>10</sat>
</trkpt>
<trkpt lat="39.712737000" lon="-0.360681000">
  <ele>131.600000</ele>
  <time>2012-02-26T10:51:02Z</time>
  <sat>10</sat>
</trkpt>
<trkpt lat="39.712712000" lon="-0.360654000">
  <ele>130.800000</ele>
  <time>2012-02-26T10:51:03Z</time>
  <sat>10</sat>
</trkpt>
<trkpt lat="39.712689000" lon="-0.360616000">
  <ele>129.800000</ele>
  <time>2012-02-26T10:51:04Z</time>
  <sat>10</sat>
</trkpt>
<trkpt lat="39.712648000" lon="-0.360541000">
  <ele>128.600000</ele>
  <time>2012-02-26T10:51:06Z</time>
  <sat>9</sat>
</trkpt>
<trkpt lat="39.712618000" lon="-0.360505000">
  <ele>127.400000</ele>
  <time>2012-02-26T10:51:07Z</time>
  <sat>9</sat>
</trkpt>
<trkpt lat="39.712536000" lon="-0.360400000">
  <ele>125.600000</ele>
  <time>2012-02-26T10:51:10Z</time>
  <sat>8</sat>
</trkpt>
<trkpt lat="39.712513000" lon="-0.360366000">
  <ele>125.000000</ele>
  <time>2012-02-26T10:51:11Z</time>
  <sat>8</sat>
</trkpt>
<trkpt lat="39.712466000" lon="-0.360308000">
  <ele>122.900000</ele>
  <time>2012-02-26T10:51:13Z</time>
  <sat>8</sat>
</trkpt>
<trkpt lat="39.712429000" lon="-0.360287000">
  <ele>123.000000</ele>
  <time>2012-02-26T10:51:14Z</time>
  <sat>8</sat>
</trkpt>
<trkpt lat="39.712274000" lon="-0.360197000">
  <ele>121.800000</ele>
  <time>2012-02-26T10:51:18Z</time>
  <sat>8</sat>
</trkpt>
<trkpt lat="39.712242000" lon="-0.360170000">
  <ele>121.300000</ele>
  <time>2012-02-26T10:51:19Z</time>
  <sat>8</sat>
</trkpt>
<trkpt lat="39.711939000" lon="-0.359936000">
  <ele>120.500000</ele>
  <time>2012-02-26T10:51:29Z</time>
  <sat>9</sat>
</trkpt>
<trkpt lat="39.711874000" lon="-0.359896000">
  <ele>120.400000</ele>
  <time>2012-02-26T10:51:32Z</time>
  <sat>9</sat>
</trkpt>
<trkpt lat="39.711847000" lon="-0.359886000">
  <ele>120.300000</ele>
  <time>2012-02-26T10:51:33Z</time>
  <sat>9</sat>
</trkpt>
<trkpt lat="39.711752000" lon="-0.359833000">
  <ele>120.400000</ele>
  <time>2012-02-26T10:51:36Z</time>
  <sat>8</sat>
</trkpt>
<trkpt lat="39.711722000" lon="-0.359807000">
  <ele>120.000000</ele>
  <time>2012-02-26T10:51:37Z</time>
  <sat>8</sat>
</trkpt>
<trkpt lat="39.711690000" lon="-0.359788000">
  <ele>120.300000</ele>
  <time>2012-02-26T10:51:38Z</time>
  <sat>8</sat>
</trkpt>
<trkpt lat="39.711472000" lon="-0.359661000">
  <ele>120.600000</ele>
  <time>2012-02-26T10:51:45Z</time>
  <sat>8</sat>
</trkpt>
<trkpt lat="39.711450000" lon="-0.359627000">
  <ele>120.500000</ele>
  <time>2012-02-26T10:51:46Z</time>
  <sat>8</sat>
</trkpt>
<trkpt lat="39.711397000" lon="-0.359533000">
  <ele>120.600000</ele>
  <time>2012-02-26T10:51:49Z</time>
  <sat>8</sat>
</trkpt>
<trkpt lat="39.711385000" lon="-0.359506000">
  <ele>120.500000</ele>
  <time>2012-02-26T10:51:50Z</time>
  <sat>8</sat>
</trkpt>
<trkpt lat="39.711373000" lon="-0.359448000">
  <ele>119.500000</ele>
  <time>2012-02-26T10:51:52Z</time>
  <sat>9</sat>
</trkpt>
<trkpt lat="39.711373000" lon="-0.359419000">
  <ele>119.000000</ele>
  <time>2012-02-26T10:51:53Z</time>
  <sat>9</sat>
</trkpt>
<trkpt lat="39.711378000" lon="-0.359340000">
  <ele>118.800000</ele>
  <time>2012-02-26T10:51:55Z</time>
  <sat>8</sat>
</trkpt>
<trkpt lat="39.711383000" lon="-0.359305000">
  <ele>118.800000</ele>
  <time>2012-02-26T10:51:56Z</time>
  <sat>8</sat>
</trkpt>
<trkpt lat="39.711414000" lon="-0.359117000">
  <ele>119.600000</ele>
  <time>2012-02-26T10:52:01Z</time>
  <sat>8</sat>
</trkpt>
<trkpt lat="39.711426000" lon="-0.359074000">
  <ele>119.000000</ele>
  <time>2012-02-26T10:52:02Z</time>
  <sat>8</sat>
</trkpt>
<trkpt lat="39.711534000" lon="-0.358787000">
  <ele>117.900000</ele>
  <time>2012-02-26T10:52:08Z</time>
  <sat>8</sat>
</trkpt>
<trkpt lat="39.711561000" lon="-0.358741000">
  <ele>117.500000</ele>
  <time>2012-02-26T10:52:09Z</time>
  <sat>8</sat>
</trkpt>
<trkpt lat="39.711797000" lon="-0.358330000">
  <ele>118.000000</ele>
  <time>2012-02-26T10:52:18Z</time>
  <sat>9</sat>
</trkpt>
<trkpt lat="39.711834000" lon="-0.358296000">
  <ele>118.100000</ele>
  <time>2012-02-26T10:52:19Z</time>
  <sat>9</sat>
</trkpt>
<trkpt lat="39.711971000" lon="-0.358170000">
  <ele>117.100000</ele>
  <time>2012-02-26T10:52:23Z</time>
  <sat>8</sat>
</trkpt>
<trkpt lat="39.712000000" lon="-0.358130000">
  <ele>116.900000</ele>
  <time>2012-02-26T10:52:24Z</time>
  <sat>10</sat>
</trkpt>
<trkpt lat="39.712161000" lon="-0.357924000">
  <ele>114.900000</ele>
  <time>2012-02-26T10:52:30Z</time>
  <sat>10</sat>
</trkpt>
<trkpt lat="39.712211000" lon="-0.357878000">
  <ele>114.100000</ele>
  <time>2012-02-26T10:52:32Z</time>
  <sat>10</sat>
</trkpt>
<trkpt lat="39.712237000" lon="-0.357860000">
  <ele>114.300000</ele>
  <time>2012-02-26T10:52:33Z</time>
  <sat>10</sat>
</trkpt>
<trkpt lat="39.712293000" lon="-0.357811000">
  <ele>114.300000</ele>
  <time>2012-02-26T10:52:36Z</time>
  <sat>8</sat>
</trkpt>
<trkpt lat="39.712294000" lon="-0.357772000">
  <ele>113.800000</ele>
  <time>2012-02-26T10:52:37Z</time>
  <sat>8</sat>
</trkpt>
<trkpt lat="39.712302000" lon="-0.357734000">
  <ele>113.800000</ele>
  <time>2012-02-26T10:52:38Z</time>
  <sat>9</sat>
</trkpt>
<trkpt lat="39.712337000" lon="-0.357581000">
  <ele>112.100000</ele>
  <time>2012-02-26T10:52:44Z</time>
  <sat>9</sat>
</trkpt>
<trkpt lat="39.712339000" lon="-0.357557000">
  <ele>112.100000</ele>
  <time>2012-02-26T10:52:46Z</time>
  <sat>9</sat>
</trkpt>
<trkpt lat="39.712344000" lon="-0.357535000">
  <ele>112.400000</ele>
  <time>2012-02-26T10:52:47Z</time>
  <sat>9</sat>
</trkpt>
<trkpt lat="39.712351000" lon="-0.357512000">
  <ele>113.100000</ele>
  <time>2012-02-26T10:52:48Z</time>
  <sat>9</sat>
</trkpt>
<trkpt lat="39.712380000" lon="-0.357416000">
  <ele>114.300000</ele>
  <time>2012-02-26T10:52:52Z</time>
  <sat>9</sat>
</trkpt>
<trkpt lat="39.712463000" lon="-0.357190000">
  <ele>117.300000</ele>
  <time>2012-02-26T10:53:00Z</time>
  <sat>8</sat>
</trkpt>
<trkpt lat="39.712478000" lon="-0.357165000">
  <ele>118.100000</ele>
  <time>2012-02-26T10:53:01Z</time>
  <sat>9</sat>
</trkpt>
<trkpt lat="39.712510000" lon="-0.357116000">
  <ele>118.100000</ele>
  <time>2012-02-26T10:53:03Z</time>
  <sat>9</sat>
</trkpt>
<trkpt lat="39.712521000" lon="-0.357087000">
  <ele>118.400000</ele>
  <time>2012-02-26T10:53:04Z</time>
  <sat>9</sat>
</trkpt>
<trkpt lat="39.712624000" lon="-0.356832000">
  <ele>120.400000</ele>
  <time>2012-02-26T10:53:13Z</time>
  <sat>10</sat>
</trkpt>
<trkpt lat="39.712640000" lon="-0.356805000">
  <ele>120.600000</ele>
  <time>2012-02-26T10:53:14Z</time>
  <sat>10</sat>
</trkpt>
<trkpt lat="39.712675000" lon="-0.356764000">
  <ele>121.500000</ele>
  <time>2012-02-26T10:53:16Z</time>
  <sat>10</sat>
</trkpt>
<trkpt lat="39.712785000" lon="-0.356658000">
  <ele>122.000000</ele>
  <time>2012-02-26T10:53:22Z</time>
  <sat>9</sat>
</trkpt>
<trkpt lat="39.712808000" lon="-0.356647000">
  <ele>121.500000</ele>
  <time>2012-02-26T10:53:23Z</time>
  <sat>10</sat>
</trkpt>
<trkpt lat="39.712968000" lon="-0.356581000">
  <ele>123.900000</ele>
  <time>2012-02-26T10:53:30Z</time>
  <sat>10</sat>
</trkpt>
<trkpt lat="39.712970000" lon="-0.356555000">
  <ele>123.900000</ele>
  <time>2012-02-26T10:53:31Z</time>
  <sat>10</sat>
</trkpt>
<trkpt lat="39.712979000" lon="-0.356540000">
  <ele>124.500000</ele>
  <time>2012-02-26T10:53:32Z</time>
  <sat>10</sat>
</trkpt>
<trkpt lat="39.713039000" lon="-0.356399000">
  <ele>128.500000</ele>
  <time>2012-02-26T10:53:40Z</time>
  <sat>10</sat>
</trkpt>
<trkpt lat="39.713052000" lon="-0.356380000">
  <ele>128.800000</ele>
  <time>2012-02-26T10:53:41Z</time>
  <sat>10</sat>
</trkpt>
<trkpt lat="39.713054000" lon="-0.356358000">
  <ele>129.800000</ele>
  <time>2012-02-26T10:53:42Z</time>
  <sat>10</sat>
</trkpt>
<trkpt lat="39.713057000" lon="-0.356284000">
  <ele>129.300000</ele>
  <time>2012-02-26T10:53:45Z</time>
  <sat>10</sat>
</trkpt>
<trkpt lat="39.713051000" lon="-0.356209000">
  <ele>128.100000</ele>
  <time>2012-02-26T10:53:48Z</time>
  <sat>10</sat>
</trkpt>
<trkpt lat="39.713046000" lon="-0.356185000">
  <ele>127.500000</ele>
  <time>2012-02-26T10:53:49Z</time>
  <sat>10</sat>
</trkpt>
<trkpt lat="39.713037000" lon="-0.356157000">
  <ele>127.500000</ele>
  <time>2012-02-26T10:53:50Z</time>
  <sat>10</sat>
</trkpt>
<trkpt lat="39.712551000" lon="-0.354492000">
  <ele>128.300000</ele>
  <time>2012-02-26T10:54:28Z</time>
  <sat>9</sat>
</trkpt>
<trkpt lat="39.712418000" lon="-0.354223000">
  <ele>129.100000</ele>
  <time>2012-02-26T10:54:34Z</time>
  <sat>9</sat>
</trkpt>
<trkpt lat="39.712390000" lon="-0.354190000">
  <ele>129.100000</ele>
  <time>2012-02-26T10:54:35Z</time>
  <sat>10</sat>
</trkpt>
<trkpt lat="39.712320000" lon="-0.354095000">
  <ele>129.600000</ele>
  <time>2012-02-26T10:54:38Z</time>
  <sat>10</sat>
</trkpt>
<trkpt lat="39.712301000" lon="-0.354059000">
  <ele>129.500000</ele>
  <time>2012-02-26T10:54:39Z</time>
  <sat>10</sat>
</trkpt>
<trkpt lat="39.712188000" lon="-0.353857000">
  <ele>129.100000</ele>
  <time>2012-02-26T10:54:44Z</time>
  <sat>9</sat>
</trkpt>
<trkpt lat="39.711912000" lon="-0.353401000">
  <ele>127.900000</ele>
  <time>2012-02-26T10:54:54Z</time>
  <sat>7</sat>
</trkpt>
<trkpt lat="39.711884000" lon="-0.353366000">
  <ele>128.000000</ele>
  <time>2012-02-26T10:54:55Z</time>
  <sat>8</sat>
</trkpt>
<trkpt lat="39.711852000" lon="-0.353276000">
  <ele>127.300000</ele>
  <time>2012-02-26T10:54:58Z</time>
  <sat>10</sat>
</trkpt>
<trkpt lat="39.711897000" lon="-0.353261000">
  <ele>127.300000</ele>
  <time>2012-02-26T10:55:01Z</time>
  <sat>10</sat>
</trkpt>
<trkpt lat="39.711921000" lon="-0.353266000">
  <ele>127.100000</ele>
  <time>2012-02-26T10:55:02Z</time>
  <sat>10</sat>
</trkpt>
<trkpt lat="39.711978000" lon="-0.353274000">
  <ele>128.000000</ele>
  <time>2012-02-26T10:55:04Z</time>
  <sat>10</sat>
</trkpt>
<trkpt lat="39.712208000" lon="-0.353336000">
  <ele>127.600000</ele>
  <time>2012-02-26T10:55:10Z</time>
  <sat>8</sat>
</trkpt>
<trkpt lat="39.712244000" lon="-0.353355000">
  <ele>127.500000</ele>
  <time>2012-02-26T10:55:11Z</time>
  <sat>8</sat>
</trkpt>
<trkpt lat="39.712307000" lon="-0.353389000">
  <ele>127.500000</ele>
  <time>2012-02-26T10:55:13Z</time>
  <sat>9</sat>
</trkpt>
<trkpt lat="39.712379000" lon="-0.353416000">
  <ele>127.900000</ele>
  <time>2012-02-26T10:55:16Z</time>
  <sat>10</sat>
</trkpt>
<trkpt lat="39.712382000" lon="-0.353391000">
  <ele>127.800000</ele>
  <time>2012-02-26T10:55:17Z</time>
  <sat>10</sat>
</trkpt>
<trkpt lat="39.712395000" lon="-0.353371000">
  <ele>127.400000</ele>
  <time>2012-02-26T10:55:18Z</time>
  <sat>10</sat>
</trkpt>
<trkpt lat="39.712400000" lon="-0.353348000">
  <ele>127.400000</ele>
  <time>2012-02-26T10:55:19Z</time>
  <sat>10</sat>
</trkpt>
<trkpt lat="39.712413000" lon="-0.353331000">
  <ele>127.500000</ele>
  <time>2012-02-26T10:55:20Z</time>
  <sat>10</sat>
</trkpt>
<trkpt lat="39.712423000" lon="-0.353312000">
  <ele>127.800000</ele>
  <time>2012-02-26T10:55:21Z</time>
  <sat>10</sat>
</trkpt>
<trkpt lat="39.712459000" lon="-0.353272000">
  <ele>127.800000</ele>
  <time>2012-02-26T10:55:23Z</time>
  <sat>10</sat>
</trkpt>
<trkpt lat="39.712479000" lon="-0.353256000">
  <ele>127.000000</ele>
  <time>2012-02-26T10:55:24Z</time>
  <sat>10</sat>
</trkpt>
<trkpt lat="39.712500000" lon="-0.353251000">
  <ele>127.000000</ele>
  <time>2012-02-26T10:55:25Z</time>
  <sat>10</sat>
</trkpt>
<trkpt lat="39.712537000" lon="-0.353244000">
  <ele>126.600000</ele>
  <time>2012-02-26T10:55:27Z</time>
  <sat>10</sat>
</trkpt>
<trkpt lat="39.712551000" lon="-0.353249000">
  <ele>126.500000</ele>
  <time>2012-02-26T10:55:28Z</time>
  <sat>10</sat>
</trkpt>
<trkpt lat="39.712710000" lon="-0.353294000">
  <ele>125.000000</ele>
  <time>2012-02-26T10:55:35Z</time>
  <sat>10</sat>
</trkpt>
<trkpt lat="39.712734000" lon="-0.353299000">
  <ele>125.300000</ele>
  <time>2012-02-26T10:55:36Z</time>
  <sat>10</sat>
</trkpt>
<trkpt lat="39.712758000" lon="-0.353297000">
  <ele>125.500000</ele>
  <time>2012-02-26T10:55:37Z</time>
  <sat>10</sat>
</trkpt>
<trkpt lat="39.712811000" lon="-0.353261000">
  <ele>124.800000</ele>
  <time>2012-02-26T10:55:39Z</time>
  <sat>10</sat>
</trkpt>
<trkpt lat="39.712892000" lon="-0.353186000">
  <ele>123.500000</ele>
  <time>2012-02-26T10:55:42Z</time>
  <sat>10</sat>
</trkpt>
<trkpt lat="39.712897000" lon="-0.353141000">
  <ele>123.500000</ele>
  <time>2012-02-26T10:55:43Z</time>
  <sat>10</sat>
</trkpt>
<trkpt lat="39.712909000" lon="-0.353100000">
  <ele>123.500000</ele>
  <time>2012-02-26T10:55:44Z</time>
  <sat>10</sat>
</trkpt>
<trkpt lat="39.712913000" lon="-0.353058000">
  <ele>123.000000</ele>
  <time>2012-02-26T10:55:45Z</time>
  <sat>10</sat>
</trkpt>
<trkpt lat="39.712910000" lon="-0.353027000">
  <ele>122.900000</ele>
  <time>2012-02-26T10:55:46Z</time>
  <sat>10</sat>
</trkpt>
<trkpt lat="39.712885000" lon="-0.353004000">
  <ele>122.500000</ele>
  <time>2012-02-26T10:55:47Z</time>
  <sat>10</sat>
</trkpt>
<trkpt lat="39.712869000" lon="-0.352980000">
  <ele>122.100000</ele>
  <time>2012-02-26T10:55:48Z</time>
  <sat>10</sat>
</trkpt>
<trkpt lat="39.712834000" lon="-0.352944000">
  <ele>122.500000</ele>
  <time>2012-02-26T10:55:50Z</time>
  <sat>10</sat>
</trkpt>
<trkpt lat="39.712641000" lon="-0.352730000">
  <ele>122.800000</ele>
  <time>2012-02-26T10:55:58Z</time>
  <sat>10</sat>
</trkpt>
<trkpt lat="39.712624000" lon="-0.352691000">
  <ele>122.900000</ele>
  <time>2012-02-26T10:55:59Z</time>
  <sat>9</sat>
</trkpt>
<trkpt lat="39.712599000" lon="-0.352606000">
  <ele>123.000000</ele>
  <time>2012-02-26T10:56:01Z</time>
  <sat>10</sat>
</trkpt>
<trkpt lat="39.712593000" lon="-0.352560000">
  <ele>122.600000</ele>
  <time>2012-02-26T10:56:02Z</time>
  <sat>10</sat>
</trkpt>
<trkpt lat="39.712585000" lon="-0.352453000">
  <ele>122.100000</ele>
  <time>2012-02-26T10:56:04Z</time>
  <sat>10</sat>
</trkpt>
<trkpt lat="39.712586000" lon="-0.352397000">
  <ele>121.900000</ele>
  <time>2012-02-26T10:56:05Z</time>
  <sat>10</sat>
</trkpt>
<trkpt lat="39.712596000" lon="-0.352276000">
  <ele>121.400000</ele>
  <time>2012-02-26T10:56:07Z</time>
  <sat>10</sat>
</trkpt>
<trkpt lat="39.712604000" lon="-0.352216000">
  <ele>120.900000</ele>
  <time>2012-02-26T10:56:08Z</time>
  <sat>10</sat>
</trkpt>
<trkpt lat="39.712645000" lon="-0.352030000">
  <ele>119.400000</ele>
  <time>2012-02-26T10:56:11Z</time>
  <sat>10</sat>
</trkpt>
<trkpt lat="39.712666000" lon="-0.351968000">
  <ele>119.000000</ele>
  <time>2012-02-26T10:56:12Z</time>
  <sat>10</sat>
</trkpt>
<trkpt lat="39.712692000" lon="-0.351913000">
  <ele>119.000000</ele>
  <time>2012-02-26T10:56:13Z</time>
  <sat>10</sat>
</trkpt>
<trkpt lat="39.712728000" lon="-0.351864000">
  <ele>119.400000</ele>
  <time>2012-02-26T10:56:14Z</time>
  <sat>10</sat>
</trkpt>
<trkpt lat="39.712768000" lon="-0.351825000">
  <ele>119.500000</ele>
  <time>2012-02-26T10:56:15Z</time>
  <sat>10</sat>
</trkpt>
<trkpt lat="39.712834000" lon="-0.351734000">
  <ele>118.900000</ele>
  <time>2012-02-26T10:56:17Z</time>
  <sat>10</sat>
</trkpt>
<trkpt lat="39.712858000" lon="-0.351667000">
  <ele>118.100000</ele>
  <time>2012-02-26T10:56:18Z</time>
  <sat>10</sat>
</trkpt>
<trkpt lat="39.712869000" lon="-0.351586000">
  <ele>117.400000</ele>
  <time>2012-02-26T10:56:19Z</time>
  <sat>10</sat>
</trkpt>
<trkpt lat="39.712920000" lon="-0.351122000">
  <ele>113.800000</ele>
  <time>2012-02-26T10:56:25Z</time>
  <sat>10</sat>
</trkpt>
<trkpt lat="39.712939000" lon="-0.350631000">
  <ele>110.900000</ele>
  <time>2012-02-26T10:56:32Z</time>
  <sat>10</sat>
</trkpt>
<trkpt lat="39.712927000" lon="-0.350230000">
  <ele>108.400000</ele>
  <time>2012-02-26T10:56:37Z</time>
  <sat>9</sat>
</trkpt>
<trkpt lat="39.712919000" lon="-0.350162000">
  <ele>108.000000</ele>
  <time>2012-02-26T10:56:38Z</time>
  <sat>9</sat>
</trkpt>
<trkpt lat="39.712886000" lon="-0.349957000">
  <ele>106.500000</ele>
  <time>2012-02-26T10:56:41Z</time>
  <sat>8</sat>
</trkpt>
<trkpt lat="39.712852000" lon="-0.349861000">
  <ele>106.100000</ele>
  <time>2012-02-26T10:56:43Z</time>
  <sat>8</sat>
</trkpt>
<trkpt lat="39.712829000" lon="-0.349832000">
  <ele>106.400000</ele>
  <time>2012-02-26T10:56:44Z</time>
  <sat>8</sat>
</trkpt>
<trkpt lat="39.712708000" lon="-0.349730000">
  <ele>106.000000</ele>
  <time>2012-02-26T10:56:49Z</time>
  <sat>8</sat>
</trkpt>
<trkpt lat="39.712640000" lon="-0.349689000">
  <ele>106.900000</ele>
  <time>2012-02-26T10:56:52Z</time>
  <sat>8</sat>
</trkpt>
<trkpt lat="39.712616000" lon="-0.349685000">
  <ele>107.500000</ele>
  <time>2012-02-26T10:56:53Z</time>
  <sat>8</sat>
</trkpt>
<trkpt lat="39.712493000" lon="-0.349649000">
  <ele>111.400000</ele>
  <time>2012-02-26T10:56:59Z</time>
  <sat>8</sat>
</trkpt>
<trkpt lat="39.712470000" lon="-0.349635000">
  <ele>111.500000</ele>
  <time>2012-02-26T10:57:00Z</time>
  <sat>8</sat>
</trkpt>
<trkpt lat="39.712411000" lon="-0.349593000">
  <ele>111.800000</ele>
  <time>2012-02-26T10:57:03Z</time>
  <sat>8</sat>
</trkpt>
<trkpt lat="39.712183000" lon="-0.349434000">
  <ele>113.900000</ele>
  <time>2012-02-26T10:57:16Z</time>
  <sat>10</sat>
</trkpt>
<trkpt lat="39.712190000" lon="-0.349415000">
  <ele>113.600000</ele>
  <time>2012-02-26T10:57:17Z</time>
  <sat>10</sat>
</trkpt>
<trkpt lat="39.712245000" lon="-0.349305000">
  <ele>113.500000</ele>
  <time>2012-02-26T10:57:21Z</time>
  <sat>10</sat>
</trkpt>
<trkpt lat="39.712334000" lon="-0.349156000">
  <ele>113.800000</ele>
  <time>2012-02-26T10:57:27Z</time>
  <sat>10</sat>
</trkpt>
<trkpt lat="39.712342000" lon="-0.349132000">
  <ele>113.800000</ele>
  <time>2012-02-26T10:57:28Z</time>
  <sat>10</sat>
</trkpt>
<trkpt lat="39.712337000" lon="-0.349104000">
  <ele>113.500000</ele>
  <time>2012-02-26T10:57:29Z</time>
  <sat>10</sat>
</trkpt>
<trkpt lat="39.712308000" lon="-0.349041000">
  <ele>113.400000</ele>
  <time>2012-02-26T10:57:31Z</time>
  <sat>10</sat>
</trkpt>
<trkpt lat="39.712246000" lon="-0.348969000">
  <ele>113.500000</ele>
  <time>2012-02-26T10:57:33Z</time>
  <sat>10</sat>
</trkpt>
<trkpt lat="39.712170000" lon="-0.348932000">
  <ele>113.400000</ele>
  <time>2012-02-26T10:57:35Z</time>
  <sat>7</sat>
</trkpt>
<trkpt lat="39.712059000" lon="-0.348865000">
  <ele>112.900000</ele>
  <time>2012-02-26T10:57:39Z</time>
  <sat>7</sat>
</trkpt>
<trkpt lat="39.712050000" lon="-0.348861000">
  <ele>113.000000</ele>
  <time>2012-02-26T10:57:40Z</time>
  <sat>10</sat>
</trkpt>
<trkpt lat="39.712038000" lon="-0.348847000">
  <ele>112.800000</ele>
  <time>2012-02-26T10:57:41Z</time>
  <sat>10</sat>
</trkpt>
<trkpt lat="39.712047000" lon="-0.348818000">
  <ele>112.500000</ele>
  <time>2012-02-26T10:57:42Z</time>
  <sat>10</sat>
</trkpt>
<trkpt lat="39.712050000" lon="-0.348776000">
  <ele>112.600000</ele>
  <time>2012-02-26T10:57:43Z</time>
  <sat>10</sat>
</trkpt>
<trkpt lat="39.712074000" lon="-0.348732000">
  <ele>113.300000</ele>
  <time>2012-02-26T10:57:44Z</time>
  <sat>10</sat>
</trkpt>
<trkpt lat="39.712175000" lon="-0.348623000">
  <ele>114.500000</ele>
  <time>2012-02-26T10:57:48Z</time>
  <sat>10</sat>
</trkpt>
<trkpt lat="39.712205000" lon="-0.348600000">
  <ele>114.000000</ele>
  <time>2012-02-26T10:57:49Z</time>
  <sat>10</sat>
</trkpt>
<trkpt lat="39.712233000" lon="-0.348575000">
  <ele>114.400000</ele>
  <time>2012-02-26T10:57:50Z</time>
  <sat>10</sat>
</trkpt>
<trkpt lat="39.712254000" lon="-0.348542000">
  <ele>114.900000</ele>
  <time>2012-02-26T10:57:51Z</time>
  <sat>10</sat>
</trkpt>
<trkpt lat="39.712352000" lon="-0.348379000">
  <ele>114.500000</ele>
  <time>2012-02-26T10:57:55Z</time>
  <sat>10</sat>
</trkpt>
<trkpt lat="39.712385000" lon="-0.348349000">
  <ele>114.500000</ele>
  <time>2012-02-26T10:57:56Z</time>
  <sat>10</sat>
</trkpt>
<trkpt lat="39.712742000" lon="-0.347936000">
  <ele>114.600000</ele>
  <time>2012-02-26T10:58:10Z</time>
  <sat>10</sat>
</trkpt>
<trkpt lat="39.712759000" lon="-0.347928000">
  <ele>115.000000</ele>
  <time>2012-02-26T10:58:11Z</time>
  <sat>10</sat>
</trkpt>
<trkpt lat="39.712789000" lon="-0.347919000">
  <ele>114.900000</ele>
  <time>2012-02-26T10:58:12Z</time>
  <sat>9</sat>
</trkpt>
<trkpt lat="39.712977000" lon="-0.347848000">
  <ele>116.500000</ele>
  <time>2012-02-26T10:58:18Z</time>
  <sat>10</sat>
</trkpt>
<trkpt lat="39.712969000" lon="-0.347842000">
  <ele>116.400000</ele>
  <time>2012-02-26T10:58:19Z</time>
  <sat>10</sat>
</trkpt>
<trkpt lat="39.712950000" lon="-0.347835000">
  <ele>115.800000</ele>
  <time>2012-02-26T10:58:20Z</time>
  <sat>10</sat>
</trkpt>
<trkpt lat="39.712949000" lon="-0.347834000">
  <ele>115.800000</ele>
  <time>2012-02-26T10:58:21Z</time>
  <sat>10</sat>
</trkpt>
<trkpt lat="39.712948000" lon="-0.347832000">
  <ele>115.600000</ele>
  <time>2012-02-26T10:58:22Z</time>
  <sat>10</sat>
</trkpt>
<trkpt lat="39.712948000" lon="-0.347832000">
  <ele>115.800000</ele>
  <time>2012-02-26T10:58:23Z</time>
  <sat>10</sat>
</trkpt>
<trkpt lat="39.712946000" lon="-0.347832000">
  <ele>116.000000</ele>
  <time>2012-02-26T10:58:24Z</time>
  <sat>10</sat>
</trkpt>
<trkpt lat="39.712946000" lon="-0.347832000">
  <ele>115.800000</ele>
  <time>2012-02-26T10:58:25Z</time>
  <sat>10</sat>
</trkpt>
<trkpt lat="39.712948000" lon="-0.347830000">
  <ele>115.600000</ele>
  <time>2012-02-26T10:58:26Z</time>
  <sat>10</sat>
</trkpt>
<trkpt lat="39.712952000" lon="-0.347829000">
  <ele>115.500000</ele>
  <time>2012-02-26T10:58:27Z</time>
  <sat>10</sat>
</trkpt>
<trkpt lat="39.712951000" lon="-0.347827000">
  <ele>115.500000</ele>
  <time>2012-02-26T10:58:28Z</time>
  <sat>10</sat>
</trkpt>
<trkpt lat="39.712953000" lon="-0.347825000">
  <ele>115.600000</ele>
  <time>2012-02-26T10:58:29Z</time>
  <sat>10</sat>
</trkpt>
<trkpt lat="39.712953000" lon="-0.347824000">
  <ele>115.800000</ele>
  <time>2012-02-26T10:58:30Z</time>
  <sat>10</sat>
</trkpt>
<trkpt lat="39.712953000" lon="-0.347824000">
  <ele>115.800000</ele>
  <time>2012-02-26T10:58:31Z</time>
  <sat>5</sat>
</trkpt>
<trkpt lat="39.712953000" lon="-0.347823000">
  <ele>115.800000</ele>
  <time>2012-02-26T10:58:32Z</time>
  <sat>5</sat>
</trkpt>
<trkpt lat="39.712952000" lon="-0.347823000">
  <ele>115.000000</ele>
  <time>2012-02-26T10:58:35Z</time>
  <sat>4</sat>
</trkpt>
<trkpt lat="39.712953000" lon="-0.347823000">
  <ele>115.800000</ele>
  <time>2012-02-26T10:58:37Z</time>
  <sat>5</sat>
</trkpt>
<trkpt lat="39.712984000" lon="-0.347793000">
  <ele>116.400000</ele>
  <time>2012-02-26T10:58:45Z</time>
  <sat>10</sat>
</trkpt>
<trkpt lat="39.712993000" lon="-0.347764000">
  <ele>118.100000</ele>
  <time>2012-02-26T10:58:46Z</time>
  <sat>10</sat>
</trkpt>
<trkpt lat="39.713012000" lon="-0.347751000">
  <ele>119.000000</ele>
  <time>2012-02-26T10:58:47Z</time>
  <sat>10</sat>
</trkpt>
<trkpt lat="39.713036000" lon="-0.347738000">
  <ele>119.500000</ele>
  <time>2012-02-26T10:58:48Z</time>
  <sat>10</sat>
</trkpt>
<trkpt lat="39.713059000" lon="-0.347725000">
  <ele>119.300000</ele>
  <time>2012-02-26T10:58:49Z</time>
  <sat>10</sat>
</trkpt>
<trkpt lat="39.713084000" lon="-0.347706000">
  <ele>119.000000</ele>
  <time>2012-02-26T10:58:50Z</time>
  <sat>10</sat>
</trkpt>
<trkpt lat="39.713097000" lon="-0.347684000">
  <ele>119.600000</ele>
  <time>2012-02-26T10:58:51Z</time>
  <sat>10</sat>
</trkpt>
<trkpt lat="39.713117000" lon="-0.347660000">
  <ele>119.500000</ele>
  <time>2012-02-26T10:58:52Z</time>
  <sat>10</sat>
</trkpt>
<trkpt lat="39.713222000" lon="-0.347569000">
  <ele>119.000000</ele>
  <time>2012-02-26T10:58:56Z</time>
  <sat>10</sat>
</trkpt>
<trkpt lat="39.713247000" lon="-0.347593000">
  <ele>116.500000</ele>
  <time>2012-02-26T10:58:58Z</time>
  <sat>10</sat>
</trkpt>
<trkpt lat="39.713355000" lon="-0.347754000">
  <ele>117.500000</ele>
  <time>2012-02-26T10:59:02Z</time>
  <sat>8</sat>
</trkpt>
<trkpt lat="39.713629000" lon="-0.348243000">
  <ele>115.300000</ele>
  <time>2012-02-26T10:59:13Z</time>
  <sat>9</sat>
</trkpt>
<trkpt lat="39.713648000" lon="-0.348293000">
  <ele>114.900000</ele>
  <time>2012-02-26T10:59:14Z</time>
  <sat>9</sat>
</trkpt>
<trkpt lat="39.713739000" lon="-0.348450000">
  <ele>115.100000</ele>
  <time>2012-02-26T10:59:18Z</time>
  <sat>6</sat>
</trkpt>
<trkpt lat="39.714010000" lon="-0.348837000">
  <ele>116.400000</ele>
  <time>2012-02-26T10:59:28Z</time>
  <sat>7</sat>
</trkpt>
<trkpt lat="39.714244000" lon="-0.349101000">
  <ele>119.100000</ele>
  <time>2012-02-26T10:59:36Z</time>
  <sat>7</sat>
</trkpt>
<trkpt lat="39.714267000" lon="-0.349074000">
  <ele>119.000000</ele>
  <time>2012-02-26T10:59:37Z</time>
  <sat>7</sat>
</trkpt>
<trkpt lat="39.714292000" lon="-0.349063000">
  <ele>119.300000</ele>
  <time>2012-02-26T10:59:38Z</time>
  <sat>9</sat>
</trkpt>
<trkpt lat="39.714361000" lon="-0.349026000">
  <ele>121.100000</ele>
  <time>2012-02-26T10:59:43Z</time>
  <sat>9</sat>
</trkpt>
<trkpt lat="39.714366000" lon="-0.349015000">
  <ele>121.500000</ele>
  <time>2012-02-26T10:59:44Z</time>
  <sat>9</sat>
</trkpt>
<trkpt lat="39.714365000" lon="-0.349005000">
  <ele>122.800000</ele>
  <time>2012-02-26T10:59:46Z</time>
  <sat>9</sat>
</trkpt>
<trkpt lat="39.714346000" lon="-0.349008000">
  <ele>122.000000</ele>
  <time>2012-02-26T10:59:47Z</time>
  <sat>9</sat>
</trkpt>
<trkpt lat="39.714329000" lon="-0.349025000">
  <ele>121.500000</ele>
  <time>2012-02-26T10:59:48Z</time>
  <sat>9</sat>
</trkpt>
<trkpt lat="39.714316000" lon="-0.349047000">
  <ele>121.500000</ele>
  <time>2012-02-26T10:59:49Z</time>
  <sat>9</sat>
</trkpt>
<trkpt lat="39.714303000" lon="-0.349073000">
  <ele>120.000000</ele>
  <time>2012-02-26T10:59:50Z</time>
  <sat>9</sat>
</trkpt>
<trkpt lat="39.714295000" lon="-0.349111000">
  <ele>120.500000</ele>
  <time>2012-02-26T10:59:51Z</time>
  <sat>9</sat>
</trkpt>
<trkpt lat="39.714300000" lon="-0.349143000">
  <ele>120.500000</ele>
  <time>2012-02-26T10:59:52Z</time>
  <sat>10</sat>
</trkpt>
<trkpt lat="39.714315000" lon="-0.349184000">
  <ele>120.500000</ele>
  <time>2012-02-26T10:59:53Z</time>
  <sat>10</sat>
</trkpt>
<trkpt lat="39.714347000" lon="-0.349215000">
  <ele>120.600000</ele>
  <time>2012-02-26T10:59:54Z</time>
  <sat>10</sat>
</trkpt>
<trkpt lat="39.714472000" lon="-0.349361000">
  <ele>120.100000</ele>
  <time>2012-02-26T10:59:59Z</time>
  <sat>9</sat>
</trkpt>
<trkpt lat="39.714513000" lon="-0.349405000">
  <ele>120.000000</ele>
  <time>2012-02-26T11:00:01Z</time>
  <sat>7</sat>
</trkpt>
<trkpt lat="39.714540000" lon="-0.349418000">
  <ele>120.000000</ele>
  <time>2012-02-26T11:00:02Z</time>
  <sat>7</sat>
</trkpt>
<trkpt lat="39.714569000" lon="-0.349421000">
  <ele>120.000000</ele>
  <time>2012-02-26T11:00:03Z</time>
  <sat>8</sat>
</trkpt>
<trkpt lat="39.714749000" lon="-0.349451000">
  <ele>119.500000</ele>
  <time>2012-02-26T11:00:09Z</time>
  <sat>9</sat>
</trkpt>
<trkpt lat="39.714779000" lon="-0.349471000">
  <ele>119.400000</ele>
  <time>2012-02-26T11:00:10Z</time>
  <sat>9</sat>
</trkpt>
<trkpt lat="39.714825000" lon="-0.349543000">
  <ele>119.800000</ele>
  <time>2012-02-26T11:00:12Z</time>
  <sat>10</sat>
</trkpt>
<trkpt lat="39.714827000" lon="-0.349599000">
  <ele>119.600000</ele>
  <time>2012-02-26T11:00:13Z</time>
  <sat>10</sat>
</trkpt>
<trkpt lat="39.714786000" lon="-0.350440000">
  <ele>120.600000</ele>
  <time>2012-02-26T11:00:29Z</time>
  <sat>9</sat>
</trkpt>
<trkpt lat="39.714776000" lon="-0.350481000">
  <ele>120.600000</ele>
  <time>2012-02-26T11:00:30Z</time>
  <sat>9</sat>
</trkpt>
</trkseg>
</trk>
</gpx>
